<?xml version="1.0" encoding="UTF-8" standalone="no" ?>
<gpx xmlns="http://www.topografix.com/GPX/1/1" xmlns:xsi="http://www.w3.org/2001/XMLSchema-instance" xsi:schemaLocation="http://www.topografix.com/GPX/1/1 http://www.topografix.com/GPX/1/1/gpx.xsd" version="1.1" creator="VisuGPX - https://www.visugpx.com">
  <metadata>
    <name>Pornichet 18/09/2022</name>
    <desc><![CDATA[Sortie dimanche 18 septembre 2022]]></desc>
  </metadata>
  <trk>
    <name><![CDATA[Pornichet Cyclisme]]></name>
    <trkseg>
      <trkpt lat="47.26407" lon="-2.31583">
        <ele>9.7</ele>
        <time>2022-09-18T06:56:58.000Z</time>
      </trkpt>
      <trkpt lat="47.26407" lon="-2.31598">
        <ele>9.7</ele>
        <time>2022-09-18T06:57:01.000Z</time>
      </trkpt>
      <trkpt lat="47.26408" lon="-2.31603">
        <ele>-0.20000000298023</ele>
        <time>2022-09-18T06:57:02.000Z</time>
      </trkpt>
      <trkpt lat="47.26408" lon="-2.31618">
        <ele>-0.20000000298023</ele>
        <time>2022-09-18T06:57:05.000Z</time>
      </trkpt>
      <trkpt lat="47.2641" lon="-2.31654">
        <ele>-0.20000000298023</ele>
        <time>2022-09-18T06:57:12.000Z</time>
      </trkpt>
      <trkpt lat="47.26409" lon="-2.31662">
        <ele>-0.20000000298023</ele>
        <time>2022-09-18T06:57:14.000Z</time>
      </trkpt>
      <trkpt lat="47.26402" lon="-2.31665">
        <ele>-0.20000000298023</ele>
        <time>2022-09-18T06:57:16.000Z</time>
      </trkpt>
      <trkpt lat="47.26384" lon="-2.31676">
        <ele>-0.20000000298023</ele>
        <time>2022-09-18T06:57:21.000Z</time>
      </trkpt>
      <trkpt lat="47.26371" lon="-2.31684">
        <ele>-0.60000002384186</ele>
        <time>2022-09-18T06:57:24.000Z</time>
      </trkpt>
      <trkpt lat="47.26367" lon="-2.31686">
        <ele>-1</ele>
        <time>2022-09-18T06:57:25.000Z</time>
      </trkpt>
      <trkpt lat="47.26363" lon="-2.31689">
        <ele>-1.3999999761581</ele>
        <time>2022-09-18T06:57:26.000Z</time>
      </trkpt>
      <trkpt lat="47.26359" lon="-2.31691">
        <ele>-1.7999999523163</ele>
        <time>2022-09-18T06:57:27.000Z</time>
      </trkpt>
      <trkpt lat="47.26355" lon="-2.31693">
        <ele>-2.2000000476837</ele>
        <time>2022-09-18T06:57:28.000Z</time>
      </trkpt>
      <trkpt lat="47.26341" lon="-2.31702">
        <ele>-2.2000000476837</ele>
        <time>2022-09-18T06:57:31.000Z</time>
      </trkpt>
      <trkpt lat="47.26309" lon="-2.31715">
        <ele>-2.7999999523163</ele>
        <time>2022-09-18T06:57:37.000Z</time>
      </trkpt>
      <trkpt lat="47.26305" lon="-2.31718">
        <ele>-3.2000000476837</ele>
        <time>2022-09-18T06:57:38.000Z</time>
      </trkpt>
      <trkpt lat="47.26303" lon="-2.31723">
        <ele>-3.5999999046326</ele>
        <time>2022-09-18T06:57:39.000Z</time>
      </trkpt>
      <trkpt lat="47.26301" lon="-2.31728">
        <ele>-4</ele>
        <time>2022-09-18T06:57:40.000Z</time>
      </trkpt>
      <trkpt lat="47.26302" lon="-2.31733">
        <ele>-4.4000000953674</ele>
        <time>2022-09-18T06:57:41.000Z</time>
      </trkpt>
      <trkpt lat="47.26302" lon="-2.31739">
        <ele>-4.4000000953674</ele>
        <time>2022-09-18T06:57:42.000Z</time>
      </trkpt>
      <trkpt lat="47.26303" lon="-2.31744">
        <ele>-4.4000000953674</ele>
        <time>2022-09-18T06:57:43.000Z</time>
      </trkpt>
      <trkpt lat="47.26308" lon="-2.31777">
        <ele>-4.4000000953674</ele>
        <time>2022-09-18T06:57:49.000Z</time>
      </trkpt>
      <trkpt lat="47.26308" lon="-2.31782">
        <ele>-4.4000000953674</ele>
        <time>2022-09-18T06:57:50.000Z</time>
      </trkpt>
      <trkpt lat="47.2631" lon="-2.31793">
        <ele>-4.4000000953674</ele>
        <time>2022-09-18T06:57:52.000Z</time>
      </trkpt>
      <trkpt lat="47.26311" lon="-2.31804">
        <ele>-4.4000000953674</ele>
        <time>2022-09-18T06:57:54.000Z</time>
      </trkpt>
      <trkpt lat="47.26311" lon="-2.31838">
        <ele>-4.4000000953674</ele>
        <time>2022-09-18T06:58:00.000Z</time>
      </trkpt>
      <trkpt lat="47.26306" lon="-2.31869">
        <ele>-4.4000000953674</ele>
        <time>2022-09-18T06:58:05.000Z</time>
      </trkpt>
      <trkpt lat="47.26302" lon="-2.31883">
        <ele>-4.4000000953674</ele>
        <time>2022-09-18T06:58:08.000Z</time>
      </trkpt>
      <trkpt lat="47.263" lon="-2.31886">
        <ele>-4.4000000953674</ele>
        <time>2022-09-18T06:58:09.000Z</time>
      </trkpt>
      <trkpt lat="47.26283" lon="-2.31905">
        <ele>-4.4000000953674</ele>
        <time>2022-09-18T06:58:14.000Z</time>
      </trkpt>
      <trkpt lat="47.2627" lon="-2.3193">
        <ele>-4.8000001907349</ele>
        <time>2022-09-18T06:58:19.000Z</time>
      </trkpt>
      <trkpt lat="47.26267" lon="-2.31934">
        <ele>-5.4000000953674</ele>
        <time>2022-09-18T06:58:20.000Z</time>
      </trkpt>
      <trkpt lat="47.26264" lon="-2.31939">
        <ele>-5.8000001907349</ele>
        <time>2022-09-18T06:58:21.000Z</time>
      </trkpt>
      <trkpt lat="47.26262" lon="-2.31944">
        <ele>-6.1999998092651</ele>
        <time>2022-09-18T06:58:22.000Z</time>
      </trkpt>
      <trkpt lat="47.26259" lon="-2.31949">
        <ele>-6.5999999046326</ele>
        <time>2022-09-18T06:58:23.000Z</time>
      </trkpt>
      <trkpt lat="47.26257" lon="-2.31953">
        <ele>-6.5999999046326</ele>
        <time>2022-09-18T06:58:24.000Z</time>
      </trkpt>
      <trkpt lat="47.2625" lon="-2.31959">
        <ele>-6.5999999046326</ele>
        <time>2022-09-18T06:58:26.000Z</time>
      </trkpt>
      <trkpt lat="47.2624" lon="-2.31966">
        <ele>-6.5999999046326</ele>
        <time>2022-09-18T06:58:28.000Z</time>
      </trkpt>
      <trkpt lat="47.26229" lon="-2.31978">
        <ele>-6.5999999046326</ele>
        <time>2022-09-18T06:58:31.000Z</time>
      </trkpt>
      <trkpt lat="47.26226" lon="-2.31982">
        <ele>-6.5999999046326</ele>
        <time>2022-09-18T06:58:32.000Z</time>
      </trkpt>
      <trkpt lat="47.26222" lon="-2.31986">
        <ele>-6.5999999046326</ele>
        <time>2022-09-18T06:58:33.000Z</time>
      </trkpt>
      <trkpt lat="47.26205" lon="-2.32">
        <ele>-6.5999999046326</ele>
        <time>2022-09-18T06:58:38.000Z</time>
      </trkpt>
      <trkpt lat="47.26202" lon="-2.32005">
        <ele>-6.5999999046326</ele>
        <time>2022-09-18T06:58:39.000Z</time>
      </trkpt>
      <trkpt lat="47.26201" lon="-2.32014">
        <ele>-6.5999999046326</ele>
        <time>2022-09-18T06:58:41.000Z</time>
      </trkpt>
      <trkpt lat="47.26193" lon="-2.32022">
        <ele>-6.5999999046326</ele>
        <time>2022-09-18T06:58:45.000Z</time>
      </trkpt>
      <trkpt lat="47.2618" lon="-2.32022">
        <ele>-6.5999999046326</ele>
        <time>2022-09-18T06:58:49.000Z</time>
      </trkpt>
      <trkpt lat="47.26164" lon="-2.3203">
        <ele>-6.5999999046326</ele>
        <time>2022-09-18T06:58:54.000Z</time>
      </trkpt>
      <trkpt lat="47.26154" lon="-2.32049">
        <ele>-6.5999999046326</ele>
        <time>2022-09-18T06:58:58.000Z</time>
      </trkpt>
      <trkpt lat="47.26147" lon="-2.32076">
        <ele>-6.5999999046326</ele>
        <time>2022-09-18T06:59:03.000Z</time>
      </trkpt>
      <trkpt lat="47.26139" lon="-2.32112">
        <ele>-6.5999999046326</ele>
        <time>2022-09-18T06:59:09.000Z</time>
      </trkpt>
      <trkpt lat="47.26129" lon="-2.32141">
        <ele>-6.5999999046326</ele>
        <time>2022-09-18T06:59:14.000Z</time>
      </trkpt>
      <trkpt lat="47.26128" lon="-2.32147">
        <ele>-6.5999999046326</ele>
        <time>2022-09-18T06:59:15.000Z</time>
      </trkpt>
      <trkpt lat="47.26119" lon="-2.32169">
        <ele>-6.5999999046326</ele>
        <time>2022-09-18T06:59:19.000Z</time>
      </trkpt>
      <trkpt lat="47.26108" lon="-2.32189">
        <ele>-6.5999999046326</ele>
        <time>2022-09-18T06:59:23.000Z</time>
      </trkpt>
      <trkpt lat="47.26098" lon="-2.32211">
        <ele>-6.5999999046326</ele>
        <time>2022-09-18T06:59:27.000Z</time>
      </trkpt>
      <trkpt lat="47.26095" lon="-2.32215">
        <ele>-6.5999999046326</ele>
        <time>2022-09-18T06:59:28.000Z</time>
      </trkpt>
      <trkpt lat="47.26086" lon="-2.32229">
        <ele>-6.5999999046326</ele>
        <time>2022-09-18T06:59:31.000Z</time>
      </trkpt>
      <trkpt lat="47.26079" lon="-2.32238">
        <ele>-6.5999999046326</ele>
        <time>2022-09-18T06:59:33.000Z</time>
      </trkpt>
      <trkpt lat="47.26076" lon="-2.32241">
        <ele>-6.5999999046326</ele>
        <time>2022-09-18T06:59:34.000Z</time>
      </trkpt>
      <trkpt lat="47.26055" lon="-2.32266">
        <ele>-6.5999999046326</ele>
        <time>2022-09-18T06:59:40.000Z</time>
      </trkpt>
      <trkpt lat="47.26032" lon="-2.32291">
        <ele>-6.5999999046326</ele>
        <time>2022-09-18T06:59:46.000Z</time>
      </trkpt>
      <trkpt lat="47.26029" lon="-2.32295">
        <ele>-6.5999999046326</ele>
        <time>2022-09-18T06:59:47.000Z</time>
      </trkpt>
      <trkpt lat="47.26012" lon="-2.32315">
        <ele>-6.5999999046326</ele>
        <time>2022-09-18T06:59:52.000Z</time>
      </trkpt>
      <trkpt lat="47.26002" lon="-2.32328">
        <ele>-6.5999999046326</ele>
        <time>2022-09-18T06:59:55.000Z</time>
      </trkpt>
      <trkpt lat="47.25995" lon="-2.32337">
        <ele>-6.5999999046326</ele>
        <time>2022-09-18T06:59:57.000Z</time>
      </trkpt>
      <trkpt lat="47.25981" lon="-2.32353">
        <ele>-6.5999999046326</ele>
        <time>2022-09-18T07:00:01.000Z</time>
      </trkpt>
      <trkpt lat="47.25971" lon="-2.32366">
        <ele>-6.5999999046326</ele>
        <time>2022-09-18T07:00:04.000Z</time>
      </trkpt>
      <trkpt lat="47.25942" lon="-2.32404">
        <ele>-6.5999999046326</ele>
        <time>2022-09-18T07:00:13.000Z</time>
      </trkpt>
      <trkpt lat="47.25922" lon="-2.32429">
        <ele>-6.5999999046326</ele>
        <time>2022-09-18T07:00:19.000Z</time>
      </trkpt>
      <trkpt lat="47.25902" lon="-2.32457">
        <ele>-6.5999999046326</ele>
        <time>2022-09-18T07:00:26.000Z</time>
      </trkpt>
      <trkpt lat="47.25886" lon="-2.32473">
        <ele>-6.5999999046326</ele>
        <time>2022-09-18T07:00:32.000Z</time>
      </trkpt>
      <trkpt lat="47.25866" lon="-2.32478">
        <ele>-6.5999999046326</ele>
        <time>2022-09-18T07:00:37.000Z</time>
      </trkpt>
      <trkpt lat="47.25853" lon="-2.32478">
        <ele>-6.5999999046326</ele>
        <time>2022-09-18T07:00:40.000Z</time>
      </trkpt>
      <trkpt lat="47.25841" lon="-2.32475">
        <ele>-6.5999999046326</ele>
        <time>2022-09-18T07:00:43.000Z</time>
      </trkpt>
      <trkpt lat="47.25824" lon="-2.32467">
        <ele>-6.5999999046326</ele>
        <time>2022-09-18T07:00:47.000Z</time>
      </trkpt>
      <trkpt lat="47.25816" lon="-2.32462">
        <ele>-6.5999999046326</ele>
        <time>2022-09-18T07:00:49.000Z</time>
      </trkpt>
      <trkpt lat="47.25797" lon="-2.32455">
        <ele>-6.5999999046326</ele>
        <time>2022-09-18T07:00:55.000Z</time>
      </trkpt>
      <trkpt lat="47.25784" lon="-2.32459">
        <ele>-6.5999999046326</ele>
        <time>2022-09-18T07:01:00.000Z</time>
      </trkpt>
      <trkpt lat="47.25773" lon="-2.32443">
        <ele>-6.5999999046326</ele>
        <time>2022-09-18T07:01:04.000Z</time>
      </trkpt>
      <trkpt lat="47.25765" lon="-2.32429">
        <ele>-6.5999999046326</ele>
        <time>2022-09-18T07:01:07.000Z</time>
      </trkpt>
      <trkpt lat="47.25761" lon="-2.32427">
        <ele>-6.5999999046326</ele>
        <time>2022-09-18T07:01:08.000Z</time>
      </trkpt>
      <trkpt lat="47.25756" lon="-2.32425">
        <ele>-6.5999999046326</ele>
        <time>2022-09-18T07:01:09.000Z</time>
      </trkpt>
      <trkpt lat="47.25747" lon="-2.32425">
        <ele>-6.5999999046326</ele>
        <time>2022-09-18T07:01:11.000Z</time>
      </trkpt>
      <trkpt lat="47.25732" lon="-2.32424">
        <ele>-6.5999999046326</ele>
        <time>2022-09-18T07:01:14.000Z</time>
      </trkpt>
      <trkpt lat="47.25727" lon="-2.32424">
        <ele>-6.5999999046326</ele>
        <time>2022-09-18T07:01:15.000Z</time>
      </trkpt>
      <trkpt lat="47.25697" lon="-2.32422">
        <ele>-6.5999999046326</ele>
        <time>2022-09-18T07:01:21.000Z</time>
      </trkpt>
      <trkpt lat="47.25693" lon="-2.32422">
        <ele>-6.5999999046326</ele>
        <time>2022-09-18T07:01:22.000Z</time>
      </trkpt>
      <trkpt lat="47.25672" lon="-2.3242">
        <ele>-6.5999999046326</ele>
        <time>2022-09-18T07:01:27.000Z</time>
      </trkpt>
      <trkpt lat="47.25664" lon="-2.32424">
        <ele>-6.5999999046326</ele>
        <time>2022-09-18T07:01:29.000Z</time>
      </trkpt>
      <trkpt lat="47.25662" lon="-2.32429">
        <ele>-6.5999999046326</ele>
        <time>2022-09-18T07:01:30.000Z</time>
      </trkpt>
      <trkpt lat="47.25662" lon="-2.32448">
        <ele>-6.5999999046326</ele>
        <time>2022-09-18T07:01:33.000Z</time>
      </trkpt>
      <trkpt lat="47.25665" lon="-2.32459">
        <ele>-6.5999999046326</ele>
        <time>2022-09-18T07:01:35.000Z</time>
      </trkpt>
      <trkpt lat="47.25668" lon="-2.3247">
        <ele>-6.1999998092651</ele>
        <time>2022-09-18T07:01:37.000Z</time>
      </trkpt>
      <trkpt lat="47.25669" lon="-2.32475">
        <ele>-5.5999999046326</ele>
        <time>2022-09-18T07:01:38.000Z</time>
      </trkpt>
      <trkpt lat="47.25671" lon="-2.32481">
        <ele>-5.1999998092651</ele>
        <time>2022-09-18T07:01:39.000Z</time>
      </trkpt>
      <trkpt lat="47.25674" lon="-2.32486">
        <ele>-4.8000001907349</ele>
        <time>2022-09-18T07:01:40.000Z</time>
      </trkpt>
      <trkpt lat="47.25675" lon="-2.32492">
        <ele>-4.4000000953674</ele>
        <time>2022-09-18T07:01:41.000Z</time>
      </trkpt>
      <trkpt lat="47.25691" lon="-2.32541">
        <ele>-4.4000000953674</ele>
        <time>2022-09-18T07:01:50.000Z</time>
      </trkpt>
      <trkpt lat="47.25694" lon="-2.32551">
        <ele>-4</ele>
        <time>2022-09-18T07:01:52.000Z</time>
      </trkpt>
      <trkpt lat="47.25696" lon="-2.32556">
        <ele>-3.5999999046326</ele>
        <time>2022-09-18T07:01:53.000Z</time>
      </trkpt>
      <trkpt lat="47.25698" lon="-2.32561">
        <ele>-2.7999999523163</ele>
        <time>2022-09-18T07:01:54.000Z</time>
      </trkpt>
      <trkpt lat="47.257" lon="-2.32566">
        <ele>-2.4000000953674</ele>
        <time>2022-09-18T07:01:55.000Z</time>
      </trkpt>
      <trkpt lat="47.25703" lon="-2.32577">
        <ele>-2.4000000953674</ele>
        <time>2022-09-18T07:01:57.000Z</time>
      </trkpt>
      <trkpt lat="47.2571" lon="-2.32608">
        <ele>-2.4000000953674</ele>
        <time>2022-09-18T07:02:03.000Z</time>
      </trkpt>
      <trkpt lat="47.25707" lon="-2.32619">
        <ele>-2.4000000953674</ele>
        <time>2022-09-18T07:02:05.000Z</time>
      </trkpt>
      <trkpt lat="47.25704" lon="-2.32622">
        <ele>-2.4000000953674</ele>
        <time>2022-09-18T07:02:06.000Z</time>
      </trkpt>
      <trkpt lat="47.25693" lon="-2.32627">
        <ele>-2.4000000953674</ele>
        <time>2022-09-18T07:02:09.000Z</time>
      </trkpt>
      <trkpt lat="47.25689" lon="-2.32628">
        <ele>-2.4000000953674</ele>
        <time>2022-09-18T07:02:10.000Z</time>
      </trkpt>
      <trkpt lat="47.25685" lon="-2.3263">
        <ele>-1.7999999523163</ele>
        <time>2022-09-18T07:02:11.000Z</time>
      </trkpt>
      <trkpt lat="47.25682" lon="-2.32633">
        <ele>-1.3999999761581</ele>
        <time>2022-09-18T07:02:12.000Z</time>
      </trkpt>
      <trkpt lat="47.25678" lon="-2.32634">
        <ele>-1</ele>
        <time>2022-09-18T07:02:13.000Z</time>
      </trkpt>
      <trkpt lat="47.25675" lon="-2.32636">
        <ele>-0.60000002384186</ele>
        <time>2022-09-18T07:02:14.000Z</time>
      </trkpt>
      <trkpt lat="47.25672" lon="-2.32638">
        <ele>-0.20000000298023</ele>
        <time>2022-09-18T07:02:15.000Z</time>
      </trkpt>
      <trkpt lat="47.25665" lon="-2.32641">
        <ele>-0.20000000298023</ele>
        <time>2022-09-18T07:02:17.000Z</time>
      </trkpt>
      <trkpt lat="47.2564" lon="-2.32652">
        <ele>-0.20000000298023</ele>
        <time>2022-09-18T07:02:24.000Z</time>
      </trkpt>
      <trkpt lat="47.25623" lon="-2.32659">
        <ele>0.20000000298023</ele>
        <time>2022-09-18T07:02:29.000Z</time>
      </trkpt>
      <trkpt lat="47.2562" lon="-2.3266">
        <ele>0.60000002384186</ele>
        <time>2022-09-18T07:02:30.000Z</time>
      </trkpt>
      <trkpt lat="47.25616" lon="-2.32662">
        <ele>1</ele>
        <time>2022-09-18T07:02:31.000Z</time>
      </trkpt>
      <trkpt lat="47.25613" lon="-2.32664">
        <ele>1.3999999761581</ele>
        <time>2022-09-18T07:02:32.000Z</time>
      </trkpt>
      <trkpt lat="47.25609" lon="-2.32665">
        <ele>2</ele>
        <time>2022-09-18T07:02:33.000Z</time>
      </trkpt>
      <trkpt lat="47.25583" lon="-2.32677">
        <ele>2</ele>
        <time>2022-09-18T07:02:40.000Z</time>
      </trkpt>
      <trkpt lat="47.25543" lon="-2.32692">
        <ele>2</ele>
        <time>2022-09-18T07:02:50.000Z</time>
      </trkpt>
      <trkpt lat="47.25509" lon="-2.32701">
        <ele>2</ele>
        <time>2022-09-18T07:02:58.000Z</time>
      </trkpt>
      <trkpt lat="47.25486" lon="-2.32706">
        <ele>2</ele>
        <time>2022-09-18T07:03:04.000Z</time>
      </trkpt>
      <trkpt lat="47.25478" lon="-2.32712">
        <ele>2</ele>
        <time>2022-09-18T07:03:06.000Z</time>
      </trkpt>
      <trkpt lat="47.25468" lon="-2.32723">
        <ele>2</ele>
        <time>2022-09-18T07:03:09.000Z</time>
      </trkpt>
      <trkpt lat="47.25447" lon="-2.32753">
        <ele>2</ele>
        <time>2022-09-18T07:03:16.000Z</time>
      </trkpt>
      <trkpt lat="47.25433" lon="-2.3278">
        <ele>2</ele>
        <time>2022-09-18T07:03:22.000Z</time>
      </trkpt>
      <trkpt lat="47.25425" lon="-2.32793">
        <ele>2</ele>
        <time>2022-09-18T07:03:25.000Z</time>
      </trkpt>
      <trkpt lat="47.25422" lon="-2.32798">
        <ele>2</ele>
        <time>2022-09-18T07:03:26.000Z</time>
      </trkpt>
      <trkpt lat="47.25404" lon="-2.32823">
        <ele>2</ele>
        <time>2022-09-18T07:03:31.000Z</time>
      </trkpt>
      <trkpt lat="47.25379" lon="-2.32852">
        <ele>2</ele>
        <time>2022-09-18T07:03:37.000Z</time>
      </trkpt>
      <trkpt lat="47.25355" lon="-2.32877">
        <ele>2</ele>
        <time>2022-09-18T07:03:43.000Z</time>
      </trkpt>
      <trkpt lat="47.25326" lon="-2.32904">
        <ele>2</ele>
        <time>2022-09-18T07:03:50.000Z</time>
      </trkpt>
      <trkpt lat="47.25315" lon="-2.32915">
        <ele>1.3999999761581</ele>
        <time>2022-09-18T07:03:53.000Z</time>
      </trkpt>
      <trkpt lat="47.25311" lon="-2.32919">
        <ele>1</ele>
        <time>2022-09-18T07:03:54.000Z</time>
      </trkpt>
      <trkpt lat="47.25307" lon="-2.32923">
        <ele>0.60000002384186</ele>
        <time>2022-09-18T07:03:55.000Z</time>
      </trkpt>
      <trkpt lat="47.25304" lon="-2.32929">
        <ele>0.20000000298023</ele>
        <time>2022-09-18T07:03:56.000Z</time>
      </trkpt>
      <trkpt lat="47.25303" lon="-2.32935">
        <ele>-0.20000000298023</ele>
        <time>2022-09-18T07:03:57.000Z</time>
      </trkpt>
      <trkpt lat="47.25303" lon="-2.32941">
        <ele>-0.20000000298023</ele>
        <time>2022-09-18T07:03:58.000Z</time>
      </trkpt>
      <trkpt lat="47.25307" lon="-2.3296">
        <ele>-0.20000000298023</ele>
        <time>2022-09-18T07:04:01.000Z</time>
      </trkpt>
      <trkpt lat="47.25312" lon="-2.32971">
        <ele>-0.20000000298023</ele>
        <time>2022-09-18T07:04:03.000Z</time>
      </trkpt>
      <trkpt lat="47.25323" lon="-2.32993">
        <ele>-0.20000000298023</ele>
        <time>2022-09-18T07:04:07.000Z</time>
      </trkpt>
      <trkpt lat="47.25341" lon="-2.33032">
        <ele>-0.20000000298023</ele>
        <time>2022-09-18T07:04:14.000Z</time>
      </trkpt>
      <trkpt lat="47.25345" lon="-2.33043">
        <ele>-0.20000000298023</ele>
        <time>2022-09-18T07:04:16.000Z</time>
      </trkpt>
      <trkpt lat="47.25351" lon="-2.33059">
        <ele>-0.20000000298023</ele>
        <time>2022-09-18T07:04:19.000Z</time>
      </trkpt>
      <trkpt lat="47.25353" lon="-2.33065">
        <ele>-0.20000000298023</ele>
        <time>2022-09-18T07:04:20.000Z</time>
      </trkpt>
      <trkpt lat="47.25366" lon="-2.33096">
        <ele>-0.20000000298023</ele>
        <time>2022-09-18T07:04:27.000Z</time>
      </trkpt>
      <trkpt lat="47.25366" lon="-2.331">
        <ele>-0.20000000298023</ele>
        <time>2022-09-18T07:04:31.000Z</time>
      </trkpt>
      <trkpt lat="47.25366" lon="-2.33097">
        <ele>-0.20000000298023</ele>
        <time>2022-09-18T07:13:10.000Z</time>
      </trkpt>
      <trkpt lat="47.25367" lon="-2.33097">
        <ele>-0.20000000298023</ele>
        <time>2022-09-18T07:13:12.000Z</time>
      </trkpt>
      <trkpt lat="47.2537" lon="-2.33102">
        <ele>-0.20000000298023</ele>
        <time>2022-09-18T07:13:19.000Z</time>
      </trkpt>
      <trkpt lat="47.25371" lon="-2.33102">
        <ele>-0.20000000298023</ele>
        <time>2022-09-18T07:13:20.000Z</time>
      </trkpt>
      <trkpt lat="47.25372" lon="-2.33105">
        <ele>-0.20000000298023</ele>
        <time>2022-09-18T07:14:20.000Z</time>
      </trkpt>
      <trkpt lat="47.25373" lon="-2.33109">
        <ele>-0.20000000298023</ele>
        <time>2022-09-18T07:14:22.000Z</time>
      </trkpt>
      <trkpt lat="47.25375" lon="-2.33115">
        <ele>-0.20000000298023</ele>
        <time>2022-09-18T07:14:25.000Z</time>
      </trkpt>
      <trkpt lat="47.25379" lon="-2.33123">
        <ele>-0.20000000298023</ele>
        <time>2022-09-18T07:14:28.000Z</time>
      </trkpt>
      <trkpt lat="47.25387" lon="-2.33135">
        <ele>-0.20000000298023</ele>
        <time>2022-09-18T07:14:33.000Z</time>
      </trkpt>
      <trkpt lat="47.2539" lon="-2.33135">
        <ele>-0.20000000298023</ele>
        <time>2022-09-18T07:14:34.000Z</time>
      </trkpt>
      <trkpt lat="47.25407" lon="-2.33127">
        <ele>-0.20000000298023</ele>
        <time>2022-09-18T07:14:39.000Z</time>
      </trkpt>
      <trkpt lat="47.25436" lon="-2.33117">
        <ele>-0.20000000298023</ele>
        <time>2022-09-18T07:14:46.000Z</time>
      </trkpt>
      <trkpt lat="47.25479" lon="-2.33094">
        <ele>-0.20000000298023</ele>
        <time>2022-09-18T07:14:56.000Z</time>
      </trkpt>
      <trkpt lat="47.25483" lon="-2.33091">
        <ele>-0.20000000298023</ele>
        <time>2022-09-18T07:14:57.000Z</time>
      </trkpt>
      <trkpt lat="47.25498" lon="-2.33075">
        <ele>-0.20000000298023</ele>
        <time>2022-09-18T07:15:01.000Z</time>
      </trkpt>
      <trkpt lat="47.25514" lon="-2.33057">
        <ele>-0.20000000298023</ele>
        <time>2022-09-18T07:15:05.000Z</time>
      </trkpt>
      <trkpt lat="47.25522" lon="-2.3305">
        <ele>-0.20000000298023</ele>
        <time>2022-09-18T07:15:07.000Z</time>
      </trkpt>
      <trkpt lat="47.25531" lon="-2.33045">
        <ele>-0.20000000298023</ele>
        <time>2022-09-18T07:15:09.000Z</time>
      </trkpt>
      <trkpt lat="47.25544" lon="-2.33042">
        <ele>-0.20000000298023</ele>
        <time>2022-09-18T07:15:12.000Z</time>
      </trkpt>
      <trkpt lat="47.2557" lon="-2.33035">
        <ele>-0.20000000298023</ele>
        <time>2022-09-18T07:15:18.000Z</time>
      </trkpt>
      <trkpt lat="47.25587" lon="-2.33032">
        <ele>0.20000000298023</ele>
        <time>2022-09-18T07:15:22.000Z</time>
      </trkpt>
      <trkpt lat="47.25591" lon="-2.33032">
        <ele>0.60000002384186</ele>
        <time>2022-09-18T07:15:23.000Z</time>
      </trkpt>
      <trkpt lat="47.25595" lon="-2.33031">
        <ele>1.2000000476837</ele>
        <time>2022-09-18T07:15:24.000Z</time>
      </trkpt>
      <trkpt lat="47.25599" lon="-2.33031">
        <ele>1.6000000238419</ele>
        <time>2022-09-18T07:15:25.000Z</time>
      </trkpt>
      <trkpt lat="47.25603" lon="-2.3303">
        <ele>2</ele>
        <time>2022-09-18T07:15:26.000Z</time>
      </trkpt>
      <trkpt lat="47.25613" lon="-2.33019">
        <ele>2</ele>
        <time>2022-09-18T07:15:29.000Z</time>
      </trkpt>
      <trkpt lat="47.25614" lon="-2.33002">
        <ele>2</ele>
        <time>2022-09-18T07:15:32.000Z</time>
      </trkpt>
      <trkpt lat="47.25613" lon="-2.32996">
        <ele>2</ele>
        <time>2022-09-18T07:15:33.000Z</time>
      </trkpt>
      <trkpt lat="47.25609" lon="-2.32972">
        <ele>2.4000000953674</ele>
        <time>2022-09-18T07:15:37.000Z</time>
      </trkpt>
      <trkpt lat="47.25608" lon="-2.32966">
        <ele>2.7999999523163</ele>
        <time>2022-09-18T07:15:38.000Z</time>
      </trkpt>
      <trkpt lat="47.25607" lon="-2.3296">
        <ele>3.2000000476837</ele>
        <time>2022-09-18T07:15:39.000Z</time>
      </trkpt>
      <trkpt lat="47.25606" lon="-2.32955">
        <ele>3.5999999046326</ele>
        <time>2022-09-18T07:15:40.000Z</time>
      </trkpt>
      <trkpt lat="47.25605" lon="-2.32948">
        <ele>4</ele>
        <time>2022-09-18T07:15:41.000Z</time>
      </trkpt>
      <trkpt lat="47.25599" lon="-2.32912">
        <ele>4</ele>
        <time>2022-09-18T07:15:47.000Z</time>
      </trkpt>
      <trkpt lat="47.25592" lon="-2.32853">
        <ele>4</ele>
        <time>2022-09-18T07:15:57.000Z</time>
      </trkpt>
      <trkpt lat="47.2559" lon="-2.32829">
        <ele>4</ele>
        <time>2022-09-18T07:16:01.000Z</time>
      </trkpt>
      <trkpt lat="47.25592" lon="-2.32811">
        <ele>4</ele>
        <time>2022-09-18T07:16:04.000Z</time>
      </trkpt>
      <trkpt lat="47.25599" lon="-2.32769">
        <ele>4</ele>
        <time>2022-09-18T07:16:11.000Z</time>
      </trkpt>
      <trkpt lat="47.25602" lon="-2.32721">
        <ele>4</ele>
        <time>2022-09-18T07:16:19.000Z</time>
      </trkpt>
      <trkpt lat="47.25602" lon="-2.3268">
        <ele>4</ele>
        <time>2022-09-18T07:16:27.000Z</time>
      </trkpt>
      <trkpt lat="47.25607" lon="-2.32664">
        <ele>4</ele>
        <time>2022-09-18T07:16:31.000Z</time>
      </trkpt>
      <trkpt lat="47.25614" lon="-2.32659">
        <ele>4</ele>
        <time>2022-09-18T07:16:33.000Z</time>
      </trkpt>
      <trkpt lat="47.25622" lon="-2.32655">
        <ele>4</ele>
        <time>2022-09-18T07:16:35.000Z</time>
      </trkpt>
      <trkpt lat="47.25665" lon="-2.32637">
        <ele>4</ele>
        <time>2022-09-18T07:16:44.000Z</time>
      </trkpt>
      <trkpt lat="47.25694" lon="-2.32625">
        <ele>3.5999999046326</ele>
        <time>2022-09-18T07:16:50.000Z</time>
      </trkpt>
      <trkpt lat="47.25698" lon="-2.32623">
        <ele>3.2000000476837</ele>
        <time>2022-09-18T07:16:51.000Z</time>
      </trkpt>
      <trkpt lat="47.25702" lon="-2.32621">
        <ele>2.7999999523163</ele>
        <time>2022-09-18T07:16:52.000Z</time>
      </trkpt>
      <trkpt lat="47.25706" lon="-2.32618">
        <ele>2.4000000953674</ele>
        <time>2022-09-18T07:16:53.000Z</time>
      </trkpt>
      <trkpt lat="47.25708" lon="-2.32613">
        <ele>2</ele>
        <time>2022-09-18T07:16:54.000Z</time>
      </trkpt>
      <trkpt lat="47.25708" lon="-2.32607">
        <ele>2</ele>
        <time>2022-09-18T07:16:55.000Z</time>
      </trkpt>
      <trkpt lat="47.25706" lon="-2.32596">
        <ele>2</ele>
        <time>2022-09-18T07:16:57.000Z</time>
      </trkpt>
      <trkpt lat="47.25703" lon="-2.32585">
        <ele>2</ele>
        <time>2022-09-18T07:16:59.000Z</time>
      </trkpt>
      <trkpt lat="47.25689" lon="-2.32539">
        <ele>2</ele>
        <time>2022-09-18T07:17:07.000Z</time>
      </trkpt>
      <trkpt lat="47.25687" lon="-2.32533">
        <ele>1.6000000238419</ele>
        <time>2022-09-18T07:17:08.000Z</time>
      </trkpt>
      <trkpt lat="47.25685" lon="-2.32526">
        <ele>1.2000000476837</ele>
        <time>2022-09-18T07:17:09.000Z</time>
      </trkpt>
      <trkpt lat="47.25683" lon="-2.3252">
        <ele>0.80000001192093</ele>
        <time>2022-09-18T07:17:10.000Z</time>
      </trkpt>
      <trkpt lat="47.25681" lon="-2.32513">
        <ele>0.40000000596046</ele>
        <time>2022-09-18T07:17:11.000Z</time>
      </trkpt>
      <trkpt lat="47.25679" lon="-2.32506">
        <ele>7.3</ele>
        <time>2022-09-18T07:17:12.000Z</time>
      </trkpt>
      <trkpt lat="47.25671" lon="-2.32485">
        <ele>6.5</ele>
        <time>2022-09-18T07:17:15.000Z</time>
      </trkpt>
      <trkpt lat="47.2566" lon="-2.32449">
        <ele>5.4</ele>
        <time>2022-09-18T07:17:20.000Z</time>
      </trkpt>
      <trkpt lat="47.25658" lon="-2.32433">
        <ele>5.2</ele>
        <time>2022-09-18T07:17:22.000Z</time>
      </trkpt>
      <trkpt lat="47.25656" lon="-2.32426">
        <ele>-0.40000000596046</ele>
        <time>2022-09-18T07:17:23.000Z</time>
      </trkpt>
      <trkpt lat="47.25654" lon="-2.32419">
        <ele>-0.80000001192093</ele>
        <time>2022-09-18T07:17:24.000Z</time>
      </trkpt>
      <trkpt lat="47.25653" lon="-2.32413">
        <ele>-1.2000000476837</ele>
        <time>2022-09-18T07:17:25.000Z</time>
      </trkpt>
      <trkpt lat="47.25653" lon="-2.32407">
        <ele>-1.6000000238419</ele>
        <time>2022-09-18T07:17:26.000Z</time>
      </trkpt>
      <trkpt lat="47.25655" lon="-2.32402">
        <ele>-2.2000000476837</ele>
        <time>2022-09-18T07:17:27.000Z</time>
      </trkpt>
      <trkpt lat="47.25662" lon="-2.32402">
        <ele>-2.2000000476837</ele>
        <time>2022-09-18T07:17:29.000Z</time>
      </trkpt>
      <trkpt lat="47.25673" lon="-2.32415">
        <ele>-2.2000000476837</ele>
        <time>2022-09-18T07:17:32.000Z</time>
      </trkpt>
      <trkpt lat="47.25687" lon="-2.3242">
        <ele>-2.2000000476837</ele>
        <time>2022-09-18T07:17:35.000Z</time>
      </trkpt>
      <trkpt lat="47.25692" lon="-2.32421">
        <ele>-2.2000000476837</ele>
        <time>2022-09-18T07:17:36.000Z</time>
      </trkpt>
      <trkpt lat="47.25729" lon="-2.32423">
        <ele>-2.5999999046326</ele>
        <time>2022-09-18T07:17:43.000Z</time>
      </trkpt>
      <trkpt lat="47.25735" lon="-2.32423">
        <ele>-3</ele>
        <time>2022-09-18T07:17:44.000Z</time>
      </trkpt>
      <trkpt lat="47.2574" lon="-2.32423">
        <ele>-3.4000000953674</ele>
        <time>2022-09-18T07:17:45.000Z</time>
      </trkpt>
      <trkpt lat="47.25745" lon="-2.32423">
        <ele>-3.7999999523163</ele>
        <time>2022-09-18T07:17:46.000Z</time>
      </trkpt>
      <trkpt lat="47.2575" lon="-2.32422">
        <ele>-4.1999998092651</ele>
        <time>2022-09-18T07:17:47.000Z</time>
      </trkpt>
      <trkpt lat="47.2576" lon="-2.32419">
        <ele>-4.1999998092651</ele>
        <time>2022-09-18T07:17:49.000Z</time>
      </trkpt>
      <trkpt lat="47.25768" lon="-2.32414">
        <ele>-4.1999998092651</ele>
        <time>2022-09-18T07:17:51.000Z</time>
      </trkpt>
      <trkpt lat="47.25773" lon="-2.32412">
        <ele>-4.1999998092651</ele>
        <time>2022-09-18T07:17:52.000Z</time>
      </trkpt>
      <trkpt lat="47.25777" lon="-2.32413">
        <ele>-4.1999998092651</ele>
        <time>2022-09-18T07:17:53.000Z</time>
      </trkpt>
      <trkpt lat="47.25788" lon="-2.32428">
        <ele>-4.1999998092651</ele>
        <time>2022-09-18T07:17:56.000Z</time>
      </trkpt>
      <trkpt lat="47.258" lon="-2.32447">
        <ele>-4.1999998092651</ele>
        <time>2022-09-18T07:17:59.000Z</time>
      </trkpt>
      <trkpt lat="47.2581" lon="-2.32455">
        <ele>-4.1999998092651</ele>
        <time>2022-09-18T07:18:01.000Z</time>
      </trkpt>
      <trkpt lat="47.25848" lon="-2.32473">
        <ele>-4.1999998092651</ele>
        <time>2022-09-18T07:18:08.000Z</time>
      </trkpt>
      <trkpt lat="47.25864" lon="-2.32473">
        <ele>-4.1999998092651</ele>
        <time>2022-09-18T07:18:11.000Z</time>
      </trkpt>
      <trkpt lat="47.25874" lon="-2.32472">
        <ele>-4.1999998092651</ele>
        <time>2022-09-18T07:18:13.000Z</time>
      </trkpt>
      <trkpt lat="47.25888" lon="-2.32468">
        <ele>-4.1999998092651</ele>
        <time>2022-09-18T07:18:16.000Z</time>
      </trkpt>
      <trkpt lat="47.25898" lon="-2.3246">
        <ele>-4.1999998092651</ele>
        <time>2022-09-18T07:18:18.000Z</time>
      </trkpt>
      <trkpt lat="47.25928" lon="-2.32423">
        <ele>-4.1999998092651</ele>
        <time>2022-09-18T07:18:25.000Z</time>
      </trkpt>
      <trkpt lat="47.25952" lon="-2.3239">
        <ele>-4.1999998092651</ele>
        <time>2022-09-18T07:18:31.000Z</time>
      </trkpt>
      <trkpt lat="47.25956" lon="-2.32385">
        <ele>-4.1999998092651</ele>
        <time>2022-09-18T07:18:32.000Z</time>
      </trkpt>
      <trkpt lat="47.25984" lon="-2.32348">
        <ele>-4.1999998092651</ele>
        <time>2022-09-18T07:18:39.000Z</time>
      </trkpt>
      <trkpt lat="47.26016" lon="-2.32308">
        <ele>-4.1999998092651</ele>
        <time>2022-09-18T07:18:47.000Z</time>
      </trkpt>
      <trkpt lat="47.2602" lon="-2.32303">
        <ele>-4.1999998092651</ele>
        <time>2022-09-18T07:18:48.000Z</time>
      </trkpt>
      <trkpt lat="47.26037" lon="-2.32285">
        <ele>-4.1999998092651</ele>
        <time>2022-09-18T07:18:52.000Z</time>
      </trkpt>
      <trkpt lat="47.26065" lon="-2.32252">
        <ele>-4.1999998092651</ele>
        <time>2022-09-18T07:18:59.000Z</time>
      </trkpt>
      <trkpt lat="47.26091" lon="-2.3222">
        <ele>-4.1999998092651</ele>
        <time>2022-09-18T07:19:05.000Z</time>
      </trkpt>
      <trkpt lat="47.26101" lon="-2.32202">
        <ele>-4.1999998092651</ele>
        <time>2022-09-18T07:19:08.000Z</time>
      </trkpt>
      <trkpt lat="47.26106" lon="-2.32188">
        <ele>-4.1999998092651</ele>
        <time>2022-09-18T07:19:10.000Z</time>
      </trkpt>
      <trkpt lat="47.26115" lon="-2.32168">
        <ele>-4.1999998092651</ele>
        <time>2022-09-18T07:19:13.000Z</time>
      </trkpt>
      <trkpt lat="47.26122" lon="-2.32147">
        <ele>-4.1999998092651</ele>
        <time>2022-09-18T07:19:16.000Z</time>
      </trkpt>
      <trkpt lat="47.26136" lon="-2.32103">
        <ele>-4.1999998092651</ele>
        <time>2022-09-18T07:19:22.000Z</time>
      </trkpt>
      <trkpt lat="47.26147" lon="-2.32062">
        <ele>-4.1999998092651</ele>
        <time>2022-09-18T07:19:28.000Z</time>
      </trkpt>
      <trkpt lat="47.26156" lon="-2.32036">
        <ele>-4.1999998092651</ele>
        <time>2022-09-18T07:19:32.000Z</time>
      </trkpt>
      <trkpt lat="47.26161" lon="-2.32026">
        <ele>-4.1999998092651</ele>
        <time>2022-09-18T07:19:34.000Z</time>
      </trkpt>
      <trkpt lat="47.2617" lon="-2.32019">
        <ele>-4.1999998092651</ele>
        <time>2022-09-18T07:19:38.000Z</time>
      </trkpt>
      <trkpt lat="47.26175" lon="-2.3202">
        <ele>-4.1999998092651</ele>
        <time>2022-09-18T07:19:42.000Z</time>
      </trkpt>
      <trkpt lat="47.26178" lon="-2.32021">
        <ele>-4.1999998092651</ele>
        <time>2022-09-18T07:19:45.000Z</time>
      </trkpt>
      <trkpt lat="47.26187" lon="-2.32022">
        <ele>-4.1999998092651</ele>
        <time>2022-09-18T07:19:50.000Z</time>
      </trkpt>
      <trkpt lat="47.26194" lon="-2.3202">
        <ele>-4.1999998092651</ele>
        <time>2022-09-18T07:19:54.000Z</time>
      </trkpt>
      <trkpt lat="47.26195" lon="-2.32016">
        <ele>-4.1999998092651</ele>
        <time>2022-09-18T07:19:55.000Z</time>
      </trkpt>
      <trkpt lat="47.26199" lon="-2.32004">
        <ele>-4.1999998092651</ele>
        <time>2022-09-18T07:19:59.000Z</time>
      </trkpt>
      <trkpt lat="47.26209" lon="-2.31993">
        <ele>-4.1999998092651</ele>
        <time>2022-09-18T07:20:04.000Z</time>
      </trkpt>
      <trkpt lat="47.26222" lon="-2.31981">
        <ele>-4.1999998092651</ele>
        <time>2022-09-18T07:20:07.000Z</time>
      </trkpt>
      <trkpt lat="47.26227" lon="-2.31977">
        <ele>-4.1999998092651</ele>
        <time>2022-09-18T07:20:08.000Z</time>
      </trkpt>
      <trkpt lat="47.26246" lon="-2.31958">
        <ele>-4.1999998092651</ele>
        <time>2022-09-18T07:20:13.000Z</time>
      </trkpt>
      <trkpt lat="47.26257" lon="-2.31935">
        <ele>-4.1999998092651</ele>
        <time>2022-09-18T07:20:18.000Z</time>
      </trkpt>
      <trkpt lat="47.26271" lon="-2.31915">
        <ele>-4.1999998092651</ele>
        <time>2022-09-18T07:20:22.000Z</time>
      </trkpt>
      <trkpt lat="47.26274" lon="-2.31911">
        <ele>-4.1999998092651</ele>
        <time>2022-09-18T07:20:23.000Z</time>
      </trkpt>
      <trkpt lat="47.26289" lon="-2.319">
        <ele>-4.1999998092651</ele>
        <time>2022-09-18T07:20:28.000Z</time>
      </trkpt>
      <trkpt lat="47.26299" lon="-2.31912">
        <ele>-4.1999998092651</ele>
        <time>2022-09-18T07:20:33.000Z</time>
      </trkpt>
      <trkpt lat="47.26301" lon="-2.31915">
        <ele>-4.1999998092651</ele>
        <time>2022-09-18T07:20:34.000Z</time>
      </trkpt>
      <trkpt lat="47.26302" lon="-2.31918">
        <ele>-4.1999998092651</ele>
        <time>2022-09-18T07:20:35.000Z</time>
      </trkpt>
      <trkpt lat="47.26305" lon="-2.31926">
        <ele>-4.1999998092651</ele>
        <time>2022-09-18T07:20:38.000Z</time>
      </trkpt>
      <trkpt lat="47.26315" lon="-2.31927">
        <ele>-4.1999998092651</ele>
        <time>2022-09-18T07:20:42.000Z</time>
      </trkpt>
      <trkpt lat="47.26326" lon="-2.31927">
        <ele>-4.1999998092651</ele>
        <time>2022-09-18T07:20:45.000Z</time>
      </trkpt>
      <trkpt lat="47.2633" lon="-2.31928">
        <ele>-4.1999998092651</ele>
        <time>2022-09-18T07:20:46.000Z</time>
      </trkpt>
      <trkpt lat="47.26343" lon="-2.31946">
        <ele>-4.1999998092651</ele>
        <time>2022-09-18T07:20:50.000Z</time>
      </trkpt>
      <trkpt lat="47.26346" lon="-2.31951">
        <ele>-4.1999998092651</ele>
        <time>2022-09-18T07:20:51.000Z</time>
      </trkpt>
      <trkpt lat="47.26355" lon="-2.3197">
        <ele>-4.1999998092651</ele>
        <time>2022-09-18T07:20:55.000Z</time>
      </trkpt>
      <trkpt lat="47.2637" lon="-2.31981">
        <ele>-3.7999999523163</ele>
        <time>2022-09-18T07:21:00.000Z</time>
      </trkpt>
      <trkpt lat="47.26373" lon="-2.31982">
        <ele>-3.2000000476837</ele>
        <time>2022-09-18T07:21:01.000Z</time>
      </trkpt>
      <trkpt lat="47.26375" lon="-2.31983">
        <ele>-2.7999999523163</ele>
        <time>2022-09-18T07:21:02.000Z</time>
      </trkpt>
      <trkpt lat="47.26378" lon="-2.31984">
        <ele>-2.4000000953674</ele>
        <time>2022-09-18T07:21:03.000Z</time>
      </trkpt>
      <trkpt lat="47.26381" lon="-2.31985">
        <ele>-2</ele>
        <time>2022-09-18T07:21:04.000Z</time>
      </trkpt>
      <trkpt lat="47.26384" lon="-2.31986">
        <ele>-2</ele>
        <time>2022-09-18T07:21:05.000Z</time>
      </trkpt>
      <trkpt lat="47.26392" lon="-2.31988">
        <ele>-2</ele>
        <time>2022-09-18T07:21:08.000Z</time>
      </trkpt>
      <trkpt lat="47.26397" lon="-2.3199">
        <ele>-1.6000000238419</ele>
        <time>2022-09-18T07:21:10.000Z</time>
      </trkpt>
      <trkpt lat="47.26399" lon="-2.31991">
        <ele>-1.2000000476837</ele>
        <time>2022-09-18T07:21:11.000Z</time>
      </trkpt>
      <trkpt lat="47.26402" lon="-2.31993">
        <ele>-0.80000001192093</ele>
        <time>2022-09-18T07:21:12.000Z</time>
      </trkpt>
      <trkpt lat="47.26405" lon="-2.31994">
        <ele>-0.20000000298023</ele>
        <time>2022-09-18T07:21:13.000Z</time>
      </trkpt>
      <trkpt lat="47.26408" lon="-2.31995">
        <ele>0.20000000298023</ele>
        <time>2022-09-18T07:21:14.000Z</time>
      </trkpt>
      <trkpt lat="47.26411" lon="-2.31996">
        <ele>0.20000000298023</ele>
        <time>2022-09-18T07:21:15.000Z</time>
      </trkpt>
      <trkpt lat="47.26426" lon="-2.31999">
        <ele>0.20000000298023</ele>
        <time>2022-09-18T07:21:20.000Z</time>
      </trkpt>
      <trkpt lat="47.2643" lon="-2.32">
        <ele>0.60000002384186</ele>
        <time>2022-09-18T07:21:21.000Z</time>
      </trkpt>
      <trkpt lat="47.26433" lon="-2.32">
        <ele>1</ele>
        <time>2022-09-18T07:21:22.000Z</time>
      </trkpt>
      <trkpt lat="47.26437" lon="-2.32">
        <ele>1.3999999761581</ele>
        <time>2022-09-18T07:21:23.000Z</time>
      </trkpt>
      <trkpt lat="47.26441" lon="-2.32">
        <ele>1.7999999523163</ele>
        <time>2022-09-18T07:21:24.000Z</time>
      </trkpt>
      <trkpt lat="47.26445" lon="-2.32">
        <ele>2.2000000476837</ele>
        <time>2022-09-18T07:21:25.000Z</time>
      </trkpt>
      <trkpt lat="47.26452" lon="-2.32">
        <ele>2.2000000476837</ele>
        <time>2022-09-18T07:21:27.000Z</time>
      </trkpt>
      <trkpt lat="47.26463" lon="-2.31999">
        <ele>2.2000000476837</ele>
        <time>2022-09-18T07:21:31.000Z</time>
      </trkpt>
      <trkpt lat="47.2647" lon="-2.31998">
        <ele>2.5999999046326</ele>
        <time>2022-09-18T07:21:33.000Z</time>
      </trkpt>
      <trkpt lat="47.26472" lon="-2.31999">
        <ele>3</ele>
        <time>2022-09-18T07:21:34.000Z</time>
      </trkpt>
      <trkpt lat="47.26475" lon="-2.32">
        <ele>3.5999999046326</ele>
        <time>2022-09-18T07:21:35.000Z</time>
      </trkpt>
      <trkpt lat="47.26479" lon="-2.31999">
        <ele>4</ele>
        <time>2022-09-18T07:21:36.000Z</time>
      </trkpt>
      <trkpt lat="47.26482" lon="-2.31999">
        <ele>4.4000000953674</ele>
        <time>2022-09-18T07:21:37.000Z</time>
      </trkpt>
      <trkpt lat="47.26492" lon="-2.31999">
        <ele>4.4000000953674</ele>
        <time>2022-09-18T07:21:40.000Z</time>
      </trkpt>
      <trkpt lat="47.26502" lon="-2.31997">
        <ele>4.8000001907349</ele>
        <time>2022-09-18T07:21:44.000Z</time>
      </trkpt>
      <trkpt lat="47.26504" lon="-2.31997">
        <ele>5.1999998092651</ele>
        <time>2022-09-18T07:21:45.000Z</time>
      </trkpt>
      <trkpt lat="47.26507" lon="-2.31997">
        <ele>5.5999999046326</ele>
        <time>2022-09-18T07:21:46.000Z</time>
      </trkpt>
      <trkpt lat="47.26508" lon="-2.31996">
        <ele>6</ele>
        <time>2022-09-18T07:21:47.000Z</time>
      </trkpt>
      <trkpt lat="47.2651" lon="-2.31996">
        <ele>6.4000000953674</ele>
        <time>2022-09-18T07:21:48.000Z</time>
      </trkpt>
      <trkpt lat="47.26512" lon="-2.31996">
        <ele>6.4000000953674</ele>
        <time>2022-09-18T07:21:49.000Z</time>
      </trkpt>
      <trkpt lat="47.26516" lon="-2.31996">
        <ele>6.8000001907349</ele>
        <time>2022-09-18T07:21:51.000Z</time>
      </trkpt>
      <trkpt lat="47.26518" lon="-2.31996">
        <ele>7.4000000953674</ele>
        <time>2022-09-18T07:21:52.000Z</time>
      </trkpt>
      <trkpt lat="47.2652" lon="-2.31997">
        <ele>7.8000001907349</ele>
        <time>2022-09-18T07:21:53.000Z</time>
      </trkpt>
      <trkpt lat="47.26522" lon="-2.31998">
        <ele>8.1999998092651</ele>
        <time>2022-09-18T07:21:54.000Z</time>
      </trkpt>
      <trkpt lat="47.26523" lon="-2.32">
        <ele>8.6000003814697</ele>
        <time>2022-09-18T07:21:55.000Z</time>
      </trkpt>
      <trkpt lat="47.26536" lon="-2.32014">
        <ele>8.6000003814697</ele>
        <time>2022-09-18T07:22:02.000Z</time>
      </trkpt>
      <trkpt lat="47.26542" lon="-2.32029">
        <ele>8.6000003814697</ele>
        <time>2022-09-18T07:22:07.000Z</time>
      </trkpt>
      <trkpt lat="47.26544" lon="-2.32035">
        <ele>9</ele>
        <time>2022-09-18T07:22:09.000Z</time>
      </trkpt>
      <trkpt lat="47.26546" lon="-2.32036">
        <ele>9.3999996185303</ele>
        <time>2022-09-18T07:22:10.000Z</time>
      </trkpt>
      <trkpt lat="47.26549" lon="-2.32036">
        <ele>9.8000001907349</ele>
        <time>2022-09-18T07:22:11.000Z</time>
      </trkpt>
      <trkpt lat="47.26552" lon="-2.32035">
        <ele>10.39999961853</ele>
        <time>2022-09-18T07:22:12.000Z</time>
      </trkpt>
      <trkpt lat="47.26555" lon="-2.32034">
        <ele>10.800000190735</ele>
        <time>2022-09-18T07:22:13.000Z</time>
      </trkpt>
      <trkpt lat="47.26566" lon="-2.32032">
        <ele>10.800000190735</ele>
        <time>2022-09-18T07:22:16.000Z</time>
      </trkpt>
      <trkpt lat="47.26589" lon="-2.32023">
        <ele>11.199999809265</ele>
        <time>2022-09-18T07:22:23.000Z</time>
      </trkpt>
      <trkpt lat="47.26592" lon="-2.32021">
        <ele>11.60000038147</ele>
        <time>2022-09-18T07:22:24.000Z</time>
      </trkpt>
      <trkpt lat="47.26596" lon="-2.32021">
        <ele>12</ele>
        <time>2022-09-18T07:22:25.000Z</time>
      </trkpt>
      <trkpt lat="47.26599" lon="-2.3202">
        <ele>12.39999961853</ele>
        <time>2022-09-18T07:22:26.000Z</time>
      </trkpt>
      <trkpt lat="47.26602" lon="-2.32019">
        <ele>13</ele>
        <time>2022-09-18T07:22:27.000Z</time>
      </trkpt>
      <trkpt lat="47.26611" lon="-2.32016">
        <ele>13</ele>
        <time>2022-09-18T07:22:30.000Z</time>
      </trkpt>
      <trkpt lat="47.26632" lon="-2.32009">
        <ele>13</ele>
        <time>2022-09-18T07:22:37.000Z</time>
      </trkpt>
      <trkpt lat="47.26643" lon="-2.32007">
        <ele>13</ele>
        <time>2022-09-18T07:22:41.000Z</time>
      </trkpt>
      <trkpt lat="47.26645" lon="-2.3201">
        <ele>13</ele>
        <time>2022-09-18T07:22:42.000Z</time>
      </trkpt>
      <trkpt lat="47.26649" lon="-2.32021">
        <ele>13</ele>
        <time>2022-09-18T07:22:45.000Z</time>
      </trkpt>
      <trkpt lat="47.2665" lon="-2.32026">
        <ele>13</ele>
        <time>2022-09-18T07:22:46.000Z</time>
      </trkpt>
      <trkpt lat="47.26659" lon="-2.32056">
        <ele>13</ele>
        <time>2022-09-18T07:22:52.000Z</time>
      </trkpt>
      <trkpt lat="47.2667" lon="-2.32101">
        <ele>13</ele>
        <time>2022-09-18T07:23:00.000Z</time>
      </trkpt>
      <trkpt lat="47.26676" lon="-2.32121">
        <ele>13</ele>
        <time>2022-09-18T07:23:04.000Z</time>
      </trkpt>
      <trkpt lat="47.26678" lon="-2.32122">
        <ele>13</ele>
        <time>2022-09-18T07:23:05.000Z</time>
      </trkpt>
      <trkpt lat="47.26682" lon="-2.32115">
        <ele>13</ele>
        <time>2022-09-18T07:23:08.000Z</time>
      </trkpt>
      <trkpt lat="47.26683" lon="-2.32101">
        <ele>13</ele>
        <time>2022-09-18T07:23:11.000Z</time>
      </trkpt>
      <trkpt lat="47.26683" lon="-2.32086">
        <ele>13</ele>
        <time>2022-09-18T07:23:14.000Z</time>
      </trkpt>
      <trkpt lat="47.26684" lon="-2.32053">
        <ele>13</ele>
        <time>2022-09-18T07:23:21.000Z</time>
      </trkpt>
      <trkpt lat="47.26686" lon="-2.32035">
        <ele>13</ele>
        <time>2022-09-18T07:23:26.000Z</time>
      </trkpt>
      <trkpt lat="47.26696" lon="-2.32014">
        <ele>13</ele>
        <time>2022-09-18T07:23:31.000Z</time>
      </trkpt>
      <trkpt lat="47.26705" lon="-2.32002">
        <ele>13</ele>
        <time>2022-09-18T07:23:34.000Z</time>
      </trkpt>
      <trkpt lat="47.26714" lon="-2.31997">
        <ele>13</ele>
        <time>2022-09-18T07:23:36.000Z</time>
      </trkpt>
      <trkpt lat="47.26741" lon="-2.31978">
        <ele>13</ele>
        <time>2022-09-18T07:23:42.000Z</time>
      </trkpt>
      <trkpt lat="47.26748" lon="-2.3197">
        <ele>13</ele>
        <time>2022-09-18T07:23:44.000Z</time>
      </trkpt>
      <trkpt lat="47.26754" lon="-2.31959">
        <ele>13</ele>
        <time>2022-09-18T07:23:46.000Z</time>
      </trkpt>
      <trkpt lat="47.26759" lon="-2.31948">
        <ele>12.39999961853</ele>
        <time>2022-09-18T07:23:48.000Z</time>
      </trkpt>
      <trkpt lat="47.26763" lon="-2.31946">
        <ele>12</ele>
        <time>2022-09-18T07:23:49.000Z</time>
      </trkpt>
      <trkpt lat="47.26767" lon="-2.31947">
        <ele>11.60000038147</ele>
        <time>2022-09-18T07:23:50.000Z</time>
      </trkpt>
      <trkpt lat="47.2677" lon="-2.3195">
        <ele>11.199999809265</ele>
        <time>2022-09-18T07:23:51.000Z</time>
      </trkpt>
      <trkpt lat="47.26773" lon="-2.31955">
        <ele>10.60000038147</ele>
        <time>2022-09-18T07:23:52.000Z</time>
      </trkpt>
      <trkpt lat="47.26776" lon="-2.31962">
        <ele>10.60000038147</ele>
        <time>2022-09-18T07:23:53.000Z</time>
      </trkpt>
      <trkpt lat="47.26779" lon="-2.31969">
        <ele>10.60000038147</ele>
        <time>2022-09-18T07:23:54.000Z</time>
      </trkpt>
      <trkpt lat="47.26794" lon="-2.31998">
        <ele>10.199999809265</ele>
        <time>2022-09-18T07:23:58.000Z</time>
      </trkpt>
      <trkpt lat="47.26798" lon="-2.32006">
        <ele>9.8000001907349</ele>
        <time>2022-09-18T07:23:59.000Z</time>
      </trkpt>
      <trkpt lat="47.26802" lon="-2.32014">
        <ele>9.3999996185303</ele>
        <time>2022-09-18T07:24:00.000Z</time>
      </trkpt>
      <trkpt lat="47.26805" lon="-2.32023">
        <ele>9</ele>
        <time>2022-09-18T07:24:01.000Z</time>
      </trkpt>
      <trkpt lat="47.26809" lon="-2.32031">
        <ele>8.6000003814697</ele>
        <time>2022-09-18T07:24:02.000Z</time>
      </trkpt>
      <trkpt lat="47.26813" lon="-2.32049">
        <ele>8.6000003814697</ele>
        <time>2022-09-18T07:24:04.000Z</time>
      </trkpt>
      <trkpt lat="47.26823" lon="-2.32084">
        <ele>7.5999999046326</ele>
        <time>2022-09-18T07:24:08.000Z</time>
      </trkpt>
      <trkpt lat="47.26825" lon="-2.32093">
        <ele>7.1999998092651</ele>
        <time>2022-09-18T07:24:09.000Z</time>
      </trkpt>
      <trkpt lat="47.26827" lon="-2.32101">
        <ele>6.8000001907349</ele>
        <time>2022-09-18T07:24:10.000Z</time>
      </trkpt>
      <trkpt lat="47.26829" lon="-2.32109">
        <ele>6.4000000953674</ele>
        <time>2022-09-18T07:24:11.000Z</time>
      </trkpt>
      <trkpt lat="47.2684" lon="-2.3215">
        <ele>6.4000000953674</ele>
        <time>2022-09-18T07:24:16.000Z</time>
      </trkpt>
      <trkpt lat="47.26855" lon="-2.32191">
        <ele>6.4000000953674</ele>
        <time>2022-09-18T07:24:22.000Z</time>
      </trkpt>
      <trkpt lat="47.26861" lon="-2.32205">
        <ele>6</ele>
        <time>2022-09-18T07:24:24.000Z</time>
      </trkpt>
      <trkpt lat="47.26864" lon="-2.32211">
        <ele>5.4000000953674</ele>
        <time>2022-09-18T07:24:25.000Z</time>
      </trkpt>
      <trkpt lat="47.26868" lon="-2.32218">
        <ele>5</ele>
        <time>2022-09-18T07:24:26.000Z</time>
      </trkpt>
      <trkpt lat="47.26872" lon="-2.32224">
        <ele>4.5999999046326</ele>
        <time>2022-09-18T07:24:27.000Z</time>
      </trkpt>
      <trkpt lat="47.26875" lon="-2.3223">
        <ele>4</ele>
        <time>2022-09-18T07:24:28.000Z</time>
      </trkpt>
      <trkpt lat="47.26895" lon="-2.3226">
        <ele>3.2000000476837</ele>
        <time>2022-09-18T07:24:33.000Z</time>
      </trkpt>
      <trkpt lat="47.26898" lon="-2.32268">
        <ele>2.7999999523163</ele>
        <time>2022-09-18T07:24:34.000Z</time>
      </trkpt>
      <trkpt lat="47.26902" lon="-2.32276">
        <ele>2.4000000953674</ele>
        <time>2022-09-18T07:24:35.000Z</time>
      </trkpt>
      <trkpt lat="47.26906" lon="-2.32284">
        <ele>2</ele>
        <time>2022-09-18T07:24:36.000Z</time>
      </trkpt>
      <trkpt lat="47.26909" lon="-2.32292">
        <ele>2</ele>
        <time>2022-09-18T07:24:37.000Z</time>
      </trkpt>
      <trkpt lat="47.26912" lon="-2.32301">
        <ele>2</ele>
        <time>2022-09-18T07:24:38.000Z</time>
      </trkpt>
      <trkpt lat="47.26914" lon="-2.32309">
        <ele>2</ele>
        <time>2022-09-18T07:24:39.000Z</time>
      </trkpt>
      <trkpt lat="47.26917" lon="-2.32324">
        <ele>2</ele>
        <time>2022-09-18T07:24:41.000Z</time>
      </trkpt>
      <trkpt lat="47.26919" lon="-2.32331">
        <ele>2</ele>
        <time>2022-09-18T07:24:42.000Z</time>
      </trkpt>
      <trkpt lat="47.26921" lon="-2.32337">
        <ele>1.6000000238419</ele>
        <time>2022-09-18T07:24:43.000Z</time>
      </trkpt>
      <trkpt lat="47.26924" lon="-2.32343">
        <ele>1.2000000476837</ele>
        <time>2022-09-18T07:24:44.000Z</time>
      </trkpt>
      <trkpt lat="47.26928" lon="-2.32348">
        <ele>0.80000001192093</ele>
        <time>2022-09-18T07:24:45.000Z</time>
      </trkpt>
      <trkpt lat="47.26931" lon="-2.32353">
        <ele>0.40000000596046</ele>
        <time>2022-09-18T07:24:46.000Z</time>
      </trkpt>
      <trkpt lat="47.26934" lon="-2.3236">
        <ele>7.8</ele>
        <time>2022-09-18T07:24:47.000Z</time>
      </trkpt>
      <trkpt lat="47.26939" lon="-2.32378">
        <ele>7.5</ele>
        <time>2022-09-18T07:24:50.000Z</time>
      </trkpt>
      <trkpt lat="47.26952" lon="-2.32419">
        <ele>7.5</ele>
        <time>2022-09-18T07:24:56.000Z</time>
      </trkpt>
      <trkpt lat="47.26959" lon="-2.32432">
        <ele>7.2</ele>
        <time>2022-09-18T07:24:58.000Z</time>
      </trkpt>
      <trkpt lat="47.26972" lon="-2.32448">
        <ele>6.3</ele>
        <time>2022-09-18T07:25:01.000Z</time>
      </trkpt>
      <trkpt lat="47.26984" lon="-2.32467">
        <ele>-0.40000000596046</ele>
        <time>2022-09-18T07:25:04.000Z</time>
      </trkpt>
      <trkpt lat="47.26987" lon="-2.32473">
        <ele>-0.80000001192093</ele>
        <time>2022-09-18T07:25:05.000Z</time>
      </trkpt>
      <trkpt lat="47.2699" lon="-2.32481">
        <ele>-1.2000000476837</ele>
        <time>2022-09-18T07:25:06.000Z</time>
      </trkpt>
      <trkpt lat="47.26993" lon="-2.32489">
        <ele>-1.6000000238419</ele>
        <time>2022-09-18T07:25:07.000Z</time>
      </trkpt>
      <trkpt lat="47.26997" lon="-2.32496">
        <ele>-2</ele>
        <time>2022-09-18T07:25:08.000Z</time>
      </trkpt>
      <trkpt lat="47.27" lon="-2.32502">
        <ele>-2</ele>
        <time>2022-09-18T07:25:09.000Z</time>
      </trkpt>
      <trkpt lat="47.27009" lon="-2.32507">
        <ele>-2</ele>
        <time>2022-09-18T07:25:11.000Z</time>
      </trkpt>
      <trkpt lat="47.27021" lon="-2.325">
        <ele>-2</ele>
        <time>2022-09-18T07:25:14.000Z</time>
      </trkpt>
      <trkpt lat="47.27027" lon="-2.3248">
        <ele>-2.4000000953674</ele>
        <time>2022-09-18T07:25:17.000Z</time>
      </trkpt>
      <trkpt lat="47.27027" lon="-2.32472">
        <ele>-2.7999999523163</ele>
        <time>2022-09-18T07:25:18.000Z</time>
      </trkpt>
      <trkpt lat="47.27027" lon="-2.32463">
        <ele>-3.2000000476837</ele>
        <time>2022-09-18T07:25:19.000Z</time>
      </trkpt>
      <trkpt lat="47.27027" lon="-2.32454">
        <ele>-3.5999999046326</ele>
        <time>2022-09-18T07:25:20.000Z</time>
      </trkpt>
      <trkpt lat="47.27027" lon="-2.32446">
        <ele>-4</ele>
        <time>2022-09-18T07:25:21.000Z</time>
      </trkpt>
      <trkpt lat="47.27026" lon="-2.32437">
        <ele>-4</ele>
        <time>2022-09-18T07:25:22.000Z</time>
      </trkpt>
      <trkpt lat="47.27024" lon="-2.32422">
        <ele>-4</ele>
        <time>2022-09-18T07:25:24.000Z</time>
      </trkpt>
      <trkpt lat="47.27022" lon="-2.32406">
        <ele>-4</ele>
        <time>2022-09-18T07:25:26.000Z</time>
      </trkpt>
      <trkpt lat="47.27022" lon="-2.3239">
        <ele>-4</ele>
        <time>2022-09-18T07:25:28.000Z</time>
      </trkpt>
      <trkpt lat="47.2702" lon="-2.32374">
        <ele>-4</ele>
        <time>2022-09-18T07:25:30.000Z</time>
      </trkpt>
      <trkpt lat="47.27019" lon="-2.32358">
        <ele>-4</ele>
        <time>2022-09-18T07:25:32.000Z</time>
      </trkpt>
      <trkpt lat="47.27018" lon="-2.32327">
        <ele>-4</ele>
        <time>2022-09-18T07:25:36.000Z</time>
      </trkpt>
      <trkpt lat="47.27018" lon="-2.32311">
        <ele>-4</ele>
        <time>2022-09-18T07:25:38.000Z</time>
      </trkpt>
      <trkpt lat="47.27016" lon="-2.32289">
        <ele>-4</ele>
        <time>2022-09-18T07:25:41.000Z</time>
      </trkpt>
      <trkpt lat="47.27017" lon="-2.32281">
        <ele>-4</ele>
        <time>2022-09-18T07:25:42.000Z</time>
      </trkpt>
      <trkpt lat="47.27018" lon="-2.3226">
        <ele>-4</ele>
        <time>2022-09-18T07:25:45.000Z</time>
      </trkpt>
      <trkpt lat="47.27019" lon="-2.32244">
        <ele>-4</ele>
        <time>2022-09-18T07:25:47.000Z</time>
      </trkpt>
      <trkpt lat="47.27016" lon="-2.32221">
        <ele>-4</ele>
        <time>2022-09-18T07:25:50.000Z</time>
      </trkpt>
      <trkpt lat="47.27014" lon="-2.32214">
        <ele>-4</ele>
        <time>2022-09-18T07:25:51.000Z</time>
      </trkpt>
      <trkpt lat="47.27003" lon="-2.32186">
        <ele>-4</ele>
        <time>2022-09-18T07:25:55.000Z</time>
      </trkpt>
      <trkpt lat="47.27" lon="-2.32179">
        <ele>-4</ele>
        <time>2022-09-18T07:25:56.000Z</time>
      </trkpt>
      <trkpt lat="47.26989" lon="-2.3216">
        <ele>-4</ele>
        <time>2022-09-18T07:25:59.000Z</time>
      </trkpt>
      <trkpt lat="47.26987" lon="-2.32145">
        <ele>-4</ele>
        <time>2022-09-18T07:26:01.000Z</time>
      </trkpt>
      <trkpt lat="47.26995" lon="-2.32132">
        <ele>-4</ele>
        <time>2022-09-18T07:26:04.000Z</time>
      </trkpt>
      <trkpt lat="47.27008" lon="-2.32114">
        <ele>-4</ele>
        <time>2022-09-18T07:26:08.000Z</time>
      </trkpt>
      <trkpt lat="47.27011" lon="-2.32103">
        <ele>-4</ele>
        <time>2022-09-18T07:26:10.000Z</time>
      </trkpt>
      <trkpt lat="47.27012" lon="-2.3209">
        <ele>-4</ele>
        <time>2022-09-18T07:26:12.000Z</time>
      </trkpt>
      <trkpt lat="47.27013" lon="-2.32083">
        <ele>-4</ele>
        <time>2022-09-18T07:26:13.000Z</time>
      </trkpt>
      <trkpt lat="47.27014" lon="-2.32063">
        <ele>-3.5999999046326</ele>
        <time>2022-09-18T07:26:16.000Z</time>
      </trkpt>
      <trkpt lat="47.27014" lon="-2.32056">
        <ele>-3.2000000476837</ele>
        <time>2022-09-18T07:26:17.000Z</time>
      </trkpt>
      <trkpt lat="47.27014" lon="-2.3205">
        <ele>-2.7999999523163</ele>
        <time>2022-09-18T07:26:18.000Z</time>
      </trkpt>
      <trkpt lat="47.27013" lon="-2.32044">
        <ele>-2.4000000953674</ele>
        <time>2022-09-18T07:26:19.000Z</time>
      </trkpt>
      <trkpt lat="47.27012" lon="-2.32039">
        <ele>-2</ele>
        <time>2022-09-18T07:26:20.000Z</time>
      </trkpt>
      <trkpt lat="47.27005" lon="-2.32013">
        <ele>-2</ele>
        <time>2022-09-18T07:26:25.000Z</time>
      </trkpt>
      <trkpt lat="47.27003" lon="-2.32009">
        <ele>-1.6000000238419</ele>
        <time>2022-09-18T07:26:26.000Z</time>
      </trkpt>
      <trkpt lat="47.27001" lon="-2.32005">
        <ele>-1.2000000476837</ele>
        <time>2022-09-18T07:26:27.000Z</time>
      </trkpt>
      <trkpt lat="47.27001" lon="-2.32">
        <ele>-0.80000001192093</ele>
        <time>2022-09-18T07:26:28.000Z</time>
      </trkpt>
      <trkpt lat="47.27001" lon="-2.31994">
        <ele>-0.40000000596046</ele>
        <time>2022-09-18T07:26:29.000Z</time>
      </trkpt>
      <trkpt lat="47.27002" lon="-2.31988">
        <ele>9.4</ele>
        <time>2022-09-18T07:26:30.000Z</time>
      </trkpt>
      <trkpt lat="47.27008" lon="-2.31981">
        <ele>9.5</ele>
        <time>2022-09-18T07:26:32.000Z</time>
      </trkpt>
      <trkpt lat="47.27015" lon="-2.31977">
        <ele>9.4</ele>
        <time>2022-09-18T07:26:34.000Z</time>
      </trkpt>
      <trkpt lat="47.27024" lon="-2.31971">
        <ele>9.4</ele>
        <time>2022-09-18T07:26:37.000Z</time>
      </trkpt>
      <trkpt lat="47.27044" lon="-2.31958">
        <ele>10</ele>
        <time>2022-09-18T07:26:43.000Z</time>
      </trkpt>
      <trkpt lat="47.2706" lon="-2.3196">
        <ele>8.8</ele>
        <time>2022-09-18T07:26:47.000Z</time>
      </trkpt>
      <trkpt lat="47.27068" lon="-2.3196">
        <ele>8.6</ele>
        <time>2022-09-18T07:26:51.000Z</time>
      </trkpt>
      <trkpt lat="47.27069" lon="-2.31958">
        <ele>8.5</ele>
        <time>2022-09-18T07:26:52.000Z</time>
      </trkpt>
      <trkpt lat="47.2707" lon="-2.31949">
        <ele>8.5</ele>
        <time>2022-09-18T07:26:55.000Z</time>
      </trkpt>
      <trkpt lat="47.27069" lon="-2.31935">
        <ele>8.9</ele>
        <time>2022-09-18T07:26:59.000Z</time>
      </trkpt>
      <trkpt lat="47.27069" lon="-2.31931">
        <ele>9</ele>
        <time>2022-09-18T07:27:00.000Z</time>
      </trkpt>
      <trkpt lat="47.27068" lon="-2.31911">
        <ele>9.8</ele>
        <time>2022-09-18T07:27:05.000Z</time>
      </trkpt>
      <trkpt lat="47.2707" lon="-2.31889">
        <ele>10.4</ele>
        <time>2022-09-18T07:27:10.000Z</time>
      </trkpt>
      <trkpt lat="47.27071" lon="-2.31879">
        <ele>10.4</ele>
        <time>2022-09-18T07:27:13.000Z</time>
      </trkpt>
      <trkpt lat="47.27073" lon="-2.31871">
        <ele>10.3</ele>
        <time>2022-09-18T07:27:15.000Z</time>
      </trkpt>
      <trkpt lat="47.27069" lon="-2.31862">
        <ele>10.5</ele>
        <time>2022-09-18T07:27:18.000Z</time>
      </trkpt>
      <trkpt lat="47.27063" lon="-2.31856">
        <ele>0.40000000596046</ele>
        <time>2022-09-18T07:27:20.000Z</time>
      </trkpt>
      <trkpt lat="47.2706" lon="-2.31853">
        <ele>0.80000001192093</ele>
        <time>2022-09-18T07:27:21.000Z</time>
      </trkpt>
      <trkpt lat="47.27059" lon="-2.31848">
        <ele>1.3999999761581</ele>
        <time>2022-09-18T07:27:22.000Z</time>
      </trkpt>
      <trkpt lat="47.27058" lon="-2.31843">
        <ele>1.7999999523163</ele>
        <time>2022-09-18T07:27:23.000Z</time>
      </trkpt>
      <trkpt lat="47.27058" lon="-2.31839">
        <ele>2.2000000476837</ele>
        <time>2022-09-18T07:27:24.000Z</time>
      </trkpt>
      <trkpt lat="47.27057" lon="-2.31829">
        <ele>2.2000000476837</ele>
        <time>2022-09-18T07:27:26.000Z</time>
      </trkpt>
      <trkpt lat="47.27056" lon="-2.31824">
        <ele>2.2000000476837</ele>
        <time>2022-09-18T07:27:27.000Z</time>
      </trkpt>
      <trkpt lat="47.27054" lon="-2.31799">
        <ele>2.2000000476837</ele>
        <time>2022-09-18T07:27:32.000Z</time>
      </trkpt>
      <trkpt lat="47.27052" lon="-2.31777">
        <ele>2.5999999046326</ele>
        <time>2022-09-18T07:27:37.000Z</time>
      </trkpt>
      <trkpt lat="47.27051" lon="-2.31773">
        <ele>3</ele>
        <time>2022-09-18T07:27:38.000Z</time>
      </trkpt>
      <trkpt lat="47.2705" lon="-2.31768">
        <ele>3.4000000953674</ele>
        <time>2022-09-18T07:27:39.000Z</time>
      </trkpt>
      <trkpt lat="47.2705" lon="-2.31764">
        <ele>4</ele>
        <time>2022-09-18T07:27:40.000Z</time>
      </trkpt>
      <trkpt lat="47.27049" lon="-2.3176">
        <ele>4.4000000953674</ele>
        <time>2022-09-18T07:27:41.000Z</time>
      </trkpt>
      <trkpt lat="47.27049" lon="-2.31753">
        <ele>4.4000000953674</ele>
        <time>2022-09-18T07:27:43.000Z</time>
      </trkpt>
      <trkpt lat="47.27051" lon="-2.31745">
        <ele>4.4000000953674</ele>
        <time>2022-09-18T07:27:46.000Z</time>
      </trkpt>
      <trkpt lat="47.27051" lon="-2.31743">
        <ele>4.4000000953674</ele>
        <time>2022-09-18T07:27:47.000Z</time>
      </trkpt>
      <trkpt lat="47.27043" lon="-2.31732">
        <ele>4.4000000953674</ele>
        <time>2022-09-18T07:27:51.000Z</time>
      </trkpt>
      <trkpt lat="47.27031" lon="-2.31722">
        <ele>4.4000000953674</ele>
        <time>2022-09-18T07:27:55.000Z</time>
      </trkpt>
      <trkpt lat="47.27029" lon="-2.3172">
        <ele>4.4000000953674</ele>
        <time>2022-09-18T07:27:56.000Z</time>
      </trkpt>
      <trkpt lat="47.27024" lon="-2.31712">
        <ele>4.4000000953674</ele>
        <time>2022-09-18T07:27:59.000Z</time>
      </trkpt>
      <trkpt lat="47.27024" lon="-2.31709">
        <ele>4.4000000953674</ele>
        <time>2022-09-18T07:28:00.000Z</time>
      </trkpt>
      <trkpt lat="47.27025" lon="-2.31696">
        <ele>4.8000001907349</ele>
        <time>2022-09-18T07:28:03.000Z</time>
      </trkpt>
      <trkpt lat="47.27026" lon="-2.31692">
        <ele>5.1999998092651</ele>
        <time>2022-09-18T07:28:04.000Z</time>
      </trkpt>
      <trkpt lat="47.27027" lon="-2.31687">
        <ele>5.5999999046326</ele>
        <time>2022-09-18T07:28:05.000Z</time>
      </trkpt>
      <trkpt lat="47.27029" lon="-2.31681">
        <ele>6</ele>
        <time>2022-09-18T07:28:06.000Z</time>
      </trkpt>
      <trkpt lat="47.27029" lon="-2.31677">
        <ele>6.5999999046326</ele>
        <time>2022-09-18T07:28:07.000Z</time>
      </trkpt>
      <trkpt lat="47.27031" lon="-2.31664">
        <ele>6.5999999046326</ele>
        <time>2022-09-18T07:28:10.000Z</time>
      </trkpt>
      <trkpt lat="47.27029" lon="-2.3164">
        <ele>7</ele>
        <time>2022-09-18T07:28:15.000Z</time>
      </trkpt>
      <trkpt lat="47.27029" lon="-2.31636">
        <ele>7.4000000953674</ele>
        <time>2022-09-18T07:28:16.000Z</time>
      </trkpt>
      <trkpt lat="47.27028" lon="-2.31632">
        <ele>7.8000001907349</ele>
        <time>2022-09-18T07:28:17.000Z</time>
      </trkpt>
      <trkpt lat="47.27028" lon="-2.31628">
        <ele>8.1999998092651</ele>
        <time>2022-09-18T07:28:18.000Z</time>
      </trkpt>
      <trkpt lat="47.27028" lon="-2.31625">
        <ele>8.6000003814697</ele>
        <time>2022-09-18T07:28:19.000Z</time>
      </trkpt>
      <trkpt lat="47.27026" lon="-2.31613">
        <ele>8.6000003814697</ele>
        <time>2022-09-18T07:28:22.000Z</time>
      </trkpt>
      <trkpt lat="47.27023" lon="-2.31602">
        <ele>9</ele>
        <time>2022-09-18T07:28:26.000Z</time>
      </trkpt>
      <trkpt lat="47.27022" lon="-2.31598">
        <ele>9.3999996185303</ele>
        <time>2022-09-18T07:28:27.000Z</time>
      </trkpt>
      <trkpt lat="47.27021" lon="-2.31594">
        <ele>9.8000001907349</ele>
        <time>2022-09-18T07:28:28.000Z</time>
      </trkpt>
      <trkpt lat="47.27019" lon="-2.3159">
        <ele>10.39999961853</ele>
        <time>2022-09-18T07:28:29.000Z</time>
      </trkpt>
      <trkpt lat="47.27018" lon="-2.31586">
        <ele>10.800000190735</ele>
        <time>2022-09-18T07:28:30.000Z</time>
      </trkpt>
      <trkpt lat="47.27014" lon="-2.31576">
        <ele>10.800000190735</ele>
        <time>2022-09-18T07:28:33.000Z</time>
      </trkpt>
      <trkpt lat="47.27009" lon="-2.31562">
        <ele>11.199999809265</ele>
        <time>2022-09-18T07:28:37.000Z</time>
      </trkpt>
      <trkpt lat="47.27008" lon="-2.31558">
        <ele>11.60000038147</ele>
        <time>2022-09-18T07:28:38.000Z</time>
      </trkpt>
      <trkpt lat="47.27007" lon="-2.31554">
        <ele>12.39999961853</ele>
        <time>2022-09-18T07:28:39.000Z</time>
      </trkpt>
      <trkpt lat="47.27006" lon="-2.3155">
        <ele>12.800000190735</ele>
        <time>2022-09-18T07:28:40.000Z</time>
      </trkpt>
      <trkpt lat="47.27001" lon="-2.31534">
        <ele>12.800000190735</ele>
        <time>2022-09-18T07:28:44.000Z</time>
      </trkpt>
      <trkpt lat="47.26997" lon="-2.31513">
        <ele>12.800000190735</ele>
        <time>2022-09-18T07:28:49.000Z</time>
      </trkpt>
      <trkpt lat="47.26994" lon="-2.31506">
        <ele>13.199999809265</ele>
        <time>2022-09-18T07:28:51.000Z</time>
      </trkpt>
      <trkpt lat="47.26993" lon="-2.31503">
        <ele>13.60000038147</ele>
        <time>2022-09-18T07:28:52.000Z</time>
      </trkpt>
      <trkpt lat="47.26992" lon="-2.31499">
        <ele>14.199999809265</ele>
        <time>2022-09-18T07:28:53.000Z</time>
      </trkpt>
      <trkpt lat="47.26992" lon="-2.31496">
        <ele>14.60000038147</ele>
        <time>2022-09-18T07:28:54.000Z</time>
      </trkpt>
      <trkpt lat="47.26991" lon="-2.31492">
        <ele>15</ele>
        <time>2022-09-18T07:28:55.000Z</time>
      </trkpt>
      <trkpt lat="47.26988" lon="-2.31467">
        <ele>15</ele>
        <time>2022-09-18T07:29:01.000Z</time>
      </trkpt>
      <trkpt lat="47.26986" lon="-2.31449">
        <ele>15.39999961853</ele>
        <time>2022-09-18T07:29:05.000Z</time>
      </trkpt>
      <trkpt lat="47.26986" lon="-2.31444">
        <ele>15.800000190735</ele>
        <time>2022-09-18T07:29:06.000Z</time>
      </trkpt>
      <trkpt lat="47.26986" lon="-2.31438">
        <ele>16.200000762939</ele>
        <time>2022-09-18T07:29:07.000Z</time>
      </trkpt>
      <trkpt lat="47.26986" lon="-2.31433">
        <ele>16.60000038147</ele>
        <time>2022-09-18T07:29:08.000Z</time>
      </trkpt>
      <trkpt lat="47.26985" lon="-2.31429">
        <ele>17</ele>
        <time>2022-09-18T07:29:09.000Z</time>
      </trkpt>
      <trkpt lat="47.26982" lon="-2.31411">
        <ele>17</ele>
        <time>2022-09-18T07:29:13.000Z</time>
      </trkpt>
      <trkpt lat="47.26982" lon="-2.31389">
        <ele>17</ele>
        <time>2022-09-18T07:29:18.000Z</time>
      </trkpt>
      <trkpt lat="47.26981" lon="-2.31377">
        <ele>17.39999961853</ele>
        <time>2022-09-18T07:29:21.000Z</time>
      </trkpt>
      <trkpt lat="47.2698" lon="-2.31373">
        <ele>17.799999237061</ele>
        <time>2022-09-18T07:29:22.000Z</time>
      </trkpt>
      <trkpt lat="47.2698" lon="-2.31369">
        <ele>18.200000762939</ele>
        <time>2022-09-18T07:29:23.000Z</time>
      </trkpt>
      <trkpt lat="47.2698" lon="-2.31366">
        <ele>18.60000038147</ele>
        <time>2022-09-18T07:29:24.000Z</time>
      </trkpt>
      <trkpt lat="47.2698" lon="-2.31362">
        <ele>19.200000762939</ele>
        <time>2022-09-18T07:29:25.000Z</time>
      </trkpt>
      <trkpt lat="47.26978" lon="-2.31339">
        <ele>19.200000762939</ele>
        <time>2022-09-18T07:29:30.000Z</time>
      </trkpt>
      <trkpt lat="47.26975" lon="-2.31316">
        <ele>19.200000762939</ele>
        <time>2022-09-18T07:29:35.000Z</time>
      </trkpt>
      <trkpt lat="47.26974" lon="-2.31294">
        <ele>19.60000038147</ele>
        <time>2022-09-18T07:29:39.000Z</time>
      </trkpt>
      <trkpt lat="47.26974" lon="-2.31289">
        <ele>20</ele>
        <time>2022-09-18T07:29:40.000Z</time>
      </trkpt>
      <trkpt lat="47.26974" lon="-2.31283">
        <ele>20.39999961853</ele>
        <time>2022-09-18T07:29:41.000Z</time>
      </trkpt>
      <trkpt lat="47.26974" lon="-2.31278">
        <ele>20.799999237061</ele>
        <time>2022-09-18T07:29:42.000Z</time>
      </trkpt>
      <trkpt lat="47.26974" lon="-2.31272">
        <ele>21.200000762939</ele>
        <time>2022-09-18T07:29:43.000Z</time>
      </trkpt>
      <trkpt lat="47.26973" lon="-2.31266">
        <ele>21.200000762939</ele>
        <time>2022-09-18T07:29:44.000Z</time>
      </trkpt>
      <trkpt lat="47.26973" lon="-2.31253">
        <ele>21.200000762939</ele>
        <time>2022-09-18T07:29:46.000Z</time>
      </trkpt>
      <trkpt lat="47.26973" lon="-2.3124">
        <ele>21.200000762939</ele>
        <time>2022-09-18T07:29:48.000Z</time>
      </trkpt>
      <trkpt lat="47.26976" lon="-2.3122">
        <ele>21.200000762939</ele>
        <time>2022-09-18T07:29:51.000Z</time>
      </trkpt>
      <trkpt lat="47.26981" lon="-2.31181">
        <ele>20.60000038147</ele>
        <time>2022-09-18T07:29:56.000Z</time>
      </trkpt>
      <trkpt lat="47.26982" lon="-2.31173">
        <ele>20.200000762939</ele>
        <time>2022-09-18T07:29:57.000Z</time>
      </trkpt>
      <trkpt lat="47.26983" lon="-2.31164">
        <ele>19.799999237061</ele>
        <time>2022-09-18T07:29:58.000Z</time>
      </trkpt>
      <trkpt lat="47.26984" lon="-2.31155">
        <ele>19.200000762939</ele>
        <time>2022-09-18T07:29:59.000Z</time>
      </trkpt>
      <trkpt lat="47.26986" lon="-2.31146">
        <ele>18.799999237061</ele>
        <time>2022-09-18T07:30:00.000Z</time>
      </trkpt>
      <trkpt lat="47.26986" lon="-2.31137">
        <ele>18.799999237061</ele>
        <time>2022-09-18T07:30:01.000Z</time>
      </trkpt>
      <trkpt lat="47.26987" lon="-2.31118">
        <ele>18.39999961853</ele>
        <time>2022-09-18T07:30:03.000Z</time>
      </trkpt>
      <trkpt lat="47.26986" lon="-2.31109">
        <ele>18</ele>
        <time>2022-09-18T07:30:04.000Z</time>
      </trkpt>
      <trkpt lat="47.26986" lon="-2.31099">
        <ele>17.60000038147</ele>
        <time>2022-09-18T07:30:05.000Z</time>
      </trkpt>
      <trkpt lat="47.26985" lon="-2.31091">
        <ele>17.200000762939</ele>
        <time>2022-09-18T07:30:06.000Z</time>
      </trkpt>
      <trkpt lat="47.26984" lon="-2.31084">
        <ele>16.799999237061</ele>
        <time>2022-09-18T07:30:07.000Z</time>
      </trkpt>
      <trkpt lat="47.26984" lon="-2.31078">
        <ele>16.799999237061</ele>
        <time>2022-09-18T07:30:08.000Z</time>
      </trkpt>
      <trkpt lat="47.26993" lon="-2.31064">
        <ele>16.799999237061</ele>
        <time>2022-09-18T07:30:11.000Z</time>
      </trkpt>
      <trkpt lat="47.27001" lon="-2.31055">
        <ele>16.39999961853</ele>
        <time>2022-09-18T07:30:13.000Z</time>
      </trkpt>
      <trkpt lat="47.27006" lon="-2.31052">
        <ele>15.800000190735</ele>
        <time>2022-09-18T07:30:14.000Z</time>
      </trkpt>
      <trkpt lat="47.2701" lon="-2.31049">
        <ele>15.39999961853</ele>
        <time>2022-09-18T07:30:15.000Z</time>
      </trkpt>
      <trkpt lat="47.27015" lon="-2.31043">
        <ele>15</ele>
        <time>2022-09-18T07:30:16.000Z</time>
      </trkpt>
      <trkpt lat="47.27019" lon="-2.31039">
        <ele>14.60000038147</ele>
        <time>2022-09-18T07:30:17.000Z</time>
      </trkpt>
      <trkpt lat="47.27034" lon="-2.31022">
        <ele>14.60000038147</ele>
        <time>2022-09-18T07:30:21.000Z</time>
      </trkpt>
      <trkpt lat="47.27037" lon="-2.31018">
        <ele>14.199999809265</ele>
        <time>2022-09-18T07:30:22.000Z</time>
      </trkpt>
      <trkpt lat="47.27041" lon="-2.31013">
        <ele>13.800000190735</ele>
        <time>2022-09-18T07:30:23.000Z</time>
      </trkpt>
      <trkpt lat="47.27046" lon="-2.31008">
        <ele>13.39999961853</ele>
        <time>2022-09-18T07:30:24.000Z</time>
      </trkpt>
      <trkpt lat="47.27049" lon="-2.31003">
        <ele>13</ele>
        <time>2022-09-18T07:30:25.000Z</time>
      </trkpt>
      <trkpt lat="47.27053" lon="-2.30997">
        <ele>12.60000038147</ele>
        <time>2022-09-18T07:30:26.000Z</time>
      </trkpt>
      <trkpt lat="47.27054" lon="-2.30993">
        <ele>12.60000038147</ele>
        <time>2022-09-18T07:30:27.000Z</time>
      </trkpt>
      <trkpt lat="47.27052" lon="-2.30982">
        <ele>12.60000038147</ele>
        <time>2022-09-18T07:30:29.000Z</time>
      </trkpt>
      <trkpt lat="47.27051" lon="-2.30955">
        <ele>12.60000038147</ele>
        <time>2022-09-18T07:30:34.000Z</time>
      </trkpt>
      <trkpt lat="47.27045" lon="-2.30936">
        <ele>12.60000038147</ele>
        <time>2022-09-18T07:30:38.000Z</time>
      </trkpt>
      <trkpt lat="47.27037" lon="-2.30917">
        <ele>12.60000038147</ele>
        <time>2022-09-18T07:30:43.000Z</time>
      </trkpt>
      <trkpt lat="47.27031" lon="-2.30893">
        <ele>12.60000038147</ele>
        <time>2022-09-18T07:30:47.000Z</time>
      </trkpt>
      <trkpt lat="47.27018" lon="-2.30864">
        <ele>12.60000038147</ele>
        <time>2022-09-18T07:30:52.000Z</time>
      </trkpt>
      <trkpt lat="47.27001" lon="-2.30833">
        <ele>12.60000038147</ele>
        <time>2022-09-18T07:30:58.000Z</time>
      </trkpt>
      <trkpt lat="47.26993" lon="-2.30819">
        <ele>13</ele>
        <time>2022-09-18T07:31:01.000Z</time>
      </trkpt>
      <trkpt lat="47.2699" lon="-2.30814">
        <ele>13.39999961853</ele>
        <time>2022-09-18T07:31:02.000Z</time>
      </trkpt>
      <trkpt lat="47.26988" lon="-2.30809">
        <ele>13.800000190735</ele>
        <time>2022-09-18T07:31:03.000Z</time>
      </trkpt>
      <trkpt lat="47.26985" lon="-2.30805">
        <ele>14.199999809265</ele>
        <time>2022-09-18T07:31:04.000Z</time>
      </trkpt>
      <trkpt lat="47.26983" lon="-2.30801">
        <ele>14.60000038147</ele>
        <time>2022-09-18T07:31:05.000Z</time>
      </trkpt>
      <trkpt lat="47.26965" lon="-2.30776">
        <ele>14.60000038147</ele>
        <time>2022-09-18T07:31:11.000Z</time>
      </trkpt>
      <trkpt lat="47.26959" lon="-2.30768">
        <ele>15</ele>
        <time>2022-09-18T07:31:13.000Z</time>
      </trkpt>
      <trkpt lat="47.26956" lon="-2.30763">
        <ele>15.39999961853</ele>
        <time>2022-09-18T07:31:14.000Z</time>
      </trkpt>
      <trkpt lat="47.26953" lon="-2.30759">
        <ele>15.800000190735</ele>
        <time>2022-09-18T07:31:15.000Z</time>
      </trkpt>
      <trkpt lat="47.2695" lon="-2.30755">
        <ele>16.200000762939</ele>
        <time>2022-09-18T07:31:16.000Z</time>
      </trkpt>
      <trkpt lat="47.26948" lon="-2.30751">
        <ele>16.60000038147</ele>
        <time>2022-09-18T07:31:17.000Z</time>
      </trkpt>
      <trkpt lat="47.26935" lon="-2.30734">
        <ele>16.60000038147</ele>
        <time>2022-09-18T07:31:21.000Z</time>
      </trkpt>
      <trkpt lat="47.26927" lon="-2.30721">
        <ele>17</ele>
        <time>2022-09-18T07:31:24.000Z</time>
      </trkpt>
      <trkpt lat="47.26924" lon="-2.30716">
        <ele>17.39999961853</ele>
        <time>2022-09-18T07:31:25.000Z</time>
      </trkpt>
      <trkpt lat="47.26922" lon="-2.30711">
        <ele>17.799999237061</ele>
        <time>2022-09-18T07:31:26.000Z</time>
      </trkpt>
      <trkpt lat="47.26919" lon="-2.30707">
        <ele>18.200000762939</ele>
        <time>2022-09-18T07:31:27.000Z</time>
      </trkpt>
      <trkpt lat="47.26917" lon="-2.30703">
        <ele>18.799999237061</ele>
        <time>2022-09-18T07:31:28.000Z</time>
      </trkpt>
      <trkpt lat="47.26904" lon="-2.30681">
        <ele>18.799999237061</ele>
        <time>2022-09-18T07:31:34.000Z</time>
      </trkpt>
      <trkpt lat="47.26898" lon="-2.30669">
        <ele>18.799999237061</ele>
        <time>2022-09-18T07:31:40.000Z</time>
      </trkpt>
      <trkpt lat="47.26898" lon="-2.30667">
        <ele>18.799999237061</ele>
        <time>2022-09-18T07:31:42.000Z</time>
      </trkpt>
      <trkpt lat="47.26899" lon="-2.3066">
        <ele>18.799999237061</ele>
        <time>2022-09-18T07:32:50.000Z</time>
      </trkpt>
      <trkpt lat="47.269" lon="-2.30659">
        <ele>18.799999237061</ele>
        <time>2022-09-18T07:32:51.000Z</time>
      </trkpt>
      <trkpt lat="47.26908" lon="-2.30648">
        <ele>18.799999237061</ele>
        <time>2022-09-18T07:32:56.000Z</time>
      </trkpt>
      <trkpt lat="47.26925" lon="-2.30635">
        <ele>18.799999237061</ele>
        <time>2022-09-18T07:33:01.000Z</time>
      </trkpt>
      <trkpt lat="47.2693" lon="-2.30635">
        <ele>18.799999237061</ele>
        <time>2022-09-18T07:33:02.000Z</time>
      </trkpt>
      <trkpt lat="47.26946" lon="-2.30631">
        <ele>18.799999237061</ele>
        <time>2022-09-18T07:33:05.000Z</time>
      </trkpt>
      <trkpt lat="47.26975" lon="-2.30618">
        <ele>18.799999237061</ele>
        <time>2022-09-18T07:33:11.000Z</time>
      </trkpt>
      <trkpt lat="47.27003" lon="-2.306">
        <ele>18.799999237061</ele>
        <time>2022-09-18T07:33:17.000Z</time>
      </trkpt>
      <trkpt lat="47.27007" lon="-2.30593">
        <ele>18.799999237061</ele>
        <time>2022-09-18T07:33:18.000Z</time>
      </trkpt>
      <trkpt lat="47.27011" lon="-2.3058">
        <ele>18.799999237061</ele>
        <time>2022-09-18T07:33:20.000Z</time>
      </trkpt>
      <trkpt lat="47.27026" lon="-2.30526">
        <ele>18.799999237061</ele>
        <time>2022-09-18T07:33:28.000Z</time>
      </trkpt>
      <trkpt lat="47.27036" lon="-2.30487">
        <ele>18.799999237061</ele>
        <time>2022-09-18T07:33:35.000Z</time>
      </trkpt>
      <trkpt lat="47.27038" lon="-2.30481">
        <ele>18.799999237061</ele>
        <time>2022-09-18T07:33:39.000Z</time>
      </trkpt>
      <trkpt lat="47.2704" lon="-2.30474">
        <ele>18.799999237061</ele>
        <time>2022-09-18T07:33:45.000Z</time>
      </trkpt>
      <trkpt lat="47.27041" lon="-2.30473">
        <ele>18.799999237061</ele>
        <time>2022-09-18T07:33:46.000Z</time>
      </trkpt>
      <trkpt lat="47.2705" lon="-2.30476">
        <ele>18.799999237061</ele>
        <time>2022-09-18T07:33:50.000Z</time>
      </trkpt>
      <trkpt lat="47.27058" lon="-2.30478">
        <ele>18.39999961853</ele>
        <time>2022-09-18T07:33:52.000Z</time>
      </trkpt>
      <trkpt lat="47.27062" lon="-2.30478">
        <ele>18</ele>
        <time>2022-09-18T07:33:53.000Z</time>
      </trkpt>
      <trkpt lat="47.27066" lon="-2.30478">
        <ele>17.39999961853</ele>
        <time>2022-09-18T07:33:54.000Z</time>
      </trkpt>
      <trkpt lat="47.2707" lon="-2.3048">
        <ele>17</ele>
        <time>2022-09-18T07:33:55.000Z</time>
      </trkpt>
      <trkpt lat="47.27074" lon="-2.30482">
        <ele>16.60000038147</ele>
        <time>2022-09-18T07:33:56.000Z</time>
      </trkpt>
      <trkpt lat="47.27078" lon="-2.30484">
        <ele>16.60000038147</ele>
        <time>2022-09-18T07:33:57.000Z</time>
      </trkpt>
      <trkpt lat="47.271" lon="-2.30488">
        <ele>16.60000038147</ele>
        <time>2022-09-18T07:34:02.000Z</time>
      </trkpt>
      <trkpt lat="47.27108" lon="-2.30491">
        <ele>16.60000038147</ele>
        <time>2022-09-18T07:34:04.000Z</time>
      </trkpt>
      <trkpt lat="47.27113" lon="-2.30494">
        <ele>16.200000762939</ele>
        <time>2022-09-18T07:34:05.000Z</time>
      </trkpt>
      <trkpt lat="47.27118" lon="-2.30496">
        <ele>15.800000190735</ele>
        <time>2022-09-18T07:34:06.000Z</time>
      </trkpt>
      <trkpt lat="47.27123" lon="-2.30497">
        <ele>15.39999961853</ele>
        <time>2022-09-18T07:34:07.000Z</time>
      </trkpt>
      <trkpt lat="47.27127" lon="-2.30499">
        <ele>15</ele>
        <time>2022-09-18T07:34:08.000Z</time>
      </trkpt>
      <trkpt lat="47.2713" lon="-2.305">
        <ele>14.60000038147</ele>
        <time>2022-09-18T07:34:09.000Z</time>
      </trkpt>
      <trkpt lat="47.27139" lon="-2.30506">
        <ele>14.60000038147</ele>
        <time>2022-09-18T07:34:12.000Z</time>
      </trkpt>
      <trkpt lat="47.27148" lon="-2.30516">
        <ele>14.60000038147</ele>
        <time>2022-09-18T07:34:15.000Z</time>
      </trkpt>
      <trkpt lat="47.27154" lon="-2.30522">
        <ele>14.199999809265</ele>
        <time>2022-09-18T07:34:17.000Z</time>
      </trkpt>
      <trkpt lat="47.27158" lon="-2.30526">
        <ele>13.800000190735</ele>
        <time>2022-09-18T07:34:18.000Z</time>
      </trkpt>
      <trkpt lat="47.27162" lon="-2.30528">
        <ele>13.39999961853</ele>
        <time>2022-09-18T07:34:19.000Z</time>
      </trkpt>
      <trkpt lat="47.27166" lon="-2.30529">
        <ele>13</ele>
        <time>2022-09-18T07:34:20.000Z</time>
      </trkpt>
      <trkpt lat="47.2717" lon="-2.3053">
        <ele>12.60000038147</ele>
        <time>2022-09-18T07:34:21.000Z</time>
      </trkpt>
      <trkpt lat="47.27182" lon="-2.30536">
        <ele>12.60000038147</ele>
        <time>2022-09-18T07:34:25.000Z</time>
      </trkpt>
      <trkpt lat="47.27205" lon="-2.30543">
        <ele>12.60000038147</ele>
        <time>2022-09-18T07:34:33.000Z</time>
      </trkpt>
      <trkpt lat="47.27218" lon="-2.30543">
        <ele>12.60000038147</ele>
        <time>2022-09-18T07:34:38.000Z</time>
      </trkpt>
      <trkpt lat="47.27225" lon="-2.30544">
        <ele>12.60000038147</ele>
        <time>2022-09-18T07:34:40.000Z</time>
      </trkpt>
      <trkpt lat="47.27228" lon="-2.30545">
        <ele>12.199999809265</ele>
        <time>2022-09-18T07:34:41.000Z</time>
      </trkpt>
      <trkpt lat="47.27232" lon="-2.30544">
        <ele>11.800000190735</ele>
        <time>2022-09-18T07:34:42.000Z</time>
      </trkpt>
      <trkpt lat="47.27235" lon="-2.30543">
        <ele>11.39999961853</ele>
        <time>2022-09-18T07:34:43.000Z</time>
      </trkpt>
      <trkpt lat="47.27238" lon="-2.30544">
        <ele>11</ele>
        <time>2022-09-18T07:34:44.000Z</time>
      </trkpt>
      <trkpt lat="47.27241" lon="-2.30545">
        <ele>10.60000038147</ele>
        <time>2022-09-18T07:34:45.000Z</time>
      </trkpt>
      <trkpt lat="47.27244" lon="-2.30546">
        <ele>10.60000038147</ele>
        <time>2022-09-18T07:34:46.000Z</time>
      </trkpt>
      <trkpt lat="47.27248" lon="-2.30546">
        <ele>10.60000038147</ele>
        <time>2022-09-18T07:34:47.000Z</time>
      </trkpt>
      <trkpt lat="47.2727" lon="-2.30544">
        <ele>10.60000038147</ele>
        <time>2022-09-18T07:34:53.000Z</time>
      </trkpt>
      <trkpt lat="47.27284" lon="-2.30537">
        <ele>10.60000038147</ele>
        <time>2022-09-18T07:34:57.000Z</time>
      </trkpt>
      <trkpt lat="47.27298" lon="-2.30528">
        <ele>10.60000038147</ele>
        <time>2022-09-18T07:35:01.000Z</time>
      </trkpt>
      <trkpt lat="47.27302" lon="-2.30527">
        <ele>10.60000038147</ele>
        <time>2022-09-18T07:35:02.000Z</time>
      </trkpt>
      <trkpt lat="47.27312" lon="-2.30521">
        <ele>10.60000038147</ele>
        <time>2022-09-18T07:35:05.000Z</time>
      </trkpt>
      <trkpt lat="47.27321" lon="-2.30519">
        <ele>10.60000038147</ele>
        <time>2022-09-18T07:35:07.000Z</time>
      </trkpt>
      <trkpt lat="47.27329" lon="-2.30516">
        <ele>10.60000038147</ele>
        <time>2022-09-18T07:35:09.000Z</time>
      </trkpt>
      <trkpt lat="47.27343" lon="-2.30514">
        <ele>10.60000038147</ele>
        <time>2022-09-18T07:35:13.000Z</time>
      </trkpt>
      <trkpt lat="47.27355" lon="-2.30506">
        <ele>10.60000038147</ele>
        <time>2022-09-18T07:35:18.000Z</time>
      </trkpt>
      <trkpt lat="47.27368" lon="-2.30499">
        <ele>10.60000038147</ele>
        <time>2022-09-18T07:35:22.000Z</time>
      </trkpt>
      <trkpt lat="47.27385" lon="-2.30485">
        <ele>10.60000038147</ele>
        <time>2022-09-18T07:35:27.000Z</time>
      </trkpt>
      <trkpt lat="47.27394" lon="-2.30477">
        <ele>10.60000038147</ele>
        <time>2022-09-18T07:35:32.000Z</time>
      </trkpt>
      <trkpt lat="47.27403" lon="-2.30467">
        <ele>10.60000038147</ele>
        <time>2022-09-18T07:35:44.000Z</time>
      </trkpt>
      <trkpt lat="47.27408" lon="-2.30466">
        <ele>10.60000038147</ele>
        <time>2022-09-18T07:35:47.000Z</time>
      </trkpt>
      <trkpt lat="47.27414" lon="-2.30462">
        <ele>10.60000038147</ele>
        <time>2022-09-18T07:35:50.000Z</time>
      </trkpt>
      <trkpt lat="47.2742" lon="-2.30456">
        <ele>10.60000038147</ele>
        <time>2022-09-18T07:35:52.000Z</time>
      </trkpt>
      <trkpt lat="47.27427" lon="-2.30454">
        <ele>10.60000038147</ele>
        <time>2022-09-18T07:35:54.000Z</time>
      </trkpt>
      <trkpt lat="47.27432" lon="-2.30455">
        <ele>10.60000038147</ele>
        <time>2022-09-18T07:35:55.000Z</time>
      </trkpt>
      <trkpt lat="47.27455" lon="-2.30451">
        <ele>10.60000038147</ele>
        <time>2022-09-18T07:36:00.000Z</time>
      </trkpt>
      <trkpt lat="47.2746" lon="-2.30449">
        <ele>10.60000038147</ele>
        <time>2022-09-18T07:36:01.000Z</time>
      </trkpt>
      <trkpt lat="47.27482" lon="-2.30443">
        <ele>10.60000038147</ele>
        <time>2022-09-18T07:36:05.000Z</time>
      </trkpt>
      <trkpt lat="47.27495" lon="-2.30436">
        <ele>10.60000038147</ele>
        <time>2022-09-18T07:36:08.000Z</time>
      </trkpt>
      <trkpt lat="47.275" lon="-2.30423">
        <ele>10.60000038147</ele>
        <time>2022-09-18T07:36:10.000Z</time>
      </trkpt>
      <trkpt lat="47.27497" lon="-2.30402">
        <ele>10.60000038147</ele>
        <time>2022-09-18T07:36:13.000Z</time>
      </trkpt>
      <trkpt lat="47.27489" lon="-2.30358">
        <ele>10.60000038147</ele>
        <time>2022-09-18T07:36:19.000Z</time>
      </trkpt>
      <trkpt lat="47.27484" lon="-2.30337">
        <ele>10.60000038147</ele>
        <time>2022-09-18T07:36:22.000Z</time>
      </trkpt>
      <trkpt lat="47.27482" lon="-2.30325">
        <ele>11</ele>
        <time>2022-09-18T07:36:24.000Z</time>
      </trkpt>
      <trkpt lat="47.27481" lon="-2.30318">
        <ele>11.39999961853</ele>
        <time>2022-09-18T07:36:25.000Z</time>
      </trkpt>
      <trkpt lat="47.2748" lon="-2.30312">
        <ele>11.800000190735</ele>
        <time>2022-09-18T07:36:26.000Z</time>
      </trkpt>
      <trkpt lat="47.27479" lon="-2.30305">
        <ele>12.199999809265</ele>
        <time>2022-09-18T07:36:27.000Z</time>
      </trkpt>
      <trkpt lat="47.27478" lon="-2.30299">
        <ele>12.60000038147</ele>
        <time>2022-09-18T07:36:28.000Z</time>
      </trkpt>
      <trkpt lat="47.27476" lon="-2.30294">
        <ele>12.60000038147</ele>
        <time>2022-09-18T07:36:29.000Z</time>
      </trkpt>
      <trkpt lat="47.27474" lon="-2.30282">
        <ele>12.60000038147</ele>
        <time>2022-09-18T07:36:31.000Z</time>
      </trkpt>
      <trkpt lat="47.2747" lon="-2.30263">
        <ele>13</ele>
        <time>2022-09-18T07:36:34.000Z</time>
      </trkpt>
      <trkpt lat="47.27469" lon="-2.30258">
        <ele>13.39999961853</ele>
        <time>2022-09-18T07:36:35.000Z</time>
      </trkpt>
      <trkpt lat="47.27467" lon="-2.30252">
        <ele>14</ele>
        <time>2022-09-18T07:36:36.000Z</time>
      </trkpt>
      <trkpt lat="47.27466" lon="-2.30247">
        <ele>14.39999961853</ele>
        <time>2022-09-18T07:36:37.000Z</time>
      </trkpt>
      <trkpt lat="47.27464" lon="-2.30241">
        <ele>14.800000190735</ele>
        <time>2022-09-18T07:36:38.000Z</time>
      </trkpt>
      <trkpt lat="47.27455" lon="-2.30217">
        <ele>14.800000190735</ele>
        <time>2022-09-18T07:36:44.000Z</time>
      </trkpt>
      <trkpt lat="47.27445" lon="-2.30221">
        <ele>14.800000190735</ele>
        <time>2022-09-18T07:36:48.000Z</time>
      </trkpt>
      <trkpt lat="47.27436" lon="-2.30224">
        <ele>15.199999809265</ele>
        <time>2022-09-18T07:36:51.000Z</time>
      </trkpt>
      <trkpt lat="47.27432" lon="-2.30226">
        <ele>15.60000038147</ele>
        <time>2022-09-18T07:36:52.000Z</time>
      </trkpt>
      <trkpt lat="47.27429" lon="-2.30227">
        <ele>16.39999961853</ele>
        <time>2022-09-18T07:36:53.000Z</time>
      </trkpt>
      <trkpt lat="47.27426" lon="-2.30228">
        <ele>16.799999237061</ele>
        <time>2022-09-18T07:36:54.000Z</time>
      </trkpt>
      <trkpt lat="47.27406" lon="-2.30239">
        <ele>16.799999237061</ele>
        <time>2022-09-18T07:36:59.000Z</time>
      </trkpt>
      <trkpt lat="47.27391" lon="-2.30246">
        <ele>16.799999237061</ele>
        <time>2022-09-18T07:37:03.000Z</time>
      </trkpt>
      <trkpt lat="47.2738" lon="-2.30249">
        <ele>16.799999237061</ele>
        <time>2022-09-18T07:37:06.000Z</time>
      </trkpt>
      <trkpt lat="47.27375" lon="-2.3025">
        <ele>16.799999237061</ele>
        <time>2022-09-18T07:37:07.000Z</time>
      </trkpt>
      <trkpt lat="47.27367" lon="-2.30252">
        <ele>16.799999237061</ele>
        <time>2022-09-18T07:37:09.000Z</time>
      </trkpt>
      <trkpt lat="47.27357" lon="-2.30253">
        <ele>16.799999237061</ele>
        <time>2022-09-18T07:37:11.000Z</time>
      </trkpt>
      <trkpt lat="47.27323" lon="-2.30257">
        <ele>16.799999237061</ele>
        <time>2022-09-18T07:37:18.000Z</time>
      </trkpt>
      <trkpt lat="47.27291" lon="-2.30258">
        <ele>16.799999237061</ele>
        <time>2022-09-18T07:37:24.000Z</time>
      </trkpt>
      <trkpt lat="47.27275" lon="-2.30258">
        <ele>16.39999961853</ele>
        <time>2022-09-18T07:37:27.000Z</time>
      </trkpt>
      <trkpt lat="47.2727" lon="-2.30259">
        <ele>16</ele>
        <time>2022-09-18T07:37:28.000Z</time>
      </trkpt>
      <trkpt lat="47.27265" lon="-2.3026">
        <ele>15.60000038147</ele>
        <time>2022-09-18T07:37:29.000Z</time>
      </trkpt>
      <trkpt lat="47.2726" lon="-2.30261">
        <ele>15.199999809265</ele>
        <time>2022-09-18T07:37:30.000Z</time>
      </trkpt>
      <trkpt lat="47.27255" lon="-2.30264">
        <ele>14.800000190735</ele>
        <time>2022-09-18T07:37:31.000Z</time>
      </trkpt>
      <trkpt lat="47.27239" lon="-2.30264">
        <ele>14.800000190735</ele>
        <time>2022-09-18T07:37:35.000Z</time>
      </trkpt>
      <trkpt lat="47.27223" lon="-2.30262">
        <ele>14.800000190735</ele>
        <time>2022-09-18T07:37:40.000Z</time>
      </trkpt>
      <trkpt lat="47.27211" lon="-2.30258">
        <ele>14.800000190735</ele>
        <time>2022-09-18T07:37:45.000Z</time>
      </trkpt>
      <trkpt lat="47.272" lon="-2.30258">
        <ele>14.800000190735</ele>
        <time>2022-09-18T07:37:50.000Z</time>
      </trkpt>
      <trkpt lat="47.27188" lon="-2.30261">
        <ele>14.800000190735</ele>
        <time>2022-09-18T07:37:55.000Z</time>
      </trkpt>
      <trkpt lat="47.27179" lon="-2.30254">
        <ele>14.800000190735</ele>
        <time>2022-09-18T07:37:59.000Z</time>
      </trkpt>
      <trkpt lat="47.27168" lon="-2.30249">
        <ele>14.800000190735</ele>
        <time>2022-09-18T07:38:03.000Z</time>
      </trkpt>
      <trkpt lat="47.27167" lon="-2.30247">
        <ele>14.800000190735</ele>
        <time>2022-09-18T07:38:04.000Z</time>
      </trkpt>
      <trkpt lat="47.27162" lon="-2.30239">
        <ele>14.800000190735</ele>
        <time>2022-09-18T07:38:07.000Z</time>
      </trkpt>
      <trkpt lat="47.27162" lon="-2.30235">
        <ele>14.800000190735</ele>
        <time>2022-09-18T07:38:08.000Z</time>
      </trkpt>
      <trkpt lat="47.27163" lon="-2.30214">
        <ele>14.800000190735</ele>
        <time>2022-09-18T07:38:12.000Z</time>
      </trkpt>
      <trkpt lat="47.27161" lon="-2.30202">
        <ele>14.800000190735</ele>
        <time>2022-09-18T07:38:14.000Z</time>
      </trkpt>
      <trkpt lat="47.27159" lon="-2.3018">
        <ele>14.800000190735</ele>
        <time>2022-09-18T07:38:17.000Z</time>
      </trkpt>
      <trkpt lat="47.27159" lon="-2.30169">
        <ele>15.199999809265</ele>
        <time>2022-09-18T07:38:19.000Z</time>
      </trkpt>
      <trkpt lat="47.27158" lon="-2.30162">
        <ele>15.60000038147</ele>
        <time>2022-09-18T07:38:20.000Z</time>
      </trkpt>
      <trkpt lat="47.27158" lon="-2.30156">
        <ele>16</ele>
        <time>2022-09-18T07:38:21.000Z</time>
      </trkpt>
      <trkpt lat="47.27158" lon="-2.3015">
        <ele>16.60000038147</ele>
        <time>2022-09-18T07:38:22.000Z</time>
      </trkpt>
      <trkpt lat="47.27158" lon="-2.30144">
        <ele>17</ele>
        <time>2022-09-18T07:38:23.000Z</time>
      </trkpt>
      <trkpt lat="47.27154" lon="-2.30127">
        <ele>17.39999961853</ele>
        <time>2022-09-18T07:38:26.000Z</time>
      </trkpt>
      <trkpt lat="47.27151" lon="-2.30124">
        <ele>17.799999237061</ele>
        <time>2022-09-18T07:38:27.000Z</time>
      </trkpt>
      <trkpt lat="47.27147" lon="-2.30121">
        <ele>18.200000762939</ele>
        <time>2022-09-18T07:38:28.000Z</time>
      </trkpt>
      <trkpt lat="47.27143" lon="-2.3012">
        <ele>18.60000038147</ele>
        <time>2022-09-18T07:38:29.000Z</time>
      </trkpt>
      <trkpt lat="47.27139" lon="-2.30119">
        <ele>19</ele>
        <time>2022-09-18T07:38:30.000Z</time>
      </trkpt>
      <trkpt lat="47.27134" lon="-2.30117">
        <ele>19</ele>
        <time>2022-09-18T07:38:31.000Z</time>
      </trkpt>
      <trkpt lat="47.27107" lon="-2.30103">
        <ele>19</ele>
        <time>2022-09-18T07:38:37.000Z</time>
      </trkpt>
      <trkpt lat="47.27103" lon="-2.30099">
        <ele>19</ele>
        <time>2022-09-18T07:38:38.000Z</time>
      </trkpt>
      <trkpt lat="47.27089" lon="-2.30086">
        <ele>19</ele>
        <time>2022-09-18T07:38:42.000Z</time>
      </trkpt>
      <trkpt lat="47.27078" lon="-2.30075">
        <ele>19.39999961853</ele>
        <time>2022-09-18T07:38:45.000Z</time>
      </trkpt>
      <trkpt lat="47.27074" lon="-2.30072">
        <ele>19.799999237061</ele>
        <time>2022-09-18T07:38:46.000Z</time>
      </trkpt>
      <trkpt lat="47.2707" lon="-2.3007">
        <ele>20.39999961853</ele>
        <time>2022-09-18T07:38:47.000Z</time>
      </trkpt>
      <trkpt lat="47.27065" lon="-2.30068">
        <ele>20.799999237061</ele>
        <time>2022-09-18T07:38:48.000Z</time>
      </trkpt>
      <trkpt lat="47.2706" lon="-2.30065">
        <ele>21.200000762939</ele>
        <time>2022-09-18T07:38:49.000Z</time>
      </trkpt>
      <trkpt lat="47.27036" lon="-2.3006">
        <ele>21.200000762939</ele>
        <time>2022-09-18T07:38:54.000Z</time>
      </trkpt>
      <trkpt lat="47.27031" lon="-2.3006">
        <ele>21.200000762939</ele>
        <time>2022-09-18T07:38:55.000Z</time>
      </trkpt>
      <trkpt lat="47.27017" lon="-2.30061">
        <ele>21.200000762939</ele>
        <time>2022-09-18T07:38:59.000Z</time>
      </trkpt>
      <trkpt lat="47.27008" lon="-2.30058">
        <ele>21.200000762939</ele>
        <time>2022-09-18T07:39:03.000Z</time>
      </trkpt>
      <trkpt lat="47.27008" lon="-2.30057">
        <ele>21.200000762939</ele>
        <time>2022-09-18T07:39:04.000Z</time>
      </trkpt>
      <trkpt lat="47.27008" lon="-2.30056">
        <ele>21.200000762939</ele>
        <time>2022-09-18T07:39:06.000Z</time>
      </trkpt>
      <trkpt lat="47.2701" lon="-2.30052">
        <ele>21.200000762939</ele>
        <time>2022-09-18T07:39:24.000Z</time>
      </trkpt>
      <trkpt lat="47.2701" lon="-2.3005">
        <ele>21.200000762939</ele>
        <time>2022-09-18T07:39:25.000Z</time>
      </trkpt>
      <trkpt lat="47.27015" lon="-2.30035">
        <ele>21.200000762939</ele>
        <time>2022-09-18T07:39:29.000Z</time>
      </trkpt>
      <trkpt lat="47.27018" lon="-2.30024">
        <ele>21.200000762939</ele>
        <time>2022-09-18T07:39:31.000Z</time>
      </trkpt>
      <trkpt lat="47.27022" lon="-2.30011">
        <ele>21.60000038147</ele>
        <time>2022-09-18T07:39:33.000Z</time>
      </trkpt>
      <trkpt lat="47.27025" lon="-2.30005">
        <ele>22</ele>
        <time>2022-09-18T07:39:34.000Z</time>
      </trkpt>
      <trkpt lat="47.27027" lon="-2.29998">
        <ele>22.39999961853</ele>
        <time>2022-09-18T07:39:35.000Z</time>
      </trkpt>
      <trkpt lat="47.2703" lon="-2.29992">
        <ele>22.799999237061</ele>
        <time>2022-09-18T07:39:36.000Z</time>
      </trkpt>
      <trkpt lat="47.27033" lon="-2.29985">
        <ele>23.200000762939</ele>
        <time>2022-09-18T07:39:37.000Z</time>
      </trkpt>
      <trkpt lat="47.27041" lon="-2.29966">
        <ele>23.200000762939</ele>
        <time>2022-09-18T07:39:40.000Z</time>
      </trkpt>
      <trkpt lat="47.27048" lon="-2.29947">
        <ele>23.200000762939</ele>
        <time>2022-09-18T07:39:43.000Z</time>
      </trkpt>
      <trkpt lat="47.27055" lon="-2.29934">
        <ele>23.200000762939</ele>
        <time>2022-09-18T07:39:45.000Z</time>
      </trkpt>
      <trkpt lat="47.27058" lon="-2.29929">
        <ele>23.200000762939</ele>
        <time>2022-09-18T07:39:46.000Z</time>
      </trkpt>
      <trkpt lat="47.27072" lon="-2.29914">
        <ele>23.200000762939</ele>
        <time>2022-09-18T07:39:49.000Z</time>
      </trkpt>
      <trkpt lat="47.27078" lon="-2.29907">
        <ele>23.200000762939</ele>
        <time>2022-09-18T07:39:50.000Z</time>
      </trkpt>
      <trkpt lat="47.27083" lon="-2.299">
        <ele>23.200000762939</ele>
        <time>2022-09-18T07:39:51.000Z</time>
      </trkpt>
      <trkpt lat="47.27092" lon="-2.29878">
        <ele>23.200000762939</ele>
        <time>2022-09-18T07:39:54.000Z</time>
      </trkpt>
      <trkpt lat="47.27099" lon="-2.29855">
        <ele>23.200000762939</ele>
        <time>2022-09-18T07:39:57.000Z</time>
      </trkpt>
      <trkpt lat="47.27103" lon="-2.29841">
        <ele>23.200000762939</ele>
        <time>2022-09-18T07:39:59.000Z</time>
      </trkpt>
      <trkpt lat="47.27104" lon="-2.29833">
        <ele>23.200000762939</ele>
        <time>2022-09-18T07:40:00.000Z</time>
      </trkpt>
      <trkpt lat="47.27107" lon="-2.29801">
        <ele>23.200000762939</ele>
        <time>2022-09-18T07:40:04.000Z</time>
      </trkpt>
      <trkpt lat="47.27106" lon="-2.29785">
        <ele>23.200000762939</ele>
        <time>2022-09-18T07:40:06.000Z</time>
      </trkpt>
      <trkpt lat="47.27108" lon="-2.29744">
        <ele>23.200000762939</ele>
        <time>2022-09-18T07:40:11.000Z</time>
      </trkpt>
      <trkpt lat="47.27112" lon="-2.29696">
        <ele>23.200000762939</ele>
        <time>2022-09-18T07:40:17.000Z</time>
      </trkpt>
      <trkpt lat="47.27113" lon="-2.29669">
        <ele>23.200000762939</ele>
        <time>2022-09-18T07:40:22.000Z</time>
      </trkpt>
      <trkpt lat="47.27121" lon="-2.29649">
        <ele>23.200000762939</ele>
        <time>2022-09-18T07:40:27.000Z</time>
      </trkpt>
      <trkpt lat="47.2713" lon="-2.29644">
        <ele>23.200000762939</ele>
        <time>2022-09-18T07:40:29.000Z</time>
      </trkpt>
      <trkpt lat="47.27135" lon="-2.29644">
        <ele>23.200000762939</ele>
        <time>2022-09-18T07:40:30.000Z</time>
      </trkpt>
      <trkpt lat="47.27151" lon="-2.29644">
        <ele>23.200000762939</ele>
        <time>2022-09-18T07:40:33.000Z</time>
      </trkpt>
      <trkpt lat="47.27155" lon="-2.29642">
        <ele>23.200000762939</ele>
        <time>2022-09-18T07:40:34.000Z</time>
      </trkpt>
      <trkpt lat="47.2716" lon="-2.29637">
        <ele>23.200000762939</ele>
        <time>2022-09-18T07:40:35.000Z</time>
      </trkpt>
      <trkpt lat="47.27179" lon="-2.29624">
        <ele>23.200000762939</ele>
        <time>2022-09-18T07:40:39.000Z</time>
      </trkpt>
      <trkpt lat="47.27189" lon="-2.29616">
        <ele>23.200000762939</ele>
        <time>2022-09-18T07:40:41.000Z</time>
      </trkpt>
      <trkpt lat="47.27213" lon="-2.29593">
        <ele>23.200000762939</ele>
        <time>2022-09-18T07:40:47.000Z</time>
      </trkpt>
      <trkpt lat="47.27218" lon="-2.2959">
        <ele>23.200000762939</ele>
        <time>2022-09-18T07:40:48.000Z</time>
      </trkpt>
      <trkpt lat="47.27231" lon="-2.29584">
        <ele>23.200000762939</ele>
        <time>2022-09-18T07:40:51.000Z</time>
      </trkpt>
      <trkpt lat="47.27235" lon="-2.29578">
        <ele>23.200000762939</ele>
        <time>2022-09-18T07:40:52.000Z</time>
      </trkpt>
      <trkpt lat="47.27238" lon="-2.29566">
        <ele>23.200000762939</ele>
        <time>2022-09-18T07:40:54.000Z</time>
      </trkpt>
      <trkpt lat="47.2724" lon="-2.29546">
        <ele>23.200000762939</ele>
        <time>2022-09-18T07:40:57.000Z</time>
      </trkpt>
      <trkpt lat="47.27241" lon="-2.2953">
        <ele>23.200000762939</ele>
        <time>2022-09-18T07:41:00.000Z</time>
      </trkpt>
      <trkpt lat="47.27242" lon="-2.29529">
        <ele>23.200000762939</ele>
        <time>2022-09-18T07:41:03.000Z</time>
      </trkpt>
      <trkpt lat="47.2724" lon="-2.29521">
        <ele>23.200000762939</ele>
        <time>2022-09-18T07:41:18.000Z</time>
      </trkpt>
      <trkpt lat="47.27238" lon="-2.29517">
        <ele>23.200000762939</ele>
        <time>2022-09-18T07:41:20.000Z</time>
      </trkpt>
      <trkpt lat="47.27233" lon="-2.29507">
        <ele>23.200000762939</ele>
        <time>2022-09-18T07:41:25.000Z</time>
      </trkpt>
      <trkpt lat="47.2723" lon="-2.29492">
        <ele>23.200000762939</ele>
        <time>2022-09-18T07:41:29.000Z</time>
      </trkpt>
      <trkpt lat="47.27222" lon="-2.29472">
        <ele>23.200000762939</ele>
        <time>2022-09-18T07:41:33.000Z</time>
      </trkpt>
      <trkpt lat="47.27212" lon="-2.2944">
        <ele>23.200000762939</ele>
        <time>2022-09-18T07:41:39.000Z</time>
      </trkpt>
      <trkpt lat="47.27205" lon="-2.29417">
        <ele>22.799999237061</ele>
        <time>2022-09-18T07:41:43.000Z</time>
      </trkpt>
      <trkpt lat="47.27203" lon="-2.29411">
        <ele>22.39999961853</ele>
        <time>2022-09-18T07:41:44.000Z</time>
      </trkpt>
      <trkpt lat="47.27201" lon="-2.29405">
        <ele>22</ele>
        <time>2022-09-18T07:41:45.000Z</time>
      </trkpt>
      <trkpt lat="47.27199" lon="-2.29398">
        <ele>21.60000038147</ele>
        <time>2022-09-18T07:41:46.000Z</time>
      </trkpt>
      <trkpt lat="47.27197" lon="-2.29392">
        <ele>21.200000762939</ele>
        <time>2022-09-18T07:41:47.000Z</time>
      </trkpt>
      <trkpt lat="47.27193" lon="-2.2938">
        <ele>21.200000762939</ele>
        <time>2022-09-18T07:41:49.000Z</time>
      </trkpt>
      <trkpt lat="47.27185" lon="-2.29365">
        <ele>21.200000762939</ele>
        <time>2022-09-18T07:41:52.000Z</time>
      </trkpt>
      <trkpt lat="47.27173" lon="-2.29346">
        <ele>21.200000762939</ele>
        <time>2022-09-18T07:41:57.000Z</time>
      </trkpt>
      <trkpt lat="47.2717" lon="-2.29343">
        <ele>21.200000762939</ele>
        <time>2022-09-18T07:41:58.000Z</time>
      </trkpt>
      <trkpt lat="47.27157" lon="-2.29324">
        <ele>21.200000762939</ele>
        <time>2022-09-18T07:42:03.000Z</time>
      </trkpt>
      <trkpt lat="47.27152" lon="-2.29313">
        <ele>21.200000762939</ele>
        <time>2022-09-18T07:42:05.000Z</time>
      </trkpt>
      <trkpt lat="47.27151" lon="-2.29301">
        <ele>21.200000762939</ele>
        <time>2022-09-18T07:42:07.000Z</time>
      </trkpt>
      <trkpt lat="47.27153" lon="-2.29289">
        <ele>21.200000762939</ele>
        <time>2022-09-18T07:42:09.000Z</time>
      </trkpt>
      <trkpt lat="47.27157" lon="-2.29274">
        <ele>21.200000762939</ele>
        <time>2022-09-18T07:42:11.000Z</time>
      </trkpt>
      <trkpt lat="47.2716" lon="-2.29267">
        <ele>21.200000762939</ele>
        <time>2022-09-18T07:42:12.000Z</time>
      </trkpt>
      <trkpt lat="47.27163" lon="-2.29252">
        <ele>21.200000762939</ele>
        <time>2022-09-18T07:42:14.000Z</time>
      </trkpt>
      <trkpt lat="47.27164" lon="-2.29238">
        <ele>21.200000762939</ele>
        <time>2022-09-18T07:42:16.000Z</time>
      </trkpt>
      <trkpt lat="47.27157" lon="-2.29221">
        <ele>21.200000762939</ele>
        <time>2022-09-18T07:42:19.000Z</time>
      </trkpt>
      <trkpt lat="47.27155" lon="-2.29215">
        <ele>21.200000762939</ele>
        <time>2022-09-18T07:42:20.000Z</time>
      </trkpt>
      <trkpt lat="47.27151" lon="-2.29205">
        <ele>21.200000762939</ele>
        <time>2022-09-18T07:42:22.000Z</time>
      </trkpt>
      <trkpt lat="47.27146" lon="-2.29192">
        <ele>21.200000762939</ele>
        <time>2022-09-18T07:42:25.000Z</time>
      </trkpt>
      <trkpt lat="47.2714" lon="-2.29183">
        <ele>21.200000762939</ele>
        <time>2022-09-18T07:42:28.000Z</time>
      </trkpt>
      <trkpt lat="47.27138" lon="-2.29183">
        <ele>21.200000762939</ele>
        <time>2022-09-18T07:42:29.000Z</time>
      </trkpt>
      <trkpt lat="47.2713" lon="-2.2918">
        <ele>21.200000762939</ele>
        <time>2022-09-18T07:42:33.000Z</time>
      </trkpt>
      <trkpt lat="47.27123" lon="-2.29174">
        <ele>21.200000762939</ele>
        <time>2022-09-18T07:42:37.000Z</time>
      </trkpt>
      <trkpt lat="47.2712" lon="-2.2917">
        <ele>21.200000762939</ele>
        <time>2022-09-18T07:42:40.000Z</time>
      </trkpt>
      <trkpt lat="47.27118" lon="-2.29165">
        <ele>21.200000762939</ele>
        <time>2022-09-18T07:42:42.000Z</time>
      </trkpt>
      <trkpt lat="47.27122" lon="-2.29152">
        <ele>21.200000762939</ele>
        <time>2022-09-18T07:42:46.000Z</time>
      </trkpt>
      <trkpt lat="47.27126" lon="-2.29141">
        <ele>21.200000762939</ele>
        <time>2022-09-18T07:42:48.000Z</time>
      </trkpt>
      <trkpt lat="47.27129" lon="-2.29139">
        <ele>21.200000762939</ele>
        <time>2022-09-18T07:42:49.000Z</time>
      </trkpt>
      <trkpt lat="47.27132" lon="-2.29136">
        <ele>21.200000762939</ele>
        <time>2022-09-18T07:42:50.000Z</time>
      </trkpt>
      <trkpt lat="47.27138" lon="-2.29124">
        <ele>21.200000762939</ele>
        <time>2022-09-18T07:42:53.000Z</time>
      </trkpt>
      <trkpt lat="47.2714" lon="-2.29119">
        <ele>21.200000762939</ele>
        <time>2022-09-18T07:42:54.000Z</time>
      </trkpt>
      <trkpt lat="47.27146" lon="-2.29112">
        <ele>21.200000762939</ele>
        <time>2022-09-18T07:42:56.000Z</time>
      </trkpt>
      <trkpt lat="47.27151" lon="-2.29112">
        <ele>20.799999237061</ele>
        <time>2022-09-18T07:42:57.000Z</time>
      </trkpt>
      <trkpt lat="47.27155" lon="-2.29112">
        <ele>20.39999961853</ele>
        <time>2022-09-18T07:42:58.000Z</time>
      </trkpt>
      <trkpt lat="47.27159" lon="-2.29114">
        <ele>20</ele>
        <time>2022-09-18T07:42:59.000Z</time>
      </trkpt>
      <trkpt lat="47.27163" lon="-2.29115">
        <ele>19.60000038147</ele>
        <time>2022-09-18T07:43:00.000Z</time>
      </trkpt>
      <trkpt lat="47.27168" lon="-2.29118">
        <ele>19.200000762939</ele>
        <time>2022-09-18T07:43:01.000Z</time>
      </trkpt>
      <trkpt lat="47.27176" lon="-2.2912">
        <ele>19.200000762939</ele>
        <time>2022-09-18T07:43:03.000Z</time>
      </trkpt>
      <trkpt lat="47.27181" lon="-2.2912">
        <ele>19.200000762939</ele>
        <time>2022-09-18T07:43:04.000Z</time>
      </trkpt>
      <trkpt lat="47.27191" lon="-2.2911">
        <ele>19.200000762939</ele>
        <time>2022-09-18T07:43:06.000Z</time>
      </trkpt>
      <trkpt lat="47.27199" lon="-2.29102">
        <ele>19.200000762939</ele>
        <time>2022-09-18T07:43:08.000Z</time>
      </trkpt>
      <trkpt lat="47.27212" lon="-2.29087">
        <ele>19.200000762939</ele>
        <time>2022-09-18T07:43:11.000Z</time>
      </trkpt>
      <trkpt lat="47.27215" lon="-2.29083">
        <ele>19.200000762939</ele>
        <time>2022-09-18T07:43:12.000Z</time>
      </trkpt>
      <trkpt lat="47.2722" lon="-2.29079">
        <ele>19.200000762939</ele>
        <time>2022-09-18T07:43:13.000Z</time>
      </trkpt>
      <trkpt lat="47.27231" lon="-2.2907">
        <ele>19.200000762939</ele>
        <time>2022-09-18T07:43:16.000Z</time>
      </trkpt>
      <trkpt lat="47.27238" lon="-2.29065">
        <ele>19.200000762939</ele>
        <time>2022-09-18T07:43:18.000Z</time>
      </trkpt>
      <trkpt lat="47.27247" lon="-2.29054">
        <ele>19.200000762939</ele>
        <time>2022-09-18T07:43:20.000Z</time>
      </trkpt>
      <trkpt lat="47.27253" lon="-2.29044">
        <ele>19.200000762939</ele>
        <time>2022-09-18T07:43:22.000Z</time>
      </trkpt>
      <trkpt lat="47.27257" lon="-2.29036">
        <ele>19.200000762939</ele>
        <time>2022-09-18T07:43:24.000Z</time>
      </trkpt>
      <trkpt lat="47.27267" lon="-2.29012">
        <ele>19.200000762939</ele>
        <time>2022-09-18T07:43:29.000Z</time>
      </trkpt>
      <trkpt lat="47.27273" lon="-2.29002">
        <ele>19.200000762939</ele>
        <time>2022-09-18T07:43:31.000Z</time>
      </trkpt>
      <trkpt lat="47.27285" lon="-2.28983">
        <ele>19.200000762939</ele>
        <time>2022-09-18T07:43:35.000Z</time>
      </trkpt>
      <trkpt lat="47.27295" lon="-2.28966">
        <ele>19.200000762939</ele>
        <time>2022-09-18T07:43:39.000Z</time>
      </trkpt>
      <trkpt lat="47.27307" lon="-2.28951">
        <ele>19.200000762939</ele>
        <time>2022-09-18T07:43:43.000Z</time>
      </trkpt>
      <trkpt lat="47.27311" lon="-2.28951">
        <ele>19.200000762939</ele>
        <time>2022-09-18T07:43:44.000Z</time>
      </trkpt>
      <trkpt lat="47.27324" lon="-2.28958">
        <ele>19.200000762939</ele>
        <time>2022-09-18T07:43:48.000Z</time>
      </trkpt>
      <trkpt lat="47.2733" lon="-2.28955">
        <ele>19.200000762939</ele>
        <time>2022-09-18T07:43:49.000Z</time>
      </trkpt>
      <trkpt lat="47.27333" lon="-2.2895">
        <ele>19.200000762939</ele>
        <time>2022-09-18T07:43:50.000Z</time>
      </trkpt>
      <trkpt lat="47.27342" lon="-2.2892">
        <ele>19.200000762939</ele>
        <time>2022-09-18T07:43:55.000Z</time>
      </trkpt>
      <trkpt lat="47.27344" lon="-2.28905">
        <ele>19.200000762939</ele>
        <time>2022-09-18T07:43:57.000Z</time>
      </trkpt>
      <trkpt lat="47.27348" lon="-2.2889">
        <ele>19.200000762939</ele>
        <time>2022-09-18T07:43:59.000Z</time>
      </trkpt>
      <trkpt lat="47.2735" lon="-2.28875">
        <ele>19.200000762939</ele>
        <time>2022-09-18T07:44:01.000Z</time>
      </trkpt>
      <trkpt lat="47.27358" lon="-2.28846">
        <ele>19.200000762939</ele>
        <time>2022-09-18T07:44:05.000Z</time>
      </trkpt>
      <trkpt lat="47.27363" lon="-2.2882">
        <ele>19.200000762939</ele>
        <time>2022-09-18T07:44:08.000Z</time>
      </trkpt>
      <trkpt lat="47.27368" lon="-2.28805">
        <ele>19.200000762939</ele>
        <time>2022-09-18T07:44:10.000Z</time>
      </trkpt>
      <trkpt lat="47.2738" lon="-2.2878">
        <ele>19.200000762939</ele>
        <time>2022-09-18T07:44:13.000Z</time>
      </trkpt>
      <trkpt lat="47.27387" lon="-2.28766">
        <ele>19.200000762939</ele>
        <time>2022-09-18T07:44:15.000Z</time>
      </trkpt>
      <trkpt lat="47.2739" lon="-2.28759">
        <ele>19.200000762939</ele>
        <time>2022-09-18T07:44:16.000Z</time>
      </trkpt>
      <trkpt lat="47.27397" lon="-2.28737">
        <ele>19.200000762939</ele>
        <time>2022-09-18T07:44:19.000Z</time>
      </trkpt>
      <trkpt lat="47.274" lon="-2.28729">
        <ele>19.200000762939</ele>
        <time>2022-09-18T07:44:20.000Z</time>
      </trkpt>
      <trkpt lat="47.27407" lon="-2.28715">
        <ele>19.200000762939</ele>
        <time>2022-09-18T07:44:22.000Z</time>
      </trkpt>
      <trkpt lat="47.27422" lon="-2.28686">
        <ele>19.200000762939</ele>
        <time>2022-09-18T07:44:26.000Z</time>
      </trkpt>
      <trkpt lat="47.27443" lon="-2.28648">
        <ele>19.200000762939</ele>
        <time>2022-09-18T07:44:32.000Z</time>
      </trkpt>
      <trkpt lat="47.27462" lon="-2.2861">
        <ele>19.200000762939</ele>
        <time>2022-09-18T07:44:38.000Z</time>
      </trkpt>
      <trkpt lat="47.27478" lon="-2.28564">
        <ele>19.200000762939</ele>
        <time>2022-09-18T07:44:44.000Z</time>
      </trkpt>
      <trkpt lat="47.27485" lon="-2.28545">
        <ele>19.200000762939</ele>
        <time>2022-09-18T07:44:47.000Z</time>
      </trkpt>
      <trkpt lat="47.27495" lon="-2.28527">
        <ele>19.200000762939</ele>
        <time>2022-09-18T07:44:50.000Z</time>
      </trkpt>
      <trkpt lat="47.27501" lon="-2.2851">
        <ele>19.200000762939</ele>
        <time>2022-09-18T07:44:53.000Z</time>
      </trkpt>
      <trkpt lat="47.27505" lon="-2.28498">
        <ele>19.200000762939</ele>
        <time>2022-09-18T07:44:55.000Z</time>
      </trkpt>
      <trkpt lat="47.27508" lon="-2.28493">
        <ele>19.200000762939</ele>
        <time>2022-09-18T07:44:56.000Z</time>
      </trkpt>
      <trkpt lat="47.2752" lon="-2.28461">
        <ele>19.200000762939</ele>
        <time>2022-09-18T07:45:01.000Z</time>
      </trkpt>
      <trkpt lat="47.27523" lon="-2.28454">
        <ele>19.200000762939</ele>
        <time>2022-09-18T07:45:02.000Z</time>
      </trkpt>
      <trkpt lat="47.27534" lon="-2.28432">
        <ele>19.200000762939</ele>
        <time>2022-09-18T07:45:06.000Z</time>
      </trkpt>
      <trkpt lat="47.27537" lon="-2.28427">
        <ele>19.200000762939</ele>
        <time>2022-09-18T07:45:07.000Z</time>
      </trkpt>
      <trkpt lat="47.27544" lon="-2.28416">
        <ele>19.200000762939</ele>
        <time>2022-09-18T07:45:09.000Z</time>
      </trkpt>
      <trkpt lat="47.27555" lon="-2.28401">
        <ele>19.200000762939</ele>
        <time>2022-09-18T07:45:12.000Z</time>
      </trkpt>
      <trkpt lat="47.27574" lon="-2.28378">
        <ele>19.200000762939</ele>
        <time>2022-09-18T07:45:17.000Z</time>
      </trkpt>
      <trkpt lat="47.27593" lon="-2.28351">
        <ele>19.200000762939</ele>
        <time>2022-09-18T07:45:22.000Z</time>
      </trkpt>
      <trkpt lat="47.27621" lon="-2.2832">
        <ele>19.200000762939</ele>
        <time>2022-09-18T07:45:28.000Z</time>
      </trkpt>
      <trkpt lat="47.27629" lon="-2.28312">
        <ele>19.200000762939</ele>
        <time>2022-09-18T07:45:30.000Z</time>
      </trkpt>
      <trkpt lat="47.27637" lon="-2.28306">
        <ele>19.200000762939</ele>
        <time>2022-09-18T07:45:32.000Z</time>
      </trkpt>
      <trkpt lat="47.27656" lon="-2.28287">
        <ele>19.200000762939</ele>
        <time>2022-09-18T07:45:38.000Z</time>
      </trkpt>
      <trkpt lat="47.27659" lon="-2.28283">
        <ele>19.200000762939</ele>
        <time>2022-09-18T07:45:39.000Z</time>
      </trkpt>
      <trkpt lat="47.27673" lon="-2.28261">
        <ele>19.200000762939</ele>
        <time>2022-09-18T07:45:43.000Z</time>
      </trkpt>
      <trkpt lat="47.27697" lon="-2.28223">
        <ele>19.200000762939</ele>
        <time>2022-09-18T07:45:50.000Z</time>
      </trkpt>
      <trkpt lat="47.27709" lon="-2.282">
        <ele>19.200000762939</ele>
        <time>2022-09-18T07:45:54.000Z</time>
      </trkpt>
      <trkpt lat="47.27711" lon="-2.28194">
        <ele>19.200000762939</ele>
        <time>2022-09-18T07:45:55.000Z</time>
      </trkpt>
      <trkpt lat="47.27727" lon="-2.2815">
        <ele>19.200000762939</ele>
        <time>2022-09-18T07:46:02.000Z</time>
      </trkpt>
      <trkpt lat="47.27737" lon="-2.28108">
        <ele>19.200000762939</ele>
        <time>2022-09-18T07:46:07.000Z</time>
      </trkpt>
      <trkpt lat="47.27747" lon="-2.28055">
        <ele>19.200000762939</ele>
        <time>2022-09-18T07:46:14.000Z</time>
      </trkpt>
      <trkpt lat="47.27755" lon="-2.28004">
        <ele>19.200000762939</ele>
        <time>2022-09-18T07:46:21.000Z</time>
      </trkpt>
      <trkpt lat="47.27763" lon="-2.27961">
        <ele>19.200000762939</ele>
        <time>2022-09-18T07:46:27.000Z</time>
      </trkpt>
      <trkpt lat="47.27772" lon="-2.27922">
        <ele>19.200000762939</ele>
        <time>2022-09-18T07:46:33.000Z</time>
      </trkpt>
      <trkpt lat="47.27774" lon="-2.27914">
        <ele>19.200000762939</ele>
        <time>2022-09-18T07:46:34.000Z</time>
      </trkpt>
      <trkpt lat="47.27788" lon="-2.27883">
        <ele>19.200000762939</ele>
        <time>2022-09-18T07:46:38.000Z</time>
      </trkpt>
      <trkpt lat="47.27812" lon="-2.27832">
        <ele>19.200000762939</ele>
        <time>2022-09-18T07:46:45.000Z</time>
      </trkpt>
      <trkpt lat="47.27817" lon="-2.2782">
        <ele>19.200000762939</ele>
        <time>2022-09-18T07:46:47.000Z</time>
      </trkpt>
      <trkpt lat="47.27825" lon="-2.27803">
        <ele>19.200000762939</ele>
        <time>2022-09-18T07:46:50.000Z</time>
      </trkpt>
      <trkpt lat="47.27844" lon="-2.27762">
        <ele>19.200000762939</ele>
        <time>2022-09-18T07:46:56.000Z</time>
      </trkpt>
      <trkpt lat="47.27871" lon="-2.27707">
        <ele>19.200000762939</ele>
        <time>2022-09-18T07:47:04.000Z</time>
      </trkpt>
      <trkpt lat="47.27896" lon="-2.27646">
        <ele>19.200000762939</ele>
        <time>2022-09-18T07:47:12.000Z</time>
      </trkpt>
      <trkpt lat="47.27908" lon="-2.276">
        <ele>19.200000762939</ele>
        <time>2022-09-18T07:47:18.000Z</time>
      </trkpt>
      <trkpt lat="47.2791" lon="-2.27592">
        <ele>19.200000762939</ele>
        <time>2022-09-18T07:47:19.000Z</time>
      </trkpt>
      <trkpt lat="47.27925" lon="-2.27569">
        <ele>19.200000762939</ele>
        <time>2022-09-18T07:47:23.000Z</time>
      </trkpt>
      <trkpt lat="47.27933" lon="-2.27565">
        <ele>19.200000762939</ele>
        <time>2022-09-18T07:47:25.000Z</time>
      </trkpt>
      <trkpt lat="47.27941" lon="-2.27561">
        <ele>19.200000762939</ele>
        <time>2022-09-18T07:47:27.000Z</time>
      </trkpt>
      <trkpt lat="47.27958" lon="-2.27555">
        <ele>19.200000762939</ele>
        <time>2022-09-18T07:47:32.000Z</time>
      </trkpt>
      <trkpt lat="47.27963" lon="-2.27555">
        <ele>19.200000762939</ele>
        <time>2022-09-18T07:47:33.000Z</time>
      </trkpt>
      <trkpt lat="47.27982" lon="-2.27556">
        <ele>19.200000762939</ele>
        <time>2022-09-18T07:47:37.000Z</time>
      </trkpt>
      <trkpt lat="47.28013" lon="-2.27558">
        <ele>19.200000762939</ele>
        <time>2022-09-18T07:47:44.000Z</time>
      </trkpt>
      <trkpt lat="47.28017" lon="-2.27558">
        <ele>19.60000038147</ele>
        <time>2022-09-18T07:47:45.000Z</time>
      </trkpt>
      <trkpt lat="47.28021" lon="-2.27558">
        <ele>20</ele>
        <time>2022-09-18T07:47:46.000Z</time>
      </trkpt>
      <trkpt lat="47.28026" lon="-2.27558">
        <ele>20.60000038147</ele>
        <time>2022-09-18T07:47:47.000Z</time>
      </trkpt>
      <trkpt lat="47.2803" lon="-2.27557">
        <ele>21</ele>
        <time>2022-09-18T07:47:48.000Z</time>
      </trkpt>
      <trkpt lat="47.28034" lon="-2.27556">
        <ele>21.39999961853</ele>
        <time>2022-09-18T07:47:49.000Z</time>
      </trkpt>
      <trkpt lat="47.28042" lon="-2.27554">
        <ele>21.39999961853</ele>
        <time>2022-09-18T07:47:51.000Z</time>
      </trkpt>
      <trkpt lat="47.28058" lon="-2.27543">
        <ele>21.799999237061</ele>
        <time>2022-09-18T07:47:55.000Z</time>
      </trkpt>
      <trkpt lat="47.28061" lon="-2.27539">
        <ele>22.200000762939</ele>
        <time>2022-09-18T07:47:56.000Z</time>
      </trkpt>
      <trkpt lat="47.28064" lon="-2.27536">
        <ele>22.799999237061</ele>
        <time>2022-09-18T07:47:57.000Z</time>
      </trkpt>
      <trkpt lat="47.28067" lon="-2.27531">
        <ele>23.200000762939</ele>
        <time>2022-09-18T07:47:58.000Z</time>
      </trkpt>
      <trkpt lat="47.28069" lon="-2.27526">
        <ele>23.60000038147</ele>
        <time>2022-09-18T07:47:59.000Z</time>
      </trkpt>
      <trkpt lat="47.28071" lon="-2.27521">
        <ele>23.60000038147</ele>
        <time>2022-09-18T07:48:00.000Z</time>
      </trkpt>
      <trkpt lat="47.28079" lon="-2.27504">
        <ele>24</ele>
        <time>2022-09-18T07:48:03.000Z</time>
      </trkpt>
      <trkpt lat="47.2808" lon="-2.27499">
        <ele>24.39999961853</ele>
        <time>2022-09-18T07:48:04.000Z</time>
      </trkpt>
      <trkpt lat="47.28082" lon="-2.27494">
        <ele>24.799999237061</ele>
        <time>2022-09-18T07:48:05.000Z</time>
      </trkpt>
      <trkpt lat="47.28083" lon="-2.27488">
        <ele>25.200000762939</ele>
        <time>2022-09-18T07:48:06.000Z</time>
      </trkpt>
      <trkpt lat="47.28085" lon="-2.27483">
        <ele>25.60000038147</ele>
        <time>2022-09-18T07:48:07.000Z</time>
      </trkpt>
      <trkpt lat="47.28093" lon="-2.27459">
        <ele>26</ele>
        <time>2022-09-18T07:48:11.000Z</time>
      </trkpt>
      <trkpt lat="47.28095" lon="-2.27453">
        <ele>26.39999961853</ele>
        <time>2022-09-18T07:48:12.000Z</time>
      </trkpt>
      <trkpt lat="47.28098" lon="-2.27447">
        <ele>26.799999237061</ele>
        <time>2022-09-18T07:48:13.000Z</time>
      </trkpt>
      <trkpt lat="47.281" lon="-2.27441">
        <ele>27.200000762939</ele>
        <time>2022-09-18T07:48:14.000Z</time>
      </trkpt>
      <trkpt lat="47.28102" lon="-2.27436">
        <ele>27.799999237061</ele>
        <time>2022-09-18T07:48:15.000Z</time>
      </trkpt>
      <trkpt lat="47.28108" lon="-2.27418">
        <ele>27.799999237061</ele>
        <time>2022-09-18T07:48:18.000Z</time>
      </trkpt>
      <trkpt lat="47.28113" lon="-2.27407">
        <ele>27.799999237061</ele>
        <time>2022-09-18T07:48:20.000Z</time>
      </trkpt>
      <trkpt lat="47.28118" lon="-2.27396">
        <ele>28.200000762939</ele>
        <time>2022-09-18T07:48:22.000Z</time>
      </trkpt>
      <trkpt lat="47.28121" lon="-2.27391">
        <ele>28.60000038147</ele>
        <time>2022-09-18T07:48:23.000Z</time>
      </trkpt>
      <trkpt lat="47.28125" lon="-2.27385">
        <ele>29</ele>
        <time>2022-09-18T07:48:24.000Z</time>
      </trkpt>
      <trkpt lat="47.28129" lon="-2.2738">
        <ele>29.799999237061</ele>
        <time>2022-09-18T07:48:25.000Z</time>
      </trkpt>
      <trkpt lat="47.28141" lon="-2.27371">
        <ele>29.799999237061</ele>
        <time>2022-09-18T07:48:28.000Z</time>
      </trkpt>
      <trkpt lat="47.28145" lon="-2.2737">
        <ele>29.799999237061</ele>
        <time>2022-09-18T07:48:29.000Z</time>
      </trkpt>
      <trkpt lat="47.28165" lon="-2.27365">
        <ele>29.799999237061</ele>
        <time>2022-09-18T07:48:34.000Z</time>
      </trkpt>
      <trkpt lat="47.28207" lon="-2.27356">
        <ele>29.799999237061</ele>
        <time>2022-09-18T07:48:42.000Z</time>
      </trkpt>
      <trkpt lat="47.28241" lon="-2.2735">
        <ele>29.799999237061</ele>
        <time>2022-09-18T07:48:48.000Z</time>
      </trkpt>
      <trkpt lat="47.28275" lon="-2.27349">
        <ele>29.39999961853</ele>
        <time>2022-09-18T07:48:53.000Z</time>
      </trkpt>
      <trkpt lat="47.28282" lon="-2.27349">
        <ele>29</ele>
        <time>2022-09-18T07:48:54.000Z</time>
      </trkpt>
      <trkpt lat="47.2829" lon="-2.27349">
        <ele>28.60000038147</ele>
        <time>2022-09-18T07:48:55.000Z</time>
      </trkpt>
      <trkpt lat="47.28298" lon="-2.27348">
        <ele>28</ele>
        <time>2022-09-18T07:48:56.000Z</time>
      </trkpt>
      <trkpt lat="47.28306" lon="-2.27348">
        <ele>27.60000038147</ele>
        <time>2022-09-18T07:48:57.000Z</time>
      </trkpt>
      <trkpt lat="47.28322" lon="-2.27348">
        <ele>27.200000762939</ele>
        <time>2022-09-18T07:48:59.000Z</time>
      </trkpt>
      <trkpt lat="47.28331" lon="-2.27347">
        <ele>26.60000038147</ele>
        <time>2022-09-18T07:49:00.000Z</time>
      </trkpt>
      <trkpt lat="47.2834" lon="-2.27347">
        <ele>26.200000762939</ele>
        <time>2022-09-18T07:49:01.000Z</time>
      </trkpt>
      <trkpt lat="47.28347" lon="-2.27347">
        <ele>25.799999237061</ele>
        <time>2022-09-18T07:49:02.000Z</time>
      </trkpt>
      <trkpt lat="47.28354" lon="-2.27348">
        <ele>25.200000762939</ele>
        <time>2022-09-18T07:49:03.000Z</time>
      </trkpt>
      <trkpt lat="47.2836" lon="-2.27348">
        <ele>24.60000038147</ele>
        <time>2022-09-18T07:49:04.000Z</time>
      </trkpt>
      <trkpt lat="47.28365" lon="-2.27349">
        <ele>24</ele>
        <time>2022-09-18T07:49:05.000Z</time>
      </trkpt>
      <trkpt lat="47.28371" lon="-2.2735">
        <ele>23.39999961853</ele>
        <time>2022-09-18T07:49:06.000Z</time>
      </trkpt>
      <trkpt lat="47.28375" lon="-2.27351">
        <ele>22.60000038147</ele>
        <time>2022-09-18T07:49:07.000Z</time>
      </trkpt>
      <trkpt lat="47.28379" lon="-2.27353">
        <ele>22</ele>
        <time>2022-09-18T07:49:08.000Z</time>
      </trkpt>
      <trkpt lat="47.28382" lon="-2.27356">
        <ele>21.39999961853</ele>
        <time>2022-09-18T07:49:09.000Z</time>
      </trkpt>
      <trkpt lat="47.28383" lon="-2.2736">
        <ele>20.799999237061</ele>
        <time>2022-09-18T07:49:10.000Z</time>
      </trkpt>
      <trkpt lat="47.28384" lon="-2.27365">
        <ele>20.200000762939</ele>
        <time>2022-09-18T07:49:11.000Z</time>
      </trkpt>
      <trkpt lat="47.28384" lon="-2.27369">
        <ele>19.799999237061</ele>
        <time>2022-09-18T07:49:12.000Z</time>
      </trkpt>
      <trkpt lat="47.28384" lon="-2.27373">
        <ele>19.200000762939</ele>
        <time>2022-09-18T07:49:13.000Z</time>
      </trkpt>
      <trkpt lat="47.28382" lon="-2.27377">
        <ele>18.60000038147</ele>
        <time>2022-09-18T07:49:14.000Z</time>
      </trkpt>
      <trkpt lat="47.28378" lon="-2.27398">
        <ele>18.60000038147</ele>
        <time>2022-09-18T07:49:19.000Z</time>
      </trkpt>
      <trkpt lat="47.28377" lon="-2.27407">
        <ele>19</ele>
        <time>2022-09-18T07:49:21.000Z</time>
      </trkpt>
      <trkpt lat="47.28376" lon="-2.27412">
        <ele>19.39999961853</ele>
        <time>2022-09-18T07:49:22.000Z</time>
      </trkpt>
      <trkpt lat="47.28375" lon="-2.27418">
        <ele>19.799999237061</ele>
        <time>2022-09-18T07:49:23.000Z</time>
      </trkpt>
      <trkpt lat="47.28374" lon="-2.27424">
        <ele>20.39999961853</ele>
        <time>2022-09-18T07:49:24.000Z</time>
      </trkpt>
      <trkpt lat="47.28373" lon="-2.2743">
        <ele>20.799999237061</ele>
        <time>2022-09-18T07:49:25.000Z</time>
      </trkpt>
      <trkpt lat="47.2837" lon="-2.27456">
        <ele>20.799999237061</ele>
        <time>2022-09-18T07:49:29.000Z</time>
      </trkpt>
      <trkpt lat="47.28369" lon="-2.2747">
        <ele>21.200000762939</ele>
        <time>2022-09-18T07:49:31.000Z</time>
      </trkpt>
      <trkpt lat="47.28368" lon="-2.27477">
        <ele>21.60000038147</ele>
        <time>2022-09-18T07:49:32.000Z</time>
      </trkpt>
      <trkpt lat="47.28367" lon="-2.27484">
        <ele>22</ele>
        <time>2022-09-18T07:49:33.000Z</time>
      </trkpt>
      <trkpt lat="47.28366" lon="-2.27491">
        <ele>22.39999961853</ele>
        <time>2022-09-18T07:49:34.000Z</time>
      </trkpt>
      <trkpt lat="47.28365" lon="-2.27498">
        <ele>22.799999237061</ele>
        <time>2022-09-18T07:49:35.000Z</time>
      </trkpt>
      <trkpt lat="47.28362" lon="-2.27511">
        <ele>22.799999237061</ele>
        <time>2022-09-18T07:49:37.000Z</time>
      </trkpt>
      <trkpt lat="47.28356" lon="-2.27551">
        <ele>22.799999237061</ele>
        <time>2022-09-18T07:49:43.000Z</time>
      </trkpt>
      <trkpt lat="47.28352" lon="-2.27571">
        <ele>22.799999237061</ele>
        <time>2022-09-18T07:49:46.000Z</time>
      </trkpt>
      <trkpt lat="47.28349" lon="-2.27584">
        <ele>22.799999237061</ele>
        <time>2022-09-18T07:49:48.000Z</time>
      </trkpt>
      <trkpt lat="47.28349" lon="-2.27622">
        <ele>22.799999237061</ele>
        <time>2022-09-18T07:49:54.000Z</time>
      </trkpt>
      <trkpt lat="47.28345" lon="-2.27669">
        <ele>22.799999237061</ele>
        <time>2022-09-18T07:50:02.000Z</time>
      </trkpt>
      <trkpt lat="47.28342" lon="-2.27694">
        <ele>22.799999237061</ele>
        <time>2022-09-18T07:50:06.000Z</time>
      </trkpt>
      <trkpt lat="47.2834" lon="-2.27709">
        <ele>22.39999961853</ele>
        <time>2022-09-18T07:50:08.000Z</time>
      </trkpt>
      <trkpt lat="47.2834" lon="-2.27717">
        <ele>22</ele>
        <time>2022-09-18T07:50:09.000Z</time>
      </trkpt>
      <trkpt lat="47.2834" lon="-2.27725">
        <ele>21.60000038147</ele>
        <time>2022-09-18T07:50:10.000Z</time>
      </trkpt>
      <trkpt lat="47.28339" lon="-2.27733">
        <ele>21</ele>
        <time>2022-09-18T07:50:11.000Z</time>
      </trkpt>
      <trkpt lat="47.28338" lon="-2.27741">
        <ele>20.60000038147</ele>
        <time>2022-09-18T07:50:12.000Z</time>
      </trkpt>
      <trkpt lat="47.28338" lon="-2.27748">
        <ele>20.60000038147</ele>
        <time>2022-09-18T07:50:13.000Z</time>
      </trkpt>
      <trkpt lat="47.28334" lon="-2.27798">
        <ele>20.60000038147</ele>
        <time>2022-09-18T07:50:20.000Z</time>
      </trkpt>
      <trkpt lat="47.28327" lon="-2.27868">
        <ele>20.60000038147</ele>
        <time>2022-09-18T07:50:30.000Z</time>
      </trkpt>
      <trkpt lat="47.28323" lon="-2.2792">
        <ele>20.60000038147</ele>
        <time>2022-09-18T07:50:37.000Z</time>
      </trkpt>
      <trkpt lat="47.28322" lon="-2.27966">
        <ele>20.60000038147</ele>
        <time>2022-09-18T07:50:43.000Z</time>
      </trkpt>
      <trkpt lat="47.2832" lon="-2.27972">
        <ele>20.60000038147</ele>
        <time>2022-09-18T07:50:44.000Z</time>
      </trkpt>
      <trkpt lat="47.28318" lon="-2.27991">
        <ele>20.60000038147</ele>
        <time>2022-09-18T07:50:47.000Z</time>
      </trkpt>
      <trkpt lat="47.28323" lon="-2.28019">
        <ele>20.60000038147</ele>
        <time>2022-09-18T07:50:51.000Z</time>
      </trkpt>
      <trkpt lat="47.28324" lon="-2.28028">
        <ele>19.799999237061</ele>
        <time>2022-09-18T07:50:52.000Z</time>
      </trkpt>
      <trkpt lat="47.28324" lon="-2.28038">
        <ele>19.200000762939</ele>
        <time>2022-09-18T07:50:53.000Z</time>
      </trkpt>
      <trkpt lat="47.28324" lon="-2.28047">
        <ele>18.60000038147</ele>
        <time>2022-09-18T07:50:54.000Z</time>
      </trkpt>
      <trkpt lat="47.28325" lon="-2.28057">
        <ele>18.200000762939</ele>
        <time>2022-09-18T07:50:55.000Z</time>
      </trkpt>
      <trkpt lat="47.28325" lon="-2.28065">
        <ele>17.60000038147</ele>
        <time>2022-09-18T07:50:56.000Z</time>
      </trkpt>
      <trkpt lat="47.28325" lon="-2.28073">
        <ele>17</ele>
        <time>2022-09-18T07:50:57.000Z</time>
      </trkpt>
      <trkpt lat="47.28326" lon="-2.28079">
        <ele>16.39999961853</ele>
        <time>2022-09-18T07:50:58.000Z</time>
      </trkpt>
      <trkpt lat="47.28326" lon="-2.28083">
        <ele>16.39999961853</ele>
        <time>2022-09-18T07:50:59.000Z</time>
      </trkpt>
      <trkpt lat="47.28328" lon="-2.28086">
        <ele>16</ele>
        <time>2022-09-18T07:51:00.000Z</time>
      </trkpt>
      <trkpt lat="47.2833" lon="-2.28088">
        <ele>15.60000038147</ele>
        <time>2022-09-18T07:51:01.000Z</time>
      </trkpt>
      <trkpt lat="47.28332" lon="-2.28089">
        <ele>15.199999809265</ele>
        <time>2022-09-18T07:51:02.000Z</time>
      </trkpt>
      <trkpt lat="47.28335" lon="-2.2809">
        <ele>14.800000190735</ele>
        <time>2022-09-18T07:51:03.000Z</time>
      </trkpt>
      <trkpt lat="47.28337" lon="-2.28091">
        <ele>14.199999809265</ele>
        <time>2022-09-18T07:51:04.000Z</time>
      </trkpt>
      <trkpt lat="47.28355" lon="-2.28086">
        <ele>14.199999809265</ele>
        <time>2022-09-18T07:51:12.000Z</time>
      </trkpt>
      <trkpt lat="47.28357" lon="-2.28083">
        <ele>14.199999809265</ele>
        <time>2022-09-18T07:51:13.000Z</time>
      </trkpt>
      <trkpt lat="47.28364" lon="-2.28077">
        <ele>14.199999809265</ele>
        <time>2022-09-18T07:51:17.000Z</time>
      </trkpt>
      <trkpt lat="47.28365" lon="-2.28077">
        <ele>14.199999809265</ele>
        <time>2022-09-18T07:51:18.000Z</time>
      </trkpt>
      <trkpt lat="47.28368" lon="-2.28077">
        <ele>14.199999809265</ele>
        <time>2022-09-18T07:51:20.000Z</time>
      </trkpt>
      <trkpt lat="47.28371" lon="-2.28077">
        <ele>14.199999809265</ele>
        <time>2022-09-18T07:51:22.000Z</time>
      </trkpt>
      <trkpt lat="47.28377" lon="-2.28078">
        <ele>14.199999809265</ele>
        <time>2022-09-18T07:51:25.000Z</time>
      </trkpt>
      <trkpt lat="47.28384" lon="-2.28076">
        <ele>14.199999809265</ele>
        <time>2022-09-18T07:51:27.000Z</time>
      </trkpt>
      <trkpt lat="47.28398" lon="-2.2808">
        <ele>14.199999809265</ele>
        <time>2022-09-18T07:51:32.000Z</time>
      </trkpt>
      <trkpt lat="47.28407" lon="-2.28082">
        <ele>14.199999809265</ele>
        <time>2022-09-18T07:51:35.000Z</time>
      </trkpt>
      <trkpt lat="47.28409" lon="-2.28081">
        <ele>14.199999809265</ele>
        <time>2022-09-18T07:51:36.000Z</time>
      </trkpt>
      <trkpt lat="47.28417" lon="-2.28086">
        <ele>14.199999809265</ele>
        <time>2022-09-18T07:51:39.000Z</time>
      </trkpt>
      <trkpt lat="47.2842" lon="-2.28086">
        <ele>14.199999809265</ele>
        <time>2022-09-18T07:51:40.000Z</time>
      </trkpt>
      <trkpt lat="47.28425" lon="-2.28084">
        <ele>14.199999809265</ele>
        <time>2022-09-18T07:51:42.000Z</time>
      </trkpt>
      <trkpt lat="47.28435" lon="-2.28087">
        <ele>14.199999809265</ele>
        <time>2022-09-18T07:51:46.000Z</time>
      </trkpt>
      <trkpt lat="47.28451" lon="-2.28093">
        <ele>14.199999809265</ele>
        <time>2022-09-18T07:51:51.000Z</time>
      </trkpt>
      <trkpt lat="47.28454" lon="-2.28093">
        <ele>14.199999809265</ele>
        <time>2022-09-18T07:51:52.000Z</time>
      </trkpt>
      <trkpt lat="47.28462" lon="-2.2809">
        <ele>14.199999809265</ele>
        <time>2022-09-18T07:51:55.000Z</time>
      </trkpt>
      <trkpt lat="47.28475" lon="-2.28084">
        <ele>14.199999809265</ele>
        <time>2022-09-18T07:51:59.000Z</time>
      </trkpt>
      <trkpt lat="47.28476" lon="-2.2808">
        <ele>14.800000190735</ele>
        <time>2022-09-18T07:52:00.000Z</time>
      </trkpt>
      <trkpt lat="47.28478" lon="-2.28077">
        <ele>15.199999809265</ele>
        <time>2022-09-18T07:52:01.000Z</time>
      </trkpt>
      <trkpt lat="47.28478" lon="-2.28075">
        <ele>15.60000038147</ele>
        <time>2022-09-18T07:52:02.000Z</time>
      </trkpt>
      <trkpt lat="47.28479" lon="-2.28073">
        <ele>16</ele>
        <time>2022-09-18T07:52:03.000Z</time>
      </trkpt>
      <trkpt lat="47.28478" lon="-2.28072">
        <ele>16.39999961853</ele>
        <time>2022-09-18T07:52:04.000Z</time>
      </trkpt>
      <trkpt lat="47.28475" lon="-2.28071">
        <ele>16.39999961853</ele>
        <time>2022-09-18T07:52:06.000Z</time>
      </trkpt>
      <trkpt lat="47.28473" lon="-2.28066">
        <ele>16.799999237061</ele>
        <time>2022-09-18T07:52:09.000Z</time>
      </trkpt>
      <trkpt lat="47.28472" lon="-2.28064">
        <ele>17.200000762939</ele>
        <time>2022-09-18T07:52:10.000Z</time>
      </trkpt>
      <trkpt lat="47.28472" lon="-2.28061">
        <ele>17.60000038147</ele>
        <time>2022-09-18T07:52:11.000Z</time>
      </trkpt>
      <trkpt lat="47.28475" lon="-2.28056">
        <ele>18.200000762939</ele>
        <time>2022-09-18T07:52:12.000Z</time>
      </trkpt>
      <trkpt lat="47.28477" lon="-2.28052">
        <ele>18.60000038147</ele>
        <time>2022-09-18T07:52:13.000Z</time>
      </trkpt>
      <trkpt lat="47.28479" lon="-2.28049">
        <ele>18.60000038147</ele>
        <time>2022-09-18T07:52:14.000Z</time>
      </trkpt>
      <trkpt lat="47.28491" lon="-2.28043">
        <ele>18.60000038147</ele>
        <time>2022-09-18T07:52:19.000Z</time>
      </trkpt>
      <trkpt lat="47.28499" lon="-2.28047">
        <ele>18.60000038147</ele>
        <time>2022-09-18T07:52:22.000Z</time>
      </trkpt>
      <trkpt lat="47.28502" lon="-2.28049">
        <ele>18.60000038147</ele>
        <time>2022-09-18T07:52:23.000Z</time>
      </trkpt>
      <trkpt lat="47.28505" lon="-2.28051">
        <ele>18.60000038147</ele>
        <time>2022-09-18T07:52:24.000Z</time>
      </trkpt>
      <trkpt lat="47.28508" lon="-2.28052">
        <ele>18.200000762939</ele>
        <time>2022-09-18T07:52:25.000Z</time>
      </trkpt>
      <trkpt lat="47.28512" lon="-2.28052">
        <ele>17.799999237061</ele>
        <time>2022-09-18T07:52:26.000Z</time>
      </trkpt>
      <trkpt lat="47.28515" lon="-2.28052">
        <ele>17.200000762939</ele>
        <time>2022-09-18T07:52:27.000Z</time>
      </trkpt>
      <trkpt lat="47.28519" lon="-2.28052">
        <ele>16.799999237061</ele>
        <time>2022-09-18T07:52:28.000Z</time>
      </trkpt>
      <trkpt lat="47.28522" lon="-2.28053">
        <ele>16.39999961853</ele>
        <time>2022-09-18T07:52:29.000Z</time>
      </trkpt>
      <trkpt lat="47.28526" lon="-2.28054">
        <ele>16</ele>
        <time>2022-09-18T07:52:30.000Z</time>
      </trkpt>
      <trkpt lat="47.2853" lon="-2.28053">
        <ele>15</ele>
        <time>2022-09-18T07:52:31.000Z</time>
      </trkpt>
      <trkpt lat="47.28532" lon="-2.28052">
        <ele>14.60000038147</ele>
        <time>2022-09-18T07:52:32.000Z</time>
      </trkpt>
      <trkpt lat="47.28536" lon="-2.28054">
        <ele>14</ele>
        <time>2022-09-18T07:52:33.000Z</time>
      </trkpt>
      <trkpt lat="47.28537" lon="-2.28055">
        <ele>13.60000038147</ele>
        <time>2022-09-18T07:52:34.000Z</time>
      </trkpt>
      <trkpt lat="47.28539" lon="-2.28056">
        <ele>13</ele>
        <time>2022-09-18T07:52:35.000Z</time>
      </trkpt>
      <trkpt lat="47.28544" lon="-2.28058">
        <ele>12.60000038147</ele>
        <time>2022-09-18T07:52:36.000Z</time>
      </trkpt>
      <trkpt lat="47.28548" lon="-2.28056">
        <ele>12</ele>
        <time>2022-09-18T07:52:37.000Z</time>
      </trkpt>
      <trkpt lat="47.28558" lon="-2.28053">
        <ele>12</ele>
        <time>2022-09-18T07:52:40.000Z</time>
      </trkpt>
      <trkpt lat="47.28562" lon="-2.28051">
        <ele>12</ele>
        <time>2022-09-18T07:52:41.000Z</time>
      </trkpt>
      <trkpt lat="47.28569" lon="-2.28045">
        <ele>12</ele>
        <time>2022-09-18T07:52:43.000Z</time>
      </trkpt>
      <trkpt lat="47.28584" lon="-2.28028">
        <ele>12</ele>
        <time>2022-09-18T07:52:49.000Z</time>
      </trkpt>
      <trkpt lat="47.28596" lon="-2.28006">
        <ele>12</ele>
        <time>2022-09-18T07:52:53.000Z</time>
      </trkpt>
      <trkpt lat="47.28601" lon="-2.27985">
        <ele>11.199999809265</ele>
        <time>2022-09-18T07:52:56.000Z</time>
      </trkpt>
      <trkpt lat="47.28602" lon="-2.27978">
        <ele>10.800000190735</ele>
        <time>2022-09-18T07:52:57.000Z</time>
      </trkpt>
      <trkpt lat="47.28602" lon="-2.27971">
        <ele>10.39999961853</ele>
        <time>2022-09-18T07:52:58.000Z</time>
      </trkpt>
      <trkpt lat="47.28605" lon="-2.27966">
        <ele>10</ele>
        <time>2022-09-18T07:52:59.000Z</time>
      </trkpt>
      <trkpt lat="47.2861" lon="-2.27959">
        <ele>10</ele>
        <time>2022-09-18T07:53:01.000Z</time>
      </trkpt>
      <trkpt lat="47.28615" lon="-2.27955">
        <ele>10</ele>
        <time>2022-09-18T07:53:06.000Z</time>
      </trkpt>
      <trkpt lat="47.28618" lon="-2.2795">
        <ele>10</ele>
        <time>2022-09-18T07:53:17.000Z</time>
      </trkpt>
      <trkpt lat="47.2862" lon="-2.27942">
        <ele>10</ele>
        <time>2022-09-18T07:53:19.000Z</time>
      </trkpt>
      <trkpt lat="47.28623" lon="-2.27932">
        <ele>10</ele>
        <time>2022-09-18T07:53:21.000Z</time>
      </trkpt>
      <trkpt lat="47.28626" lon="-2.27912">
        <ele>10</ele>
        <time>2022-09-18T07:53:24.000Z</time>
      </trkpt>
      <trkpt lat="47.28629" lon="-2.27887">
        <ele>10</ele>
        <time>2022-09-18T07:53:27.000Z</time>
      </trkpt>
      <trkpt lat="47.2863" lon="-2.27878">
        <ele>10</ele>
        <time>2022-09-18T07:53:28.000Z</time>
      </trkpt>
      <trkpt lat="47.28637" lon="-2.27844">
        <ele>10</ele>
        <time>2022-09-18T07:53:32.000Z</time>
      </trkpt>
      <trkpt lat="47.28643" lon="-2.27819">
        <ele>10</ele>
        <time>2022-09-18T07:53:35.000Z</time>
      </trkpt>
      <trkpt lat="47.28648" lon="-2.27796">
        <ele>10</ele>
        <time>2022-09-18T07:53:38.000Z</time>
      </trkpt>
      <trkpt lat="47.28655" lon="-2.27772">
        <ele>10</ele>
        <time>2022-09-18T07:53:41.000Z</time>
      </trkpt>
      <trkpt lat="47.28673" lon="-2.27731">
        <ele>10</ele>
        <time>2022-09-18T07:53:47.000Z</time>
      </trkpt>
      <trkpt lat="47.28693" lon="-2.277">
        <ele>10</ele>
        <time>2022-09-18T07:53:52.000Z</time>
      </trkpt>
      <trkpt lat="47.287" lon="-2.27686">
        <ele>9.6000003814697</ele>
        <time>2022-09-18T07:53:54.000Z</time>
      </trkpt>
      <trkpt lat="47.28704" lon="-2.2768">
        <ele>9.1999998092651</ele>
        <time>2022-09-18T07:53:55.000Z</time>
      </trkpt>
      <trkpt lat="47.28707" lon="-2.27673">
        <ele>8.8000001907349</ele>
        <time>2022-09-18T07:53:56.000Z</time>
      </trkpt>
      <trkpt lat="47.2871" lon="-2.27667">
        <ele>8.1999998092651</ele>
        <time>2022-09-18T07:53:57.000Z</time>
      </trkpt>
      <trkpt lat="47.28714" lon="-2.27661">
        <ele>7.8000001907349</ele>
        <time>2022-09-18T07:53:58.000Z</time>
      </trkpt>
      <trkpt lat="47.28717" lon="-2.27656">
        <ele>7.8000001907349</ele>
        <time>2022-09-18T07:53:59.000Z</time>
      </trkpt>
      <trkpt lat="47.28736" lon="-2.27622">
        <ele>7.8000001907349</ele>
        <time>2022-09-18T07:54:05.000Z</time>
      </trkpt>
      <trkpt lat="47.28743" lon="-2.2761">
        <ele>7.8000001907349</ele>
        <time>2022-09-18T07:54:07.000Z</time>
      </trkpt>
      <trkpt lat="47.28761" lon="-2.2759">
        <ele>7.8000001907349</ele>
        <time>2022-09-18T07:54:11.000Z</time>
      </trkpt>
      <trkpt lat="47.28785" lon="-2.27565">
        <ele>7.8000001907349</ele>
        <time>2022-09-18T07:54:16.000Z</time>
      </trkpt>
      <trkpt lat="47.28788" lon="-2.27559">
        <ele>7.8000001907349</ele>
        <time>2022-09-18T07:54:17.000Z</time>
      </trkpt>
      <trkpt lat="47.28805" lon="-2.27541">
        <ele>7.8000001907349</ele>
        <time>2022-09-18T07:54:21.000Z</time>
      </trkpt>
      <trkpt lat="47.2881" lon="-2.27538">
        <ele>7.8000001907349</ele>
        <time>2022-09-18T07:54:22.000Z</time>
      </trkpt>
      <trkpt lat="47.28816" lon="-2.27537">
        <ele>7.8000001907349</ele>
        <time>2022-09-18T07:54:23.000Z</time>
      </trkpt>
      <trkpt lat="47.28829" lon="-2.27536">
        <ele>7.8000001907349</ele>
        <time>2022-09-18T07:54:25.000Z</time>
      </trkpt>
      <trkpt lat="47.28857" lon="-2.27532">
        <ele>7.8000001907349</ele>
        <time>2022-09-18T07:54:30.000Z</time>
      </trkpt>
      <trkpt lat="47.28899" lon="-2.27524">
        <ele>7.8000001907349</ele>
        <time>2022-09-18T07:54:37.000Z</time>
      </trkpt>
      <trkpt lat="47.28943" lon="-2.2752">
        <ele>7.8000001907349</ele>
        <time>2022-09-18T07:54:44.000Z</time>
      </trkpt>
      <trkpt lat="47.28977" lon="-2.27519">
        <ele>7.8000001907349</ele>
        <time>2022-09-18T07:54:50.000Z</time>
      </trkpt>
      <trkpt lat="47.29022" lon="-2.27519">
        <ele>7.8000001907349</ele>
        <time>2022-09-18T07:54:58.000Z</time>
      </trkpt>
      <trkpt lat="47.29056" lon="-2.27522">
        <ele>7.8000001907349</ele>
        <time>2022-09-18T07:55:05.000Z</time>
      </trkpt>
      <trkpt lat="47.29085" lon="-2.27528">
        <ele>7.8000001907349</ele>
        <time>2022-09-18T07:55:13.000Z</time>
      </trkpt>
      <trkpt lat="47.291" lon="-2.27526">
        <ele>7.8000001907349</ele>
        <time>2022-09-18T07:55:18.000Z</time>
      </trkpt>
      <trkpt lat="47.29103" lon="-2.27507">
        <ele>7.8000001907349</ele>
        <time>2022-09-18T07:55:22.000Z</time>
      </trkpt>
      <trkpt lat="47.29105" lon="-2.2748">
        <ele>7.8000001907349</ele>
        <time>2022-09-18T07:55:26.000Z</time>
      </trkpt>
      <trkpt lat="47.29105" lon="-2.27472">
        <ele>7.8000001907349</ele>
        <time>2022-09-18T07:55:27.000Z</time>
      </trkpt>
      <trkpt lat="47.29106" lon="-2.27464">
        <ele>7.8000001907349</ele>
        <time>2022-09-18T07:55:28.000Z</time>
      </trkpt>
      <trkpt lat="47.29108" lon="-2.27433">
        <ele>7.8000001907349</ele>
        <time>2022-09-18T07:55:32.000Z</time>
      </trkpt>
      <trkpt lat="47.29108" lon="-2.27426">
        <ele>7.4000000953674</ele>
        <time>2022-09-18T07:55:33.000Z</time>
      </trkpt>
      <trkpt lat="47.29108" lon="-2.27418">
        <ele>7</ele>
        <time>2022-09-18T07:55:34.000Z</time>
      </trkpt>
      <trkpt lat="47.29107" lon="-2.27411">
        <ele>6.5999999046326</ele>
        <time>2022-09-18T07:55:35.000Z</time>
      </trkpt>
      <trkpt lat="47.29105" lon="-2.27404">
        <ele>6.1999998092651</ele>
        <time>2022-09-18T07:55:36.000Z</time>
      </trkpt>
      <trkpt lat="47.29104" lon="-2.27397">
        <ele>5.8000001907349</ele>
        <time>2022-09-18T07:55:37.000Z</time>
      </trkpt>
      <trkpt lat="47.29095" lon="-2.27365">
        <ele>5.8000001907349</ele>
        <time>2022-09-18T07:55:43.000Z</time>
      </trkpt>
      <trkpt lat="47.29089" lon="-2.27353">
        <ele>5.8000001907349</ele>
        <time>2022-09-18T07:55:47.000Z</time>
      </trkpt>
      <trkpt lat="47.29089" lon="-2.27349">
        <ele>5.8000001907349</ele>
        <time>2022-09-18T07:55:48.000Z</time>
      </trkpt>
      <trkpt lat="47.29091" lon="-2.27331">
        <ele>5.8000001907349</ele>
        <time>2022-09-18T07:55:52.000Z</time>
      </trkpt>
      <trkpt lat="47.29093" lon="-2.27313">
        <ele>5.8000001907349</ele>
        <time>2022-09-18T07:55:57.000Z</time>
      </trkpt>
      <trkpt lat="47.29096" lon="-2.27304">
        <ele>5.8000001907349</ele>
        <time>2022-09-18T07:55:59.000Z</time>
      </trkpt>
      <trkpt lat="47.29096" lon="-2.27296">
        <ele>5.8000001907349</ele>
        <time>2022-09-18T07:56:01.000Z</time>
      </trkpt>
      <trkpt lat="47.29098" lon="-2.27279">
        <ele>5.8000001907349</ele>
        <time>2022-09-18T07:56:06.000Z</time>
      </trkpt>
      <trkpt lat="47.29101" lon="-2.27262">
        <ele>5.8000001907349</ele>
        <time>2022-09-18T07:56:10.000Z</time>
      </trkpt>
      <trkpt lat="47.29107" lon="-2.27237">
        <ele>5.8000001907349</ele>
        <time>2022-09-18T07:56:16.000Z</time>
      </trkpt>
      <trkpt lat="47.2911" lon="-2.27222">
        <ele>5.8000001907349</ele>
        <time>2022-09-18T07:56:22.000Z</time>
      </trkpt>
      <trkpt lat="47.2911" lon="-2.27218">
        <ele>5.8000001907349</ele>
        <time>2022-09-18T07:56:24.000Z</time>
      </trkpt>
      <trkpt lat="47.29112" lon="-2.27213">
        <ele>5.8000001907349</ele>
        <time>2022-09-18T07:56:27.000Z</time>
      </trkpt>
      <trkpt lat="47.29111" lon="-2.27211">
        <ele>5.8000001907349</ele>
        <time>2022-09-18T07:56:29.000Z</time>
      </trkpt>
      <trkpt lat="47.29111" lon="-2.27209">
        <ele>5.8000001907349</ele>
        <time>2022-09-18T07:56:32.000Z</time>
      </trkpt>
      <trkpt lat="47.29108" lon="-2.27207">
        <ele>5.8000001907349</ele>
        <time>2022-09-18T07:56:34.000Z</time>
      </trkpt>
      <trkpt lat="47.29102" lon="-2.27206">
        <ele>5.8000001907349</ele>
        <time>2022-09-18T07:56:38.000Z</time>
      </trkpt>
      <trkpt lat="47.29087" lon="-2.27205">
        <ele>5.8000001907349</ele>
        <time>2022-09-18T07:56:42.000Z</time>
      </trkpt>
      <trkpt lat="47.29077" lon="-2.27199">
        <ele>5.8000001907349</ele>
        <time>2022-09-18T07:56:45.000Z</time>
      </trkpt>
      <trkpt lat="47.29071" lon="-2.27193">
        <ele>5.8000001907349</ele>
        <time>2022-09-18T07:56:47.000Z</time>
      </trkpt>
      <trkpt lat="47.2907" lon="-2.2719">
        <ele>5.8000001907349</ele>
        <time>2022-09-18T07:56:48.000Z</time>
      </trkpt>
      <trkpt lat="47.29063" lon="-2.27177">
        <ele>5.8000001907349</ele>
        <time>2022-09-18T07:56:53.000Z</time>
      </trkpt>
      <trkpt lat="47.29053" lon="-2.27158">
        <ele>5.8000001907349</ele>
        <time>2022-09-18T07:56:57.000Z</time>
      </trkpt>
      <trkpt lat="47.29034" lon="-2.27139">
        <ele>5.8000001907349</ele>
        <time>2022-09-18T07:57:02.000Z</time>
      </trkpt>
      <trkpt lat="47.29031" lon="-2.27134">
        <ele>5.8000001907349</ele>
        <time>2022-09-18T07:57:03.000Z</time>
      </trkpt>
      <trkpt lat="47.29024" lon="-2.27119">
        <ele>5.8000001907349</ele>
        <time>2022-09-18T07:57:06.000Z</time>
      </trkpt>
      <trkpt lat="47.2903" lon="-2.27103">
        <ele>5.8000001907349</ele>
        <time>2022-09-18T07:57:10.000Z</time>
      </trkpt>
      <trkpt lat="47.29036" lon="-2.27101">
        <ele>5.8000001907349</ele>
        <time>2022-09-18T07:57:12.000Z</time>
      </trkpt>
      <trkpt lat="47.29046" lon="-2.27093">
        <ele>5.8000001907349</ele>
        <time>2022-09-18T07:57:15.000Z</time>
      </trkpt>
      <trkpt lat="47.29055" lon="-2.27078">
        <ele>5.8000001907349</ele>
        <time>2022-09-18T07:57:18.000Z</time>
      </trkpt>
      <trkpt lat="47.29057" lon="-2.27072">
        <ele>5.8000001907349</ele>
        <time>2022-09-18T07:57:19.000Z</time>
      </trkpt>
      <trkpt lat="47.29061" lon="-2.27046">
        <ele>5.8000001907349</ele>
        <time>2022-09-18T07:57:23.000Z</time>
      </trkpt>
      <trkpt lat="47.29065" lon="-2.27038">
        <ele>5.8000001907349</ele>
        <time>2022-09-18T07:57:25.000Z</time>
      </trkpt>
      <trkpt lat="47.29068" lon="-2.27035">
        <ele>5.8000001907349</ele>
        <time>2022-09-18T07:57:26.000Z</time>
      </trkpt>
      <trkpt lat="47.29072" lon="-2.27019">
        <ele>5.8000001907349</ele>
        <time>2022-09-18T07:57:30.000Z</time>
      </trkpt>
      <trkpt lat="47.29073" lon="-2.26998">
        <ele>5.8000001907349</ele>
        <time>2022-09-18T07:57:35.000Z</time>
      </trkpt>
      <trkpt lat="47.29074" lon="-2.26989">
        <ele>5.8000001907349</ele>
        <time>2022-09-18T07:57:37.000Z</time>
      </trkpt>
      <trkpt lat="47.29075" lon="-2.26973">
        <ele>5.8000001907349</ele>
        <time>2022-09-18T07:57:40.000Z</time>
      </trkpt>
      <trkpt lat="47.29076" lon="-2.26942">
        <ele>5.8000001907349</ele>
        <time>2022-09-18T07:57:46.000Z</time>
      </trkpt>
      <trkpt lat="47.29077" lon="-2.26933">
        <ele>5.8000001907349</ele>
        <time>2022-09-18T07:57:48.000Z</time>
      </trkpt>
      <trkpt lat="47.29075" lon="-2.26924">
        <ele>5.8000001907349</ele>
        <time>2022-09-18T07:57:50.000Z</time>
      </trkpt>
      <trkpt lat="47.29073" lon="-2.26918">
        <ele>5.8000001907349</ele>
        <time>2022-09-18T07:57:52.000Z</time>
      </trkpt>
      <trkpt lat="47.29069" lon="-2.26908">
        <ele>5.8000001907349</ele>
        <time>2022-09-18T07:57:55.000Z</time>
      </trkpt>
      <trkpt lat="47.29061" lon="-2.26891">
        <ele>5.8000001907349</ele>
        <time>2022-09-18T07:58:00.000Z</time>
      </trkpt>
      <trkpt lat="47.29061" lon="-2.26861">
        <ele>5.8000001907349</ele>
        <time>2022-09-18T07:58:04.000Z</time>
      </trkpt>
      <trkpt lat="47.29062" lon="-2.26853">
        <ele>5.8000001907349</ele>
        <time>2022-09-18T07:58:05.000Z</time>
      </trkpt>
      <trkpt lat="47.29062" lon="-2.26845">
        <ele>5.8000001907349</ele>
        <time>2022-09-18T07:58:06.000Z</time>
      </trkpt>
      <trkpt lat="47.29063" lon="-2.26813">
        <ele>5.8000001907349</ele>
        <time>2022-09-18T07:58:10.000Z</time>
      </trkpt>
      <trkpt lat="47.29062" lon="-2.26797">
        <ele>5.8000001907349</ele>
        <time>2022-09-18T07:58:12.000Z</time>
      </trkpt>
      <trkpt lat="47.29061" lon="-2.26782">
        <ele>5.8000001907349</ele>
        <time>2022-09-18T07:58:14.000Z</time>
      </trkpt>
      <trkpt lat="47.2906" lon="-2.26774">
        <ele>5.8000001907349</ele>
        <time>2022-09-18T07:58:15.000Z</time>
      </trkpt>
      <trkpt lat="47.29053" lon="-2.26716">
        <ele>6.1999998092651</ele>
        <time>2022-09-18T07:58:23.000Z</time>
      </trkpt>
      <trkpt lat="47.29053" lon="-2.2671">
        <ele>6.5999999046326</ele>
        <time>2022-09-18T07:58:24.000Z</time>
      </trkpt>
      <trkpt lat="47.29051" lon="-2.26703">
        <ele>7</ele>
        <time>2022-09-18T07:58:25.000Z</time>
      </trkpt>
      <trkpt lat="47.2905" lon="-2.26697">
        <ele>7.5999999046326</ele>
        <time>2022-09-18T07:58:26.000Z</time>
      </trkpt>
      <trkpt lat="47.2905" lon="-2.26691">
        <ele>8</ele>
        <time>2022-09-18T07:58:27.000Z</time>
      </trkpt>
      <trkpt lat="47.29048" lon="-2.26678">
        <ele>8.3999996185303</ele>
        <time>2022-09-18T07:58:29.000Z</time>
      </trkpt>
      <trkpt lat="47.29048" lon="-2.2667">
        <ele>8.8000001907349</ele>
        <time>2022-09-18T07:58:30.000Z</time>
      </trkpt>
      <trkpt lat="47.29047" lon="-2.26664">
        <ele>9.1999998092651</ele>
        <time>2022-09-18T07:58:31.000Z</time>
      </trkpt>
      <trkpt lat="47.29046" lon="-2.26657">
        <ele>9.8000001907349</ele>
        <time>2022-09-18T07:58:32.000Z</time>
      </trkpt>
      <trkpt lat="47.29046" lon="-2.2665">
        <ele>10.199999809265</ele>
        <time>2022-09-18T07:58:33.000Z</time>
      </trkpt>
      <trkpt lat="47.29044" lon="-2.26619">
        <ele>10.199999809265</ele>
        <time>2022-09-18T07:58:38.000Z</time>
      </trkpt>
      <trkpt lat="47.2904" lon="-2.26587">
        <ele>10.199999809265</ele>
        <time>2022-09-18T07:58:44.000Z</time>
      </trkpt>
      <trkpt lat="47.29039" lon="-2.26576">
        <ele>10.199999809265</ele>
        <time>2022-09-18T07:58:46.000Z</time>
      </trkpt>
      <trkpt lat="47.29036" lon="-2.26563">
        <ele>10.199999809265</ele>
        <time>2022-09-18T07:58:48.000Z</time>
      </trkpt>
      <trkpt lat="47.29035" lon="-2.26555">
        <ele>10.60000038147</ele>
        <time>2022-09-18T07:58:49.000Z</time>
      </trkpt>
      <trkpt lat="47.29033" lon="-2.26547">
        <ele>11</ele>
        <time>2022-09-18T07:58:50.000Z</time>
      </trkpt>
      <trkpt lat="47.29031" lon="-2.26539">
        <ele>11.39999961853</ele>
        <time>2022-09-18T07:58:51.000Z</time>
      </trkpt>
      <trkpt lat="47.29029" lon="-2.26532">
        <ele>12</ele>
        <time>2022-09-18T07:58:52.000Z</time>
      </trkpt>
      <trkpt lat="47.29027" lon="-2.26524">
        <ele>12.39999961853</ele>
        <time>2022-09-18T07:58:53.000Z</time>
      </trkpt>
      <trkpt lat="47.29017" lon="-2.26478">
        <ele>12.39999961853</ele>
        <time>2022-09-18T07:58:59.000Z</time>
      </trkpt>
      <trkpt lat="47.29016" lon="-2.26471">
        <ele>12.39999961853</ele>
        <time>2022-09-18T07:59:00.000Z</time>
      </trkpt>
      <trkpt lat="47.29013" lon="-2.26429">
        <ele>12.39999961853</ele>
        <time>2022-09-18T07:59:06.000Z</time>
      </trkpt>
      <trkpt lat="47.29011" lon="-2.26412">
        <ele>12.800000190735</ele>
        <time>2022-09-18T07:59:09.000Z</time>
      </trkpt>
      <trkpt lat="47.29011" lon="-2.26406">
        <ele>13.199999809265</ele>
        <time>2022-09-18T07:59:10.000Z</time>
      </trkpt>
      <trkpt lat="47.29011" lon="-2.264">
        <ele>13.800000190735</ele>
        <time>2022-09-18T07:59:11.000Z</time>
      </trkpt>
      <trkpt lat="47.29012" lon="-2.26394">
        <ele>14.199999809265</ele>
        <time>2022-09-18T07:59:12.000Z</time>
      </trkpt>
      <trkpt lat="47.29012" lon="-2.26387">
        <ele>14.60000038147</ele>
        <time>2022-09-18T07:59:13.000Z</time>
      </trkpt>
      <trkpt lat="47.29014" lon="-2.26381">
        <ele>14.60000038147</ele>
        <time>2022-09-18T07:59:14.000Z</time>
      </trkpt>
      <trkpt lat="47.29022" lon="-2.26365">
        <ele>14.60000038147</ele>
        <time>2022-09-18T07:59:17.000Z</time>
      </trkpt>
      <trkpt lat="47.29035" lon="-2.26352">
        <ele>14.60000038147</ele>
        <time>2022-09-18T07:59:20.000Z</time>
      </trkpt>
      <trkpt lat="47.29043" lon="-2.26343">
        <ele>14.60000038147</ele>
        <time>2022-09-18T07:59:22.000Z</time>
      </trkpt>
      <trkpt lat="47.29065" lon="-2.2631">
        <ele>14.60000038147</ele>
        <time>2022-09-18T07:59:28.000Z</time>
      </trkpt>
      <trkpt lat="47.29073" lon="-2.26285">
        <ele>14.60000038147</ele>
        <time>2022-09-18T07:59:32.000Z</time>
      </trkpt>
      <trkpt lat="47.29075" lon="-2.26279">
        <ele>14.60000038147</ele>
        <time>2022-09-18T07:59:33.000Z</time>
      </trkpt>
      <trkpt lat="47.29078" lon="-2.26257">
        <ele>14.60000038147</ele>
        <time>2022-09-18T07:59:36.000Z</time>
      </trkpt>
      <trkpt lat="47.2908" lon="-2.26243">
        <ele>14.60000038147</ele>
        <time>2022-09-18T07:59:38.000Z</time>
      </trkpt>
      <trkpt lat="47.29089" lon="-2.26198">
        <ele>14.60000038147</ele>
        <time>2022-09-18T07:59:44.000Z</time>
      </trkpt>
      <trkpt lat="47.29096" lon="-2.26146">
        <ele>14.60000038147</ele>
        <time>2022-09-18T07:59:51.000Z</time>
      </trkpt>
      <trkpt lat="47.29096" lon="-2.26139">
        <ele>14.60000038147</ele>
        <time>2022-09-18T07:59:52.000Z</time>
      </trkpt>
      <trkpt lat="47.29097" lon="-2.26133">
        <ele>14.60000038147</ele>
        <time>2022-09-18T07:59:53.000Z</time>
      </trkpt>
      <trkpt lat="47.29104" lon="-2.26116">
        <ele>14.60000038147</ele>
        <time>2022-09-18T07:59:56.000Z</time>
      </trkpt>
      <trkpt lat="47.29105" lon="-2.26109">
        <ele>14.60000038147</ele>
        <time>2022-09-18T07:59:57.000Z</time>
      </trkpt>
      <trkpt lat="47.29105" lon="-2.26095">
        <ele>14.60000038147</ele>
        <time>2022-09-18T07:59:59.000Z</time>
      </trkpt>
      <trkpt lat="47.29101" lon="-2.2606">
        <ele>14.60000038147</ele>
        <time>2022-09-18T08:00:04.000Z</time>
      </trkpt>
      <trkpt lat="47.29096" lon="-2.26047">
        <ele>14.60000038147</ele>
        <time>2022-09-18T08:00:06.000Z</time>
      </trkpt>
      <trkpt lat="47.29087" lon="-2.26021">
        <ele>14.60000038147</ele>
        <time>2022-09-18T08:00:10.000Z</time>
      </trkpt>
      <trkpt lat="47.29081" lon="-2.26003">
        <ele>13.800000190735</ele>
        <time>2022-09-18T08:00:14.000Z</time>
      </trkpt>
      <trkpt lat="47.29083" lon="-2.25998">
        <ele>13.39999961853</ele>
        <time>2022-09-18T08:00:15.000Z</time>
      </trkpt>
      <trkpt lat="47.29085" lon="-2.25993">
        <ele>13</ele>
        <time>2022-09-18T08:00:16.000Z</time>
      </trkpt>
      <trkpt lat="47.29089" lon="-2.25989">
        <ele>12.39999961853</ele>
        <time>2022-09-18T08:00:17.000Z</time>
      </trkpt>
      <trkpt lat="47.29097" lon="-2.25982">
        <ele>12.39999961853</ele>
        <time>2022-09-18T08:00:19.000Z</time>
      </trkpt>
      <trkpt lat="47.29105" lon="-2.25976">
        <ele>12.39999961853</ele>
        <time>2022-09-18T08:00:21.000Z</time>
      </trkpt>
      <trkpt lat="47.29109" lon="-2.25975">
        <ele>12.39999961853</ele>
        <time>2022-09-18T08:00:22.000Z</time>
      </trkpt>
      <trkpt lat="47.29132" lon="-2.25975">
        <ele>12.39999961853</ele>
        <time>2022-09-18T08:00:27.000Z</time>
      </trkpt>
      <trkpt lat="47.29136" lon="-2.25976">
        <ele>12.39999961853</ele>
        <time>2022-09-18T08:00:28.000Z</time>
      </trkpt>
      <trkpt lat="47.29153" lon="-2.25978">
        <ele>12.39999961853</ele>
        <time>2022-09-18T08:00:32.000Z</time>
      </trkpt>
      <trkpt lat="47.29162" lon="-2.25979">
        <ele>12.39999961853</ele>
        <time>2022-09-18T08:00:34.000Z</time>
      </trkpt>
      <trkpt lat="47.29177" lon="-2.25977">
        <ele>12.39999961853</ele>
        <time>2022-09-18T08:00:37.000Z</time>
      </trkpt>
      <trkpt lat="47.29192" lon="-2.25975">
        <ele>12.39999961853</ele>
        <time>2022-09-18T08:00:40.000Z</time>
      </trkpt>
      <trkpt lat="47.29201" lon="-2.25973">
        <ele>12.39999961853</ele>
        <time>2022-09-18T08:00:42.000Z</time>
      </trkpt>
      <trkpt lat="47.29215" lon="-2.25969">
        <ele>12.39999961853</ele>
        <time>2022-09-18T08:00:45.000Z</time>
      </trkpt>
      <trkpt lat="47.29223" lon="-2.25964">
        <ele>12.39999961853</ele>
        <time>2022-09-18T08:00:47.000Z</time>
      </trkpt>
      <trkpt lat="47.29227" lon="-2.25961">
        <ele>12.39999961853</ele>
        <time>2022-09-18T08:00:48.000Z</time>
      </trkpt>
      <trkpt lat="47.29242" lon="-2.25953">
        <ele>12.39999961853</ele>
        <time>2022-09-18T08:00:53.000Z</time>
      </trkpt>
      <trkpt lat="47.29252" lon="-2.25945">
        <ele>12.39999961853</ele>
        <time>2022-09-18T08:00:58.000Z</time>
      </trkpt>
      <trkpt lat="47.29266" lon="-2.25936">
        <ele>12.39999961853</ele>
        <time>2022-09-18T08:01:04.000Z</time>
      </trkpt>
      <trkpt lat="47.2927" lon="-2.25933">
        <ele>12.39999961853</ele>
        <time>2022-09-18T08:01:06.000Z</time>
      </trkpt>
      <trkpt lat="47.29277" lon="-2.2593">
        <ele>12.39999961853</ele>
        <time>2022-09-18T08:01:09.000Z</time>
      </trkpt>
      <trkpt lat="47.29285" lon="-2.25927">
        <ele>12.39999961853</ele>
        <time>2022-09-18T08:01:12.000Z</time>
      </trkpt>
      <trkpt lat="47.2929" lon="-2.25924">
        <ele>12.39999961853</ele>
        <time>2022-09-18T08:01:14.000Z</time>
      </trkpt>
      <trkpt lat="47.29294" lon="-2.25918">
        <ele>12.39999961853</ele>
        <time>2022-09-18T08:01:16.000Z</time>
      </trkpt>
      <trkpt lat="47.29298" lon="-2.25912">
        <ele>12.39999961853</ele>
        <time>2022-09-18T08:01:18.000Z</time>
      </trkpt>
      <trkpt lat="47.293" lon="-2.25898">
        <ele>12.39999961853</ele>
        <time>2022-09-18T08:01:22.000Z</time>
      </trkpt>
      <trkpt lat="47.29295" lon="-2.25884">
        <ele>12.39999961853</ele>
        <time>2022-09-18T08:01:27.000Z</time>
      </trkpt>
      <trkpt lat="47.29289" lon="-2.2587">
        <ele>12.39999961853</ele>
        <time>2022-09-18T08:01:31.000Z</time>
      </trkpt>
      <trkpt lat="47.29292" lon="-2.25862">
        <ele>12.39999961853</ele>
        <time>2022-09-18T08:01:35.000Z</time>
      </trkpt>
      <trkpt lat="47.29294" lon="-2.25867">
        <ele>12.39999961853</ele>
        <time>2022-09-18T08:01:37.000Z</time>
      </trkpt>
      <trkpt lat="47.29298" lon="-2.25874">
        <ele>12.39999961853</ele>
        <time>2022-09-18T08:01:39.000Z</time>
      </trkpt>
      <trkpt lat="47.29306" lon="-2.25882">
        <ele>12.39999961853</ele>
        <time>2022-09-18T08:01:42.000Z</time>
      </trkpt>
      <trkpt lat="47.29309" lon="-2.25885">
        <ele>12.39999961853</ele>
        <time>2022-09-18T08:01:44.000Z</time>
      </trkpt>
      <trkpt lat="47.29314" lon="-2.2588">
        <ele>12.39999961853</ele>
        <time>2022-09-18T08:01:48.000Z</time>
      </trkpt>
      <trkpt lat="47.29304" lon="-2.25864">
        <ele>12.39999961853</ele>
        <time>2022-09-18T08:01:54.000Z</time>
      </trkpt>
      <trkpt lat="47.29303" lon="-2.25854">
        <ele>12.39999961853</ele>
        <time>2022-09-18T08:01:58.000Z</time>
      </trkpt>
      <trkpt lat="47.29305" lon="-2.25853">
        <ele>12.39999961853</ele>
        <time>2022-09-18T08:02:01.000Z</time>
      </trkpt>
      <trkpt lat="47.29322" lon="-2.25864">
        <ele>12.39999961853</ele>
        <time>2022-09-18T08:03:35.000Z</time>
      </trkpt>
      <trkpt lat="47.29323" lon="-2.25867">
        <ele>12.39999961853</ele>
        <time>2022-09-18T08:03:36.000Z</time>
      </trkpt>
      <trkpt lat="47.2933" lon="-2.25881">
        <ele>12.39999961853</ele>
        <time>2022-09-18T08:03:41.000Z</time>
      </trkpt>
      <trkpt lat="47.29333" lon="-2.25882">
        <ele>12.39999961853</ele>
        <time>2022-09-18T08:03:42.000Z</time>
      </trkpt>
      <trkpt lat="47.29336" lon="-2.25881">
        <ele>12</ele>
        <time>2022-09-18T08:03:43.000Z</time>
      </trkpt>
      <trkpt lat="47.29338" lon="-2.2588">
        <ele>11.60000038147</ele>
        <time>2022-09-18T08:03:44.000Z</time>
      </trkpt>
      <trkpt lat="47.29341" lon="-2.25879">
        <ele>11.199999809265</ele>
        <time>2022-09-18T08:03:45.000Z</time>
      </trkpt>
      <trkpt lat="47.29343" lon="-2.25878">
        <ele>10.800000190735</ele>
        <time>2022-09-18T08:03:46.000Z</time>
      </trkpt>
      <trkpt lat="47.29344" lon="-2.25877">
        <ele>10.199999809265</ele>
        <time>2022-09-18T08:03:47.000Z</time>
      </trkpt>
      <trkpt lat="47.29347" lon="-2.25876">
        <ele>10.199999809265</ele>
        <time>2022-09-18T08:03:50.000Z</time>
      </trkpt>
      <trkpt lat="47.29348" lon="-2.25876">
        <ele>10.199999809265</ele>
        <time>2022-09-18T08:03:51.000Z</time>
      </trkpt>
      <trkpt lat="47.29355" lon="-2.25872">
        <ele>10.199999809265</ele>
        <time>2022-09-18T08:04:16.000Z</time>
      </trkpt>
      <trkpt lat="47.2936" lon="-2.25878">
        <ele>10.199999809265</ele>
        <time>2022-09-18T08:04:19.000Z</time>
      </trkpt>
      <trkpt lat="47.2937" lon="-2.25887">
        <ele>10.199999809265</ele>
        <time>2022-09-18T08:04:22.000Z</time>
      </trkpt>
      <trkpt lat="47.29372" lon="-2.25895">
        <ele>10.199999809265</ele>
        <time>2022-09-18T08:04:24.000Z</time>
      </trkpt>
      <trkpt lat="47.29378" lon="-2.25915">
        <ele>10.199999809265</ele>
        <time>2022-09-18T08:04:29.000Z</time>
      </trkpt>
      <trkpt lat="47.29382" lon="-2.25935">
        <ele>10.199999809265</ele>
        <time>2022-09-18T08:04:34.000Z</time>
      </trkpt>
      <trkpt lat="47.2938" lon="-2.25938">
        <ele>10.199999809265</ele>
        <time>2022-09-18T08:04:35.000Z</time>
      </trkpt>
      <trkpt lat="47.2937" lon="-2.25952">
        <ele>10.199999809265</ele>
        <time>2022-09-18T08:04:38.000Z</time>
      </trkpt>
      <trkpt lat="47.29367" lon="-2.25959">
        <ele>10.199999809265</ele>
        <time>2022-09-18T08:04:39.000Z</time>
      </trkpt>
      <trkpt lat="47.29358" lon="-2.25972">
        <ele>10.199999809265</ele>
        <time>2022-09-18T08:04:42.000Z</time>
      </trkpt>
      <trkpt lat="47.29348" lon="-2.25977">
        <ele>10.199999809265</ele>
        <time>2022-09-18T08:04:44.000Z</time>
      </trkpt>
      <trkpt lat="47.2934" lon="-2.25978">
        <ele>10.199999809265</ele>
        <time>2022-09-18T08:04:46.000Z</time>
      </trkpt>
      <trkpt lat="47.29327" lon="-2.25969">
        <ele>10.199999809265</ele>
        <time>2022-09-18T08:04:50.000Z</time>
      </trkpt>
      <trkpt lat="47.29318" lon="-2.25971">
        <ele>10.199999809265</ele>
        <time>2022-09-18T08:04:52.000Z</time>
      </trkpt>
      <trkpt lat="47.29313" lon="-2.25974">
        <ele>10.199999809265</ele>
        <time>2022-09-18T08:04:53.000Z</time>
      </trkpt>
      <trkpt lat="47.29308" lon="-2.25977">
        <ele>10.199999809265</ele>
        <time>2022-09-18T08:04:54.000Z</time>
      </trkpt>
      <trkpt lat="47.29303" lon="-2.25985">
        <ele>10.199999809265</ele>
        <time>2022-09-18T08:04:57.000Z</time>
      </trkpt>
      <trkpt lat="47.29308" lon="-2.26003">
        <ele>10.199999809265</ele>
        <time>2022-09-18T08:05:01.000Z</time>
      </trkpt>
      <trkpt lat="47.29314" lon="-2.26016">
        <ele>10.199999809265</ele>
        <time>2022-09-18T08:05:03.000Z</time>
      </trkpt>
      <trkpt lat="47.29319" lon="-2.26036">
        <ele>10.199999809265</ele>
        <time>2022-09-18T08:05:06.000Z</time>
      </trkpt>
      <trkpt lat="47.29331" lon="-2.26082">
        <ele>10.199999809265</ele>
        <time>2022-09-18T08:05:12.000Z</time>
      </trkpt>
      <trkpt lat="47.29333" lon="-2.26087">
        <ele>10.199999809265</ele>
        <time>2022-09-18T08:05:13.000Z</time>
      </trkpt>
      <trkpt lat="47.29349" lon="-2.26119">
        <ele>10.199999809265</ele>
        <time>2022-09-18T08:05:19.000Z</time>
      </trkpt>
      <trkpt lat="47.29362" lon="-2.26139">
        <ele>10.199999809265</ele>
        <time>2022-09-18T08:05:23.000Z</time>
      </trkpt>
      <trkpt lat="47.2937" lon="-2.26147">
        <ele>10.199999809265</ele>
        <time>2022-09-18T08:05:25.000Z</time>
      </trkpt>
      <trkpt lat="47.29374" lon="-2.2615">
        <ele>10.199999809265</ele>
        <time>2022-09-18T08:05:26.000Z</time>
      </trkpt>
      <trkpt lat="47.29389" lon="-2.26156">
        <ele>10.199999809265</ele>
        <time>2022-09-18T08:05:29.000Z</time>
      </trkpt>
      <trkpt lat="47.29399" lon="-2.26157">
        <ele>10.199999809265</ele>
        <time>2022-09-18T08:05:31.000Z</time>
      </trkpt>
      <trkpt lat="47.29405" lon="-2.26148">
        <ele>10.199999809265</ele>
        <time>2022-09-18T08:05:33.000Z</time>
      </trkpt>
      <trkpt lat="47.29409" lon="-2.26136">
        <ele>9.8000001907349</ele>
        <time>2022-09-18T08:05:35.000Z</time>
      </trkpt>
      <trkpt lat="47.2941" lon="-2.2613">
        <ele>9</ele>
        <time>2022-09-18T08:05:36.000Z</time>
      </trkpt>
      <trkpt lat="47.29411" lon="-2.26125">
        <ele>8.6000003814697</ele>
        <time>2022-09-18T08:05:37.000Z</time>
      </trkpt>
      <trkpt lat="47.29411" lon="-2.2612">
        <ele>8.1999998092651</ele>
        <time>2022-09-18T08:05:38.000Z</time>
      </trkpt>
      <trkpt lat="47.29412" lon="-2.26109">
        <ele>7.8000001907349</ele>
        <time>2022-09-18T08:05:40.000Z</time>
      </trkpt>
      <trkpt lat="47.29412" lon="-2.26103">
        <ele>7.4000000953674</ele>
        <time>2022-09-18T08:05:41.000Z</time>
      </trkpt>
      <trkpt lat="47.2941" lon="-2.26097">
        <ele>7</ele>
        <time>2022-09-18T08:05:42.000Z</time>
      </trkpt>
      <trkpt lat="47.29409" lon="-2.26091">
        <ele>6.5999999046326</ele>
        <time>2022-09-18T08:05:43.000Z</time>
      </trkpt>
      <trkpt lat="47.29409" lon="-2.26085">
        <ele>6.1999998092651</ele>
        <time>2022-09-18T08:05:44.000Z</time>
      </trkpt>
      <trkpt lat="47.29405" lon="-2.26072">
        <ele>6.1999998092651</ele>
        <time>2022-09-18T08:05:47.000Z</time>
      </trkpt>
      <trkpt lat="47.29395" lon="-2.26054">
        <ele>6.1999998092651</ele>
        <time>2022-09-18T08:05:52.000Z</time>
      </trkpt>
      <trkpt lat="47.29388" lon="-2.26028">
        <ele>6.1999998092651</ele>
        <time>2022-09-18T08:05:57.000Z</time>
      </trkpt>
      <trkpt lat="47.29389" lon="-2.26004">
        <ele>6.1999998092651</ele>
        <time>2022-09-18T08:06:02.000Z</time>
      </trkpt>
      <trkpt lat="47.2939" lon="-2.25995">
        <ele>6.1999998092651</ele>
        <time>2022-09-18T08:06:04.000Z</time>
      </trkpt>
      <trkpt lat="47.29389" lon="-2.25987">
        <ele>6.1999998092651</ele>
        <time>2022-09-18T08:06:06.000Z</time>
      </trkpt>
      <trkpt lat="47.29388" lon="-2.25973">
        <ele>6.5999999046326</ele>
        <time>2022-09-18T08:06:09.000Z</time>
      </trkpt>
      <trkpt lat="47.29389" lon="-2.25969">
        <ele>7</ele>
        <time>2022-09-18T08:06:10.000Z</time>
      </trkpt>
      <trkpt lat="47.2939" lon="-2.25967">
        <ele>7.4000000953674</ele>
        <time>2022-09-18T08:06:11.000Z</time>
      </trkpt>
      <trkpt lat="47.2939" lon="-2.25967">
        <ele>7.8000001907349</ele>
        <time>2022-09-18T08:06:12.000Z</time>
      </trkpt>
      <trkpt lat="47.29394" lon="-2.25968">
        <ele>8.1999998092651</ele>
        <time>2022-09-18T08:06:13.000Z</time>
      </trkpt>
      <trkpt lat="47.29397" lon="-2.25967">
        <ele>8.1999998092651</ele>
        <time>2022-09-18T08:06:14.000Z</time>
      </trkpt>
      <trkpt lat="47.29411" lon="-2.25957">
        <ele>8.1999998092651</ele>
        <time>2022-09-18T08:06:17.000Z</time>
      </trkpt>
      <trkpt lat="47.2943" lon="-2.25946">
        <ele>8.1999998092651</ele>
        <time>2022-09-18T08:06:21.000Z</time>
      </trkpt>
      <trkpt lat="47.29436" lon="-2.25936">
        <ele>7.8000001907349</ele>
        <time>2022-09-18T08:06:23.000Z</time>
      </trkpt>
      <trkpt lat="47.29438" lon="-2.2593">
        <ele>7.4000000953674</ele>
        <time>2022-09-18T08:06:24.000Z</time>
      </trkpt>
      <trkpt lat="47.29439" lon="-2.25924">
        <ele>6.5999999046326</ele>
        <time>2022-09-18T08:06:25.000Z</time>
      </trkpt>
      <trkpt lat="47.29438" lon="-2.25918">
        <ele>6.1999998092651</ele>
        <time>2022-09-18T08:06:26.000Z</time>
      </trkpt>
      <trkpt lat="47.29436" lon="-2.25903">
        <ele>6.1999998092651</ele>
        <time>2022-09-18T08:06:28.000Z</time>
      </trkpt>
      <trkpt lat="47.29435" lon="-2.25896">
        <ele>6.1999998092651</ele>
        <time>2022-09-18T08:06:29.000Z</time>
      </trkpt>
      <trkpt lat="47.29428" lon="-2.2587">
        <ele>6.1999998092651</ele>
        <time>2022-09-18T08:06:33.000Z</time>
      </trkpt>
      <trkpt lat="47.29422" lon="-2.2586">
        <ele>6.1999998092651</ele>
        <time>2022-09-18T08:06:36.000Z</time>
      </trkpt>
      <trkpt lat="47.29425" lon="-2.2584">
        <ele>6.1999998092651</ele>
        <time>2022-09-18T08:06:40.000Z</time>
      </trkpt>
      <trkpt lat="47.29426" lon="-2.25833">
        <ele>6.1999998092651</ele>
        <time>2022-09-18T08:06:41.000Z</time>
      </trkpt>
      <trkpt lat="47.29426" lon="-2.25815">
        <ele>6.1999998092651</ele>
        <time>2022-09-18T08:06:44.000Z</time>
      </trkpt>
      <trkpt lat="47.29425" lon="-2.25795">
        <ele>6.1999998092651</ele>
        <time>2022-09-18T08:06:48.000Z</time>
      </trkpt>
      <trkpt lat="47.29424" lon="-2.25786">
        <ele>6.1999998092651</ele>
        <time>2022-09-18T08:06:51.000Z</time>
      </trkpt>
      <trkpt lat="47.2942" lon="-2.25782">
        <ele>6.1999998092651</ele>
        <time>2022-09-18T08:06:53.000Z</time>
      </trkpt>
      <trkpt lat="47.29419" lon="-2.25774">
        <ele>6.1999998092651</ele>
        <time>2022-09-18T08:06:56.000Z</time>
      </trkpt>
      <trkpt lat="47.29417" lon="-2.25772">
        <ele>6.5999999046326</ele>
        <time>2022-09-18T08:06:57.000Z</time>
      </trkpt>
      <trkpt lat="47.29416" lon="-2.25769">
        <ele>7</ele>
        <time>2022-09-18T08:06:58.000Z</time>
      </trkpt>
      <trkpt lat="47.29414" lon="-2.25767">
        <ele>7.4000000953674</ele>
        <time>2022-09-18T08:06:59.000Z</time>
      </trkpt>
      <trkpt lat="47.29412" lon="-2.25767">
        <ele>7.8000001907349</ele>
        <time>2022-09-18T08:07:00.000Z</time>
      </trkpt>
      <trkpt lat="47.2941" lon="-2.25766">
        <ele>8.1999998092651</ele>
        <time>2022-09-18T08:07:01.000Z</time>
      </trkpt>
      <trkpt lat="47.29408" lon="-2.25765">
        <ele>8.1999998092651</ele>
        <time>2022-09-18T08:07:02.000Z</time>
      </trkpt>
      <trkpt lat="47.29397" lon="-2.25759">
        <ele>8.1999998092651</ele>
        <time>2022-09-18T08:07:06.000Z</time>
      </trkpt>
      <trkpt lat="47.29395" lon="-2.2576">
        <ele>8.1999998092651</ele>
        <time>2022-09-18T08:07:07.000Z</time>
      </trkpt>
      <trkpt lat="47.29387" lon="-2.25764">
        <ele>8.6000003814697</ele>
        <time>2022-09-18T08:07:10.000Z</time>
      </trkpt>
      <trkpt lat="47.29384" lon="-2.25764">
        <ele>9</ele>
        <time>2022-09-18T08:07:11.000Z</time>
      </trkpt>
      <trkpt lat="47.29381" lon="-2.25763">
        <ele>9.3999996185303</ele>
        <time>2022-09-18T08:07:12.000Z</time>
      </trkpt>
      <trkpt lat="47.29378" lon="-2.25763">
        <ele>9.8000001907349</ele>
        <time>2022-09-18T08:07:13.000Z</time>
      </trkpt>
      <trkpt lat="47.29376" lon="-2.25764">
        <ele>10.199999809265</ele>
        <time>2022-09-18T08:07:14.000Z</time>
      </trkpt>
      <trkpt lat="47.29373" lon="-2.25765">
        <ele>10.199999809265</ele>
        <time>2022-09-18T08:07:15.000Z</time>
      </trkpt>
      <trkpt lat="47.2937" lon="-2.25767">
        <ele>10.199999809265</ele>
        <time>2022-09-18T08:07:17.000Z</time>
      </trkpt>
      <trkpt lat="47.29365" lon="-2.25781">
        <ele>10.199999809265</ele>
        <time>2022-09-18T08:07:22.000Z</time>
      </trkpt>
      <trkpt lat="47.29363" lon="-2.25792">
        <ele>10.199999809265</ele>
        <time>2022-09-18T08:07:25.000Z</time>
      </trkpt>
      <trkpt lat="47.2936" lon="-2.25795">
        <ele>10.199999809265</ele>
        <time>2022-09-18T08:07:26.000Z</time>
      </trkpt>
      <trkpt lat="47.29349" lon="-2.25799">
        <ele>10.199999809265</ele>
        <time>2022-09-18T08:07:30.000Z</time>
      </trkpt>
      <trkpt lat="47.29346" lon="-2.25799">
        <ele>10.199999809265</ele>
        <time>2022-09-18T08:07:31.000Z</time>
      </trkpt>
      <trkpt lat="47.2934" lon="-2.25796">
        <ele>10.199999809265</ele>
        <time>2022-09-18T08:07:34.000Z</time>
      </trkpt>
      <trkpt lat="47.29338" lon="-2.25794">
        <ele>10.199999809265</ele>
        <time>2022-09-18T08:07:36.000Z</time>
      </trkpt>
      <trkpt lat="47.29332" lon="-2.25792">
        <ele>10.60000038147</ele>
        <time>2022-09-18T08:07:39.000Z</time>
      </trkpt>
      <trkpt lat="47.2933" lon="-2.2579">
        <ele>11</ele>
        <time>2022-09-18T08:07:40.000Z</time>
      </trkpt>
      <trkpt lat="47.29329" lon="-2.25788">
        <ele>11.39999961853</ele>
        <time>2022-09-18T08:07:41.000Z</time>
      </trkpt>
      <trkpt lat="47.29328" lon="-2.25786">
        <ele>11.800000190735</ele>
        <time>2022-09-18T08:07:42.000Z</time>
      </trkpt>
      <trkpt lat="47.29328" lon="-2.25787">
        <ele>12.199999809265</ele>
        <time>2022-09-18T08:07:43.000Z</time>
      </trkpt>
      <trkpt lat="47.29329" lon="-2.25784">
        <ele>12.199999809265</ele>
        <time>2022-09-18T08:07:44.000Z</time>
      </trkpt>
      <trkpt lat="47.29332" lon="-2.2578">
        <ele>12.199999809265</ele>
        <time>2022-09-18T08:07:46.000Z</time>
      </trkpt>
      <trkpt lat="47.29342" lon="-2.25763">
        <ele>12.199999809265</ele>
        <time>2022-09-18T08:07:50.000Z</time>
      </trkpt>
      <trkpt lat="47.29357" lon="-2.2574">
        <ele>12.199999809265</ele>
        <time>2022-09-18T08:07:55.000Z</time>
      </trkpt>
      <trkpt lat="47.29361" lon="-2.25734">
        <ele>12.199999809265</ele>
        <time>2022-09-18T08:07:56.000Z</time>
      </trkpt>
      <trkpt lat="47.29364" lon="-2.25728">
        <ele>12.199999809265</ele>
        <time>2022-09-18T08:07:57.000Z</time>
      </trkpt>
      <trkpt lat="47.29373" lon="-2.257">
        <ele>12.199999809265</ele>
        <time>2022-09-18T08:08:01.000Z</time>
      </trkpt>
      <trkpt lat="47.29381" lon="-2.25655">
        <ele>12.199999809265</ele>
        <time>2022-09-18T08:08:07.000Z</time>
      </trkpt>
      <trkpt lat="47.29393" lon="-2.25632">
        <ele>12.199999809265</ele>
        <time>2022-09-18T08:08:11.000Z</time>
      </trkpt>
      <trkpt lat="47.29407" lon="-2.25624">
        <ele>12.199999809265</ele>
        <time>2022-09-18T08:08:14.000Z</time>
      </trkpt>
      <trkpt lat="47.29412" lon="-2.25622">
        <ele>12.199999809265</ele>
        <time>2022-09-18T08:08:15.000Z</time>
      </trkpt>
      <trkpt lat="47.29454" lon="-2.25604">
        <ele>12.199999809265</ele>
        <time>2022-09-18T08:08:23.000Z</time>
      </trkpt>
      <trkpt lat="47.29494" lon="-2.25583">
        <ele>12.199999809265</ele>
        <time>2022-09-18T08:08:30.000Z</time>
      </trkpt>
      <trkpt lat="47.29546" lon="-2.2555">
        <ele>12.199999809265</ele>
        <time>2022-09-18T08:08:39.000Z</time>
      </trkpt>
      <trkpt lat="47.29551" lon="-2.25546">
        <ele>12.199999809265</ele>
        <time>2022-09-18T08:08:40.000Z</time>
      </trkpt>
      <trkpt lat="47.29571" lon="-2.25529">
        <ele>12.199999809265</ele>
        <time>2022-09-18T08:08:44.000Z</time>
      </trkpt>
      <trkpt lat="47.29573" lon="-2.25527">
        <ele>12.199999809265</ele>
        <time>2022-09-18T08:08:45.000Z</time>
      </trkpt>
      <trkpt lat="47.29582" lon="-2.25505">
        <ele>12.199999809265</ele>
        <time>2022-09-18T08:08:50.000Z</time>
      </trkpt>
      <trkpt lat="47.29584" lon="-2.25492">
        <ele>12.199999809265</ele>
        <time>2022-09-18T08:08:52.000Z</time>
      </trkpt>
      <trkpt lat="47.29584" lon="-2.25484">
        <ele>11.39999961853</ele>
        <time>2022-09-18T08:08:53.000Z</time>
      </trkpt>
      <trkpt lat="47.29584" lon="-2.25476">
        <ele>11</ele>
        <time>2022-09-18T08:08:54.000Z</time>
      </trkpt>
      <trkpt lat="47.29584" lon="-2.25467">
        <ele>10.60000038147</ele>
        <time>2022-09-18T08:08:55.000Z</time>
      </trkpt>
      <trkpt lat="47.29583" lon="-2.25459">
        <ele>10.199999809265</ele>
        <time>2022-09-18T08:08:56.000Z</time>
      </trkpt>
      <trkpt lat="47.29582" lon="-2.25451">
        <ele>10.199999809265</ele>
        <time>2022-09-18T08:08:57.000Z</time>
      </trkpt>
      <trkpt lat="47.29579" lon="-2.25427">
        <ele>10.199999809265</ele>
        <time>2022-09-18T08:09:00.000Z</time>
      </trkpt>
      <trkpt lat="47.29578" lon="-2.25418">
        <ele>10.199999809265</ele>
        <time>2022-09-18T08:09:01.000Z</time>
      </trkpt>
      <trkpt lat="47.29573" lon="-2.25379">
        <ele>10.199999809265</ele>
        <time>2022-09-18T08:09:06.000Z</time>
      </trkpt>
      <trkpt lat="47.29565" lon="-2.25358">
        <ele>9.8000001907349</ele>
        <time>2022-09-18T08:09:09.000Z</time>
      </trkpt>
      <trkpt lat="47.29562" lon="-2.25351">
        <ele>9.3999996185303</ele>
        <time>2022-09-18T08:09:10.000Z</time>
      </trkpt>
      <trkpt lat="47.29559" lon="-2.25344">
        <ele>9</ele>
        <time>2022-09-18T08:09:11.000Z</time>
      </trkpt>
      <trkpt lat="47.29556" lon="-2.25336">
        <ele>8.3999996185303</ele>
        <time>2022-09-18T08:09:12.000Z</time>
      </trkpt>
      <trkpt lat="47.29552" lon="-2.25328">
        <ele>8</ele>
        <time>2022-09-18T08:09:13.000Z</time>
      </trkpt>
      <trkpt lat="47.2954" lon="-2.25296">
        <ele>8</ele>
        <time>2022-09-18T08:09:17.000Z</time>
      </trkpt>
      <trkpt lat="47.29538" lon="-2.25286">
        <ele>8</ele>
        <time>2022-09-18T08:09:18.000Z</time>
      </trkpt>
      <trkpt lat="47.29537" lon="-2.25268">
        <ele>7.5999999046326</ele>
        <time>2022-09-18T08:09:20.000Z</time>
      </trkpt>
      <trkpt lat="47.29536" lon="-2.25258">
        <ele>7.1999998092651</ele>
        <time>2022-09-18T08:09:21.000Z</time>
      </trkpt>
      <trkpt lat="47.29537" lon="-2.25249">
        <ele>6.8000001907349</ele>
        <time>2022-09-18T08:09:22.000Z</time>
      </trkpt>
      <trkpt lat="47.29537" lon="-2.25241">
        <ele>6.4000000953674</ele>
        <time>2022-09-18T08:09:23.000Z</time>
      </trkpt>
      <trkpt lat="47.29538" lon="-2.25233">
        <ele>6</ele>
        <time>2022-09-18T08:09:24.000Z</time>
      </trkpt>
      <trkpt lat="47.2954" lon="-2.25218">
        <ele>6</ele>
        <time>2022-09-18T08:09:26.000Z</time>
      </trkpt>
      <trkpt lat="47.29542" lon="-2.25211">
        <ele>6</ele>
        <time>2022-09-18T08:09:27.000Z</time>
      </trkpt>
      <trkpt lat="47.29543" lon="-2.25205">
        <ele>6</ele>
        <time>2022-09-18T08:09:28.000Z</time>
      </trkpt>
      <trkpt lat="47.29548" lon="-2.25191">
        <ele>6</ele>
        <time>2022-09-18T08:09:31.000Z</time>
      </trkpt>
      <trkpt lat="47.29548" lon="-2.25184">
        <ele>6</ele>
        <time>2022-09-18T08:09:33.000Z</time>
      </trkpt>
      <trkpt lat="47.29545" lon="-2.2518">
        <ele>6</ele>
        <time>2022-09-18T08:09:35.000Z</time>
      </trkpt>
      <trkpt lat="47.29535" lon="-2.25181">
        <ele>6</ele>
        <time>2022-09-18T08:09:38.000Z</time>
      </trkpt>
      <trkpt lat="47.29525" lon="-2.25184">
        <ele>6</ele>
        <time>2022-09-18T08:09:40.000Z</time>
      </trkpt>
      <trkpt lat="47.29503" lon="-2.25193">
        <ele>6</ele>
        <time>2022-09-18T08:09:44.000Z</time>
      </trkpt>
      <trkpt lat="47.29493" lon="-2.25197">
        <ele>5.5999999046326</ele>
        <time>2022-09-18T08:09:46.000Z</time>
      </trkpt>
      <trkpt lat="47.29487" lon="-2.25198">
        <ele>5.1999998092651</ele>
        <time>2022-09-18T08:09:47.000Z</time>
      </trkpt>
      <trkpt lat="47.29482" lon="-2.25199">
        <ele>4.8000001907349</ele>
        <time>2022-09-18T08:09:48.000Z</time>
      </trkpt>
      <trkpt lat="47.29477" lon="-2.25201">
        <ele>4.4000000953674</ele>
        <time>2022-09-18T08:09:49.000Z</time>
      </trkpt>
      <trkpt lat="47.29471" lon="-2.25202">
        <ele>3.7999999523163</ele>
        <time>2022-09-18T08:09:50.000Z</time>
      </trkpt>
      <trkpt lat="47.29436" lon="-2.25212">
        <ele>3.7999999523163</ele>
        <time>2022-09-18T08:09:56.000Z</time>
      </trkpt>
      <trkpt lat="47.29431" lon="-2.25214">
        <ele>3.7999999523163</ele>
        <time>2022-09-18T08:09:57.000Z</time>
      </trkpt>
      <trkpt lat="47.29409" lon="-2.25217">
        <ele>3.4000000953674</ele>
        <time>2022-09-18T08:10:01.000Z</time>
      </trkpt>
      <trkpt lat="47.29404" lon="-2.25217">
        <ele>3</ele>
        <time>2022-09-18T08:10:02.000Z</time>
      </trkpt>
      <trkpt lat="47.29399" lon="-2.25215">
        <ele>2.5999999046326</ele>
        <time>2022-09-18T08:10:03.000Z</time>
      </trkpt>
      <trkpt lat="47.29394" lon="-2.25214">
        <ele>2.2000000476837</ele>
        <time>2022-09-18T08:10:04.000Z</time>
      </trkpt>
      <trkpt lat="47.29389" lon="-2.25213">
        <ele>1.7999999523163</ele>
        <time>2022-09-18T08:10:05.000Z</time>
      </trkpt>
      <trkpt lat="47.29377" lon="-2.25211">
        <ele>1.7999999523163</ele>
        <time>2022-09-18T08:10:07.000Z</time>
      </trkpt>
      <trkpt lat="47.29371" lon="-2.25209">
        <ele>1.7999999523163</ele>
        <time>2022-09-18T08:10:08.000Z</time>
      </trkpt>
      <trkpt lat="47.29359" lon="-2.25205">
        <ele>1.7999999523163</ele>
        <time>2022-09-18T08:10:10.000Z</time>
      </trkpt>
      <trkpt lat="47.29352" lon="-2.25203">
        <ele>1.7999999523163</ele>
        <time>2022-09-18T08:10:11.000Z</time>
      </trkpt>
      <trkpt lat="47.29334" lon="-2.25199">
        <ele>1.7999999523163</ele>
        <time>2022-09-18T08:10:14.000Z</time>
      </trkpt>
      <trkpt lat="47.29323" lon="-2.252">
        <ele>1.7999999523163</ele>
        <time>2022-09-18T08:10:16.000Z</time>
      </trkpt>
      <trkpt lat="47.29318" lon="-2.252">
        <ele>1.7999999523163</ele>
        <time>2022-09-18T08:10:17.000Z</time>
      </trkpt>
      <trkpt lat="47.29311" lon="-2.25194">
        <ele>1.7999999523163</ele>
        <time>2022-09-18T08:10:19.000Z</time>
      </trkpt>
      <trkpt lat="47.29306" lon="-2.25172">
        <ele>1.7999999523163</ele>
        <time>2022-09-18T08:10:22.000Z</time>
      </trkpt>
      <trkpt lat="47.29304" lon="-2.25164">
        <ele>1.7999999523163</ele>
        <time>2022-09-18T08:10:23.000Z</time>
      </trkpt>
      <trkpt lat="47.29294" lon="-2.25107">
        <ele>1.7999999523163</ele>
        <time>2022-09-18T08:10:31.000Z</time>
      </trkpt>
      <trkpt lat="47.2929" lon="-2.25085">
        <ele>1.7999999523163</ele>
        <time>2022-09-18T08:10:34.000Z</time>
      </trkpt>
      <trkpt lat="47.29284" lon="-2.25065">
        <ele>2.2000000476837</ele>
        <time>2022-09-18T08:10:37.000Z</time>
      </trkpt>
      <trkpt lat="47.29282" lon="-2.25058">
        <ele>2.5999999046326</ele>
        <time>2022-09-18T08:10:38.000Z</time>
      </trkpt>
      <trkpt lat="47.2928" lon="-2.25051">
        <ele>3</ele>
        <time>2022-09-18T08:10:39.000Z</time>
      </trkpt>
      <trkpt lat="47.29278" lon="-2.25043">
        <ele>3.4000000953674</ele>
        <time>2022-09-18T08:10:40.000Z</time>
      </trkpt>
      <trkpt lat="47.29276" lon="-2.25036">
        <ele>4</ele>
        <time>2022-09-18T08:10:41.000Z</time>
      </trkpt>
      <trkpt lat="47.29274" lon="-2.25028">
        <ele>4</ele>
        <time>2022-09-18T08:10:42.000Z</time>
      </trkpt>
      <trkpt lat="47.29273" lon="-2.2502">
        <ele>4</ele>
        <time>2022-09-18T08:10:43.000Z</time>
      </trkpt>
      <trkpt lat="47.29264" lon="-2.24981">
        <ele>4</ele>
        <time>2022-09-18T08:10:48.000Z</time>
      </trkpt>
      <trkpt lat="47.2926" lon="-2.24957">
        <ele>4</ele>
        <time>2022-09-18T08:10:51.000Z</time>
      </trkpt>
      <trkpt lat="47.2926" lon="-2.24941">
        <ele>4</ele>
        <time>2022-09-18T08:10:53.000Z</time>
      </trkpt>
      <trkpt lat="47.29267" lon="-2.24926">
        <ele>4</ele>
        <time>2022-09-18T08:10:56.000Z</time>
      </trkpt>
      <trkpt lat="47.29275" lon="-2.24923">
        <ele>4</ele>
        <time>2022-09-18T08:10:58.000Z</time>
      </trkpt>
      <trkpt lat="47.29279" lon="-2.24922">
        <ele>4</ele>
        <time>2022-09-18T08:10:59.000Z</time>
      </trkpt>
      <trkpt lat="47.29315" lon="-2.24919">
        <ele>4</ele>
        <time>2022-09-18T08:11:06.000Z</time>
      </trkpt>
      <trkpt lat="47.29328" lon="-2.24916">
        <ele>4</ele>
        <time>2022-09-18T08:11:09.000Z</time>
      </trkpt>
      <trkpt lat="47.29333" lon="-2.24895">
        <ele>4</ele>
        <time>2022-09-18T08:11:13.000Z</time>
      </trkpt>
      <trkpt lat="47.29332" lon="-2.24883">
        <ele>4</ele>
        <time>2022-09-18T08:11:15.000Z</time>
      </trkpt>
      <trkpt lat="47.29332" lon="-2.24876">
        <ele>4</ele>
        <time>2022-09-18T08:11:16.000Z</time>
      </trkpt>
      <trkpt lat="47.29331" lon="-2.24862">
        <ele>4</ele>
        <time>2022-09-18T08:11:18.000Z</time>
      </trkpt>
      <trkpt lat="47.29328" lon="-2.24826">
        <ele>4</ele>
        <time>2022-09-18T08:11:24.000Z</time>
      </trkpt>
      <trkpt lat="47.29325" lon="-2.2481">
        <ele>4</ele>
        <time>2022-09-18T08:11:27.000Z</time>
      </trkpt>
      <trkpt lat="47.29323" lon="-2.24797">
        <ele>4</ele>
        <time>2022-09-18T08:11:29.000Z</time>
      </trkpt>
      <trkpt lat="47.29319" lon="-2.24778">
        <ele>4</ele>
        <time>2022-09-18T08:11:32.000Z</time>
      </trkpt>
      <trkpt lat="47.29316" lon="-2.24772">
        <ele>4</ele>
        <time>2022-09-18T08:11:33.000Z</time>
      </trkpt>
      <trkpt lat="47.29314" lon="-2.24766">
        <ele>4</ele>
        <time>2022-09-18T08:11:34.000Z</time>
      </trkpt>
      <trkpt lat="47.29307" lon="-2.24737">
        <ele>4</ele>
        <time>2022-09-18T08:11:38.000Z</time>
      </trkpt>
      <trkpt lat="47.29297" lon="-2.24695">
        <ele>4</ele>
        <time>2022-09-18T08:11:44.000Z</time>
      </trkpt>
      <trkpt lat="47.29296" lon="-2.24687">
        <ele>3.4000000953674</ele>
        <time>2022-09-18T08:11:45.000Z</time>
      </trkpt>
      <trkpt lat="47.29294" lon="-2.2468">
        <ele>2.5999999046326</ele>
        <time>2022-09-18T08:11:46.000Z</time>
      </trkpt>
      <trkpt lat="47.29294" lon="-2.24672">
        <ele>2.2000000476837</ele>
        <time>2022-09-18T08:11:47.000Z</time>
      </trkpt>
      <trkpt lat="47.29293" lon="-2.24664">
        <ele>1.7999999523163</ele>
        <time>2022-09-18T08:11:48.000Z</time>
      </trkpt>
      <trkpt lat="47.29293" lon="-2.24656">
        <ele>1.7999999523163</ele>
        <time>2022-09-18T08:11:49.000Z</time>
      </trkpt>
      <trkpt lat="47.29296" lon="-2.24611">
        <ele>1.7999999523163</ele>
        <time>2022-09-18T08:11:54.000Z</time>
      </trkpt>
      <trkpt lat="47.29295" lon="-2.24569">
        <ele>1.7999999523163</ele>
        <time>2022-09-18T08:11:59.000Z</time>
      </trkpt>
      <trkpt lat="47.29294" lon="-2.2456">
        <ele>1.7999999523163</ele>
        <time>2022-09-18T08:12:00.000Z</time>
      </trkpt>
      <trkpt lat="47.29293" lon="-2.24518">
        <ele>1.7999999523163</ele>
        <time>2022-09-18T08:12:05.000Z</time>
      </trkpt>
      <trkpt lat="47.29291" lon="-2.24489">
        <ele>1.7999999523163</ele>
        <time>2022-09-18T08:12:09.000Z</time>
      </trkpt>
      <trkpt lat="47.29292" lon="-2.24479">
        <ele>1.7999999523163</ele>
        <time>2022-09-18T08:12:11.000Z</time>
      </trkpt>
      <trkpt lat="47.29292" lon="-2.24475">
        <ele>1.7999999523163</ele>
        <time>2022-09-18T08:12:12.000Z</time>
      </trkpt>
      <trkpt lat="47.29292" lon="-2.24468">
        <ele>1.7999999523163</ele>
        <time>2022-09-18T08:12:14.000Z</time>
      </trkpt>
      <trkpt lat="47.29288" lon="-2.24462">
        <ele>1.7999999523163</ele>
        <time>2022-09-18T08:12:17.000Z</time>
      </trkpt>
      <trkpt lat="47.29278" lon="-2.24466">
        <ele>1.7999999523163</ele>
        <time>2022-09-18T08:12:20.000Z</time>
      </trkpt>
      <trkpt lat="47.29274" lon="-2.24467">
        <ele>1.7999999523163</ele>
        <time>2022-09-18T08:12:21.000Z</time>
      </trkpt>
      <trkpt lat="47.29245" lon="-2.24477">
        <ele>1.7999999523163</ele>
        <time>2022-09-18T08:12:28.000Z</time>
      </trkpt>
      <trkpt lat="47.29241" lon="-2.24477">
        <ele>1.7999999523163</ele>
        <time>2022-09-18T08:12:29.000Z</time>
      </trkpt>
      <trkpt lat="47.29234" lon="-2.24471">
        <ele>1.7999999523163</ele>
        <time>2022-09-18T08:12:31.000Z</time>
      </trkpt>
      <trkpt lat="47.29226" lon="-2.24449">
        <ele>1.7999999523163</ele>
        <time>2022-09-18T08:12:34.000Z</time>
      </trkpt>
      <trkpt lat="47.29224" lon="-2.24441">
        <ele>1.7999999523163</ele>
        <time>2022-09-18T08:12:35.000Z</time>
      </trkpt>
      <trkpt lat="47.29217" lon="-2.24409">
        <ele>1.7999999523163</ele>
        <time>2022-09-18T08:12:39.000Z</time>
      </trkpt>
      <trkpt lat="47.29212" lon="-2.24395">
        <ele>1.7999999523163</ele>
        <time>2022-09-18T08:12:41.000Z</time>
      </trkpt>
      <trkpt lat="47.29193" lon="-2.24351">
        <ele>1.7999999523163</ele>
        <time>2022-09-18T08:12:47.000Z</time>
      </trkpt>
      <trkpt lat="47.29179" lon="-2.24319">
        <ele>1.7999999523163</ele>
        <time>2022-09-18T08:12:52.000Z</time>
      </trkpt>
      <trkpt lat="47.29177" lon="-2.24312">
        <ele>1.7999999523163</ele>
        <time>2022-09-18T08:12:53.000Z</time>
      </trkpt>
      <trkpt lat="47.29169" lon="-2.24291">
        <ele>1.7999999523163</ele>
        <time>2022-09-18T08:12:56.000Z</time>
      </trkpt>
      <trkpt lat="47.29165" lon="-2.24276">
        <ele>1.7999999523163</ele>
        <time>2022-09-18T08:12:58.000Z</time>
      </trkpt>
      <trkpt lat="47.29154" lon="-2.24241">
        <ele>1.7999999523163</ele>
        <time>2022-09-18T08:13:03.000Z</time>
      </trkpt>
      <trkpt lat="47.29142" lon="-2.24209">
        <ele>1.7999999523163</ele>
        <time>2022-09-18T08:13:08.000Z</time>
      </trkpt>
      <trkpt lat="47.29137" lon="-2.24189">
        <ele>1.7999999523163</ele>
        <time>2022-09-18T08:13:11.000Z</time>
      </trkpt>
      <trkpt lat="47.29133" lon="-2.24177">
        <ele>1.7999999523163</ele>
        <time>2022-09-18T08:13:13.000Z</time>
      </trkpt>
      <trkpt lat="47.29127" lon="-2.24157">
        <ele>1.7999999523163</ele>
        <time>2022-09-18T08:13:17.000Z</time>
      </trkpt>
      <trkpt lat="47.29125" lon="-2.24135">
        <ele>1.7999999523163</ele>
        <time>2022-09-18T08:13:22.000Z</time>
      </trkpt>
      <trkpt lat="47.29116" lon="-2.24106">
        <ele>1.7999999523163</ele>
        <time>2022-09-18T08:13:27.000Z</time>
      </trkpt>
      <trkpt lat="47.29118" lon="-2.24088">
        <ele>1.3999999761581</ele>
        <time>2022-09-18T08:13:30.000Z</time>
      </trkpt>
      <trkpt lat="47.29121" lon="-2.24085">
        <ele>1</ele>
        <time>2022-09-18T08:13:31.000Z</time>
      </trkpt>
      <trkpt lat="47.29124" lon="-2.24082">
        <ele>0.60000002384186</ele>
        <time>2022-09-18T08:13:32.000Z</time>
      </trkpt>
      <trkpt lat="47.29127" lon="-2.24078">
        <ele>9.8</ele>
        <time>2022-09-18T08:13:33.000Z</time>
      </trkpt>
      <trkpt lat="47.29131" lon="-2.24075">
        <ele>-0.40000000596046</ele>
        <time>2022-09-18T08:13:34.000Z</time>
      </trkpt>
      <trkpt lat="47.29134" lon="-2.24072">
        <ele>-0.40000000596046</ele>
        <time>2022-09-18T08:13:35.000Z</time>
      </trkpt>
      <trkpt lat="47.29142" lon="-2.24065">
        <ele>-0.80000001192093</ele>
        <time>2022-09-18T08:13:37.000Z</time>
      </trkpt>
      <trkpt lat="47.29146" lon="-2.24061">
        <ele>-1.2000000476837</ele>
        <time>2022-09-18T08:13:38.000Z</time>
      </trkpt>
      <trkpt lat="47.2915" lon="-2.24056">
        <ele>-1.6000000238419</ele>
        <time>2022-09-18T08:13:39.000Z</time>
      </trkpt>
      <trkpt lat="47.29155" lon="-2.24051">
        <ele>-2.2000000476837</ele>
        <time>2022-09-18T08:13:40.000Z</time>
      </trkpt>
      <trkpt lat="47.2916" lon="-2.24046">
        <ele>-2.5999999046326</ele>
        <time>2022-09-18T08:13:41.000Z</time>
      </trkpt>
      <trkpt lat="47.29185" lon="-2.24021">
        <ele>-3</ele>
        <time>2022-09-18T08:13:45.000Z</time>
      </trkpt>
      <trkpt lat="47.29191" lon="-2.24015">
        <ele>-3.4000000953674</ele>
        <time>2022-09-18T08:13:46.000Z</time>
      </trkpt>
      <trkpt lat="47.29197" lon="-2.24009">
        <ele>-3.7999999523163</ele>
        <time>2022-09-18T08:13:47.000Z</time>
      </trkpt>
      <trkpt lat="47.29204" lon="-2.24002">
        <ele>-4.1999998092651</ele>
        <time>2022-09-18T08:13:48.000Z</time>
      </trkpt>
      <trkpt lat="47.29211" lon="-2.23996">
        <ele>-4.5999999046326</ele>
        <time>2022-09-18T08:13:49.000Z</time>
      </trkpt>
      <trkpt lat="47.29223" lon="-2.23985">
        <ele>-4.5999999046326</ele>
        <time>2022-09-18T08:13:51.000Z</time>
      </trkpt>
      <trkpt lat="47.2923" lon="-2.23981">
        <ele>-4.5999999046326</ele>
        <time>2022-09-18T08:13:52.000Z</time>
      </trkpt>
      <trkpt lat="47.29236" lon="-2.23976">
        <ele>-5</ele>
        <time>2022-09-18T08:13:53.000Z</time>
      </trkpt>
      <trkpt lat="47.29243" lon="-2.23973">
        <ele>-5.4000000953674</ele>
        <time>2022-09-18T08:13:54.000Z</time>
      </trkpt>
      <trkpt lat="47.29248" lon="-2.23971">
        <ele>-5.8000001907349</ele>
        <time>2022-09-18T08:13:55.000Z</time>
      </trkpt>
      <trkpt lat="47.29254" lon="-2.2397">
        <ele>-6.1999998092651</ele>
        <time>2022-09-18T08:13:56.000Z</time>
      </trkpt>
      <trkpt lat="47.29261" lon="-2.2397">
        <ele>-6.5999999046326</ele>
        <time>2022-09-18T08:13:57.000Z</time>
      </trkpt>
      <trkpt lat="47.29275" lon="-2.2397">
        <ele>-6.5999999046326</ele>
        <time>2022-09-18T08:13:59.000Z</time>
      </trkpt>
      <trkpt lat="47.293" lon="-2.23974">
        <ele>-6.5999999046326</ele>
        <time>2022-09-18T08:14:03.000Z</time>
      </trkpt>
      <trkpt lat="47.29307" lon="-2.23974">
        <ele>-6.5999999046326</ele>
        <time>2022-09-18T08:14:04.000Z</time>
      </trkpt>
      <trkpt lat="47.29338" lon="-2.23974">
        <ele>-6.5999999046326</ele>
        <time>2022-09-18T08:14:09.000Z</time>
      </trkpt>
      <trkpt lat="47.29344" lon="-2.23973">
        <ele>-6.5999999046326</ele>
        <time>2022-09-18T08:14:10.000Z</time>
      </trkpt>
      <trkpt lat="47.29354" lon="-2.23961">
        <ele>-6.5999999046326</ele>
        <time>2022-09-18T08:14:13.000Z</time>
      </trkpt>
      <trkpt lat="47.29349" lon="-2.23944">
        <ele>-6.5999999046326</ele>
        <time>2022-09-18T08:14:16.000Z</time>
      </trkpt>
      <trkpt lat="47.29328" lon="-2.23909">
        <ele>-6.5999999046326</ele>
        <time>2022-09-18T08:14:22.000Z</time>
      </trkpt>
      <trkpt lat="47.29325" lon="-2.23902">
        <ele>-6.5999999046326</ele>
        <time>2022-09-18T08:14:23.000Z</time>
      </trkpt>
      <trkpt lat="47.29318" lon="-2.23878">
        <ele>-6.5999999046326</ele>
        <time>2022-09-18T08:14:26.000Z</time>
      </trkpt>
      <trkpt lat="47.29317" lon="-2.2387">
        <ele>-6.5999999046326</ele>
        <time>2022-09-18T08:14:27.000Z</time>
      </trkpt>
      <trkpt lat="47.29311" lon="-2.23827">
        <ele>-6.5999999046326</ele>
        <time>2022-09-18T08:14:32.000Z</time>
      </trkpt>
      <trkpt lat="47.29311" lon="-2.23819">
        <ele>-6.5999999046326</ele>
        <time>2022-09-18T08:14:33.000Z</time>
      </trkpt>
      <trkpt lat="47.2931" lon="-2.23785">
        <ele>-6.5999999046326</ele>
        <time>2022-09-18T08:14:38.000Z</time>
      </trkpt>
      <trkpt lat="47.29312" lon="-2.23781">
        <ele>-6.5999999046326</ele>
        <time>2022-09-18T08:14:39.000Z</time>
      </trkpt>
      <trkpt lat="47.29324" lon="-2.23775">
        <ele>-6.5999999046326</ele>
        <time>2022-09-18T08:14:42.000Z</time>
      </trkpt>
      <trkpt lat="47.29328" lon="-2.23776">
        <ele>-6.5999999046326</ele>
        <time>2022-09-18T08:14:43.000Z</time>
      </trkpt>
      <trkpt lat="47.29337" lon="-2.23782">
        <ele>-6.5999999046326</ele>
        <time>2022-09-18T08:14:45.000Z</time>
      </trkpt>
      <trkpt lat="47.29352" lon="-2.23791">
        <ele>-6.5999999046326</ele>
        <time>2022-09-18T08:14:48.000Z</time>
      </trkpt>
      <trkpt lat="47.29361" lon="-2.23788">
        <ele>-6.5999999046326</ele>
        <time>2022-09-18T08:14:50.000Z</time>
      </trkpt>
      <trkpt lat="47.29368" lon="-2.23769">
        <ele>-6.5999999046326</ele>
        <time>2022-09-18T08:14:53.000Z</time>
      </trkpt>
      <trkpt lat="47.29369" lon="-2.23754">
        <ele>-6.5999999046326</ele>
        <time>2022-09-18T08:14:55.000Z</time>
      </trkpt>
      <trkpt lat="47.29375" lon="-2.23725">
        <ele>-6.5999999046326</ele>
        <time>2022-09-18T08:14:59.000Z</time>
      </trkpt>
      <trkpt lat="47.29378" lon="-2.23718">
        <ele>-6.5999999046326</ele>
        <time>2022-09-18T08:15:00.000Z</time>
      </trkpt>
      <trkpt lat="47.29387" lon="-2.23707">
        <ele>-6.1999998092651</ele>
        <time>2022-09-18T08:15:02.000Z</time>
      </trkpt>
      <trkpt lat="47.29392" lon="-2.23704">
        <ele>-5.4000000953674</ele>
        <time>2022-09-18T08:15:03.000Z</time>
      </trkpt>
      <trkpt lat="47.29398" lon="-2.23703">
        <ele>-5</ele>
        <time>2022-09-18T08:15:04.000Z</time>
      </trkpt>
      <trkpt lat="47.29403" lon="-2.23702">
        <ele>-4.5999999046326</ele>
        <time>2022-09-18T08:15:05.000Z</time>
      </trkpt>
      <trkpt lat="47.29408" lon="-2.237">
        <ele>-4.5999999046326</ele>
        <time>2022-09-18T08:15:06.000Z</time>
      </trkpt>
      <trkpt lat="47.29429" lon="-2.23692">
        <ele>-4.1999998092651</ele>
        <time>2022-09-18T08:15:10.000Z</time>
      </trkpt>
      <trkpt lat="47.29434" lon="-2.2369">
        <ele>-3.7999999523163</ele>
        <time>2022-09-18T08:15:11.000Z</time>
      </trkpt>
      <trkpt lat="47.2944" lon="-2.23688">
        <ele>-3.4000000953674</ele>
        <time>2022-09-18T08:15:12.000Z</time>
      </trkpt>
      <trkpt lat="47.29445" lon="-2.23686">
        <ele>-2.7999999523163</ele>
        <time>2022-09-18T08:15:13.000Z</time>
      </trkpt>
      <trkpt lat="47.29449" lon="-2.23684">
        <ele>-2.4000000953674</ele>
        <time>2022-09-18T08:15:14.000Z</time>
      </trkpt>
      <trkpt lat="47.29458" lon="-2.23679">
        <ele>-2.4000000953674</ele>
        <time>2022-09-18T08:15:16.000Z</time>
      </trkpt>
      <trkpt lat="47.29462" lon="-2.23678">
        <ele>-2</ele>
        <time>2022-09-18T08:15:17.000Z</time>
      </trkpt>
      <trkpt lat="47.29465" lon="-2.23676">
        <ele>-1.6000000238419</ele>
        <time>2022-09-18T08:15:18.000Z</time>
      </trkpt>
      <trkpt lat="47.29468" lon="-2.23674">
        <ele>-1.2000000476837</ele>
        <time>2022-09-18T08:15:19.000Z</time>
      </trkpt>
      <trkpt lat="47.29471" lon="-2.23672">
        <ele>-0.80000001192093</ele>
        <time>2022-09-18T08:15:20.000Z</time>
      </trkpt>
      <trkpt lat="47.29474" lon="-2.2367">
        <ele>-0.40000000596046</ele>
        <time>2022-09-18T08:15:21.000Z</time>
      </trkpt>
      <trkpt lat="47.29486" lon="-2.23666">
        <ele>-0.40000000596046</ele>
        <time>2022-09-18T08:15:24.000Z</time>
      </trkpt>
      <trkpt lat="47.29494" lon="-2.23674">
        <ele>-0.40000000596046</ele>
        <time>2022-09-18T08:15:26.000Z</time>
      </trkpt>
      <trkpt lat="47.29497" lon="-2.23699">
        <ele>-0.40000000596046</ele>
        <time>2022-09-18T08:15:29.000Z</time>
      </trkpt>
      <trkpt lat="47.29497" lon="-2.23709">
        <ele>-0.40000000596046</ele>
        <time>2022-09-18T08:15:30.000Z</time>
      </trkpt>
      <trkpt lat="47.29497" lon="-2.23718">
        <ele>-0.80000001192093</ele>
        <time>2022-09-18T08:15:31.000Z</time>
      </trkpt>
      <trkpt lat="47.29498" lon="-2.23728">
        <ele>-1.2000000476837</ele>
        <time>2022-09-18T08:15:32.000Z</time>
      </trkpt>
      <trkpt lat="47.29499" lon="-2.23739">
        <ele>-1.6000000238419</ele>
        <time>2022-09-18T08:15:33.000Z</time>
      </trkpt>
      <trkpt lat="47.295" lon="-2.23748">
        <ele>-2</ele>
        <time>2022-09-18T08:15:34.000Z</time>
      </trkpt>
      <trkpt lat="47.29501" lon="-2.23758">
        <ele>-2.5999999046326</ele>
        <time>2022-09-18T08:15:35.000Z</time>
      </trkpt>
      <trkpt lat="47.29507" lon="-2.23789">
        <ele>-3</ele>
        <time>2022-09-18T08:15:38.000Z</time>
      </trkpt>
      <trkpt lat="47.29509" lon="-2.238">
        <ele>-3.4000000953674</ele>
        <time>2022-09-18T08:15:39.000Z</time>
      </trkpt>
      <trkpt lat="47.29512" lon="-2.23811">
        <ele>-3.7999999523163</ele>
        <time>2022-09-18T08:15:40.000Z</time>
      </trkpt>
      <trkpt lat="47.29515" lon="-2.23822">
        <ele>-4.1999998092651</ele>
        <time>2022-09-18T08:15:41.000Z</time>
      </trkpt>
      <trkpt lat="47.29519" lon="-2.23832">
        <ele>-4.8000001907349</ele>
        <time>2022-09-18T08:15:42.000Z</time>
      </trkpt>
      <trkpt lat="47.29531" lon="-2.23882">
        <ele>-5.1999998092651</ele>
        <time>2022-09-18T08:15:47.000Z</time>
      </trkpt>
      <trkpt lat="47.29533" lon="-2.23892">
        <ele>-5.5999999046326</ele>
        <time>2022-09-18T08:15:48.000Z</time>
      </trkpt>
      <trkpt lat="47.29535" lon="-2.23901">
        <ele>-6</ele>
        <time>2022-09-18T08:15:49.000Z</time>
      </trkpt>
      <trkpt lat="47.29536" lon="-2.2391">
        <ele>-6.4000000953674</ele>
        <time>2022-09-18T08:15:50.000Z</time>
      </trkpt>
      <trkpt lat="47.29537" lon="-2.23919">
        <ele>-6.8000001907349</ele>
        <time>2022-09-18T08:15:51.000Z</time>
      </trkpt>
      <trkpt lat="47.29541" lon="-2.23947">
        <ele>-6.8000001907349</ele>
        <time>2022-09-18T08:15:54.000Z</time>
      </trkpt>
      <trkpt lat="47.29554" lon="-2.24024">
        <ele>-6.8000001907349</ele>
        <time>2022-09-18T08:16:03.000Z</time>
      </trkpt>
      <trkpt lat="47.29563" lon="-2.24076">
        <ele>-6.8000001907349</ele>
        <time>2022-09-18T08:16:09.000Z</time>
      </trkpt>
      <trkpt lat="47.29573" lon="-2.24134">
        <ele>-6.8000001907349</ele>
        <time>2022-09-18T08:16:16.000Z</time>
      </trkpt>
      <trkpt lat="47.29578" lon="-2.24163">
        <ele>-6.1999998092651</ele>
        <time>2022-09-18T08:16:20.000Z</time>
      </trkpt>
      <trkpt lat="47.29579" lon="-2.2417">
        <ele>-5.8000001907349</ele>
        <time>2022-09-18T08:16:21.000Z</time>
      </trkpt>
      <trkpt lat="47.29581" lon="-2.24177">
        <ele>-5.4000000953674</ele>
        <time>2022-09-18T08:16:22.000Z</time>
      </trkpt>
      <trkpt lat="47.29582" lon="-2.24185">
        <ele>-5</ele>
        <time>2022-09-18T08:16:23.000Z</time>
      </trkpt>
      <trkpt lat="47.29584" lon="-2.24192">
        <ele>-4.5999999046326</ele>
        <time>2022-09-18T08:16:24.000Z</time>
      </trkpt>
      <trkpt lat="47.29586" lon="-2.24199">
        <ele>-4.5999999046326</ele>
        <time>2022-09-18T08:16:25.000Z</time>
      </trkpt>
      <trkpt lat="47.29592" lon="-2.24207">
        <ele>-4.5999999046326</ele>
        <time>2022-09-18T08:16:27.000Z</time>
      </trkpt>
      <trkpt lat="47.29603" lon="-2.24203">
        <ele>-4.5999999046326</ele>
        <time>2022-09-18T08:16:30.000Z</time>
      </trkpt>
      <trkpt lat="47.29607" lon="-2.24186">
        <ele>-4.5999999046326</ele>
        <time>2022-09-18T08:16:33.000Z</time>
      </trkpt>
      <trkpt lat="47.29608" lon="-2.24171">
        <ele>-4.5999999046326</ele>
        <time>2022-09-18T08:16:35.000Z</time>
      </trkpt>
      <trkpt lat="47.2961" lon="-2.24147">
        <ele>-4.5999999046326</ele>
        <time>2022-09-18T08:16:38.000Z</time>
      </trkpt>
      <trkpt lat="47.29617" lon="-2.24081">
        <ele>-4.5999999046326</ele>
        <time>2022-09-18T08:16:46.000Z</time>
      </trkpt>
      <trkpt lat="47.29626" lon="-2.24063">
        <ele>-4.5999999046326</ele>
        <time>2022-09-18T08:16:49.000Z</time>
      </trkpt>
      <trkpt lat="47.29629" lon="-2.24033">
        <ele>-4.5999999046326</ele>
        <time>2022-09-18T08:16:53.000Z</time>
      </trkpt>
      <trkpt lat="47.29633" lon="-2.24002">
        <ele>-5</ele>
        <time>2022-09-18T08:16:57.000Z</time>
      </trkpt>
      <trkpt lat="47.29636" lon="-2.23996">
        <ele>-5.4000000953674</ele>
        <time>2022-09-18T08:16:58.000Z</time>
      </trkpt>
      <trkpt lat="47.29639" lon="-2.23991">
        <ele>-5.8000001907349</ele>
        <time>2022-09-18T08:16:59.000Z</time>
      </trkpt>
      <trkpt lat="47.29644" lon="-2.23986">
        <ele>-6.1999998092651</ele>
        <time>2022-09-18T08:17:00.000Z</time>
      </trkpt>
      <trkpt lat="47.29648" lon="-2.23982">
        <ele>-6.5999999046326</ele>
        <time>2022-09-18T08:17:01.000Z</time>
      </trkpt>
      <trkpt lat="47.29652" lon="-2.23978">
        <ele>-6.5999999046326</ele>
        <time>2022-09-18T08:17:02.000Z</time>
      </trkpt>
      <trkpt lat="47.29679" lon="-2.23955">
        <ele>-6.5999999046326</ele>
        <time>2022-09-18T08:17:08.000Z</time>
      </trkpt>
      <trkpt lat="47.29688" lon="-2.23951">
        <ele>-6.5999999046326</ele>
        <time>2022-09-18T08:17:10.000Z</time>
      </trkpt>
      <trkpt lat="47.29698" lon="-2.23945">
        <ele>-6.5999999046326</ele>
        <time>2022-09-18T08:17:12.000Z</time>
      </trkpt>
      <trkpt lat="47.29707" lon="-2.23923">
        <ele>-6.5999999046326</ele>
        <time>2022-09-18T08:17:15.000Z</time>
      </trkpt>
      <trkpt lat="47.29711" lon="-2.23892">
        <ele>-6.5999999046326</ele>
        <time>2022-09-18T08:17:19.000Z</time>
      </trkpt>
      <trkpt lat="47.29713" lon="-2.23884">
        <ele>-6.5999999046326</ele>
        <time>2022-09-18T08:17:20.000Z</time>
      </trkpt>
      <trkpt lat="47.29715" lon="-2.23876">
        <ele>-6.5999999046326</ele>
        <time>2022-09-18T08:17:21.000Z</time>
      </trkpt>
      <trkpt lat="47.29722" lon="-2.23853">
        <ele>-6.5999999046326</ele>
        <time>2022-09-18T08:17:24.000Z</time>
      </trkpt>
      <trkpt lat="47.29742" lon="-2.23812">
        <ele>-6.5999999046326</ele>
        <time>2022-09-18T08:17:30.000Z</time>
      </trkpt>
      <trkpt lat="47.29765" lon="-2.23794">
        <ele>-6.5999999046326</ele>
        <time>2022-09-18T08:17:35.000Z</time>
      </trkpt>
      <trkpt lat="47.29782" lon="-2.23794">
        <ele>-6.5999999046326</ele>
        <time>2022-09-18T08:17:38.000Z</time>
      </trkpt>
      <trkpt lat="47.29789" lon="-2.23794">
        <ele>-6.5999999046326</ele>
        <time>2022-09-18T08:17:39.000Z</time>
      </trkpt>
      <trkpt lat="47.29819" lon="-2.23807">
        <ele>-6.5999999046326</ele>
        <time>2022-09-18T08:17:44.000Z</time>
      </trkpt>
      <trkpt lat="47.29844" lon="-2.23821">
        <ele>-6.5999999046326</ele>
        <time>2022-09-18T08:17:49.000Z</time>
      </trkpt>
      <trkpt lat="47.29847" lon="-2.23823">
        <ele>-6.5999999046326</ele>
        <time>2022-09-18T08:17:50.000Z</time>
      </trkpt>
      <trkpt lat="47.29864" lon="-2.23821">
        <ele>-6.5999999046326</ele>
        <time>2022-09-18T08:17:53.000Z</time>
      </trkpt>
      <trkpt lat="47.29898" lon="-2.23818">
        <ele>-6.5999999046326</ele>
        <time>2022-09-18T08:17:59.000Z</time>
      </trkpt>
      <trkpt lat="47.29914" lon="-2.2382">
        <ele>-6.5999999046326</ele>
        <time>2022-09-18T08:18:02.000Z</time>
      </trkpt>
      <trkpt lat="47.29926" lon="-2.23824">
        <ele>-6.5999999046326</ele>
        <time>2022-09-18T08:18:04.000Z</time>
      </trkpt>
      <trkpt lat="47.29937" lon="-2.23828">
        <ele>-6.5999999046326</ele>
        <time>2022-09-18T08:18:06.000Z</time>
      </trkpt>
      <trkpt lat="47.29943" lon="-2.23831">
        <ele>-6.5999999046326</ele>
        <time>2022-09-18T08:18:07.000Z</time>
      </trkpt>
      <trkpt lat="47.29949" lon="-2.23835">
        <ele>-6.5999999046326</ele>
        <time>2022-09-18T08:18:08.000Z</time>
      </trkpt>
      <trkpt lat="47.29972" lon="-2.23855">
        <ele>-6.5999999046326</ele>
        <time>2022-09-18T08:18:12.000Z</time>
      </trkpt>
      <trkpt lat="47.29983" lon="-2.23864">
        <ele>-6.5999999046326</ele>
        <time>2022-09-18T08:18:14.000Z</time>
      </trkpt>
      <trkpt lat="47.29995" lon="-2.2388">
        <ele>-6.5999999046326</ele>
        <time>2022-09-18T08:18:17.000Z</time>
      </trkpt>
      <trkpt lat="47.29999" lon="-2.23887">
        <ele>-6.5999999046326</ele>
        <time>2022-09-18T08:18:19.000Z</time>
      </trkpt>
      <trkpt lat="47.30002" lon="-2.23894">
        <ele>-6.5999999046326</ele>
        <time>2022-09-18T08:18:21.000Z</time>
      </trkpt>
      <trkpt lat="47.30001" lon="-2.23912">
        <ele>-6.5999999046326</ele>
        <time>2022-09-18T08:18:26.000Z</time>
      </trkpt>
      <trkpt lat="47.30001" lon="-2.2394">
        <ele>-6.5999999046326</ele>
        <time>2022-09-18T08:18:31.000Z</time>
      </trkpt>
      <trkpt lat="47.30002" lon="-2.23959">
        <ele>-6.5999999046326</ele>
        <time>2022-09-18T08:18:34.000Z</time>
      </trkpt>
      <trkpt lat="47.30001" lon="-2.23979">
        <ele>-6.5999999046326</ele>
        <time>2022-09-18T08:18:37.000Z</time>
      </trkpt>
      <trkpt lat="47.29999" lon="-2.24008">
        <ele>-6.5999999046326</ele>
        <time>2022-09-18T08:18:41.000Z</time>
      </trkpt>
      <trkpt lat="47.29999" lon="-2.24022">
        <ele>-6.5999999046326</ele>
        <time>2022-09-18T08:18:43.000Z</time>
      </trkpt>
      <trkpt lat="47.29999" lon="-2.24043">
        <ele>-5.8000001907349</ele>
        <time>2022-09-18T08:18:46.000Z</time>
      </trkpt>
      <trkpt lat="47.3" lon="-2.24049">
        <ele>-5.4000000953674</ele>
        <time>2022-09-18T08:18:47.000Z</time>
      </trkpt>
      <trkpt lat="47.3" lon="-2.24056">
        <ele>-5</ele>
        <time>2022-09-18T08:18:48.000Z</time>
      </trkpt>
      <trkpt lat="47.3" lon="-2.24062">
        <ele>-4.5999999046326</ele>
        <time>2022-09-18T08:18:49.000Z</time>
      </trkpt>
      <trkpt lat="47.30002" lon="-2.24104">
        <ele>-4.5999999046326</ele>
        <time>2022-09-18T08:18:55.000Z</time>
      </trkpt>
      <trkpt lat="47.30002" lon="-2.24109">
        <ele>-4</ele>
        <time>2022-09-18T08:18:56.000Z</time>
      </trkpt>
      <trkpt lat="47.30001" lon="-2.24116">
        <ele>-3.5999999046326</ele>
        <time>2022-09-18T08:18:57.000Z</time>
      </trkpt>
      <trkpt lat="47.30001" lon="-2.24122">
        <ele>-3.2000000476837</ele>
        <time>2022-09-18T08:18:58.000Z</time>
      </trkpt>
      <trkpt lat="47.3" lon="-2.24127">
        <ele>-2.5999999046326</ele>
        <time>2022-09-18T08:18:59.000Z</time>
      </trkpt>
      <trkpt lat="47.29999" lon="-2.24133">
        <ele>-2.2000000476837</ele>
        <time>2022-09-18T08:19:00.000Z</time>
      </trkpt>
      <trkpt lat="47.29997" lon="-2.24144">
        <ele>-1.7999999523163</ele>
        <time>2022-09-18T08:19:02.000Z</time>
      </trkpt>
      <trkpt lat="47.29996" lon="-2.24148">
        <ele>-1.2000000476837</ele>
        <time>2022-09-18T08:19:03.000Z</time>
      </trkpt>
      <trkpt lat="47.29995" lon="-2.24152">
        <ele>-0.80000001192093</ele>
        <time>2022-09-18T08:19:04.000Z</time>
      </trkpt>
      <trkpt lat="47.29994" lon="-2.24156">
        <ele>-0.40000000596046</ele>
        <time>2022-09-18T08:19:05.000Z</time>
      </trkpt>
      <trkpt lat="47.29992" lon="-2.2416">
        <ele>11.9</ele>
        <time>2022-09-18T08:19:06.000Z</time>
      </trkpt>
      <trkpt lat="47.29989" lon="-2.24168">
        <ele>0.40000000596046</ele>
        <time>2022-09-18T08:19:08.000Z</time>
      </trkpt>
      <trkpt lat="47.29988" lon="-2.24174">
        <ele>0.80000001192093</ele>
        <time>2022-09-18T08:19:09.000Z</time>
      </trkpt>
      <trkpt lat="47.29986" lon="-2.2418">
        <ele>1.7999999523163</ele>
        <time>2022-09-18T08:19:10.000Z</time>
      </trkpt>
      <trkpt lat="47.29984" lon="-2.24185">
        <ele>2.2000000476837</ele>
        <time>2022-09-18T08:19:11.000Z</time>
      </trkpt>
      <trkpt lat="47.29972" lon="-2.24215">
        <ele>2.2000000476837</ele>
        <time>2022-09-18T08:19:16.000Z</time>
      </trkpt>
      <trkpt lat="47.29966" lon="-2.24228">
        <ele>2.5999999046326</ele>
        <time>2022-09-18T08:19:18.000Z</time>
      </trkpt>
      <trkpt lat="47.29963" lon="-2.24234">
        <ele>3</ele>
        <time>2022-09-18T08:19:19.000Z</time>
      </trkpt>
      <trkpt lat="47.2996" lon="-2.2424">
        <ele>3.4000000953674</ele>
        <time>2022-09-18T08:19:20.000Z</time>
      </trkpt>
      <trkpt lat="47.29956" lon="-2.24245">
        <ele>4</ele>
        <time>2022-09-18T08:19:21.000Z</time>
      </trkpt>
      <trkpt lat="47.29954" lon="-2.24251">
        <ele>4.4000000953674</ele>
        <time>2022-09-18T08:19:22.000Z</time>
      </trkpt>
      <trkpt lat="47.29943" lon="-2.24273">
        <ele>4.4000000953674</ele>
        <time>2022-09-18T08:19:26.000Z</time>
      </trkpt>
      <trkpt lat="47.2994" lon="-2.24279">
        <ele>4.4000000953674</ele>
        <time>2022-09-18T08:19:27.000Z</time>
      </trkpt>
      <trkpt lat="47.29937" lon="-2.24291">
        <ele>4.4000000953674</ele>
        <time>2022-09-18T08:19:29.000Z</time>
      </trkpt>
      <trkpt lat="47.29939" lon="-2.24303">
        <ele>4.4000000953674</ele>
        <time>2022-09-18T08:19:31.000Z</time>
      </trkpt>
      <trkpt lat="47.2995" lon="-2.2432">
        <ele>4.4000000953674</ele>
        <time>2022-09-18T08:19:35.000Z</time>
      </trkpt>
      <trkpt lat="47.29954" lon="-2.24323">
        <ele>4.4000000953674</ele>
        <time>2022-09-18T08:19:36.000Z</time>
      </trkpt>
      <trkpt lat="47.29971" lon="-2.24344">
        <ele>4.4000000953674</ele>
        <time>2022-09-18T08:19:41.000Z</time>
      </trkpt>
      <trkpt lat="47.29989" lon="-2.2436">
        <ele>4.4000000953674</ele>
        <time>2022-09-18T08:19:47.000Z</time>
      </trkpt>
      <trkpt lat="47.29995" lon="-2.24358">
        <ele>4.4000000953674</ele>
        <time>2022-09-18T08:19:49.000Z</time>
      </trkpt>
      <trkpt lat="47.29997" lon="-2.24352">
        <ele>4.4000000953674</ele>
        <time>2022-09-18T08:19:51.000Z</time>
      </trkpt>
      <trkpt lat="47.29998" lon="-2.24348">
        <ele>4.8000001907349</ele>
        <time>2022-09-18T08:19:52.000Z</time>
      </trkpt>
      <trkpt lat="47.29999" lon="-2.24345">
        <ele>5.1999998092651</ele>
        <time>2022-09-18T08:19:53.000Z</time>
      </trkpt>
      <trkpt lat="47.3" lon="-2.24342">
        <ele>5.5999999046326</ele>
        <time>2022-09-18T08:19:54.000Z</time>
      </trkpt>
      <trkpt lat="47.30001" lon="-2.24338">
        <ele>6</ele>
        <time>2022-09-18T08:19:55.000Z</time>
      </trkpt>
      <trkpt lat="47.30002" lon="-2.24335">
        <ele>6.4000000953674</ele>
        <time>2022-09-18T08:19:56.000Z</time>
      </trkpt>
      <trkpt lat="47.30003" lon="-2.24332">
        <ele>6.4000000953674</ele>
        <time>2022-09-18T08:19:57.000Z</time>
      </trkpt>
      <trkpt lat="47.30012" lon="-2.2431">
        <ele>6.4000000953674</ele>
        <time>2022-09-18T08:20:04.000Z</time>
      </trkpt>
      <trkpt lat="47.30015" lon="-2.24293">
        <ele>6.4000000953674</ele>
        <time>2022-09-18T08:20:09.000Z</time>
      </trkpt>
      <trkpt lat="47.30016" lon="-2.2429">
        <ele>6.4000000953674</ele>
        <time>2022-09-18T08:20:10.000Z</time>
      </trkpt>
      <trkpt lat="47.30021" lon="-2.24284">
        <ele>6.4000000953674</ele>
        <time>2022-09-18T08:20:13.000Z</time>
      </trkpt>
      <trkpt lat="47.30023" lon="-2.24268">
        <ele>6.4000000953674</ele>
        <time>2022-09-18T08:20:17.000Z</time>
      </trkpt>
      <trkpt lat="47.30023" lon="-2.24262">
        <ele>6.4000000953674</ele>
        <time>2022-09-18T08:20:18.000Z</time>
      </trkpt>
      <trkpt lat="47.30022" lon="-2.24256">
        <ele>6.4000000953674</ele>
        <time>2022-09-18T08:20:19.000Z</time>
      </trkpt>
      <trkpt lat="47.30021" lon="-2.24249">
        <ele>6</ele>
        <time>2022-09-18T08:20:20.000Z</time>
      </trkpt>
      <trkpt lat="47.3002" lon="-2.24241">
        <ele>5.4000000953674</ele>
        <time>2022-09-18T08:20:21.000Z</time>
      </trkpt>
      <trkpt lat="47.30019" lon="-2.24235">
        <ele>5</ele>
        <time>2022-09-18T08:20:22.000Z</time>
      </trkpt>
      <trkpt lat="47.30018" lon="-2.24228">
        <ele>4.5999999046326</ele>
        <time>2022-09-18T08:20:23.000Z</time>
      </trkpt>
      <trkpt lat="47.30018" lon="-2.24222">
        <ele>4</ele>
        <time>2022-09-18T08:20:24.000Z</time>
      </trkpt>
      <trkpt lat="47.30017" lon="-2.24211">
        <ele>4</ele>
        <time>2022-09-18T08:20:26.000Z</time>
      </trkpt>
      <trkpt lat="47.30017" lon="-2.24204">
        <ele>3.5999999046326</ele>
        <time>2022-09-18T08:20:27.000Z</time>
      </trkpt>
      <trkpt lat="47.30017" lon="-2.24197">
        <ele>3</ele>
        <time>2022-09-18T08:20:28.000Z</time>
      </trkpt>
      <trkpt lat="47.30017" lon="-2.24191">
        <ele>2.4000000953674</ele>
        <time>2022-09-18T08:20:29.000Z</time>
      </trkpt>
      <trkpt lat="47.30017" lon="-2.24185">
        <ele>1.7999999523163</ele>
        <time>2022-09-18T08:20:30.000Z</time>
      </trkpt>
      <trkpt lat="47.30016" lon="-2.2418">
        <ele>1.3999999761581</ele>
        <time>2022-09-18T08:20:31.000Z</time>
      </trkpt>
      <trkpt lat="47.30015" lon="-2.24175">
        <ele>1</ele>
        <time>2022-09-18T08:20:32.000Z</time>
      </trkpt>
      <trkpt lat="47.30014" lon="-2.2417">
        <ele>0.40000000596046</ele>
        <time>2022-09-18T08:20:33.000Z</time>
      </trkpt>
      <trkpt lat="47.30014" lon="-2.24166">
        <ele>12</ele>
        <time>2022-09-18T08:20:34.000Z</time>
      </trkpt>
      <trkpt lat="47.30013" lon="-2.24163">
        <ele>-0.40000000596046</ele>
        <time>2022-09-18T08:20:35.000Z</time>
      </trkpt>
      <trkpt lat="47.30013" lon="-2.2416">
        <ele>-0.80000001192093</ele>
        <time>2022-09-18T08:20:36.000Z</time>
      </trkpt>
      <trkpt lat="47.30015" lon="-2.24156">
        <ele>-0.80000001192093</ele>
        <time>2022-09-18T08:20:38.000Z</time>
      </trkpt>
      <trkpt lat="47.30016" lon="-2.24154">
        <ele>-0.80000001192093</ele>
        <time>2022-09-18T08:20:39.000Z</time>
      </trkpt>
      <trkpt lat="47.30026" lon="-2.24142">
        <ele>-0.80000001192093</ele>
        <time>2022-09-18T08:20:44.000Z</time>
      </trkpt>
      <trkpt lat="47.30049" lon="-2.24128">
        <ele>-0.80000001192093</ele>
        <time>2022-09-18T08:20:50.000Z</time>
      </trkpt>
      <trkpt lat="47.30074" lon="-2.24113">
        <ele>-0.80000001192093</ele>
        <time>2022-09-18T08:20:56.000Z</time>
      </trkpt>
      <trkpt lat="47.30094" lon="-2.24102">
        <ele>-0.40000000596046</ele>
        <time>2022-09-18T08:21:00.000Z</time>
      </trkpt>
      <trkpt lat="47.30099" lon="-2.24099">
        <ele>12.1</ele>
        <time>2022-09-18T08:21:01.000Z</time>
      </trkpt>
      <trkpt lat="47.30104" lon="-2.24096">
        <ele>0.40000000596046</ele>
        <time>2022-09-18T08:21:02.000Z</time>
      </trkpt>
      <trkpt lat="47.3011" lon="-2.24091">
        <ele>1</ele>
        <time>2022-09-18T08:21:03.000Z</time>
      </trkpt>
      <trkpt lat="47.30117" lon="-2.24088">
        <ele>1.3999999761581</ele>
        <time>2022-09-18T08:21:04.000Z</time>
      </trkpt>
      <trkpt lat="47.30123" lon="-2.24085">
        <ele>1.3999999761581</ele>
        <time>2022-09-18T08:21:05.000Z</time>
      </trkpt>
      <trkpt lat="47.30129" lon="-2.24082">
        <ele>1.3999999761581</ele>
        <time>2022-09-18T08:21:06.000Z</time>
      </trkpt>
      <trkpt lat="47.3016" lon="-2.24067">
        <ele>1.3999999761581</ele>
        <time>2022-09-18T08:21:11.000Z</time>
      </trkpt>
      <trkpt lat="47.30173" lon="-2.24063">
        <ele>1.3999999761581</ele>
        <time>2022-09-18T08:21:13.000Z</time>
      </trkpt>
      <trkpt lat="47.30217" lon="-2.2406">
        <ele>1.3999999761581</ele>
        <time>2022-09-18T08:21:19.000Z</time>
      </trkpt>
      <trkpt lat="47.30254" lon="-2.24064">
        <ele>1.3999999761581</ele>
        <time>2022-09-18T08:21:25.000Z</time>
      </trkpt>
      <trkpt lat="47.3026" lon="-2.24064">
        <ele>1.3999999761581</ele>
        <time>2022-09-18T08:21:26.000Z</time>
      </trkpt>
      <trkpt lat="47.30266" lon="-2.24062">
        <ele>1</ele>
        <time>2022-09-18T08:21:27.000Z</time>
      </trkpt>
      <trkpt lat="47.30272" lon="-2.24059">
        <ele>0.60000002384186</ele>
        <time>2022-09-18T08:21:28.000Z</time>
      </trkpt>
      <trkpt lat="47.30275" lon="-2.24054">
        <ele>0.20000000298023</ele>
        <time>2022-09-18T08:21:29.000Z</time>
      </trkpt>
      <trkpt lat="47.30276" lon="-2.24048">
        <ele>-0.40000000596046</ele>
        <time>2022-09-18T08:21:30.000Z</time>
      </trkpt>
      <trkpt lat="47.30276" lon="-2.24041">
        <ele>-0.80000001192093</ele>
        <time>2022-09-18T08:21:31.000Z</time>
      </trkpt>
      <trkpt lat="47.30276" lon="-2.24034">
        <ele>-0.80000001192093</ele>
        <time>2022-09-18T08:21:32.000Z</time>
      </trkpt>
      <trkpt lat="47.30274" lon="-2.24018">
        <ele>-1.2000000476837</ele>
        <time>2022-09-18T08:21:34.000Z</time>
      </trkpt>
      <trkpt lat="47.30272" lon="-2.24008">
        <ele>-1.6000000238419</ele>
        <time>2022-09-18T08:21:35.000Z</time>
      </trkpt>
      <trkpt lat="47.3027" lon="-2.23998">
        <ele>-2.2000000476837</ele>
        <time>2022-09-18T08:21:36.000Z</time>
      </trkpt>
      <trkpt lat="47.30269" lon="-2.23987">
        <ele>-2.5999999046326</ele>
        <time>2022-09-18T08:21:37.000Z</time>
      </trkpt>
      <trkpt lat="47.30267" lon="-2.23977">
        <ele>-3</ele>
        <time>2022-09-18T08:21:38.000Z</time>
      </trkpt>
      <trkpt lat="47.30264" lon="-2.23967">
        <ele>-3.4000000953674</ele>
        <time>2022-09-18T08:21:39.000Z</time>
      </trkpt>
      <trkpt lat="47.30262" lon="-2.23957">
        <ele>-4</ele>
        <time>2022-09-18T08:21:40.000Z</time>
      </trkpt>
      <trkpt lat="47.30259" lon="-2.23947">
        <ele>-4.4000000953674</ele>
        <time>2022-09-18T08:21:41.000Z</time>
      </trkpt>
      <trkpt lat="47.30258" lon="-2.23937">
        <ele>-4.8000001907349</ele>
        <time>2022-09-18T08:21:42.000Z</time>
      </trkpt>
      <trkpt lat="47.30259" lon="-2.23927">
        <ele>-5.1999998092651</ele>
        <time>2022-09-18T08:21:43.000Z</time>
      </trkpt>
      <trkpt lat="47.30264" lon="-2.23903">
        <ele>-5.1999998092651</ele>
        <time>2022-09-18T08:21:46.000Z</time>
      </trkpt>
      <trkpt lat="47.30274" lon="-2.23891">
        <ele>-5.1999998092651</ele>
        <time>2022-09-18T08:21:49.000Z</time>
      </trkpt>
      <trkpt lat="47.30276" lon="-2.2389">
        <ele>-5.1999998092651</ele>
        <time>2022-09-18T08:21:50.000Z</time>
      </trkpt>
      <trkpt lat="47.30281" lon="-2.2389">
        <ele>-5.5999999046326</ele>
        <time>2022-09-18T08:21:52.000Z</time>
      </trkpt>
      <trkpt lat="47.30281" lon="-2.2389">
        <ele>-6</ele>
        <time>2022-09-18T08:21:53.000Z</time>
      </trkpt>
      <trkpt lat="47.30283" lon="-2.23889">
        <ele>-7.1999998092651</ele>
        <time>2022-09-18T08:22:28.000Z</time>
      </trkpt>
      <trkpt lat="47.30284" lon="-2.23888">
        <ele>-7.1999998092651</ele>
        <time>2022-09-18T08:22:29.000Z</time>
      </trkpt>
      <trkpt lat="47.30285" lon="-2.23886">
        <ele>-7.1999998092651</ele>
        <time>2022-09-18T08:22:30.000Z</time>
      </trkpt>
      <trkpt lat="47.30289" lon="-2.23883">
        <ele>-7.1999998092651</ele>
        <time>2022-09-18T08:22:33.000Z</time>
      </trkpt>
      <trkpt lat="47.30289" lon="-2.23883">
        <ele>-7.1999998092651</ele>
        <time>2022-09-18T08:22:34.000Z</time>
      </trkpt>
      <trkpt lat="47.30293" lon="-2.23885">
        <ele>-7.1999998092651</ele>
        <time>2022-09-18T08:22:58.000Z</time>
      </trkpt>
      <trkpt lat="47.30296" lon="-2.23884">
        <ele>-7.1999998092651</ele>
        <time>2022-09-18T08:22:59.000Z</time>
      </trkpt>
      <trkpt lat="47.30311" lon="-2.23878">
        <ele>-7.1999998092651</ele>
        <time>2022-09-18T08:23:04.000Z</time>
      </trkpt>
      <trkpt lat="47.30331" lon="-2.23868">
        <ele>-7.1999998092651</ele>
        <time>2022-09-18T08:23:09.000Z</time>
      </trkpt>
      <trkpt lat="47.30363" lon="-2.23858">
        <ele>-7.1999998092651</ele>
        <time>2022-09-18T08:23:16.000Z</time>
      </trkpt>
      <trkpt lat="47.30404" lon="-2.2385">
        <ele>-7.1999998092651</ele>
        <time>2022-09-18T08:23:25.000Z</time>
      </trkpt>
      <trkpt lat="47.30433" lon="-2.23846">
        <ele>-7.1999998092651</ele>
        <time>2022-09-18T08:23:31.000Z</time>
      </trkpt>
      <trkpt lat="47.30468" lon="-2.23841">
        <ele>-7.1999998092651</ele>
        <time>2022-09-18T08:23:38.000Z</time>
      </trkpt>
      <trkpt lat="47.30484" lon="-2.23841">
        <ele>-7.1999998092651</ele>
        <time>2022-09-18T08:23:41.000Z</time>
      </trkpt>
      <trkpt lat="47.30494" lon="-2.23847">
        <ele>-7.1999998092651</ele>
        <time>2022-09-18T08:23:43.000Z</time>
      </trkpt>
      <trkpt lat="47.30507" lon="-2.23863">
        <ele>-7.1999998092651</ele>
        <time>2022-09-18T08:23:46.000Z</time>
      </trkpt>
      <trkpt lat="47.30515" lon="-2.23874">
        <ele>-7.1999998092651</ele>
        <time>2022-09-18T08:23:48.000Z</time>
      </trkpt>
      <trkpt lat="47.30541" lon="-2.23911">
        <ele>-7.1999998092651</ele>
        <time>2022-09-18T08:23:55.000Z</time>
      </trkpt>
      <trkpt lat="47.3055" lon="-2.23927">
        <ele>-7.1999998092651</ele>
        <time>2022-09-18T08:23:58.000Z</time>
      </trkpt>
      <trkpt lat="47.30549" lon="-2.23941">
        <ele>-7.1999998092651</ele>
        <time>2022-09-18T08:24:00.000Z</time>
      </trkpt>
      <trkpt lat="47.30537" lon="-2.23958">
        <ele>-7.1999998092651</ele>
        <time>2022-09-18T08:24:04.000Z</time>
      </trkpt>
      <trkpt lat="47.30524" lon="-2.23974">
        <ele>-7.1999998092651</ele>
        <time>2022-09-18T08:24:08.000Z</time>
      </trkpt>
      <trkpt lat="47.3052" lon="-2.23978">
        <ele>-7.1999998092651</ele>
        <time>2022-09-18T08:24:09.000Z</time>
      </trkpt>
      <trkpt lat="47.30517" lon="-2.23982">
        <ele>-6.8000001907349</ele>
        <time>2022-09-18T08:24:10.000Z</time>
      </trkpt>
      <trkpt lat="47.30514" lon="-2.23986">
        <ele>-6.4000000953674</ele>
        <time>2022-09-18T08:24:11.000Z</time>
      </trkpt>
      <trkpt lat="47.30511" lon="-2.2399">
        <ele>-6</ele>
        <time>2022-09-18T08:24:12.000Z</time>
      </trkpt>
      <trkpt lat="47.30508" lon="-2.23995">
        <ele>-5.5999999046326</ele>
        <time>2022-09-18T08:24:13.000Z</time>
      </trkpt>
      <trkpt lat="47.30505" lon="-2.23999">
        <ele>-5.1999998092651</ele>
        <time>2022-09-18T08:24:14.000Z</time>
      </trkpt>
      <trkpt lat="47.305" lon="-2.24007">
        <ele>-5.1999998092651</ele>
        <time>2022-09-18T08:24:16.000Z</time>
      </trkpt>
      <trkpt lat="47.30495" lon="-2.24016">
        <ele>-4.8000001907349</ele>
        <time>2022-09-18T08:24:18.000Z</time>
      </trkpt>
      <trkpt lat="47.30492" lon="-2.2402">
        <ele>-4.1999998092651</ele>
        <time>2022-09-18T08:24:19.000Z</time>
      </trkpt>
      <trkpt lat="47.3049" lon="-2.24023">
        <ele>-3.7999999523163</ele>
        <time>2022-09-18T08:24:20.000Z</time>
      </trkpt>
      <trkpt lat="47.30487" lon="-2.24025">
        <ele>-3.4000000953674</ele>
        <time>2022-09-18T08:24:21.000Z</time>
      </trkpt>
      <trkpt lat="47.30484" lon="-2.24027">
        <ele>-3</ele>
        <time>2022-09-18T08:24:22.000Z</time>
      </trkpt>
      <trkpt lat="47.30478" lon="-2.2403">
        <ele>-2.5999999046326</ele>
        <time>2022-09-18T08:24:24.000Z</time>
      </trkpt>
      <trkpt lat="47.30476" lon="-2.24032">
        <ele>-2</ele>
        <time>2022-09-18T08:24:25.000Z</time>
      </trkpt>
      <trkpt lat="47.30473" lon="-2.24034">
        <ele>-1.6000000238419</ele>
        <time>2022-09-18T08:24:26.000Z</time>
      </trkpt>
      <trkpt lat="47.3047" lon="-2.24035">
        <ele>-1.2000000476837</ele>
        <time>2022-09-18T08:24:27.000Z</time>
      </trkpt>
      <trkpt lat="47.30468" lon="-2.24036">
        <ele>-0.80000001192093</ele>
        <time>2022-09-18T08:24:28.000Z</time>
      </trkpt>
      <trkpt lat="47.3046" lon="-2.24041">
        <ele>-0.80000001192093</ele>
        <time>2022-09-18T08:24:31.000Z</time>
      </trkpt>
      <trkpt lat="47.30458" lon="-2.24043">
        <ele>-0.40000000596046</ele>
        <time>2022-09-18T08:24:32.000Z</time>
      </trkpt>
      <trkpt lat="47.30456" lon="-2.24045">
        <ele>12.5</ele>
        <time>2022-09-18T08:24:33.000Z</time>
      </trkpt>
      <trkpt lat="47.30454" lon="-2.24047">
        <ele>0.40000000596046</ele>
        <time>2022-09-18T08:24:34.000Z</time>
      </trkpt>
      <trkpt lat="47.30451" lon="-2.2405">
        <ele>0.80000001192093</ele>
        <time>2022-09-18T08:24:35.000Z</time>
      </trkpt>
      <trkpt lat="47.30449" lon="-2.24054">
        <ele>1.2000000476837</ele>
        <time>2022-09-18T08:24:36.000Z</time>
      </trkpt>
      <trkpt lat="47.30437" lon="-2.24069">
        <ele>1.2000000476837</ele>
        <time>2022-09-18T08:24:41.000Z</time>
      </trkpt>
      <trkpt lat="47.30426" lon="-2.24084">
        <ele>1.2000000476837</ele>
        <time>2022-09-18T08:24:46.000Z</time>
      </trkpt>
      <trkpt lat="47.30424" lon="-2.24086">
        <ele>1.7999999523163</ele>
        <time>2022-09-18T08:24:47.000Z</time>
      </trkpt>
      <trkpt lat="47.30422" lon="-2.24088">
        <ele>2.2000000476837</ele>
        <time>2022-09-18T08:24:48.000Z</time>
      </trkpt>
      <trkpt lat="47.30419" lon="-2.2409">
        <ele>2.5999999046326</ele>
        <time>2022-09-18T08:24:49.000Z</time>
      </trkpt>
      <trkpt lat="47.30416" lon="-2.24092">
        <ele>3</ele>
        <time>2022-09-18T08:24:50.000Z</time>
      </trkpt>
      <trkpt lat="47.30414" lon="-2.24095">
        <ele>3.4000000953674</ele>
        <time>2022-09-18T08:24:51.000Z</time>
      </trkpt>
      <trkpt lat="47.30412" lon="-2.24097">
        <ele>3.4000000953674</ele>
        <time>2022-09-18T08:24:52.000Z</time>
      </trkpt>
      <trkpt lat="47.30402" lon="-2.24108">
        <ele>3.7999999523163</ele>
        <time>2022-09-18T08:24:56.000Z</time>
      </trkpt>
      <trkpt lat="47.30399" lon="-2.24111">
        <ele>4.1999998092651</ele>
        <time>2022-09-18T08:24:57.000Z</time>
      </trkpt>
      <trkpt lat="47.30396" lon="-2.24114">
        <ele>4.5999999046326</ele>
        <time>2022-09-18T08:24:58.000Z</time>
      </trkpt>
      <trkpt lat="47.30393" lon="-2.24117">
        <ele>5</ele>
        <time>2022-09-18T08:24:59.000Z</time>
      </trkpt>
      <trkpt lat="47.30389" lon="-2.2412">
        <ele>5.4000000953674</ele>
        <time>2022-09-18T08:25:00.000Z</time>
      </trkpt>
      <trkpt lat="47.30379" lon="-2.24129">
        <ele>5.4000000953674</ele>
        <time>2022-09-18T08:25:03.000Z</time>
      </trkpt>
      <trkpt lat="47.3036" lon="-2.24154">
        <ele>5.4000000953674</ele>
        <time>2022-09-18T08:25:08.000Z</time>
      </trkpt>
      <trkpt lat="47.30357" lon="-2.2416">
        <ele>5.4000000953674</ele>
        <time>2022-09-18T08:25:09.000Z</time>
      </trkpt>
      <trkpt lat="47.30348" lon="-2.2418">
        <ele>5.4000000953674</ele>
        <time>2022-09-18T08:25:12.000Z</time>
      </trkpt>
      <trkpt lat="47.30348" lon="-2.24188">
        <ele>5.4000000953674</ele>
        <time>2022-09-18T08:25:13.000Z</time>
      </trkpt>
      <trkpt lat="47.30354" lon="-2.24207">
        <ele>5.4000000953674</ele>
        <time>2022-09-18T08:25:16.000Z</time>
      </trkpt>
      <trkpt lat="47.30365" lon="-2.2422">
        <ele>5.4000000953674</ele>
        <time>2022-09-18T08:25:19.000Z</time>
      </trkpt>
      <trkpt lat="47.30374" lon="-2.24229">
        <ele>5.4000000953674</ele>
        <time>2022-09-18T08:25:21.000Z</time>
      </trkpt>
      <trkpt lat="47.30391" lon="-2.24249">
        <ele>5.4000000953674</ele>
        <time>2022-09-18T08:25:26.000Z</time>
      </trkpt>
      <trkpt lat="47.30404" lon="-2.24267">
        <ele>5.4000000953674</ele>
        <time>2022-09-18T08:25:30.000Z</time>
      </trkpt>
      <trkpt lat="47.30407" lon="-2.24271">
        <ele>5.4000000953674</ele>
        <time>2022-09-18T08:25:31.000Z</time>
      </trkpt>
      <trkpt lat="47.3043" lon="-2.24277">
        <ele>5.4000000953674</ele>
        <time>2022-09-18T08:25:35.000Z</time>
      </trkpt>
      <trkpt lat="47.30442" lon="-2.24279">
        <ele>5.4000000953674</ele>
        <time>2022-09-18T08:25:37.000Z</time>
      </trkpt>
      <trkpt lat="47.30459" lon="-2.24283">
        <ele>5.4000000953674</ele>
        <time>2022-09-18T08:25:40.000Z</time>
      </trkpt>
      <trkpt lat="47.30464" lon="-2.24286">
        <ele>5.4000000953674</ele>
        <time>2022-09-18T08:25:41.000Z</time>
      </trkpt>
      <trkpt lat="47.30475" lon="-2.2429">
        <ele>5.4000000953674</ele>
        <time>2022-09-18T08:25:43.000Z</time>
      </trkpt>
      <trkpt lat="47.30495" lon="-2.24301">
        <ele>5.4000000953674</ele>
        <time>2022-09-18T08:25:47.000Z</time>
      </trkpt>
      <trkpt lat="47.30499" lon="-2.24304">
        <ele>5.4000000953674</ele>
        <time>2022-09-18T08:25:48.000Z</time>
      </trkpt>
      <trkpt lat="47.3052" lon="-2.24329">
        <ele>5.4000000953674</ele>
        <time>2022-09-18T08:25:54.000Z</time>
      </trkpt>
      <trkpt lat="47.30541" lon="-2.24351">
        <ele>5.4000000953674</ele>
        <time>2022-09-18T08:26:01.000Z</time>
      </trkpt>
      <trkpt lat="47.30551" lon="-2.24359">
        <ele>5.4000000953674</ele>
        <time>2022-09-18T08:26:06.000Z</time>
      </trkpt>
      <trkpt lat="47.30551" lon="-2.24359">
        <ele>5.4000000953674</ele>
        <time>2022-09-18T08:26:07.000Z</time>
      </trkpt>
      <trkpt lat="47.30555" lon="-2.24351">
        <ele>5.4000000953674</ele>
        <time>2022-09-18T08:37:57.000Z</time>
      </trkpt>
      <trkpt lat="47.30555" lon="-2.24354">
        <ele>5.4000000953674</ele>
        <time>2022-09-18T08:37:58.000Z</time>
      </trkpt>
      <trkpt lat="47.30565" lon="-2.2437">
        <ele>5.4000000953674</ele>
        <time>2022-09-18T08:38:03.000Z</time>
      </trkpt>
      <trkpt lat="47.30585" lon="-2.24393">
        <ele>5</ele>
        <time>2022-09-18T08:38:10.000Z</time>
      </trkpt>
      <trkpt lat="47.30588" lon="-2.24395">
        <ele>4.5999999046326</ele>
        <time>2022-09-18T08:38:11.000Z</time>
      </trkpt>
      <trkpt lat="47.30591" lon="-2.24398">
        <ele>4.1999998092651</ele>
        <time>2022-09-18T08:38:12.000Z</time>
      </trkpt>
      <trkpt lat="47.30594" lon="-2.24402">
        <ele>3.7999999523163</ele>
        <time>2022-09-18T08:38:13.000Z</time>
      </trkpt>
      <trkpt lat="47.30597" lon="-2.24404">
        <ele>3.4000000953674</ele>
        <time>2022-09-18T08:38:14.000Z</time>
      </trkpt>
      <trkpt lat="47.30605" lon="-2.24409">
        <ele>3.4000000953674</ele>
        <time>2022-09-18T08:38:16.000Z</time>
      </trkpt>
      <trkpt lat="47.30625" lon="-2.24418">
        <ele>3.4000000953674</ele>
        <time>2022-09-18T08:38:22.000Z</time>
      </trkpt>
      <trkpt lat="47.30629" lon="-2.24421">
        <ele>3</ele>
        <time>2022-09-18T08:38:24.000Z</time>
      </trkpt>
      <trkpt lat="47.30631" lon="-2.24423">
        <ele>2.5999999046326</ele>
        <time>2022-09-18T08:38:25.000Z</time>
      </trkpt>
      <trkpt lat="47.30632" lon="-2.24426">
        <ele>2</ele>
        <time>2022-09-18T08:38:26.000Z</time>
      </trkpt>
      <trkpt lat="47.30634" lon="-2.2443">
        <ele>1.6000000238419</ele>
        <time>2022-09-18T08:38:27.000Z</time>
      </trkpt>
      <trkpt lat="47.30635" lon="-2.24433">
        <ele>1.2000000476837</ele>
        <time>2022-09-18T08:38:28.000Z</time>
      </trkpt>
      <trkpt lat="47.30634" lon="-2.24438">
        <ele>1.2000000476837</ele>
        <time>2022-09-18T08:38:29.000Z</time>
      </trkpt>
      <trkpt lat="47.30633" lon="-2.2445">
        <ele>1.2000000476837</ele>
        <time>2022-09-18T08:38:31.000Z</time>
      </trkpt>
      <trkpt lat="47.30632" lon="-2.24457">
        <ele>0.80000001192093</ele>
        <time>2022-09-18T08:38:32.000Z</time>
      </trkpt>
      <trkpt lat="47.30631" lon="-2.24465">
        <ele>0.40000000596046</ele>
        <time>2022-09-18T08:38:33.000Z</time>
      </trkpt>
      <trkpt lat="47.3063" lon="-2.24473">
        <ele>9.3</ele>
        <time>2022-09-18T08:38:34.000Z</time>
      </trkpt>
      <trkpt lat="47.30629" lon="-2.24482">
        <ele>-0.40000000596046</ele>
        <time>2022-09-18T08:38:35.000Z</time>
      </trkpt>
      <trkpt lat="47.30628" lon="-2.2449">
        <ele>-0.80000001192093</ele>
        <time>2022-09-18T08:38:36.000Z</time>
      </trkpt>
      <trkpt lat="47.30626" lon="-2.24508">
        <ele>-1.3999999761581</ele>
        <time>2022-09-18T08:38:38.000Z</time>
      </trkpt>
      <trkpt lat="47.30624" lon="-2.24517">
        <ele>-1.7999999523163</ele>
        <time>2022-09-18T08:38:39.000Z</time>
      </trkpt>
      <trkpt lat="47.30623" lon="-2.24526">
        <ele>-2.2000000476837</ele>
        <time>2022-09-18T08:38:40.000Z</time>
      </trkpt>
      <trkpt lat="47.30622" lon="-2.24535">
        <ele>-2.5999999046326</ele>
        <time>2022-09-18T08:38:41.000Z</time>
      </trkpt>
      <trkpt lat="47.3062" lon="-2.24542">
        <ele>-3.2000000476837</ele>
        <time>2022-09-18T08:38:42.000Z</time>
      </trkpt>
      <trkpt lat="47.30618" lon="-2.24558">
        <ele>-3.5999999046326</ele>
        <time>2022-09-18T08:38:44.000Z</time>
      </trkpt>
      <trkpt lat="47.30617" lon="-2.24566">
        <ele>-4</ele>
        <time>2022-09-18T08:38:45.000Z</time>
      </trkpt>
      <trkpt lat="47.30617" lon="-2.24575">
        <ele>-4.4000000953674</ele>
        <time>2022-09-18T08:38:46.000Z</time>
      </trkpt>
      <trkpt lat="47.30617" lon="-2.24584">
        <ele>-4.8000001907349</ele>
        <time>2022-09-18T08:38:47.000Z</time>
      </trkpt>
      <trkpt lat="47.30616" lon="-2.24594">
        <ele>-5.4000000953674</ele>
        <time>2022-09-18T08:38:48.000Z</time>
      </trkpt>
      <trkpt lat="47.30621" lon="-2.24641">
        <ele>-5.4000000953674</ele>
        <time>2022-09-18T08:38:53.000Z</time>
      </trkpt>
      <trkpt lat="47.30623" lon="-2.24649">
        <ele>-6.1999998092651</ele>
        <time>2022-09-18T08:38:54.000Z</time>
      </trkpt>
      <trkpt lat="47.30625" lon="-2.24657">
        <ele>-6.5999999046326</ele>
        <time>2022-09-18T08:38:55.000Z</time>
      </trkpt>
      <trkpt lat="47.30627" lon="-2.24665">
        <ele>-7</ele>
        <time>2022-09-18T08:38:56.000Z</time>
      </trkpt>
      <trkpt lat="47.3063" lon="-2.24673">
        <ele>-7.4000000953674</ele>
        <time>2022-09-18T08:38:57.000Z</time>
      </trkpt>
      <trkpt lat="47.30637" lon="-2.24696">
        <ele>-7.4000000953674</ele>
        <time>2022-09-18T08:39:00.000Z</time>
      </trkpt>
      <trkpt lat="47.30651" lon="-2.24739">
        <ele>-7.4000000953674</ele>
        <time>2022-09-18T08:39:06.000Z</time>
      </trkpt>
      <trkpt lat="47.30654" lon="-2.24744">
        <ele>-7.4000000953674</ele>
        <time>2022-09-18T08:39:07.000Z</time>
      </trkpt>
      <trkpt lat="47.30658" lon="-2.24757">
        <ele>-7.4000000953674</ele>
        <time>2022-09-18T08:39:09.000Z</time>
      </trkpt>
      <trkpt lat="47.30668" lon="-2.24772">
        <ele>-7.4000000953674</ele>
        <time>2022-09-18T08:39:12.000Z</time>
      </trkpt>
      <trkpt lat="47.30682" lon="-2.24791">
        <ele>-7.4000000953674</ele>
        <time>2022-09-18T08:39:15.000Z</time>
      </trkpt>
      <trkpt lat="47.30686" lon="-2.24797">
        <ele>-7.4000000953674</ele>
        <time>2022-09-18T08:39:16.000Z</time>
      </trkpt>
      <trkpt lat="47.307" lon="-2.24815">
        <ele>-7.4000000953674</ele>
        <time>2022-09-18T08:39:19.000Z</time>
      </trkpt>
      <trkpt lat="47.30707" lon="-2.2483">
        <ele>-7.4000000953674</ele>
        <time>2022-09-18T08:39:21.000Z</time>
      </trkpt>
      <trkpt lat="47.30721" lon="-2.24859">
        <ele>-7.4000000953674</ele>
        <time>2022-09-18T08:39:25.000Z</time>
      </trkpt>
      <trkpt lat="47.3073" lon="-2.24871">
        <ele>-7.4000000953674</ele>
        <time>2022-09-18T08:39:27.000Z</time>
      </trkpt>
      <trkpt lat="47.30741" lon="-2.24881">
        <ele>-7.4000000953674</ele>
        <time>2022-09-18T08:39:29.000Z</time>
      </trkpt>
      <trkpt lat="47.30754" lon="-2.24885">
        <ele>-7.4000000953674</ele>
        <time>2022-09-18T08:39:31.000Z</time>
      </trkpt>
      <trkpt lat="47.30798" lon="-2.24907">
        <ele>-7.4000000953674</ele>
        <time>2022-09-18T08:39:38.000Z</time>
      </trkpt>
      <trkpt lat="47.30824" lon="-2.24914">
        <ele>-7.4000000953674</ele>
        <time>2022-09-18T08:39:42.000Z</time>
      </trkpt>
      <trkpt lat="47.30837" lon="-2.24913">
        <ele>-7.4000000953674</ele>
        <time>2022-09-18T08:39:44.000Z</time>
      </trkpt>
      <trkpt lat="47.3086" lon="-2.24896">
        <ele>-7.4000000953674</ele>
        <time>2022-09-18T08:39:48.000Z</time>
      </trkpt>
      <trkpt lat="47.30874" lon="-2.24876">
        <ele>-7.4000000953674</ele>
        <time>2022-09-18T08:39:51.000Z</time>
      </trkpt>
      <trkpt lat="47.30883" lon="-2.24863">
        <ele>-7.4000000953674</ele>
        <time>2022-09-18T08:39:53.000Z</time>
      </trkpt>
      <trkpt lat="47.30888" lon="-2.24856">
        <ele>-7.4000000953674</ele>
        <time>2022-09-18T08:39:54.000Z</time>
      </trkpt>
      <trkpt lat="47.30925" lon="-2.24806">
        <ele>-7.4000000953674</ele>
        <time>2022-09-18T08:40:02.000Z</time>
      </trkpt>
      <trkpt lat="47.30953" lon="-2.24773">
        <ele>-7.4000000953674</ele>
        <time>2022-09-18T08:40:09.000Z</time>
      </trkpt>
      <trkpt lat="47.30983" lon="-2.24754">
        <ele>-7.4000000953674</ele>
        <time>2022-09-18T08:40:15.000Z</time>
      </trkpt>
      <trkpt lat="47.30988" lon="-2.24753">
        <ele>-7.4000000953674</ele>
        <time>2022-09-18T08:40:16.000Z</time>
      </trkpt>
      <trkpt lat="47.31012" lon="-2.24752">
        <ele>-7.4000000953674</ele>
        <time>2022-09-18T08:40:20.000Z</time>
      </trkpt>
      <trkpt lat="47.31045" lon="-2.24762">
        <ele>-7.4000000953674</ele>
        <time>2022-09-18T08:40:26.000Z</time>
      </trkpt>
      <trkpt lat="47.31081" lon="-2.24773">
        <ele>-7.4000000953674</ele>
        <time>2022-09-18T08:40:33.000Z</time>
      </trkpt>
      <trkpt lat="47.31086" lon="-2.24773">
        <ele>-7.4000000953674</ele>
        <time>2022-09-18T08:40:34.000Z</time>
      </trkpt>
      <trkpt lat="47.31106" lon="-2.24769">
        <ele>-7.4000000953674</ele>
        <time>2022-09-18T08:40:38.000Z</time>
      </trkpt>
      <trkpt lat="47.31111" lon="-2.24768">
        <ele>-7.4000000953674</ele>
        <time>2022-09-18T08:40:39.000Z</time>
      </trkpt>
      <trkpt lat="47.31121" lon="-2.24762">
        <ele>-7.4000000953674</ele>
        <time>2022-09-18T08:40:41.000Z</time>
      </trkpt>
      <trkpt lat="47.31133" lon="-2.24751">
        <ele>-7.4000000953674</ele>
        <time>2022-09-18T08:40:44.000Z</time>
      </trkpt>
      <trkpt lat="47.31153" lon="-2.24737">
        <ele>-7.4000000953674</ele>
        <time>2022-09-18T08:40:50.000Z</time>
      </trkpt>
      <trkpt lat="47.31156" lon="-2.24732">
        <ele>-7.4000000953674</ele>
        <time>2022-09-18T08:40:51.000Z</time>
      </trkpt>
      <trkpt lat="47.31167" lon="-2.24716">
        <ele>-7.4000000953674</ele>
        <time>2022-09-18T08:40:54.000Z</time>
      </trkpt>
      <trkpt lat="47.31184" lon="-2.24691">
        <ele>-7.4000000953674</ele>
        <time>2022-09-18T08:40:59.000Z</time>
      </trkpt>
      <trkpt lat="47.31188" lon="-2.24686">
        <ele>-7.4000000953674</ele>
        <time>2022-09-18T08:41:00.000Z</time>
      </trkpt>
      <trkpt lat="47.31215" lon="-2.24656">
        <ele>-7.4000000953674</ele>
        <time>2022-09-18T08:41:07.000Z</time>
      </trkpt>
      <trkpt lat="47.31232" lon="-2.2464">
        <ele>-7.4000000953674</ele>
        <time>2022-09-18T08:41:11.000Z</time>
      </trkpt>
      <trkpt lat="47.31238" lon="-2.24629">
        <ele>-7.4000000953674</ele>
        <time>2022-09-18T08:41:13.000Z</time>
      </trkpt>
      <trkpt lat="47.31258" lon="-2.24608">
        <ele>-7.4000000953674</ele>
        <time>2022-09-18T08:41:18.000Z</time>
      </trkpt>
      <trkpt lat="47.31286" lon="-2.24581">
        <ele>-7.4000000953674</ele>
        <time>2022-09-18T08:41:24.000Z</time>
      </trkpt>
      <trkpt lat="47.31296" lon="-2.24572">
        <ele>-7.4000000953674</ele>
        <time>2022-09-18T08:41:26.000Z</time>
      </trkpt>
      <trkpt lat="47.31319" lon="-2.24547">
        <ele>-7.4000000953674</ele>
        <time>2022-09-18T08:41:31.000Z</time>
      </trkpt>
      <trkpt lat="47.31349" lon="-2.2452">
        <ele>-7.4000000953674</ele>
        <time>2022-09-18T08:41:37.000Z</time>
      </trkpt>
      <trkpt lat="47.31364" lon="-2.24503">
        <ele>-7.4000000953674</ele>
        <time>2022-09-18T08:41:40.000Z</time>
      </trkpt>
      <trkpt lat="47.31373" lon="-2.24491">
        <ele>-7.4000000953674</ele>
        <time>2022-09-18T08:41:42.000Z</time>
      </trkpt>
      <trkpt lat="47.31401" lon="-2.24465">
        <ele>-7.4000000953674</ele>
        <time>2022-09-18T08:41:47.000Z</time>
      </trkpt>
      <trkpt lat="47.31428" lon="-2.24433">
        <ele>-7.4000000953674</ele>
        <time>2022-09-18T08:41:53.000Z</time>
      </trkpt>
      <trkpt lat="47.31459" lon="-2.24395">
        <ele>-7.4000000953674</ele>
        <time>2022-09-18T08:42:00.000Z</time>
      </trkpt>
      <trkpt lat="47.31473" lon="-2.24389">
        <ele>-7.4000000953674</ele>
        <time>2022-09-18T08:42:03.000Z</time>
      </trkpt>
      <trkpt lat="47.31477" lon="-2.24387">
        <ele>-7.4000000953674</ele>
        <time>2022-09-18T08:42:04.000Z</time>
      </trkpt>
      <trkpt lat="47.31481" lon="-2.24384">
        <ele>-7.4000000953674</ele>
        <time>2022-09-18T08:42:05.000Z</time>
      </trkpt>
      <trkpt lat="47.31493" lon="-2.24378">
        <ele>-7.4000000953674</ele>
        <time>2022-09-18T08:42:08.000Z</time>
      </trkpt>
      <trkpt lat="47.315" lon="-2.24376">
        <ele>-7.4000000953674</ele>
        <time>2022-09-18T08:42:10.000Z</time>
      </trkpt>
      <trkpt lat="47.31504" lon="-2.24369">
        <ele>-7.4000000953674</ele>
        <time>2022-09-18T08:42:12.000Z</time>
      </trkpt>
      <trkpt lat="47.315" lon="-2.24357">
        <ele>-7.4000000953674</ele>
        <time>2022-09-18T08:42:15.000Z</time>
      </trkpt>
      <trkpt lat="47.31497" lon="-2.24353">
        <ele>-7.4000000953674</ele>
        <time>2022-09-18T08:42:16.000Z</time>
      </trkpt>
      <trkpt lat="47.31496" lon="-2.24349">
        <ele>-7.4000000953674</ele>
        <time>2022-09-18T08:42:17.000Z</time>
      </trkpt>
      <trkpt lat="47.31493" lon="-2.24341">
        <ele>-7.4000000953674</ele>
        <time>2022-09-18T08:42:19.000Z</time>
      </trkpt>
      <trkpt lat="47.31484" lon="-2.24327">
        <ele>-7.4000000953674</ele>
        <time>2022-09-18T08:42:23.000Z</time>
      </trkpt>
      <trkpt lat="47.3148" lon="-2.24321">
        <ele>-7.4000000953674</ele>
        <time>2022-09-18T08:42:25.000Z</time>
      </trkpt>
      <trkpt lat="47.3148" lon="-2.24312">
        <ele>-7.4000000953674</ele>
        <time>2022-09-18T08:42:27.000Z</time>
      </trkpt>
      <trkpt lat="47.31484" lon="-2.24304">
        <ele>-7.4000000953674</ele>
        <time>2022-09-18T08:42:29.000Z</time>
      </trkpt>
      <trkpt lat="47.31489" lon="-2.2429">
        <ele>-7.4000000953674</ele>
        <time>2022-09-18T08:42:32.000Z</time>
      </trkpt>
      <trkpt lat="47.3149" lon="-2.24286">
        <ele>-7.4000000953674</ele>
        <time>2022-09-18T08:42:33.000Z</time>
      </trkpt>
      <trkpt lat="47.31494" lon="-2.24281">
        <ele>-7.4000000953674</ele>
        <time>2022-09-18T08:42:35.000Z</time>
      </trkpt>
      <trkpt lat="47.315" lon="-2.24279">
        <ele>-7.4000000953674</ele>
        <time>2022-09-18T08:42:37.000Z</time>
      </trkpt>
      <trkpt lat="47.31507" lon="-2.24278">
        <ele>-7.4000000953674</ele>
        <time>2022-09-18T08:42:39.000Z</time>
      </trkpt>
      <trkpt lat="47.31523" lon="-2.24278">
        <ele>-7.4000000953674</ele>
        <time>2022-09-18T08:42:43.000Z</time>
      </trkpt>
      <trkpt lat="47.31543" lon="-2.24287">
        <ele>-7.4000000953674</ele>
        <time>2022-09-18T08:42:48.000Z</time>
      </trkpt>
      <trkpt lat="47.31548" lon="-2.243">
        <ele>-7.4000000953674</ele>
        <time>2022-09-18T08:42:51.000Z</time>
      </trkpt>
      <trkpt lat="47.31553" lon="-2.24312">
        <ele>-7.4000000953674</ele>
        <time>2022-09-18T08:42:53.000Z</time>
      </trkpt>
      <trkpt lat="47.31562" lon="-2.24325">
        <ele>-7.4000000953674</ele>
        <time>2022-09-18T08:42:56.000Z</time>
      </trkpt>
      <trkpt lat="47.31566" lon="-2.24329">
        <ele>-7.4000000953674</ele>
        <time>2022-09-18T08:42:57.000Z</time>
      </trkpt>
      <trkpt lat="47.31574" lon="-2.24333">
        <ele>-7.4000000953674</ele>
        <time>2022-09-18T08:42:59.000Z</time>
      </trkpt>
      <trkpt lat="47.31583" lon="-2.2434">
        <ele>-7.4000000953674</ele>
        <time>2022-09-18T08:43:02.000Z</time>
      </trkpt>
      <trkpt lat="47.31586" lon="-2.24345">
        <ele>-7.4000000953674</ele>
        <time>2022-09-18T08:43:03.000Z</time>
      </trkpt>
      <trkpt lat="47.31595" lon="-2.24361">
        <ele>-7.4000000953674</ele>
        <time>2022-09-18T08:43:06.000Z</time>
      </trkpt>
      <trkpt lat="47.31595" lon="-2.24369">
        <ele>-7.4000000953674</ele>
        <time>2022-09-18T08:43:07.000Z</time>
      </trkpt>
      <trkpt lat="47.31591" lon="-2.24389">
        <ele>-7.4000000953674</ele>
        <time>2022-09-18T08:43:10.000Z</time>
      </trkpt>
      <trkpt lat="47.31592" lon="-2.24395">
        <ele>-7.4000000953674</ele>
        <time>2022-09-18T08:43:11.000Z</time>
      </trkpt>
      <trkpt lat="47.31601" lon="-2.24406">
        <ele>-7.4000000953674</ele>
        <time>2022-09-18T08:43:14.000Z</time>
      </trkpt>
      <trkpt lat="47.31611" lon="-2.24413">
        <ele>-7.4000000953674</ele>
        <time>2022-09-18T08:43:17.000Z</time>
      </trkpt>
      <trkpt lat="47.31613" lon="-2.24415">
        <ele>-7.4000000953674</ele>
        <time>2022-09-18T08:43:18.000Z</time>
      </trkpt>
      <trkpt lat="47.31622" lon="-2.24429">
        <ele>-7.4000000953674</ele>
        <time>2022-09-18T08:43:23.000Z</time>
      </trkpt>
      <trkpt lat="47.31629" lon="-2.24447">
        <ele>-7.4000000953674</ele>
        <time>2022-09-18T08:43:28.000Z</time>
      </trkpt>
      <trkpt lat="47.31634" lon="-2.24455">
        <ele>-7.4000000953674</ele>
        <time>2022-09-18T08:43:31.000Z</time>
      </trkpt>
      <trkpt lat="47.31637" lon="-2.24455">
        <ele>-7.8000001907349</ele>
        <time>2022-09-18T08:43:32.000Z</time>
      </trkpt>
      <trkpt lat="47.31639" lon="-2.24454">
        <ele>-8.1999998092651</ele>
        <time>2022-09-18T08:43:33.000Z</time>
      </trkpt>
      <trkpt lat="47.31642" lon="-2.24454">
        <ele>-8.6000003814697</ele>
        <time>2022-09-18T08:43:34.000Z</time>
      </trkpt>
      <trkpt lat="47.31643" lon="-2.24453">
        <ele>-9</ele>
        <time>2022-09-18T08:43:35.000Z</time>
      </trkpt>
      <trkpt lat="47.31646" lon="-2.24453">
        <ele>-9.3999996185303</ele>
        <time>2022-09-18T08:43:36.000Z</time>
      </trkpt>
      <trkpt lat="47.31649" lon="-2.24453">
        <ele>-9.3999996185303</ele>
        <time>2022-09-18T08:43:37.000Z</time>
      </trkpt>
      <trkpt lat="47.31657" lon="-2.24447">
        <ele>-9.3999996185303</ele>
        <time>2022-09-18T08:43:40.000Z</time>
      </trkpt>
      <trkpt lat="47.31658" lon="-2.24444">
        <ele>-9.3999996185303</ele>
        <time>2022-09-18T08:43:41.000Z</time>
      </trkpt>
      <trkpt lat="47.31656" lon="-2.24438">
        <ele>-9.3999996185303</ele>
        <time>2022-09-18T08:43:44.000Z</time>
      </trkpt>
      <trkpt lat="47.31654" lon="-2.24436">
        <ele>-9.3999996185303</ele>
        <time>2022-09-18T08:43:45.000Z</time>
      </trkpt>
      <trkpt lat="47.31644" lon="-2.24434">
        <ele>-9.3999996185303</ele>
        <time>2022-09-18T08:43:48.000Z</time>
      </trkpt>
      <trkpt lat="47.31626" lon="-2.24434">
        <ele>-9.3999996185303</ele>
        <time>2022-09-18T08:43:53.000Z</time>
      </trkpt>
      <trkpt lat="47.31623" lon="-2.24436">
        <ele>-9.3999996185303</ele>
        <time>2022-09-18T08:43:54.000Z</time>
      </trkpt>
      <trkpt lat="47.3162" lon="-2.24445">
        <ele>-9.3999996185303</ele>
        <time>2022-09-18T08:43:56.000Z</time>
      </trkpt>
      <trkpt lat="47.31615" lon="-2.2445">
        <ele>-9.3999996185303</ele>
        <time>2022-09-18T08:43:58.000Z</time>
      </trkpt>
      <trkpt lat="47.31607" lon="-2.24452">
        <ele>-9.3999996185303</ele>
        <time>2022-09-18T08:44:00.000Z</time>
      </trkpt>
      <trkpt lat="47.31603" lon="-2.24455">
        <ele>-9.3999996185303</ele>
        <time>2022-09-18T08:44:01.000Z</time>
      </trkpt>
      <trkpt lat="47.31592" lon="-2.24467">
        <ele>-9.3999996185303</ele>
        <time>2022-09-18T08:44:04.000Z</time>
      </trkpt>
      <trkpt lat="47.31585" lon="-2.24474">
        <ele>-9.3999996185303</ele>
        <time>2022-09-18T08:44:06.000Z</time>
      </trkpt>
      <trkpt lat="47.31574" lon="-2.24485">
        <ele>-9.3999996185303</ele>
        <time>2022-09-18T08:44:09.000Z</time>
      </trkpt>
      <trkpt lat="47.31562" lon="-2.24496">
        <ele>-9.3999996185303</ele>
        <time>2022-09-18T08:44:13.000Z</time>
      </trkpt>
      <trkpt lat="47.31559" lon="-2.24496">
        <ele>-9.3999996185303</ele>
        <time>2022-09-18T08:44:14.000Z</time>
      </trkpt>
      <trkpt lat="47.31553" lon="-2.24491">
        <ele>-9.3999996185303</ele>
        <time>2022-09-18T08:44:17.000Z</time>
      </trkpt>
      <trkpt lat="47.31551" lon="-2.24488">
        <ele>-9.3999996185303</ele>
        <time>2022-09-18T08:44:18.000Z</time>
      </trkpt>
      <trkpt lat="47.31542" lon="-2.24483">
        <ele>-9.3999996185303</ele>
        <time>2022-09-18T08:44:20.000Z</time>
      </trkpt>
      <trkpt lat="47.31537" lon="-2.24478">
        <ele>-9.3999996185303</ele>
        <time>2022-09-18T08:44:21.000Z</time>
      </trkpt>
      <trkpt lat="47.31526" lon="-2.24463">
        <ele>-9.3999996185303</ele>
        <time>2022-09-18T08:44:24.000Z</time>
      </trkpt>
      <trkpt lat="47.31522" lon="-2.24449">
        <ele>-9.3999996185303</ele>
        <time>2022-09-18T08:44:27.000Z</time>
      </trkpt>
      <trkpt lat="47.31521" lon="-2.24439">
        <ele>-9.3999996185303</ele>
        <time>2022-09-18T08:44:29.000Z</time>
      </trkpt>
      <trkpt lat="47.31518" lon="-2.24404">
        <ele>-9.3999996185303</ele>
        <time>2022-09-18T08:44:35.000Z</time>
      </trkpt>
      <trkpt lat="47.31511" lon="-2.24387">
        <ele>-9.3999996185303</ele>
        <time>2022-09-18T08:44:39.000Z</time>
      </trkpt>
      <trkpt lat="47.31499" lon="-2.24385">
        <ele>-9.3999996185303</ele>
        <time>2022-09-18T08:44:43.000Z</time>
      </trkpt>
      <trkpt lat="47.31495" lon="-2.24386">
        <ele>-9.3999996185303</ele>
        <time>2022-09-18T08:44:44.000Z</time>
      </trkpt>
      <trkpt lat="47.31488" lon="-2.24387">
        <ele>-9.3999996185303</ele>
        <time>2022-09-18T08:44:46.000Z</time>
      </trkpt>
      <trkpt lat="47.31484" lon="-2.24389">
        <ele>-9.3999996185303</ele>
        <time>2022-09-18T08:44:47.000Z</time>
      </trkpt>
      <trkpt lat="47.31465" lon="-2.24398">
        <ele>-9.3999996185303</ele>
        <time>2022-09-18T08:44:51.000Z</time>
      </trkpt>
      <trkpt lat="47.3146" lon="-2.24401">
        <ele>-9.3999996185303</ele>
        <time>2022-09-18T08:44:52.000Z</time>
      </trkpt>
      <trkpt lat="47.31443" lon="-2.24421">
        <ele>-9.3999996185303</ele>
        <time>2022-09-18T08:44:56.000Z</time>
      </trkpt>
      <trkpt lat="47.31413" lon="-2.24454">
        <ele>-9.3999996185303</ele>
        <time>2022-09-18T08:45:03.000Z</time>
      </trkpt>
      <trkpt lat="47.31383" lon="-2.2448">
        <ele>-9.3999996185303</ele>
        <time>2022-09-18T08:45:09.000Z</time>
      </trkpt>
      <trkpt lat="47.31374" lon="-2.2449">
        <ele>-9.3999996185303</ele>
        <time>2022-09-18T08:45:11.000Z</time>
      </trkpt>
      <trkpt lat="47.31361" lon="-2.24506">
        <ele>-9.3999996185303</ele>
        <time>2022-09-18T08:45:14.000Z</time>
      </trkpt>
      <trkpt lat="47.31356" lon="-2.24511">
        <ele>-9.3999996185303</ele>
        <time>2022-09-18T08:45:15.000Z</time>
      </trkpt>
      <trkpt lat="47.31338" lon="-2.24532">
        <ele>-9.3999996185303</ele>
        <time>2022-09-18T08:45:19.000Z</time>
      </trkpt>
      <trkpt lat="47.31333" lon="-2.24536">
        <ele>-8.8000001907349</ele>
        <time>2022-09-18T08:45:20.000Z</time>
      </trkpt>
      <trkpt lat="47.31328" lon="-2.2454">
        <ele>-8.3999996185303</ele>
        <time>2022-09-18T08:45:21.000Z</time>
      </trkpt>
      <trkpt lat="47.31323" lon="-2.24544">
        <ele>-8</ele>
        <time>2022-09-18T08:45:22.000Z</time>
      </trkpt>
      <trkpt lat="47.31319" lon="-2.24548">
        <ele>-7.5999999046326</ele>
        <time>2022-09-18T08:45:23.000Z</time>
      </trkpt>
      <trkpt lat="47.31314" lon="-2.24552">
        <ele>-7.1999998092651</ele>
        <time>2022-09-18T08:45:24.000Z</time>
      </trkpt>
      <trkpt lat="47.31309" lon="-2.24557">
        <ele>-7.1999998092651</ele>
        <time>2022-09-18T08:45:25.000Z</time>
      </trkpt>
      <trkpt lat="47.31295" lon="-2.24573">
        <ele>-7.1999998092651</ele>
        <time>2022-09-18T08:45:28.000Z</time>
      </trkpt>
      <trkpt lat="47.31285" lon="-2.24582">
        <ele>-7.1999998092651</ele>
        <time>2022-09-18T08:45:30.000Z</time>
      </trkpt>
      <trkpt lat="47.31258" lon="-2.24608">
        <ele>-7.1999998092651</ele>
        <time>2022-09-18T08:45:36.000Z</time>
      </trkpt>
      <trkpt lat="47.3124" lon="-2.24626">
        <ele>-7.1999998092651</ele>
        <time>2022-09-18T08:45:40.000Z</time>
      </trkpt>
      <trkpt lat="47.31236" lon="-2.24631">
        <ele>-7.1999998092651</ele>
        <time>2022-09-18T08:45:41.000Z</time>
      </trkpt>
      <trkpt lat="47.31219" lon="-2.24654">
        <ele>-7.1999998092651</ele>
        <time>2022-09-18T08:45:45.000Z</time>
      </trkpt>
      <trkpt lat="47.31214" lon="-2.24659">
        <ele>-7.1999998092651</ele>
        <time>2022-09-18T08:45:46.000Z</time>
      </trkpt>
      <trkpt lat="47.31193" lon="-2.24679">
        <ele>-7.1999998092651</ele>
        <time>2022-09-18T08:45:50.000Z</time>
      </trkpt>
      <trkpt lat="47.31188" lon="-2.24684">
        <ele>-7.1999998092651</ele>
        <time>2022-09-18T08:45:51.000Z</time>
      </trkpt>
      <trkpt lat="47.31173" lon="-2.24709">
        <ele>-7.1999998092651</ele>
        <time>2022-09-18T08:45:55.000Z</time>
      </trkpt>
      <trkpt lat="47.3117" lon="-2.24732">
        <ele>-7.1999998092651</ele>
        <time>2022-09-18T08:45:58.000Z</time>
      </trkpt>
      <trkpt lat="47.31164" lon="-2.24743">
        <ele>-7.1999998092651</ele>
        <time>2022-09-18T08:46:00.000Z</time>
      </trkpt>
      <trkpt lat="47.3116" lon="-2.24749">
        <ele>-7.1999998092651</ele>
        <time>2022-09-18T08:46:01.000Z</time>
      </trkpt>
      <trkpt lat="47.31148" lon="-2.24767">
        <ele>-7.1999998092651</ele>
        <time>2022-09-18T08:46:04.000Z</time>
      </trkpt>
      <trkpt lat="47.31139" lon="-2.24774">
        <ele>-7.1999998092651</ele>
        <time>2022-09-18T08:46:06.000Z</time>
      </trkpt>
      <trkpt lat="47.31131" lon="-2.24781">
        <ele>-7.5999999046326</ele>
        <time>2022-09-18T08:46:08.000Z</time>
      </trkpt>
      <trkpt lat="47.3113" lon="-2.24787">
        <ele>-8</ele>
        <time>2022-09-18T08:46:09.000Z</time>
      </trkpt>
      <trkpt lat="47.31129" lon="-2.24794">
        <ele>-8.3999996185303</ele>
        <time>2022-09-18T08:46:10.000Z</time>
      </trkpt>
      <trkpt lat="47.31129" lon="-2.24801">
        <ele>-8.8000001907349</ele>
        <time>2022-09-18T08:46:11.000Z</time>
      </trkpt>
      <trkpt lat="47.31131" lon="-2.24808">
        <ele>-9.1999998092651</ele>
        <time>2022-09-18T08:46:12.000Z</time>
      </trkpt>
      <trkpt lat="47.31135" lon="-2.24824">
        <ele>-9.1999998092651</ele>
        <time>2022-09-18T08:46:14.000Z</time>
      </trkpt>
      <trkpt lat="47.31138" lon="-2.2484">
        <ele>-9.1999998092651</ele>
        <time>2022-09-18T08:46:16.000Z</time>
      </trkpt>
      <trkpt lat="47.31139" lon="-2.24849">
        <ele>-9.1999998092651</ele>
        <time>2022-09-18T08:46:17.000Z</time>
      </trkpt>
      <trkpt lat="47.31144" lon="-2.24874">
        <ele>-9.1999998092651</ele>
        <time>2022-09-18T08:46:20.000Z</time>
      </trkpt>
      <trkpt lat="47.31148" lon="-2.24891">
        <ele>-9.1999998092651</ele>
        <time>2022-09-18T08:46:22.000Z</time>
      </trkpt>
      <trkpt lat="47.31156" lon="-2.24935">
        <ele>-9.1999998092651</ele>
        <time>2022-09-18T08:46:27.000Z</time>
      </trkpt>
      <trkpt lat="47.31163" lon="-2.24975">
        <ele>-9.1999998092651</ele>
        <time>2022-09-18T08:46:32.000Z</time>
      </trkpt>
      <trkpt lat="47.31166" lon="-2.24981">
        <ele>-9.1999998092651</ele>
        <time>2022-09-18T08:46:33.000Z</time>
      </trkpt>
      <trkpt lat="47.3118" lon="-2.24988">
        <ele>-9.1999998092651</ele>
        <time>2022-09-18T08:46:36.000Z</time>
      </trkpt>
      <trkpt lat="47.31193" lon="-2.25002">
        <ele>-9.1999998092651</ele>
        <time>2022-09-18T08:46:39.000Z</time>
      </trkpt>
      <trkpt lat="47.31199" lon="-2.25016">
        <ele>-9.1999998092651</ele>
        <time>2022-09-18T08:46:41.000Z</time>
      </trkpt>
      <trkpt lat="47.31204" lon="-2.25031">
        <ele>-9.1999998092651</ele>
        <time>2022-09-18T08:46:43.000Z</time>
      </trkpt>
      <trkpt lat="47.31228" lon="-2.25096">
        <ele>-9.1999998092651</ele>
        <time>2022-09-18T08:46:52.000Z</time>
      </trkpt>
      <trkpt lat="47.31238" lon="-2.25117">
        <ele>-9.1999998092651</ele>
        <time>2022-09-18T08:46:55.000Z</time>
      </trkpt>
      <trkpt lat="47.31249" lon="-2.25138">
        <ele>-9.1999998092651</ele>
        <time>2022-09-18T08:46:58.000Z</time>
      </trkpt>
      <trkpt lat="47.31272" lon="-2.25182">
        <ele>-9.1999998092651</ele>
        <time>2022-09-18T08:47:04.000Z</time>
      </trkpt>
      <trkpt lat="47.31284" lon="-2.25202">
        <ele>-9.1999998092651</ele>
        <time>2022-09-18T08:47:07.000Z</time>
      </trkpt>
      <trkpt lat="47.31294" lon="-2.25215">
        <ele>-9.1999998092651</ele>
        <time>2022-09-18T08:47:09.000Z</time>
      </trkpt>
      <trkpt lat="47.31299" lon="-2.25221">
        <ele>-9.1999998092651</ele>
        <time>2022-09-18T08:47:10.000Z</time>
      </trkpt>
      <trkpt lat="47.31331" lon="-2.25261">
        <ele>-9.1999998092651</ele>
        <time>2022-09-18T08:47:17.000Z</time>
      </trkpt>
      <trkpt lat="47.31338" lon="-2.25276">
        <ele>-9.1999998092651</ele>
        <time>2022-09-18T08:47:19.000Z</time>
      </trkpt>
      <trkpt lat="47.31341" lon="-2.25292">
        <ele>-9.1999998092651</ele>
        <time>2022-09-18T08:47:21.000Z</time>
      </trkpt>
      <trkpt lat="47.31347" lon="-2.25344">
        <ele>-9.1999998092651</ele>
        <time>2022-09-18T08:47:27.000Z</time>
      </trkpt>
      <trkpt lat="47.31349" lon="-2.25361">
        <ele>-9.1999998092651</ele>
        <time>2022-09-18T08:47:29.000Z</time>
      </trkpt>
      <trkpt lat="47.31359" lon="-2.25385">
        <ele>-9.1999998092651</ele>
        <time>2022-09-18T08:47:32.000Z</time>
      </trkpt>
      <trkpt lat="47.31364" lon="-2.25391">
        <ele>-9.1999998092651</ele>
        <time>2022-09-18T08:47:33.000Z</time>
      </trkpt>
      <trkpt lat="47.31383" lon="-2.25411">
        <ele>-9.1999998092651</ele>
        <time>2022-09-18T08:47:37.000Z</time>
      </trkpt>
      <trkpt lat="47.31392" lon="-2.25422">
        <ele>-9.1999998092651</ele>
        <time>2022-09-18T08:47:39.000Z</time>
      </trkpt>
      <trkpt lat="47.314" lon="-2.25435">
        <ele>-9.1999998092651</ele>
        <time>2022-09-18T08:47:41.000Z</time>
      </trkpt>
      <trkpt lat="47.3142" lon="-2.25481">
        <ele>-9.1999998092651</ele>
        <time>2022-09-18T08:47:47.000Z</time>
      </trkpt>
      <trkpt lat="47.31426" lon="-2.25496">
        <ele>-9.1999998092651</ele>
        <time>2022-09-18T08:47:49.000Z</time>
      </trkpt>
      <trkpt lat="47.31437" lon="-2.25517">
        <ele>-9.1999998092651</ele>
        <time>2022-09-18T08:47:52.000Z</time>
      </trkpt>
      <trkpt lat="47.31456" lon="-2.25541">
        <ele>-9.1999998092651</ele>
        <time>2022-09-18T08:47:56.000Z</time>
      </trkpt>
      <trkpt lat="47.31465" lon="-2.2555">
        <ele>-9.1999998092651</ele>
        <time>2022-09-18T08:47:58.000Z</time>
      </trkpt>
      <trkpt lat="47.3148" lon="-2.25564">
        <ele>-9.1999998092651</ele>
        <time>2022-09-18T08:48:01.000Z</time>
      </trkpt>
      <trkpt lat="47.31494" lon="-2.2558">
        <ele>-9.1999998092651</ele>
        <time>2022-09-18T08:48:04.000Z</time>
      </trkpt>
      <trkpt lat="47.31502" lon="-2.25593">
        <ele>-9.1999998092651</ele>
        <time>2022-09-18T08:48:06.000Z</time>
      </trkpt>
      <trkpt lat="47.31505" lon="-2.256">
        <ele>-9.1999998092651</ele>
        <time>2022-09-18T08:48:07.000Z</time>
      </trkpt>
      <trkpt lat="47.31509" lon="-2.25613">
        <ele>-9.1999998092651</ele>
        <time>2022-09-18T08:48:09.000Z</time>
      </trkpt>
      <trkpt lat="47.31517" lon="-2.25652">
        <ele>-9.1999998092651</ele>
        <time>2022-09-18T08:48:15.000Z</time>
      </trkpt>
      <trkpt lat="47.31518" lon="-2.25659">
        <ele>-9.1999998092651</ele>
        <time>2022-09-18T08:48:16.000Z</time>
      </trkpt>
      <trkpt lat="47.31526" lon="-2.25687">
        <ele>-9.1999998092651</ele>
        <time>2022-09-18T08:48:20.000Z</time>
      </trkpt>
      <trkpt lat="47.31536" lon="-2.25725">
        <ele>-9.1999998092651</ele>
        <time>2022-09-18T08:48:25.000Z</time>
      </trkpt>
      <trkpt lat="47.31537" lon="-2.25733">
        <ele>-9.1999998092651</ele>
        <time>2022-09-18T08:48:26.000Z</time>
      </trkpt>
      <trkpt lat="47.31543" lon="-2.2578">
        <ele>-9.1999998092651</ele>
        <time>2022-09-18T08:48:32.000Z</time>
      </trkpt>
      <trkpt lat="47.31544" lon="-2.25788">
        <ele>-9.1999998092651</ele>
        <time>2022-09-18T08:48:33.000Z</time>
      </trkpt>
      <trkpt lat="47.3155" lon="-2.25829">
        <ele>-9.1999998092651</ele>
        <time>2022-09-18T08:48:38.000Z</time>
      </trkpt>
      <trkpt lat="47.31552" lon="-2.25853">
        <ele>-9.1999998092651</ele>
        <time>2022-09-18T08:48:41.000Z</time>
      </trkpt>
      <trkpt lat="47.31549" lon="-2.2587">
        <ele>-9.1999998092651</ele>
        <time>2022-09-18T08:48:43.000Z</time>
      </trkpt>
      <trkpt lat="47.31544" lon="-2.25885">
        <ele>-9.1999998092651</ele>
        <time>2022-09-18T08:48:45.000Z</time>
      </trkpt>
      <trkpt lat="47.31542" lon="-2.25892">
        <ele>-9.1999998092651</ele>
        <time>2022-09-18T08:48:46.000Z</time>
      </trkpt>
      <trkpt lat="47.31538" lon="-2.25899">
        <ele>-9.1999998092651</ele>
        <time>2022-09-18T08:48:47.000Z</time>
      </trkpt>
      <trkpt lat="47.31514" lon="-2.2594">
        <ele>-9.1999998092651</ele>
        <time>2022-09-18T08:48:53.000Z</time>
      </trkpt>
      <trkpt lat="47.31493" lon="-2.2598">
        <ele>-9.1999998092651</ele>
        <time>2022-09-18T08:48:59.000Z</time>
      </trkpt>
      <trkpt lat="47.31479" lon="-2.26005">
        <ele>-9.1999998092651</ele>
        <time>2022-09-18T08:49:03.000Z</time>
      </trkpt>
      <trkpt lat="47.31455" lon="-2.26043">
        <ele>-9.1999998092651</ele>
        <time>2022-09-18T08:49:09.000Z</time>
      </trkpt>
      <trkpt lat="47.31442" lon="-2.26062">
        <ele>-9.1999998092651</ele>
        <time>2022-09-18T08:49:13.000Z</time>
      </trkpt>
      <trkpt lat="47.31431" lon="-2.26086">
        <ele>-9.1999998092651</ele>
        <time>2022-09-18T08:49:19.000Z</time>
      </trkpt>
      <trkpt lat="47.31426" lon="-2.26097">
        <ele>-9.1999998092651</ele>
        <time>2022-09-18T08:49:21.000Z</time>
      </trkpt>
      <trkpt lat="47.31417" lon="-2.26116">
        <ele>-9.1999998092651</ele>
        <time>2022-09-18T08:49:24.000Z</time>
      </trkpt>
      <trkpt lat="47.31409" lon="-2.26128">
        <ele>-9.1999998092651</ele>
        <time>2022-09-18T08:49:26.000Z</time>
      </trkpt>
      <trkpt lat="47.31401" lon="-2.26137">
        <ele>-9.1999998092651</ele>
        <time>2022-09-18T08:49:28.000Z</time>
      </trkpt>
      <trkpt lat="47.31396" lon="-2.26141">
        <ele>-9.1999998092651</ele>
        <time>2022-09-18T08:49:29.000Z</time>
      </trkpt>
      <trkpt lat="47.31382" lon="-2.26153">
        <ele>-9.1999998092651</ele>
        <time>2022-09-18T08:49:32.000Z</time>
      </trkpt>
      <trkpt lat="47.31377" lon="-2.26154">
        <ele>-9.1999998092651</ele>
        <time>2022-09-18T08:49:33.000Z</time>
      </trkpt>
      <trkpt lat="47.31369" lon="-2.26147">
        <ele>-9.1999998092651</ele>
        <time>2022-09-18T08:49:35.000Z</time>
      </trkpt>
      <trkpt lat="47.31366" lon="-2.26134">
        <ele>-9.1999998092651</ele>
        <time>2022-09-18T08:49:37.000Z</time>
      </trkpt>
      <trkpt lat="47.31363" lon="-2.26121">
        <ele>-9.1999998092651</ele>
        <time>2022-09-18T08:49:39.000Z</time>
      </trkpt>
      <trkpt lat="47.31354" lon="-2.26099">
        <ele>-9.1999998092651</ele>
        <time>2022-09-18T08:49:43.000Z</time>
      </trkpt>
      <trkpt lat="47.3135" lon="-2.26089">
        <ele>-9.1999998092651</ele>
        <time>2022-09-18T08:49:45.000Z</time>
      </trkpt>
      <trkpt lat="47.31335" lon="-2.26054">
        <ele>-9.1999998092651</ele>
        <time>2022-09-18T08:49:51.000Z</time>
      </trkpt>
      <trkpt lat="47.3133" lon="-2.26037">
        <ele>-8.8000001907349</ele>
        <time>2022-09-18T08:49:54.000Z</time>
      </trkpt>
      <trkpt lat="47.31328" lon="-2.26031">
        <ele>-8.3999996185303</ele>
        <time>2022-09-18T08:49:55.000Z</time>
      </trkpt>
      <trkpt lat="47.31326" lon="-2.26026">
        <ele>-8</ele>
        <time>2022-09-18T08:49:56.000Z</time>
      </trkpt>
      <trkpt lat="47.31323" lon="-2.26021">
        <ele>-7.5999999046326</ele>
        <time>2022-09-18T08:49:57.000Z</time>
      </trkpt>
      <trkpt lat="47.31322" lon="-2.26017">
        <ele>-7.1999998092651</ele>
        <time>2022-09-18T08:49:58.000Z</time>
      </trkpt>
      <trkpt lat="47.31317" lon="-2.26008">
        <ele>-7.1999998092651</ele>
        <time>2022-09-18T08:50:00.000Z</time>
      </trkpt>
      <trkpt lat="47.31309" lon="-2.25996">
        <ele>-7.1999998092651</ele>
        <time>2022-09-18T08:50:03.000Z</time>
      </trkpt>
      <trkpt lat="47.31304" lon="-2.25995">
        <ele>-7.1999998092651</ele>
        <time>2022-09-18T08:50:04.000Z</time>
      </trkpt>
      <trkpt lat="47.31282" lon="-2.26004">
        <ele>-7.1999998092651</ele>
        <time>2022-09-18T08:50:08.000Z</time>
      </trkpt>
      <trkpt lat="47.3126" lon="-2.26019">
        <ele>-7.1999998092651</ele>
        <time>2022-09-18T08:50:12.000Z</time>
      </trkpt>
      <trkpt lat="47.31254" lon="-2.26022">
        <ele>-7.1999998092651</ele>
        <time>2022-09-18T08:50:13.000Z</time>
      </trkpt>
      <trkpt lat="47.31234" lon="-2.26036">
        <ele>-7.1999998092651</ele>
        <time>2022-09-18T08:50:17.000Z</time>
      </trkpt>
      <trkpt lat="47.31227" lon="-2.26039">
        <ele>-7.1999998092651</ele>
        <time>2022-09-18T08:50:18.000Z</time>
      </trkpt>
      <trkpt lat="47.31202" lon="-2.26056">
        <ele>-7.1999998092651</ele>
        <time>2022-09-18T08:50:23.000Z</time>
      </trkpt>
      <trkpt lat="47.31198" lon="-2.2606">
        <ele>-7.1999998092651</ele>
        <time>2022-09-18T08:50:24.000Z</time>
      </trkpt>
      <trkpt lat="47.3119" lon="-2.26063">
        <ele>-7.5999999046326</ele>
        <time>2022-09-18T08:50:26.000Z</time>
      </trkpt>
      <trkpt lat="47.31186" lon="-2.26063">
        <ele>-8</ele>
        <time>2022-09-18T08:50:27.000Z</time>
      </trkpt>
      <trkpt lat="47.31181" lon="-2.26061">
        <ele>-8.3999996185303</ele>
        <time>2022-09-18T08:50:28.000Z</time>
      </trkpt>
      <trkpt lat="47.31176" lon="-2.26059">
        <ele>-8.8000001907349</ele>
        <time>2022-09-18T08:50:29.000Z</time>
      </trkpt>
      <trkpt lat="47.31171" lon="-2.26056">
        <ele>-9.1999998092651</ele>
        <time>2022-09-18T08:50:30.000Z</time>
      </trkpt>
      <trkpt lat="47.31166" lon="-2.26053">
        <ele>-9.1999998092651</ele>
        <time>2022-09-18T08:50:31.000Z</time>
      </trkpt>
      <trkpt lat="47.31138" lon="-2.26035">
        <ele>-9.1999998092651</ele>
        <time>2022-09-18T08:50:37.000Z</time>
      </trkpt>
      <trkpt lat="47.31119" lon="-2.26022">
        <ele>-8.8000001907349</ele>
        <time>2022-09-18T08:50:41.000Z</time>
      </trkpt>
      <trkpt lat="47.31114" lon="-2.2602">
        <ele>-8.3999996185303</ele>
        <time>2022-09-18T08:50:42.000Z</time>
      </trkpt>
      <trkpt lat="47.3111" lon="-2.26017">
        <ele>-8</ele>
        <time>2022-09-18T08:50:43.000Z</time>
      </trkpt>
      <trkpt lat="47.31105" lon="-2.26015">
        <ele>-7.5999999046326</ele>
        <time>2022-09-18T08:50:44.000Z</time>
      </trkpt>
      <trkpt lat="47.311" lon="-2.26013">
        <ele>-7.1999998092651</ele>
        <time>2022-09-18T08:50:45.000Z</time>
      </trkpt>
      <trkpt lat="47.3109" lon="-2.26008">
        <ele>-7.1999998092651</ele>
        <time>2022-09-18T08:50:48.000Z</time>
      </trkpt>
      <trkpt lat="47.31089" lon="-2.26008">
        <ele>-7.1999998092651</ele>
        <time>2022-09-18T08:50:49.000Z</time>
      </trkpt>
      <trkpt lat="47.31079" lon="-2.26011">
        <ele>-7.1999998092651</ele>
        <time>2022-09-18T08:50:53.000Z</time>
      </trkpt>
      <trkpt lat="47.31072" lon="-2.26018">
        <ele>-7.1999998092651</ele>
        <time>2022-09-18T08:50:55.000Z</time>
      </trkpt>
      <trkpt lat="47.3106" lon="-2.26031">
        <ele>-7.1999998092651</ele>
        <time>2022-09-18T08:50:58.000Z</time>
      </trkpt>
      <trkpt lat="47.31048" lon="-2.26058">
        <ele>-7.1999998092651</ele>
        <time>2022-09-18T08:51:02.000Z</time>
      </trkpt>
      <trkpt lat="47.31043" lon="-2.26085">
        <ele>-7.1999998092651</ele>
        <time>2022-09-18T08:51:05.000Z</time>
      </trkpt>
      <trkpt lat="47.31041" lon="-2.26104">
        <ele>-7.1999998092651</ele>
        <time>2022-09-18T08:51:07.000Z</time>
      </trkpt>
      <trkpt lat="47.31036" lon="-2.26144">
        <ele>-7.1999998092651</ele>
        <time>2022-09-18T08:51:11.000Z</time>
      </trkpt>
      <trkpt lat="47.31034" lon="-2.26164">
        <ele>-7.1999998092651</ele>
        <time>2022-09-18T08:51:13.000Z</time>
      </trkpt>
      <trkpt lat="47.31024" lon="-2.26232">
        <ele>-7.1999998092651</ele>
        <time>2022-09-18T08:51:20.000Z</time>
      </trkpt>
      <trkpt lat="47.31015" lon="-2.2629">
        <ele>-7.1999998092651</ele>
        <time>2022-09-18T08:51:26.000Z</time>
      </trkpt>
      <trkpt lat="47.31" lon="-2.26367">
        <ele>-7.1999998092651</ele>
        <time>2022-09-18T08:51:34.000Z</time>
      </trkpt>
      <trkpt lat="47.30995" lon="-2.26396">
        <ele>-7.5999999046326</ele>
        <time>2022-09-18T08:51:37.000Z</time>
      </trkpt>
      <trkpt lat="47.30993" lon="-2.26405">
        <ele>-8.3999996185303</ele>
        <time>2022-09-18T08:51:38.000Z</time>
      </trkpt>
      <trkpt lat="47.30991" lon="-2.26414">
        <ele>-8.8000001907349</ele>
        <time>2022-09-18T08:51:39.000Z</time>
      </trkpt>
      <trkpt lat="47.30989" lon="-2.26423">
        <ele>-9.1999998092651</ele>
        <time>2022-09-18T08:51:40.000Z</time>
      </trkpt>
      <trkpt lat="47.30987" lon="-2.26432">
        <ele>-9.1999998092651</ele>
        <time>2022-09-18T08:51:41.000Z</time>
      </trkpt>
      <trkpt lat="47.30975" lon="-2.26496">
        <ele>-9.1999998092651</ele>
        <time>2022-09-18T08:51:48.000Z</time>
      </trkpt>
      <trkpt lat="47.30964" lon="-2.26559">
        <ele>-9.1999998092651</ele>
        <time>2022-09-18T08:51:55.000Z</time>
      </trkpt>
      <trkpt lat="47.30953" lon="-2.26623">
        <ele>-9.1999998092651</ele>
        <time>2022-09-18T08:52:02.000Z</time>
      </trkpt>
      <trkpt lat="47.30941" lon="-2.26683">
        <ele>-9.1999998092651</ele>
        <time>2022-09-18T08:52:09.000Z</time>
      </trkpt>
      <trkpt lat="47.30931" lon="-2.26744">
        <ele>-9.1999998092651</ele>
        <time>2022-09-18T08:52:16.000Z</time>
      </trkpt>
      <trkpt lat="47.30921" lon="-2.26794">
        <ele>-9.1999998092651</ele>
        <time>2022-09-18T08:52:22.000Z</time>
      </trkpt>
      <trkpt lat="47.30918" lon="-2.26811">
        <ele>-9.1999998092651</ele>
        <time>2022-09-18T08:52:24.000Z</time>
      </trkpt>
      <trkpt lat="47.30914" lon="-2.26837">
        <ele>-9.1999998092651</ele>
        <time>2022-09-18T08:52:27.000Z</time>
      </trkpt>
      <trkpt lat="47.30904" lon="-2.26882">
        <ele>-9.1999998092651</ele>
        <time>2022-09-18T08:52:33.000Z</time>
      </trkpt>
      <trkpt lat="47.30905" lon="-2.26911">
        <ele>-9.1999998092651</ele>
        <time>2022-09-18T08:52:37.000Z</time>
      </trkpt>
      <trkpt lat="47.30906" lon="-2.26918">
        <ele>-9.1999998092651</ele>
        <time>2022-09-18T08:52:38.000Z</time>
      </trkpt>
      <trkpt lat="47.30911" lon="-2.2693">
        <ele>-9.1999998092651</ele>
        <time>2022-09-18T08:52:40.000Z</time>
      </trkpt>
      <trkpt lat="47.30925" lon="-2.26941">
        <ele>-9.1999998092651</ele>
        <time>2022-09-18T08:52:43.000Z</time>
      </trkpt>
      <trkpt lat="47.3097" lon="-2.26968">
        <ele>-9.1999998092651</ele>
        <time>2022-09-18T08:52:51.000Z</time>
      </trkpt>
      <trkpt lat="47.30975" lon="-2.26972">
        <ele>-9.1999998092651</ele>
        <time>2022-09-18T08:52:52.000Z</time>
      </trkpt>
      <trkpt lat="47.30987" lon="-2.26987">
        <ele>-9.1999998092651</ele>
        <time>2022-09-18T08:52:55.000Z</time>
      </trkpt>
      <trkpt lat="47.30995" lon="-2.27015">
        <ele>-9.1999998092651</ele>
        <time>2022-09-18T08:52:59.000Z</time>
      </trkpt>
      <trkpt lat="47.30996" lon="-2.27022">
        <ele>-9.1999998092651</ele>
        <time>2022-09-18T08:53:00.000Z</time>
      </trkpt>
      <trkpt lat="47.30998" lon="-2.27046">
        <ele>-9.1999998092651</ele>
        <time>2022-09-18T08:53:03.000Z</time>
      </trkpt>
      <trkpt lat="47.30998" lon="-2.27054">
        <ele>-9.1999998092651</ele>
        <time>2022-09-18T08:53:04.000Z</time>
      </trkpt>
      <trkpt lat="47.30998" lon="-2.27062">
        <ele>-8.8000001907349</ele>
        <time>2022-09-18T08:53:05.000Z</time>
      </trkpt>
      <trkpt lat="47.30998" lon="-2.27071">
        <ele>-8.3999996185303</ele>
        <time>2022-09-18T08:53:06.000Z</time>
      </trkpt>
      <trkpt lat="47.30999" lon="-2.27079">
        <ele>-8</ele>
        <time>2022-09-18T08:53:07.000Z</time>
      </trkpt>
      <trkpt lat="47.30999" lon="-2.27088">
        <ele>-7.5999999046326</ele>
        <time>2022-09-18T08:53:08.000Z</time>
      </trkpt>
      <trkpt lat="47.30999" lon="-2.27096">
        <ele>-7.1999998092651</ele>
        <time>2022-09-18T08:53:09.000Z</time>
      </trkpt>
      <trkpt lat="47.31" lon="-2.27113">
        <ele>-6.8000001907349</ele>
        <time>2022-09-18T08:53:11.000Z</time>
      </trkpt>
      <trkpt lat="47.31001" lon="-2.27122">
        <ele>-6.4000000953674</ele>
        <time>2022-09-18T08:53:12.000Z</time>
      </trkpt>
      <trkpt lat="47.31001" lon="-2.27131">
        <ele>-6</ele>
        <time>2022-09-18T08:53:13.000Z</time>
      </trkpt>
      <trkpt lat="47.31002" lon="-2.2714">
        <ele>-5.5999999046326</ele>
        <time>2022-09-18T08:53:14.000Z</time>
      </trkpt>
      <trkpt lat="47.31002" lon="-2.27148">
        <ele>-5.1999998092651</ele>
        <time>2022-09-18T08:53:15.000Z</time>
      </trkpt>
      <trkpt lat="47.31003" lon="-2.27166">
        <ele>-5.1999998092651</ele>
        <time>2022-09-18T08:53:17.000Z</time>
      </trkpt>
      <trkpt lat="47.31011" lon="-2.27228">
        <ele>-5.1999998092651</ele>
        <time>2022-09-18T08:53:24.000Z</time>
      </trkpt>
      <trkpt lat="47.31025" lon="-2.27248">
        <ele>-5.1999998092651</ele>
        <time>2022-09-18T08:53:27.000Z</time>
      </trkpt>
      <trkpt lat="47.31045" lon="-2.27254">
        <ele>-5.1999998092651</ele>
        <time>2022-09-18T08:53:30.000Z</time>
      </trkpt>
      <trkpt lat="47.31065" lon="-2.2725">
        <ele>-5.1999998092651</ele>
        <time>2022-09-18T08:53:33.000Z</time>
      </trkpt>
      <trkpt lat="47.31071" lon="-2.27248">
        <ele>-5.1999998092651</ele>
        <time>2022-09-18T08:53:34.000Z</time>
      </trkpt>
      <trkpt lat="47.31106" lon="-2.27236">
        <ele>-5.1999998092651</ele>
        <time>2022-09-18T08:53:40.000Z</time>
      </trkpt>
      <trkpt lat="47.31139" lon="-2.27219">
        <ele>-5.1999998092651</ele>
        <time>2022-09-18T08:53:47.000Z</time>
      </trkpt>
      <trkpt lat="47.31144" lon="-2.27216">
        <ele>-5.1999998092651</ele>
        <time>2022-09-18T08:53:48.000Z</time>
      </trkpt>
      <trkpt lat="47.31163" lon="-2.27198">
        <ele>-5.1999998092651</ele>
        <time>2022-09-18T08:53:52.000Z</time>
      </trkpt>
      <trkpt lat="47.31194" lon="-2.27164">
        <ele>-5.1999998092651</ele>
        <time>2022-09-18T08:53:58.000Z</time>
      </trkpt>
      <trkpt lat="47.31229" lon="-2.27131">
        <ele>-5.1999998092651</ele>
        <time>2022-09-18T08:54:04.000Z</time>
      </trkpt>
      <trkpt lat="47.31261" lon="-2.27109">
        <ele>-5.1999998092651</ele>
        <time>2022-09-18T08:54:10.000Z</time>
      </trkpt>
      <trkpt lat="47.3127" lon="-2.27115">
        <ele>-5.1999998092651</ele>
        <time>2022-09-18T08:54:12.000Z</time>
      </trkpt>
      <trkpt lat="47.31277" lon="-2.27139">
        <ele>-5.1999998092651</ele>
        <time>2022-09-18T08:54:15.000Z</time>
      </trkpt>
      <trkpt lat="47.31289" lon="-2.27207">
        <ele>-5.1999998092651</ele>
        <time>2022-09-18T08:54:22.000Z</time>
      </trkpt>
      <trkpt lat="47.31296" lon="-2.27245">
        <ele>-5.5999999046326</ele>
        <time>2022-09-18T08:54:26.000Z</time>
      </trkpt>
      <trkpt lat="47.31298" lon="-2.27254">
        <ele>-6</ele>
        <time>2022-09-18T08:54:27.000Z</time>
      </trkpt>
      <trkpt lat="47.31301" lon="-2.27262">
        <ele>-6.4000000953674</ele>
        <time>2022-09-18T08:54:28.000Z</time>
      </trkpt>
      <trkpt lat="47.31305" lon="-2.27271">
        <ele>-6.8000001907349</ele>
        <time>2022-09-18T08:54:29.000Z</time>
      </trkpt>
      <trkpt lat="47.31308" lon="-2.27279">
        <ele>-7.1999998092651</ele>
        <time>2022-09-18T08:54:30.000Z</time>
      </trkpt>
      <trkpt lat="47.31313" lon="-2.27286">
        <ele>-7.1999998092651</ele>
        <time>2022-09-18T08:54:31.000Z</time>
      </trkpt>
      <trkpt lat="47.31317" lon="-2.27293">
        <ele>-7.1999998092651</ele>
        <time>2022-09-18T08:54:32.000Z</time>
      </trkpt>
      <trkpt lat="47.31333" lon="-2.27315">
        <ele>-7.5999999046326</ele>
        <time>2022-09-18T08:54:35.000Z</time>
      </trkpt>
      <trkpt lat="47.31339" lon="-2.27322">
        <ele>-8</ele>
        <time>2022-09-18T08:54:36.000Z</time>
      </trkpt>
      <trkpt lat="47.31344" lon="-2.27329">
        <ele>-8.3999996185303</ele>
        <time>2022-09-18T08:54:37.000Z</time>
      </trkpt>
      <trkpt lat="47.31348" lon="-2.27336">
        <ele>-8.8000001907349</ele>
        <time>2022-09-18T08:54:38.000Z</time>
      </trkpt>
      <trkpt lat="47.31353" lon="-2.27342">
        <ele>-9.1999998092651</ele>
        <time>2022-09-18T08:54:39.000Z</time>
      </trkpt>
      <trkpt lat="47.31371" lon="-2.27367">
        <ele>-9.1999998092651</ele>
        <time>2022-09-18T08:54:43.000Z</time>
      </trkpt>
      <trkpt lat="47.314" lon="-2.27402">
        <ele>-9.1999998092651</ele>
        <time>2022-09-18T08:54:49.000Z</time>
      </trkpt>
      <trkpt lat="47.31433" lon="-2.2743">
        <ele>-9.1999998092651</ele>
        <time>2022-09-18T08:54:55.000Z</time>
      </trkpt>
      <trkpt lat="47.31443" lon="-2.27439">
        <ele>-9.1999998092651</ele>
        <time>2022-09-18T08:54:57.000Z</time>
      </trkpt>
      <trkpt lat="47.31451" lon="-2.27452">
        <ele>-9.1999998092651</ele>
        <time>2022-09-18T08:54:59.000Z</time>
      </trkpt>
      <trkpt lat="47.31458" lon="-2.27481">
        <ele>-9.1999998092651</ele>
        <time>2022-09-18T08:55:03.000Z</time>
      </trkpt>
      <trkpt lat="47.31464" lon="-2.27502">
        <ele>-9.1999998092651</ele>
        <time>2022-09-18T08:55:06.000Z</time>
      </trkpt>
      <trkpt lat="47.31469" lon="-2.27516">
        <ele>-9.1999998092651</ele>
        <time>2022-09-18T08:55:08.000Z</time>
      </trkpt>
      <trkpt lat="47.3148" lon="-2.27539">
        <ele>-9.1999998092651</ele>
        <time>2022-09-18T08:55:12.000Z</time>
      </trkpt>
      <trkpt lat="47.31494" lon="-2.27571">
        <ele>-9.1999998092651</ele>
        <time>2022-09-18T08:55:16.000Z</time>
      </trkpt>
      <trkpt lat="47.31498" lon="-2.27587">
        <ele>-9.1999998092651</ele>
        <time>2022-09-18T08:55:18.000Z</time>
      </trkpt>
      <trkpt lat="47.31499" lon="-2.27626">
        <ele>-9.1999998092651</ele>
        <time>2022-09-18T08:55:22.000Z</time>
      </trkpt>
      <trkpt lat="47.3149" lon="-2.27653">
        <ele>-9.1999998092651</ele>
        <time>2022-09-18T08:55:25.000Z</time>
      </trkpt>
      <trkpt lat="47.31486" lon="-2.27662">
        <ele>-9.1999998092651</ele>
        <time>2022-09-18T08:55:26.000Z</time>
      </trkpt>
      <trkpt lat="47.31472" lon="-2.27685">
        <ele>-9.1999998092651</ele>
        <time>2022-09-18T08:55:29.000Z</time>
      </trkpt>
      <trkpt lat="47.31467" lon="-2.27692">
        <ele>-9.1999998092651</ele>
        <time>2022-09-18T08:55:30.000Z</time>
      </trkpt>
      <trkpt lat="47.3145" lon="-2.27709">
        <ele>-9.1999998092651</ele>
        <time>2022-09-18T08:55:33.000Z</time>
      </trkpt>
      <trkpt lat="47.31439" lon="-2.27719">
        <ele>-9.1999998092651</ele>
        <time>2022-09-18T08:55:35.000Z</time>
      </trkpt>
      <trkpt lat="47.31416" lon="-2.27735">
        <ele>-9.1999998092651</ele>
        <time>2022-09-18T08:55:39.000Z</time>
      </trkpt>
      <trkpt lat="47.31387" lon="-2.27749">
        <ele>-9.1999998092651</ele>
        <time>2022-09-18T08:55:44.000Z</time>
      </trkpt>
      <trkpt lat="47.31381" lon="-2.27751">
        <ele>-9.1999998092651</ele>
        <time>2022-09-18T08:55:45.000Z</time>
      </trkpt>
      <trkpt lat="47.31345" lon="-2.27762">
        <ele>-9.1999998092651</ele>
        <time>2022-09-18T08:55:51.000Z</time>
      </trkpt>
      <trkpt lat="47.31304" lon="-2.2777">
        <ele>-9.1999998092651</ele>
        <time>2022-09-18T08:55:58.000Z</time>
      </trkpt>
      <trkpt lat="47.31264" lon="-2.27776">
        <ele>-9.1999998092651</ele>
        <time>2022-09-18T08:56:05.000Z</time>
      </trkpt>
      <trkpt lat="47.31258" lon="-2.27777">
        <ele>-9.1999998092651</ele>
        <time>2022-09-18T08:56:06.000Z</time>
      </trkpt>
      <trkpt lat="47.3124" lon="-2.27775">
        <ele>-9.1999998092651</ele>
        <time>2022-09-18T08:56:09.000Z</time>
      </trkpt>
      <trkpt lat="47.31234" lon="-2.27773">
        <ele>-9.1999998092651</ele>
        <time>2022-09-18T08:56:10.000Z</time>
      </trkpt>
      <trkpt lat="47.31226" lon="-2.27763">
        <ele>-9.1999998092651</ele>
        <time>2022-09-18T08:56:12.000Z</time>
      </trkpt>
      <trkpt lat="47.31219" lon="-2.27741">
        <ele>-9.1999998092651</ele>
        <time>2022-09-18T08:56:15.000Z</time>
      </trkpt>
      <trkpt lat="47.31217" lon="-2.27735">
        <ele>-9.1999998092651</ele>
        <time>2022-09-18T08:56:16.000Z</time>
      </trkpt>
      <trkpt lat="47.31203" lon="-2.27727">
        <ele>-9.1999998092651</ele>
        <time>2022-09-18T08:56:19.000Z</time>
      </trkpt>
      <trkpt lat="47.31187" lon="-2.27735">
        <ele>-9.1999998092651</ele>
        <time>2022-09-18T08:56:22.000Z</time>
      </trkpt>
      <trkpt lat="47.31182" lon="-2.27739">
        <ele>-9.1999998092651</ele>
        <time>2022-09-18T08:56:23.000Z</time>
      </trkpt>
      <trkpt lat="47.31177" lon="-2.2774">
        <ele>-9.1999998092651</ele>
        <time>2022-09-18T08:56:24.000Z</time>
      </trkpt>
      <trkpt lat="47.31166" lon="-2.27743">
        <ele>-9.1999998092651</ele>
        <time>2022-09-18T08:56:26.000Z</time>
      </trkpt>
      <trkpt lat="47.3116" lon="-2.27743">
        <ele>-9.1999998092651</ele>
        <time>2022-09-18T08:56:27.000Z</time>
      </trkpt>
      <trkpt lat="47.31142" lon="-2.2775">
        <ele>-9.1999998092651</ele>
        <time>2022-09-18T08:56:31.000Z</time>
      </trkpt>
      <trkpt lat="47.31143" lon="-2.27767">
        <ele>-9.1999998092651</ele>
        <time>2022-09-18T08:56:34.000Z</time>
      </trkpt>
      <trkpt lat="47.3115" lon="-2.27788">
        <ele>-9.1999998092651</ele>
        <time>2022-09-18T08:56:37.000Z</time>
      </trkpt>
      <trkpt lat="47.31152" lon="-2.27795">
        <ele>-9.1999998092651</ele>
        <time>2022-09-18T08:56:38.000Z</time>
      </trkpt>
      <trkpt lat="47.31155" lon="-2.27811">
        <ele>-9.1999998092651</ele>
        <time>2022-09-18T08:56:40.000Z</time>
      </trkpt>
      <trkpt lat="47.31156" lon="-2.27829">
        <ele>-9.1999998092651</ele>
        <time>2022-09-18T08:56:42.000Z</time>
      </trkpt>
      <trkpt lat="47.31149" lon="-2.27863">
        <ele>-9.1999998092651</ele>
        <time>2022-09-18T08:56:46.000Z</time>
      </trkpt>
      <trkpt lat="47.31125" lon="-2.27902">
        <ele>-9.1999998092651</ele>
        <time>2022-09-18T08:56:51.000Z</time>
      </trkpt>
      <trkpt lat="47.31095" lon="-2.27949">
        <ele>-9.1999998092651</ele>
        <time>2022-09-18T08:56:58.000Z</time>
      </trkpt>
      <trkpt lat="47.3107" lon="-2.27989">
        <ele>-9.1999998092651</ele>
        <time>2022-09-18T08:57:04.000Z</time>
      </trkpt>
      <trkpt lat="47.31065" lon="-2.27996">
        <ele>-9.1999998092651</ele>
        <time>2022-09-18T08:57:05.000Z</time>
      </trkpt>
      <trkpt lat="47.31061" lon="-2.28004">
        <ele>-9.1999998092651</ele>
        <time>2022-09-18T08:57:06.000Z</time>
      </trkpt>
      <trkpt lat="47.31047" lon="-2.28023">
        <ele>-9.1999998092651</ele>
        <time>2022-09-18T08:57:09.000Z</time>
      </trkpt>
      <trkpt lat="47.31043" lon="-2.28029">
        <ele>-9.1999998092651</ele>
        <time>2022-09-18T08:57:10.000Z</time>
      </trkpt>
      <trkpt lat="47.31023" lon="-2.28048">
        <ele>-9.1999998092651</ele>
        <time>2022-09-18T08:57:14.000Z</time>
      </trkpt>
      <trkpt lat="47.30994" lon="-2.28069">
        <ele>-9.1999998092651</ele>
        <time>2022-09-18T08:57:19.000Z</time>
      </trkpt>
      <trkpt lat="47.30983" lon="-2.28078">
        <ele>-9.1999998092651</ele>
        <time>2022-09-18T08:57:21.000Z</time>
      </trkpt>
      <trkpt lat="47.30972" lon="-2.28089">
        <ele>-9.1999998092651</ele>
        <time>2022-09-18T08:57:23.000Z</time>
      </trkpt>
      <trkpt lat="47.30937" lon="-2.28133">
        <ele>-9.1999998092651</ele>
        <time>2022-09-18T08:57:30.000Z</time>
      </trkpt>
      <trkpt lat="47.30911" lon="-2.28168">
        <ele>-9.1999998092651</ele>
        <time>2022-09-18T08:57:36.000Z</time>
      </trkpt>
      <trkpt lat="47.30894" lon="-2.28192">
        <ele>-9.1999998092651</ele>
        <time>2022-09-18T08:57:40.000Z</time>
      </trkpt>
      <trkpt lat="47.30889" lon="-2.28199">
        <ele>-9.1999998092651</ele>
        <time>2022-09-18T08:57:41.000Z</time>
      </trkpt>
      <trkpt lat="47.30871" lon="-2.28222">
        <ele>-9.1999998092651</ele>
        <time>2022-09-18T08:57:45.000Z</time>
      </trkpt>
      <trkpt lat="47.30862" lon="-2.28232">
        <ele>-9.1999998092651</ele>
        <time>2022-09-18T08:57:47.000Z</time>
      </trkpt>
      <trkpt lat="47.3084" lon="-2.28246">
        <ele>-9.1999998092651</ele>
        <time>2022-09-18T08:57:51.000Z</time>
      </trkpt>
      <trkpt lat="47.30834" lon="-2.28249">
        <ele>-9.1999998092651</ele>
        <time>2022-09-18T08:57:52.000Z</time>
      </trkpt>
      <trkpt lat="47.30828" lon="-2.2825">
        <ele>-9.1999998092651</ele>
        <time>2022-09-18T08:57:53.000Z</time>
      </trkpt>
      <trkpt lat="47.3081" lon="-2.28251">
        <ele>-9.1999998092651</ele>
        <time>2022-09-18T08:57:56.000Z</time>
      </trkpt>
      <trkpt lat="47.30804" lon="-2.28251">
        <ele>-9.1999998092651</ele>
        <time>2022-09-18T08:57:57.000Z</time>
      </trkpt>
      <trkpt lat="47.30791" lon="-2.28249">
        <ele>-9.1999998092651</ele>
        <time>2022-09-18T08:57:59.000Z</time>
      </trkpt>
      <trkpt lat="47.30774" lon="-2.28238">
        <ele>-9.1999998092651</ele>
        <time>2022-09-18T08:58:02.000Z</time>
      </trkpt>
      <trkpt lat="47.30768" lon="-2.28234">
        <ele>-9.1999998092651</ele>
        <time>2022-09-18T08:58:03.000Z</time>
      </trkpt>
      <trkpt lat="47.30763" lon="-2.28228">
        <ele>-9.1999998092651</ele>
        <time>2022-09-18T08:58:04.000Z</time>
      </trkpt>
      <trkpt lat="47.30749" lon="-2.2821">
        <ele>-9.1999998092651</ele>
        <time>2022-09-18T08:58:07.000Z</time>
      </trkpt>
      <trkpt lat="47.30717" lon="-2.28162">
        <ele>-9.1999998092651</ele>
        <time>2022-09-18T08:58:14.000Z</time>
      </trkpt>
      <trkpt lat="47.30689" lon="-2.28134">
        <ele>-9.1999998092651</ele>
        <time>2022-09-18T08:58:20.000Z</time>
      </trkpt>
      <trkpt lat="47.30663" lon="-2.28107">
        <ele>-9.1999998092651</ele>
        <time>2022-09-18T08:58:25.000Z</time>
      </trkpt>
      <trkpt lat="47.30639" lon="-2.28082">
        <ele>-9.1999998092651</ele>
        <time>2022-09-18T08:58:30.000Z</time>
      </trkpt>
      <trkpt lat="47.30604" lon="-2.28047">
        <ele>-9.1999998092651</ele>
        <time>2022-09-18T08:58:37.000Z</time>
      </trkpt>
      <trkpt lat="47.30598" lon="-2.28043">
        <ele>-9.1999998092651</ele>
        <time>2022-09-18T08:58:38.000Z</time>
      </trkpt>
      <trkpt lat="47.30592" lon="-2.28041">
        <ele>-9.1999998092651</ele>
        <time>2022-09-18T08:58:39.000Z</time>
      </trkpt>
      <trkpt lat="47.30576" lon="-2.28035">
        <ele>-9.1999998092651</ele>
        <time>2022-09-18T08:58:42.000Z</time>
      </trkpt>
      <trkpt lat="47.30554" lon="-2.28026">
        <ele>-9.1999998092651</ele>
        <time>2022-09-18T08:58:46.000Z</time>
      </trkpt>
      <trkpt lat="47.30544" lon="-2.28016">
        <ele>-9.1999998092651</ele>
        <time>2022-09-18T08:58:48.000Z</time>
      </trkpt>
      <trkpt lat="47.30533" lon="-2.27993">
        <ele>-9.1999998092651</ele>
        <time>2022-09-18T08:58:51.000Z</time>
      </trkpt>
      <trkpt lat="47.3053" lon="-2.27985">
        <ele>-9.1999998092651</ele>
        <time>2022-09-18T08:58:52.000Z</time>
      </trkpt>
      <trkpt lat="47.30524" lon="-2.27961">
        <ele>-9.1999998092651</ele>
        <time>2022-09-18T08:58:55.000Z</time>
      </trkpt>
      <trkpt lat="47.30523" lon="-2.27946">
        <ele>-9.1999998092651</ele>
        <time>2022-09-18T08:58:57.000Z</time>
      </trkpt>
      <trkpt lat="47.30519" lon="-2.27934">
        <ele>-9.1999998092651</ele>
        <time>2022-09-18T08:58:59.000Z</time>
      </trkpt>
      <trkpt lat="47.30512" lon="-2.27926">
        <ele>-9.1999998092651</ele>
        <time>2022-09-18T08:59:01.000Z</time>
      </trkpt>
      <trkpt lat="47.30496" lon="-2.27924">
        <ele>-9.1999998092651</ele>
        <time>2022-09-18T08:59:04.000Z</time>
      </trkpt>
      <trkpt lat="47.30478" lon="-2.27921">
        <ele>-9.1999998092651</ele>
        <time>2022-09-18T08:59:07.000Z</time>
      </trkpt>
      <trkpt lat="47.30467" lon="-2.27917">
        <ele>-9.1999998092651</ele>
        <time>2022-09-18T08:59:09.000Z</time>
      </trkpt>
      <trkpt lat="47.30461" lon="-2.27914">
        <ele>-9.1999998092651</ele>
        <time>2022-09-18T08:59:10.000Z</time>
      </trkpt>
      <trkpt lat="47.30437" lon="-2.27902">
        <ele>-9.1999998092651</ele>
        <time>2022-09-18T08:59:14.000Z</time>
      </trkpt>
      <trkpt lat="47.30405" lon="-2.27899">
        <ele>-9.1999998092651</ele>
        <time>2022-09-18T08:59:19.000Z</time>
      </trkpt>
      <trkpt lat="47.30362" lon="-2.27901">
        <ele>-9.1999998092651</ele>
        <time>2022-09-18T08:59:26.000Z</time>
      </trkpt>
      <trkpt lat="47.30331" lon="-2.27907">
        <ele>-9.1999998092651</ele>
        <time>2022-09-18T08:59:31.000Z</time>
      </trkpt>
      <trkpt lat="47.30289" lon="-2.27913">
        <ele>-9.1999998092651</ele>
        <time>2022-09-18T08:59:38.000Z</time>
      </trkpt>
      <trkpt lat="47.30278" lon="-2.27913">
        <ele>-8.8000001907349</ele>
        <time>2022-09-18T08:59:40.000Z</time>
      </trkpt>
      <trkpt lat="47.30272" lon="-2.27914">
        <ele>-8.3999996185303</ele>
        <time>2022-09-18T08:59:41.000Z</time>
      </trkpt>
      <trkpt lat="47.30266" lon="-2.27915">
        <ele>-8</ele>
        <time>2022-09-18T08:59:42.000Z</time>
      </trkpt>
      <trkpt lat="47.30259" lon="-2.27915">
        <ele>-7.5999999046326</ele>
        <time>2022-09-18T08:59:43.000Z</time>
      </trkpt>
      <trkpt lat="47.30253" lon="-2.27916">
        <ele>-7.1999998092651</ele>
        <time>2022-09-18T08:59:44.000Z</time>
      </trkpt>
      <trkpt lat="47.30246" lon="-2.27916">
        <ele>-7.1999998092651</ele>
        <time>2022-09-18T08:59:45.000Z</time>
      </trkpt>
      <trkpt lat="47.30209" lon="-2.27918">
        <ele>-7.1999998092651</ele>
        <time>2022-09-18T08:59:51.000Z</time>
      </trkpt>
      <trkpt lat="47.30185" lon="-2.27919">
        <ele>-6.8000001907349</ele>
        <time>2022-09-18T08:59:55.000Z</time>
      </trkpt>
      <trkpt lat="47.30179" lon="-2.27919">
        <ele>-6.4000000953674</ele>
        <time>2022-09-18T08:59:56.000Z</time>
      </trkpt>
      <trkpt lat="47.30172" lon="-2.27919">
        <ele>-6</ele>
        <time>2022-09-18T08:59:57.000Z</time>
      </trkpt>
      <trkpt lat="47.30167" lon="-2.27919">
        <ele>-5.4000000953674</ele>
        <time>2022-09-18T08:59:58.000Z</time>
      </trkpt>
      <trkpt lat="47.30161" lon="-2.27919">
        <ele>-5</ele>
        <time>2022-09-18T08:59:59.000Z</time>
      </trkpt>
      <trkpt lat="47.30149" lon="-2.27922">
        <ele>-5</ele>
        <time>2022-09-18T09:00:01.000Z</time>
      </trkpt>
      <trkpt lat="47.30138" lon="-2.27928">
        <ele>-5</ele>
        <time>2022-09-18T09:00:03.000Z</time>
      </trkpt>
      <trkpt lat="47.30106" lon="-2.27951">
        <ele>-5</ele>
        <time>2022-09-18T09:00:09.000Z</time>
      </trkpt>
      <trkpt lat="47.30101" lon="-2.27956">
        <ele>-4.5999999046326</ele>
        <time>2022-09-18T09:00:10.000Z</time>
      </trkpt>
      <trkpt lat="47.30096" lon="-2.27961">
        <ele>-4.1999998092651</ele>
        <time>2022-09-18T09:00:11.000Z</time>
      </trkpt>
      <trkpt lat="47.30091" lon="-2.27966">
        <ele>-3.7999999523163</ele>
        <time>2022-09-18T09:00:12.000Z</time>
      </trkpt>
      <trkpt lat="47.30087" lon="-2.2797">
        <ele>-3.4000000953674</ele>
        <time>2022-09-18T09:00:13.000Z</time>
      </trkpt>
      <trkpt lat="47.30082" lon="-2.27974">
        <ele>-3</ele>
        <time>2022-09-18T09:00:14.000Z</time>
      </trkpt>
      <trkpt lat="47.30077" lon="-2.27979">
        <ele>-3</ele>
        <time>2022-09-18T09:00:15.000Z</time>
      </trkpt>
      <trkpt lat="47.30039" lon="-2.28006">
        <ele>-3</ele>
        <time>2022-09-18T09:00:22.000Z</time>
      </trkpt>
      <trkpt lat="47.30034" lon="-2.2801">
        <ele>-3</ele>
        <time>2022-09-18T09:00:23.000Z</time>
      </trkpt>
      <trkpt lat="47.30013" lon="-2.28024">
        <ele>-3</ele>
        <time>2022-09-18T09:00:27.000Z</time>
      </trkpt>
      <trkpt lat="47.29999" lon="-2.28029">
        <ele>-3</ele>
        <time>2022-09-18T09:00:30.000Z</time>
      </trkpt>
      <trkpt lat="47.29996" lon="-2.28033">
        <ele>-2.5999999046326</ele>
        <time>2022-09-18T09:00:31.000Z</time>
      </trkpt>
      <trkpt lat="47.29994" lon="-2.28038">
        <ele>-2</ele>
        <time>2022-09-18T09:00:32.000Z</time>
      </trkpt>
      <trkpt lat="47.29992" lon="-2.28043">
        <ele>-1.6000000238419</ele>
        <time>2022-09-18T09:00:33.000Z</time>
      </trkpt>
      <trkpt lat="47.2999" lon="-2.28049">
        <ele>-1.2000000476837</ele>
        <time>2022-09-18T09:00:34.000Z</time>
      </trkpt>
      <trkpt lat="47.29988" lon="-2.28055">
        <ele>-0.80000001192093</ele>
        <time>2022-09-18T09:00:35.000Z</time>
      </trkpt>
      <trkpt lat="47.29978" lon="-2.2809">
        <ele>-0.80000001192093</ele>
        <time>2022-09-18T09:00:40.000Z</time>
      </trkpt>
      <trkpt lat="47.29973" lon="-2.28109">
        <ele>-0.80000001192093</ele>
        <time>2022-09-18T09:00:43.000Z</time>
      </trkpt>
      <trkpt lat="47.29961" lon="-2.28154">
        <ele>-0.80000001192093</ele>
        <time>2022-09-18T09:00:49.000Z</time>
      </trkpt>
      <trkpt lat="47.29948" lon="-2.28204">
        <ele>-0.80000001192093</ele>
        <time>2022-09-18T09:00:56.000Z</time>
      </trkpt>
      <trkpt lat="47.29948" lon="-2.28226">
        <ele>-0.80000001192093</ele>
        <time>2022-09-18T09:00:59.000Z</time>
      </trkpt>
      <trkpt lat="47.2995" lon="-2.28234">
        <ele>-0.80000001192093</ele>
        <time>2022-09-18T09:01:00.000Z</time>
      </trkpt>
      <trkpt lat="47.29949" lon="-2.28243">
        <ele>-0.80000001192093</ele>
        <time>2022-09-18T09:01:01.000Z</time>
      </trkpt>
      <trkpt lat="47.29951" lon="-2.2826">
        <ele>-0.80000001192093</ele>
        <time>2022-09-18T09:01:03.000Z</time>
      </trkpt>
      <trkpt lat="47.29952" lon="-2.28279">
        <ele>-0.80000001192093</ele>
        <time>2022-09-18T09:01:05.000Z</time>
      </trkpt>
      <trkpt lat="47.29952" lon="-2.28296">
        <ele>-0.80000001192093</ele>
        <time>2022-09-18T09:01:07.000Z</time>
      </trkpt>
      <trkpt lat="47.29951" lon="-2.28304">
        <ele>-0.80000001192093</ele>
        <time>2022-09-18T09:01:08.000Z</time>
      </trkpt>
      <trkpt lat="47.29951" lon="-2.28326">
        <ele>-0.80000001192093</ele>
        <time>2022-09-18T09:01:11.000Z</time>
      </trkpt>
      <trkpt lat="47.29948" lon="-2.2836">
        <ele>-0.80000001192093</ele>
        <time>2022-09-18T09:01:15.000Z</time>
      </trkpt>
      <trkpt lat="47.29948" lon="-2.28388">
        <ele>-0.80000001192093</ele>
        <time>2022-09-18T09:01:18.000Z</time>
      </trkpt>
      <trkpt lat="47.2995" lon="-2.28396">
        <ele>-0.80000001192093</ele>
        <time>2022-09-18T09:01:19.000Z</time>
      </trkpt>
      <trkpt lat="47.29947" lon="-2.28419">
        <ele>-0.80000001192093</ele>
        <time>2022-09-18T09:01:22.000Z</time>
      </trkpt>
      <trkpt lat="47.29937" lon="-2.28435">
        <ele>-0.80000001192093</ele>
        <time>2022-09-18T09:01:25.000Z</time>
      </trkpt>
      <trkpt lat="47.29934" lon="-2.28463">
        <ele>-0.80000001192093</ele>
        <time>2022-09-18T09:01:29.000Z</time>
      </trkpt>
      <trkpt lat="47.29935" lon="-2.28495">
        <ele>-0.80000001192093</ele>
        <time>2022-09-18T09:01:33.000Z</time>
      </trkpt>
      <trkpt lat="47.29931" lon="-2.2851">
        <ele>-0.80000001192093</ele>
        <time>2022-09-18T09:01:35.000Z</time>
      </trkpt>
      <trkpt lat="47.29924" lon="-2.28538">
        <ele>-0.80000001192093</ele>
        <time>2022-09-18T09:01:39.000Z</time>
      </trkpt>
      <trkpt lat="47.29927" lon="-2.28558">
        <ele>-0.80000001192093</ele>
        <time>2022-09-18T09:01:42.000Z</time>
      </trkpt>
      <trkpt lat="47.29937" lon="-2.28566">
        <ele>-0.80000001192093</ele>
        <time>2022-09-18T09:01:45.000Z</time>
      </trkpt>
      <trkpt lat="47.2994" lon="-2.28585">
        <ele>-0.80000001192093</ele>
        <time>2022-09-18T09:01:48.000Z</time>
      </trkpt>
      <trkpt lat="47.29935" lon="-2.28608">
        <ele>-0.80000001192093</ele>
        <time>2022-09-18T09:01:51.000Z</time>
      </trkpt>
      <trkpt lat="47.29934" lon="-2.28617">
        <ele>-0.80000001192093</ele>
        <time>2022-09-18T09:01:52.000Z</time>
      </trkpt>
      <trkpt lat="47.29929" lon="-2.28642">
        <ele>-0.80000001192093</ele>
        <time>2022-09-18T09:01:55.000Z</time>
      </trkpt>
      <trkpt lat="47.29925" lon="-2.28657">
        <ele>-1.2000000476837</ele>
        <time>2022-09-18T09:01:57.000Z</time>
      </trkpt>
      <trkpt lat="47.29922" lon="-2.28664">
        <ele>-1.6000000238419</ele>
        <time>2022-09-18T09:01:58.000Z</time>
      </trkpt>
      <trkpt lat="47.2992" lon="-2.2867">
        <ele>-2</ele>
        <time>2022-09-18T09:01:59.000Z</time>
      </trkpt>
      <trkpt lat="47.29918" lon="-2.28677">
        <ele>-2.4000000953674</ele>
        <time>2022-09-18T09:02:00.000Z</time>
      </trkpt>
      <trkpt lat="47.29917" lon="-2.28685">
        <ele>-2.7999999523163</ele>
        <time>2022-09-18T09:02:01.000Z</time>
      </trkpt>
      <trkpt lat="47.29912" lon="-2.2871">
        <ele>-2.7999999523163</ele>
        <time>2022-09-18T09:02:04.000Z</time>
      </trkpt>
      <trkpt lat="47.29902" lon="-2.28759">
        <ele>-2.7999999523163</ele>
        <time>2022-09-18T09:02:10.000Z</time>
      </trkpt>
      <trkpt lat="47.29898" lon="-2.28789">
        <ele>-2.7999999523163</ele>
        <time>2022-09-18T09:02:14.000Z</time>
      </trkpt>
      <trkpt lat="47.29895" lon="-2.28804">
        <ele>-2.7999999523163</ele>
        <time>2022-09-18T09:02:16.000Z</time>
      </trkpt>
      <trkpt lat="47.29893" lon="-2.28832">
        <ele>-2.7999999523163</ele>
        <time>2022-09-18T09:02:20.000Z</time>
      </trkpt>
      <trkpt lat="47.29892" lon="-2.2884">
        <ele>-2.7999999523163</ele>
        <time>2022-09-18T09:02:21.000Z</time>
      </trkpt>
      <trkpt lat="47.2989" lon="-2.28848">
        <ele>-2.7999999523163</ele>
        <time>2022-09-18T09:02:22.000Z</time>
      </trkpt>
      <trkpt lat="47.29884" lon="-2.2888">
        <ele>-2.7999999523163</ele>
        <time>2022-09-18T09:02:26.000Z</time>
      </trkpt>
      <trkpt lat="47.29879" lon="-2.28892">
        <ele>-2.7999999523163</ele>
        <time>2022-09-18T09:02:28.000Z</time>
      </trkpt>
      <trkpt lat="47.29873" lon="-2.28905">
        <ele>-2.7999999523163</ele>
        <time>2022-09-18T09:02:30.000Z</time>
      </trkpt>
      <trkpt lat="47.29872" lon="-2.28926">
        <ele>-2.7999999523163</ele>
        <time>2022-09-18T09:02:33.000Z</time>
      </trkpt>
      <trkpt lat="47.29873" lon="-2.28932">
        <ele>-2.7999999523163</ele>
        <time>2022-09-18T09:02:34.000Z</time>
      </trkpt>
      <trkpt lat="47.29881" lon="-2.28944">
        <ele>-2.7999999523163</ele>
        <time>2022-09-18T09:02:37.000Z</time>
      </trkpt>
      <trkpt lat="47.29895" lon="-2.28946">
        <ele>-2.7999999523163</ele>
        <time>2022-09-18T09:02:40.000Z</time>
      </trkpt>
      <trkpt lat="47.29901" lon="-2.28946">
        <ele>-2.7999999523163</ele>
        <time>2022-09-18T09:02:41.000Z</time>
      </trkpt>
      <trkpt lat="47.29915" lon="-2.2895">
        <ele>-2.7999999523163</ele>
        <time>2022-09-18T09:02:44.000Z</time>
      </trkpt>
      <trkpt lat="47.29922" lon="-2.28957">
        <ele>-3.2000000476837</ele>
        <time>2022-09-18T09:02:46.000Z</time>
      </trkpt>
      <trkpt lat="47.29924" lon="-2.28962">
        <ele>-3.5999999046326</ele>
        <time>2022-09-18T09:02:47.000Z</time>
      </trkpt>
      <trkpt lat="47.29928" lon="-2.28969">
        <ele>-4</ele>
        <time>2022-09-18T09:02:48.000Z</time>
      </trkpt>
      <trkpt lat="47.29931" lon="-2.28974">
        <ele>-4.5999999046326</ele>
        <time>2022-09-18T09:02:49.000Z</time>
      </trkpt>
      <trkpt lat="47.29934" lon="-2.2898">
        <ele>-5</ele>
        <time>2022-09-18T09:02:50.000Z</time>
      </trkpt>
      <trkpt lat="47.29954" lon="-2.29015">
        <ele>-5</ele>
        <time>2022-09-18T09:02:56.000Z</time>
      </trkpt>
      <trkpt lat="47.29971" lon="-2.29045">
        <ele>-5</ele>
        <time>2022-09-18T09:03:01.000Z</time>
      </trkpt>
      <trkpt lat="47.29978" lon="-2.29057">
        <ele>-5</ele>
        <time>2022-09-18T09:03:03.000Z</time>
      </trkpt>
      <trkpt lat="47.29986" lon="-2.29067">
        <ele>-5</ele>
        <time>2022-09-18T09:03:05.000Z</time>
      </trkpt>
      <trkpt lat="47.29989" lon="-2.29072">
        <ele>-5</ele>
        <time>2022-09-18T09:03:06.000Z</time>
      </trkpt>
      <trkpt lat="47.29996" lon="-2.29082">
        <ele>-5</ele>
        <time>2022-09-18T09:03:08.000Z</time>
      </trkpt>
      <trkpt lat="47.30009" lon="-2.29095">
        <ele>-5</ele>
        <time>2022-09-18T09:03:11.000Z</time>
      </trkpt>
      <trkpt lat="47.30042" lon="-2.29123">
        <ele>-5</ele>
        <time>2022-09-18T09:03:18.000Z</time>
      </trkpt>
      <trkpt lat="47.30055" lon="-2.29133">
        <ele>-5</ele>
        <time>2022-09-18T09:03:21.000Z</time>
      </trkpt>
      <trkpt lat="47.30063" lon="-2.29145">
        <ele>-5</ele>
        <time>2022-09-18T09:03:23.000Z</time>
      </trkpt>
      <trkpt lat="47.30083" lon="-2.29175">
        <ele>-5.4000000953674</ele>
        <time>2022-09-18T09:03:27.000Z</time>
      </trkpt>
      <trkpt lat="47.30088" lon="-2.29183">
        <ele>-5.8000001907349</ele>
        <time>2022-09-18T09:03:28.000Z</time>
      </trkpt>
      <trkpt lat="47.30093" lon="-2.2919">
        <ele>-6.1999998092651</ele>
        <time>2022-09-18T09:03:29.000Z</time>
      </trkpt>
      <trkpt lat="47.30098" lon="-2.29198">
        <ele>-6.5999999046326</ele>
        <time>2022-09-18T09:03:30.000Z</time>
      </trkpt>
      <trkpt lat="47.30103" lon="-2.29205">
        <ele>-7</ele>
        <time>2022-09-18T09:03:31.000Z</time>
      </trkpt>
      <trkpt lat="47.30117" lon="-2.29227">
        <ele>-7</ele>
        <time>2022-09-18T09:03:34.000Z</time>
      </trkpt>
      <trkpt lat="47.30147" lon="-2.29277">
        <ele>-7</ele>
        <time>2022-09-18T09:03:41.000Z</time>
      </trkpt>
      <trkpt lat="47.30168" lon="-2.29307">
        <ele>-7</ele>
        <time>2022-09-18T09:03:46.000Z</time>
      </trkpt>
      <trkpt lat="47.30183" lon="-2.29331">
        <ele>-7</ele>
        <time>2022-09-18T09:03:50.000Z</time>
      </trkpt>
      <trkpt lat="47.302" lon="-2.29353">
        <ele>-7.4000000953674</ele>
        <time>2022-09-18T09:03:54.000Z</time>
      </trkpt>
      <trkpt lat="47.30204" lon="-2.29358">
        <ele>-7.8000001907349</ele>
        <time>2022-09-18T09:03:55.000Z</time>
      </trkpt>
      <trkpt lat="47.30209" lon="-2.29362">
        <ele>-8.1999998092651</ele>
        <time>2022-09-18T09:03:56.000Z</time>
      </trkpt>
      <trkpt lat="47.30216" lon="-2.29364">
        <ele>-8.6000003814697</ele>
        <time>2022-09-18T09:03:57.000Z</time>
      </trkpt>
      <trkpt lat="47.30222" lon="-2.29365">
        <ele>-9</ele>
        <time>2022-09-18T09:03:58.000Z</time>
      </trkpt>
      <trkpt lat="47.30228" lon="-2.29366">
        <ele>-9</ele>
        <time>2022-09-18T09:03:59.000Z</time>
      </trkpt>
      <trkpt lat="47.30254" lon="-2.29358">
        <ele>-9</ele>
        <time>2022-09-18T09:04:03.000Z</time>
      </trkpt>
      <trkpt lat="47.30275" lon="-2.29338">
        <ele>-9</ele>
        <time>2022-09-18T09:04:07.000Z</time>
      </trkpt>
      <trkpt lat="47.30305" lon="-2.29307">
        <ele>-9</ele>
        <time>2022-09-18T09:04:13.000Z</time>
      </trkpt>
      <trkpt lat="47.30311" lon="-2.29302">
        <ele>-9</ele>
        <time>2022-09-18T09:04:14.000Z</time>
      </trkpt>
      <trkpt lat="47.30322" lon="-2.29296">
        <ele>-9</ele>
        <time>2022-09-18T09:04:16.000Z</time>
      </trkpt>
      <trkpt lat="47.30339" lon="-2.29292">
        <ele>-9</ele>
        <time>2022-09-18T09:04:19.000Z</time>
      </trkpt>
      <trkpt lat="47.30368" lon="-2.29289">
        <ele>-9</ele>
        <time>2022-09-18T09:04:24.000Z</time>
      </trkpt>
      <trkpt lat="47.3038" lon="-2.29286">
        <ele>-9</ele>
        <time>2022-09-18T09:04:26.000Z</time>
      </trkpt>
      <trkpt lat="47.30397" lon="-2.29276">
        <ele>-9</ele>
        <time>2022-09-18T09:04:29.000Z</time>
      </trkpt>
      <trkpt lat="47.30422" lon="-2.29246">
        <ele>-9</ele>
        <time>2022-09-18T09:04:34.000Z</time>
      </trkpt>
      <trkpt lat="47.30448" lon="-2.29209">
        <ele>-9</ele>
        <time>2022-09-18T09:04:40.000Z</time>
      </trkpt>
      <trkpt lat="47.30474" lon="-2.29172">
        <ele>-9</ele>
        <time>2022-09-18T09:04:46.000Z</time>
      </trkpt>
      <trkpt lat="47.30489" lon="-2.29147">
        <ele>-9</ele>
        <time>2022-09-18T09:04:50.000Z</time>
      </trkpt>
      <trkpt lat="47.30491" lon="-2.2914">
        <ele>-9</ele>
        <time>2022-09-18T09:04:51.000Z</time>
      </trkpt>
      <trkpt lat="47.30498" lon="-2.29124">
        <ele>-9</ele>
        <time>2022-09-18T09:04:54.000Z</time>
      </trkpt>
      <trkpt lat="47.30499" lon="-2.29105">
        <ele>-9</ele>
        <time>2022-09-18T09:04:58.000Z</time>
      </trkpt>
      <trkpt lat="47.305" lon="-2.29092">
        <ele>-9</ele>
        <time>2022-09-18T09:05:00.000Z</time>
      </trkpt>
      <trkpt lat="47.305" lon="-2.29085">
        <ele>-9</ele>
        <time>2022-09-18T09:05:01.000Z</time>
      </trkpt>
      <trkpt lat="47.30498" lon="-2.2907">
        <ele>-9</ele>
        <time>2022-09-18T09:05:03.000Z</time>
      </trkpt>
      <trkpt lat="47.30495" lon="-2.29033">
        <ele>-9</ele>
        <time>2022-09-18T09:05:08.000Z</time>
      </trkpt>
      <trkpt lat="47.30492" lon="-2.29018">
        <ele>-9</ele>
        <time>2022-09-18T09:05:10.000Z</time>
      </trkpt>
      <trkpt lat="47.30494" lon="-2.29">
        <ele>-9</ele>
        <time>2022-09-18T09:05:13.000Z</time>
      </trkpt>
      <trkpt lat="47.30506" lon="-2.28983">
        <ele>-9</ele>
        <time>2022-09-18T09:05:16.000Z</time>
      </trkpt>
      <trkpt lat="47.30511" lon="-2.28978">
        <ele>-9</ele>
        <time>2022-09-18T09:05:17.000Z</time>
      </trkpt>
      <trkpt lat="47.30521" lon="-2.2897">
        <ele>-9</ele>
        <time>2022-09-18T09:05:19.000Z</time>
      </trkpt>
      <trkpt lat="47.30537" lon="-2.28961">
        <ele>-9</ele>
        <time>2022-09-18T09:05:22.000Z</time>
      </trkpt>
      <trkpt lat="47.30549" lon="-2.28954">
        <ele>-9</ele>
        <time>2022-09-18T09:05:24.000Z</time>
      </trkpt>
      <trkpt lat="47.30559" lon="-2.28945">
        <ele>-9</ele>
        <time>2022-09-18T09:05:26.000Z</time>
      </trkpt>
      <trkpt lat="47.30584" lon="-2.28921">
        <ele>-9</ele>
        <time>2022-09-18T09:05:31.000Z</time>
      </trkpt>
      <trkpt lat="47.30589" lon="-2.28918">
        <ele>-9</ele>
        <time>2022-09-18T09:05:32.000Z</time>
      </trkpt>
      <trkpt lat="47.30615" lon="-2.28899">
        <ele>-8.6000003814697</ele>
        <time>2022-09-18T09:05:37.000Z</time>
      </trkpt>
      <trkpt lat="47.30621" lon="-2.28897">
        <ele>-8.1999998092651</ele>
        <time>2022-09-18T09:05:38.000Z</time>
      </trkpt>
      <trkpt lat="47.30627" lon="-2.28894">
        <ele>-7.4000000953674</ele>
        <time>2022-09-18T09:05:39.000Z</time>
      </trkpt>
      <trkpt lat="47.30632" lon="-2.2889">
        <ele>-7</ele>
        <time>2022-09-18T09:05:40.000Z</time>
      </trkpt>
      <trkpt lat="47.30637" lon="-2.28885">
        <ele>-7</ele>
        <time>2022-09-18T09:05:41.000Z</time>
      </trkpt>
      <trkpt lat="47.30648" lon="-2.28879">
        <ele>-7</ele>
        <time>2022-09-18T09:05:43.000Z</time>
      </trkpt>
      <trkpt lat="47.30675" lon="-2.28861">
        <ele>-7</ele>
        <time>2022-09-18T09:05:48.000Z</time>
      </trkpt>
      <trkpt lat="47.3068" lon="-2.28857">
        <ele>-6.5999999046326</ele>
        <time>2022-09-18T09:05:49.000Z</time>
      </trkpt>
      <trkpt lat="47.30685" lon="-2.28854">
        <ele>-6.1999998092651</ele>
        <time>2022-09-18T09:05:50.000Z</time>
      </trkpt>
      <trkpt lat="47.3069" lon="-2.2885">
        <ele>-5.5999999046326</ele>
        <time>2022-09-18T09:05:51.000Z</time>
      </trkpt>
      <trkpt lat="47.30694" lon="-2.28846">
        <ele>-5.1999998092651</ele>
        <time>2022-09-18T09:05:52.000Z</time>
      </trkpt>
      <trkpt lat="47.30699" lon="-2.28842">
        <ele>-4.8000001907349</ele>
        <time>2022-09-18T09:05:53.000Z</time>
      </trkpt>
      <trkpt lat="47.30715" lon="-2.28833">
        <ele>-4.8000001907349</ele>
        <time>2022-09-18T09:05:56.000Z</time>
      </trkpt>
      <trkpt lat="47.30757" lon="-2.28825">
        <ele>-4.8000001907349</ele>
        <time>2022-09-18T09:06:03.000Z</time>
      </trkpt>
      <trkpt lat="47.30797" lon="-2.28818">
        <ele>-4.8000001907349</ele>
        <time>2022-09-18T09:06:09.000Z</time>
      </trkpt>
      <trkpt lat="47.30818" lon="-2.28817">
        <ele>-5.1999998092651</ele>
        <time>2022-09-18T09:06:12.000Z</time>
      </trkpt>
      <trkpt lat="47.30824" lon="-2.28817">
        <ele>-5.8000001907349</ele>
        <time>2022-09-18T09:06:13.000Z</time>
      </trkpt>
      <trkpt lat="47.30831" lon="-2.28818">
        <ele>-6.1999998092651</ele>
        <time>2022-09-18T09:06:14.000Z</time>
      </trkpt>
      <trkpt lat="47.30838" lon="-2.28819">
        <ele>-6.5999999046326</ele>
        <time>2022-09-18T09:06:15.000Z</time>
      </trkpt>
      <trkpt lat="47.30845" lon="-2.28821">
        <ele>-7</ele>
        <time>2022-09-18T09:06:16.000Z</time>
      </trkpt>
      <trkpt lat="47.30874" lon="-2.28822">
        <ele>-7</ele>
        <time>2022-09-18T09:06:20.000Z</time>
      </trkpt>
      <trkpt lat="47.30881" lon="-2.28822">
        <ele>-7.4000000953674</ele>
        <time>2022-09-18T09:06:21.000Z</time>
      </trkpt>
      <trkpt lat="47.30889" lon="-2.28822">
        <ele>-7.8000001907349</ele>
        <time>2022-09-18T09:06:22.000Z</time>
      </trkpt>
      <trkpt lat="47.30896" lon="-2.28821">
        <ele>-8.1999998092651</ele>
        <time>2022-09-18T09:06:23.000Z</time>
      </trkpt>
      <trkpt lat="47.30904" lon="-2.28821">
        <ele>-8.6000003814697</ele>
        <time>2022-09-18T09:06:24.000Z</time>
      </trkpt>
      <trkpt lat="47.30911" lon="-2.2882">
        <ele>-9.1999998092651</ele>
        <time>2022-09-18T09:06:25.000Z</time>
      </trkpt>
      <trkpt lat="47.30918" lon="-2.2882">
        <ele>-9.1999998092651</ele>
        <time>2022-09-18T09:06:26.000Z</time>
      </trkpt>
      <trkpt lat="47.30935" lon="-2.28821">
        <ele>-9.1999998092651</ele>
        <time>2022-09-18T09:06:29.000Z</time>
      </trkpt>
      <trkpt lat="47.30945" lon="-2.28822">
        <ele>-9.1999998092651</ele>
        <time>2022-09-18T09:06:31.000Z</time>
      </trkpt>
      <trkpt lat="47.30954" lon="-2.28822">
        <ele>-8.8000001907349</ele>
        <time>2022-09-18T09:06:33.000Z</time>
      </trkpt>
      <trkpt lat="47.30958" lon="-2.2882">
        <ele>-8.3999996185303</ele>
        <time>2022-09-18T09:06:34.000Z</time>
      </trkpt>
      <trkpt lat="47.30963" lon="-2.28818">
        <ele>-7.8000001907349</ele>
        <time>2022-09-18T09:06:35.000Z</time>
      </trkpt>
      <trkpt lat="47.30967" lon="-2.28816">
        <ele>-7.4000000953674</ele>
        <time>2022-09-18T09:06:36.000Z</time>
      </trkpt>
      <trkpt lat="47.30972" lon="-2.28815">
        <ele>-7</ele>
        <time>2022-09-18T09:06:37.000Z</time>
      </trkpt>
      <trkpt lat="47.30978" lon="-2.28813">
        <ele>-6.5999999046326</ele>
        <time>2022-09-18T09:06:38.000Z</time>
      </trkpt>
      <trkpt lat="47.30982" lon="-2.2881">
        <ele>-6</ele>
        <time>2022-09-18T09:06:39.000Z</time>
      </trkpt>
      <trkpt lat="47.30987" lon="-2.28809">
        <ele>-5.5999999046326</ele>
        <time>2022-09-18T09:06:40.000Z</time>
      </trkpt>
      <trkpt lat="47.30992" lon="-2.28807">
        <ele>-5</ele>
        <time>2022-09-18T09:06:41.000Z</time>
      </trkpt>
      <trkpt lat="47.31002" lon="-2.28805">
        <ele>-5</ele>
        <time>2022-09-18T09:06:43.000Z</time>
      </trkpt>
      <trkpt lat="47.3101" lon="-2.2881">
        <ele>-4.5999999046326</ele>
        <time>2022-09-18T09:06:45.000Z</time>
      </trkpt>
      <trkpt lat="47.31014" lon="-2.28813">
        <ele>-4.1999998092651</ele>
        <time>2022-09-18T09:06:46.000Z</time>
      </trkpt>
      <trkpt lat="47.31019" lon="-2.28816">
        <ele>-3.7999999523163</ele>
        <time>2022-09-18T09:06:47.000Z</time>
      </trkpt>
      <trkpt lat="47.31023" lon="-2.2882">
        <ele>-3.4000000953674</ele>
        <time>2022-09-18T09:06:48.000Z</time>
      </trkpt>
      <trkpt lat="47.31028" lon="-2.28824">
        <ele>-2.7999999523163</ele>
        <time>2022-09-18T09:06:49.000Z</time>
      </trkpt>
      <trkpt lat="47.31033" lon="-2.28828">
        <ele>-2.7999999523163</ele>
        <time>2022-09-18T09:06:50.000Z</time>
      </trkpt>
      <trkpt lat="47.31059" lon="-2.28848">
        <ele>-2.7999999523163</ele>
        <time>2022-09-18T09:06:55.000Z</time>
      </trkpt>
      <trkpt lat="47.31074" lon="-2.28859">
        <ele>-3.2000000476837</ele>
        <time>2022-09-18T09:06:58.000Z</time>
      </trkpt>
      <trkpt lat="47.3108" lon="-2.28862">
        <ele>-3.5999999046326</ele>
        <time>2022-09-18T09:06:59.000Z</time>
      </trkpt>
      <trkpt lat="47.31085" lon="-2.28867">
        <ele>-4.1999998092651</ele>
        <time>2022-09-18T09:07:00.000Z</time>
      </trkpt>
      <trkpt lat="47.31091" lon="-2.28871">
        <ele>-4.5999999046326</ele>
        <time>2022-09-18T09:07:01.000Z</time>
      </trkpt>
      <trkpt lat="47.31096" lon="-2.28875">
        <ele>-5</ele>
        <time>2022-09-18T09:07:02.000Z</time>
      </trkpt>
      <trkpt lat="47.31113" lon="-2.2889">
        <ele>-5.4000000953674</ele>
        <time>2022-09-18T09:07:05.000Z</time>
      </trkpt>
      <trkpt lat="47.31118" lon="-2.28896">
        <ele>-5.8000001907349</ele>
        <time>2022-09-18T09:07:06.000Z</time>
      </trkpt>
      <trkpt lat="47.31123" lon="-2.28901">
        <ele>-6.1999998092651</ele>
        <time>2022-09-18T09:07:07.000Z</time>
      </trkpt>
      <trkpt lat="47.31129" lon="-2.28904">
        <ele>-6.5999999046326</ele>
        <time>2022-09-18T09:07:08.000Z</time>
      </trkpt>
      <trkpt lat="47.31135" lon="-2.28904">
        <ele>-7</ele>
        <time>2022-09-18T09:07:09.000Z</time>
      </trkpt>
      <trkpt lat="47.31141" lon="-2.28902">
        <ele>-7</ele>
        <time>2022-09-18T09:07:10.000Z</time>
      </trkpt>
      <trkpt lat="47.31156" lon="-2.28895">
        <ele>-7</ele>
        <time>2022-09-18T09:07:13.000Z</time>
      </trkpt>
      <trkpt lat="47.31166" lon="-2.28892">
        <ele>-7</ele>
        <time>2022-09-18T09:07:15.000Z</time>
      </trkpt>
      <trkpt lat="47.31171" lon="-2.28894">
        <ele>-7</ele>
        <time>2022-09-18T09:07:16.000Z</time>
      </trkpt>
      <trkpt lat="47.31178" lon="-2.28905">
        <ele>-7</ele>
        <time>2022-09-18T09:07:18.000Z</time>
      </trkpt>
      <trkpt lat="47.31182" lon="-2.28921">
        <ele>-7</ele>
        <time>2022-09-18T09:07:20.000Z</time>
      </trkpt>
      <trkpt lat="47.31185" lon="-2.28929">
        <ele>-7</ele>
        <time>2022-09-18T09:07:21.000Z</time>
      </trkpt>
      <trkpt lat="47.31196" lon="-2.28987">
        <ele>-7</ele>
        <time>2022-09-18T09:07:28.000Z</time>
      </trkpt>
      <trkpt lat="47.31202" lon="-2.29037">
        <ele>-7</ele>
        <time>2022-09-18T09:07:34.000Z</time>
      </trkpt>
      <trkpt lat="47.31208" lon="-2.29096">
        <ele>-7</ele>
        <time>2022-09-18T09:07:41.000Z</time>
      </trkpt>
      <trkpt lat="47.31219" lon="-2.29165">
        <ele>-7</ele>
        <time>2022-09-18T09:07:49.000Z</time>
      </trkpt>
      <trkpt lat="47.31229" lon="-2.29212">
        <ele>-7</ele>
        <time>2022-09-18T09:07:54.000Z</time>
      </trkpt>
      <trkpt lat="47.31232" lon="-2.29221">
        <ele>-7</ele>
        <time>2022-09-18T09:07:55.000Z</time>
      </trkpt>
      <trkpt lat="47.3124" lon="-2.29254">
        <ele>-7</ele>
        <time>2022-09-18T09:07:59.000Z</time>
      </trkpt>
      <trkpt lat="47.31252" lon="-2.29305">
        <ele>-7</ele>
        <time>2022-09-18T09:08:06.000Z</time>
      </trkpt>
      <trkpt lat="47.31261" lon="-2.29351">
        <ele>-7</ele>
        <time>2022-09-18T09:08:12.000Z</time>
      </trkpt>
      <trkpt lat="47.3126" lon="-2.29367">
        <ele>-6.5999999046326</ele>
        <time>2022-09-18T09:08:14.000Z</time>
      </trkpt>
      <trkpt lat="47.31257" lon="-2.29374">
        <ele>-6</ele>
        <time>2022-09-18T09:08:15.000Z</time>
      </trkpt>
      <trkpt lat="47.31253" lon="-2.2938">
        <ele>-5.5999999046326</ele>
        <time>2022-09-18T09:08:16.000Z</time>
      </trkpt>
      <trkpt lat="47.31249" lon="-2.29385">
        <ele>-5.1999998092651</ele>
        <time>2022-09-18T09:08:17.000Z</time>
      </trkpt>
      <trkpt lat="47.31244" lon="-2.2939">
        <ele>-4.8000001907349</ele>
        <time>2022-09-18T09:08:18.000Z</time>
      </trkpt>
      <trkpt lat="47.31238" lon="-2.29394">
        <ele>-4.8000001907349</ele>
        <time>2022-09-18T09:08:19.000Z</time>
      </trkpt>
      <trkpt lat="47.31233" lon="-2.29398">
        <ele>-4.8000001907349</ele>
        <time>2022-09-18T09:08:20.000Z</time>
      </trkpt>
      <trkpt lat="47.31198" lon="-2.29424">
        <ele>-4.8000001907349</ele>
        <time>2022-09-18T09:08:26.000Z</time>
      </trkpt>
      <trkpt lat="47.31161" lon="-2.29453">
        <ele>-4.8000001907349</ele>
        <time>2022-09-18T09:08:32.000Z</time>
      </trkpt>
      <trkpt lat="47.31149" lon="-2.29462">
        <ele>-5.1999998092651</ele>
        <time>2022-09-18T09:08:34.000Z</time>
      </trkpt>
      <trkpt lat="47.31145" lon="-2.29468">
        <ele>-5.5999999046326</ele>
        <time>2022-09-18T09:08:35.000Z</time>
      </trkpt>
      <trkpt lat="47.31143" lon="-2.29475">
        <ele>-6</ele>
        <time>2022-09-18T09:08:36.000Z</time>
      </trkpt>
      <trkpt lat="47.31143" lon="-2.29482">
        <ele>-6.4000000953674</ele>
        <time>2022-09-18T09:08:37.000Z</time>
      </trkpt>
      <trkpt lat="47.31143" lon="-2.29489">
        <ele>-7</ele>
        <time>2022-09-18T09:08:38.000Z</time>
      </trkpt>
      <trkpt lat="47.31146" lon="-2.29495">
        <ele>-7</ele>
        <time>2022-09-18T09:08:39.000Z</time>
      </trkpt>
      <trkpt lat="47.31148" lon="-2.29502">
        <ele>-7</ele>
        <time>2022-09-18T09:08:40.000Z</time>
      </trkpt>
      <trkpt lat="47.31149" lon="-2.29508">
        <ele>-7</ele>
        <time>2022-09-18T09:08:41.000Z</time>
      </trkpt>
      <trkpt lat="47.31157" lon="-2.29528">
        <ele>-7</ele>
        <time>2022-09-18T09:08:44.000Z</time>
      </trkpt>
      <trkpt lat="47.3116" lon="-2.29535">
        <ele>-7</ele>
        <time>2022-09-18T09:08:45.000Z</time>
      </trkpt>
      <trkpt lat="47.31162" lon="-2.29543">
        <ele>-7</ele>
        <time>2022-09-18T09:08:46.000Z</time>
      </trkpt>
      <trkpt lat="47.31169" lon="-2.29563">
        <ele>-7</ele>
        <time>2022-09-18T09:08:49.000Z</time>
      </trkpt>
      <trkpt lat="47.31164" lon="-2.29585">
        <ele>-7</ele>
        <time>2022-09-18T09:08:52.000Z</time>
      </trkpt>
      <trkpt lat="47.31144" lon="-2.29602">
        <ele>-7</ele>
        <time>2022-09-18T09:08:56.000Z</time>
      </trkpt>
      <trkpt lat="47.31134" lon="-2.2961">
        <ele>-7</ele>
        <time>2022-09-18T09:08:58.000Z</time>
      </trkpt>
      <trkpt lat="47.31118" lon="-2.29623">
        <ele>-7</ele>
        <time>2022-09-18T09:09:01.000Z</time>
      </trkpt>
      <trkpt lat="47.31114" lon="-2.29628">
        <ele>-7</ele>
        <time>2022-09-18T09:09:02.000Z</time>
      </trkpt>
      <trkpt lat="47.31098" lon="-2.29649">
        <ele>-7</ele>
        <time>2022-09-18T09:09:06.000Z</time>
      </trkpt>
      <trkpt lat="47.31084" lon="-2.29662">
        <ele>-7</ele>
        <time>2022-09-18T09:09:09.000Z</time>
      </trkpt>
      <trkpt lat="47.31075" lon="-2.29672">
        <ele>-7</ele>
        <time>2022-09-18T09:09:11.000Z</time>
      </trkpt>
      <trkpt lat="47.31055" lon="-2.29693">
        <ele>-7</ele>
        <time>2022-09-18T09:09:16.000Z</time>
      </trkpt>
      <trkpt lat="47.31045" lon="-2.29703">
        <ele>-7</ele>
        <time>2022-09-18T09:09:20.000Z</time>
      </trkpt>
      <trkpt lat="47.31043" lon="-2.29708">
        <ele>-7</ele>
        <time>2022-09-18T09:09:21.000Z</time>
      </trkpt>
      <trkpt lat="47.31045" lon="-2.2972">
        <ele>-7</ele>
        <time>2022-09-18T09:09:23.000Z</time>
      </trkpt>
      <trkpt lat="47.3105" lon="-2.29731">
        <ele>-7</ele>
        <time>2022-09-18T09:09:25.000Z</time>
      </trkpt>
      <trkpt lat="47.31055" lon="-2.29745">
        <ele>-7</ele>
        <time>2022-09-18T09:09:27.000Z</time>
      </trkpt>
      <trkpt lat="47.31059" lon="-2.29759">
        <ele>-6.5999999046326</ele>
        <time>2022-09-18T09:09:29.000Z</time>
      </trkpt>
      <trkpt lat="47.31061" lon="-2.29766">
        <ele>-6.1999998092651</ele>
        <time>2022-09-18T09:09:30.000Z</time>
      </trkpt>
      <trkpt lat="47.31063" lon="-2.29774">
        <ele>-5.8000001907349</ele>
        <time>2022-09-18T09:09:31.000Z</time>
      </trkpt>
      <trkpt lat="47.31065" lon="-2.29781">
        <ele>-5.4000000953674</ele>
        <time>2022-09-18T09:09:32.000Z</time>
      </trkpt>
      <trkpt lat="47.31067" lon="-2.29789">
        <ele>-5</ele>
        <time>2022-09-18T09:09:33.000Z</time>
      </trkpt>
      <trkpt lat="47.31081" lon="-2.29836">
        <ele>-4.5999999046326</ele>
        <time>2022-09-18T09:09:39.000Z</time>
      </trkpt>
      <trkpt lat="47.31083" lon="-2.29844">
        <ele>-4</ele>
        <time>2022-09-18T09:09:40.000Z</time>
      </trkpt>
      <trkpt lat="47.31085" lon="-2.29852">
        <ele>-3.5999999046326</ele>
        <time>2022-09-18T09:09:41.000Z</time>
      </trkpt>
      <trkpt lat="47.31087" lon="-2.2986">
        <ele>-3.2000000476837</ele>
        <time>2022-09-18T09:09:42.000Z</time>
      </trkpt>
      <trkpt lat="47.31089" lon="-2.29868">
        <ele>-2.7999999523163</ele>
        <time>2022-09-18T09:09:43.000Z</time>
      </trkpt>
      <trkpt lat="47.31096" lon="-2.29894">
        <ele>-2.7999999523163</ele>
        <time>2022-09-18T09:09:46.000Z</time>
      </trkpt>
      <trkpt lat="47.31113" lon="-2.29954">
        <ele>-2.7999999523163</ele>
        <time>2022-09-18T09:09:53.000Z</time>
      </trkpt>
      <trkpt lat="47.31115" lon="-2.29962">
        <ele>-2.4000000953674</ele>
        <time>2022-09-18T09:09:54.000Z</time>
      </trkpt>
      <trkpt lat="47.31117" lon="-2.29969">
        <ele>-2</ele>
        <time>2022-09-18T09:09:55.000Z</time>
      </trkpt>
      <trkpt lat="47.3112" lon="-2.29977">
        <ele>-1.6000000238419</ele>
        <time>2022-09-18T09:09:56.000Z</time>
      </trkpt>
      <trkpt lat="47.31122" lon="-2.29985">
        <ele>-1.2000000476837</ele>
        <time>2022-09-18T09:09:57.000Z</time>
      </trkpt>
      <trkpt lat="47.31125" lon="-2.29993">
        <ele>-0.80000001192093</ele>
        <time>2022-09-18T09:09:58.000Z</time>
      </trkpt>
      <trkpt lat="47.31142" lon="-2.30052">
        <ele>-0.80000001192093</ele>
        <time>2022-09-18T09:10:05.000Z</time>
      </trkpt>
      <trkpt lat="47.31157" lon="-2.30113">
        <ele>-0.80000001192093</ele>
        <time>2022-09-18T09:10:12.000Z</time>
      </trkpt>
      <trkpt lat="47.31172" lon="-2.3018">
        <ele>-0.80000001192093</ele>
        <time>2022-09-18T09:10:20.000Z</time>
      </trkpt>
      <trkpt lat="47.31177" lon="-2.30213">
        <ele>-0.40000000596046</ele>
        <time>2022-09-18T09:10:24.000Z</time>
      </trkpt>
      <trkpt lat="47.31179" lon="-2.30221">
        <ele>14</ele>
        <time>2022-09-18T09:10:25.000Z</time>
      </trkpt>
      <trkpt lat="47.3118" lon="-2.3023">
        <ele>0.40000000596046</ele>
        <time>2022-09-18T09:10:26.000Z</time>
      </trkpt>
      <trkpt lat="47.31181" lon="-2.30238">
        <ele>0.80000001192093</ele>
        <time>2022-09-18T09:10:27.000Z</time>
      </trkpt>
      <trkpt lat="47.31181" lon="-2.30247">
        <ele>1.3999999761581</ele>
        <time>2022-09-18T09:10:28.000Z</time>
      </trkpt>
      <trkpt lat="47.31179" lon="-2.30274">
        <ele>1.3999999761581</ele>
        <time>2022-09-18T09:10:31.000Z</time>
      </trkpt>
      <trkpt lat="47.31167" lon="-2.30337">
        <ele>1.3999999761581</ele>
        <time>2022-09-18T09:10:38.000Z</time>
      </trkpt>
      <trkpt lat="47.31165" lon="-2.30355">
        <ele>1.3999999761581</ele>
        <time>2022-09-18T09:10:40.000Z</time>
      </trkpt>
      <trkpt lat="47.31168" lon="-2.30384">
        <ele>1.3999999761581</ele>
        <time>2022-09-18T09:10:43.000Z</time>
      </trkpt>
      <trkpt lat="47.31171" lon="-2.30402">
        <ele>1.3999999761581</ele>
        <time>2022-09-18T09:10:45.000Z</time>
      </trkpt>
      <trkpt lat="47.31179" lon="-2.30439">
        <ele>1.3999999761581</ele>
        <time>2022-09-18T09:10:49.000Z</time>
      </trkpt>
      <trkpt lat="47.3119" lon="-2.30494">
        <ele>1.3999999761581</ele>
        <time>2022-09-18T09:10:55.000Z</time>
      </trkpt>
      <trkpt lat="47.31191" lon="-2.30503">
        <ele>0.80000001192093</ele>
        <time>2022-09-18T09:10:56.000Z</time>
      </trkpt>
      <trkpt lat="47.31193" lon="-2.30511">
        <ele>0.40000000596046</ele>
        <time>2022-09-18T09:10:57.000Z</time>
      </trkpt>
      <trkpt lat="47.31195" lon="-2.30519">
        <ele>11</ele>
        <time>2022-09-18T09:10:58.000Z</time>
      </trkpt>
      <trkpt lat="47.31196" lon="-2.30527">
        <ele>-0.80000001192093</ele>
        <time>2022-09-18T09:10:59.000Z</time>
      </trkpt>
      <trkpt lat="47.31204" lon="-2.3056">
        <ele>-0.80000001192093</ele>
        <time>2022-09-18T09:11:03.000Z</time>
      </trkpt>
      <trkpt lat="47.31218" lon="-2.30628">
        <ele>-0.80000001192093</ele>
        <time>2022-09-18T09:11:11.000Z</time>
      </trkpt>
      <trkpt lat="47.31234" lon="-2.30695">
        <ele>-0.80000001192093</ele>
        <time>2022-09-18T09:11:19.000Z</time>
      </trkpt>
      <trkpt lat="47.31246" lon="-2.30753">
        <ele>-0.80000001192093</ele>
        <time>2022-09-18T09:11:26.000Z</time>
      </trkpt>
      <trkpt lat="47.31248" lon="-2.30761">
        <ele>-0.40000000596046</ele>
        <time>2022-09-18T09:11:27.000Z</time>
      </trkpt>
      <trkpt lat="47.3125" lon="-2.30769">
        <ele>14</ele>
        <time>2022-09-18T09:11:28.000Z</time>
      </trkpt>
      <trkpt lat="47.31251" lon="-2.30777">
        <ele>0.40000000596046</ele>
        <time>2022-09-18T09:11:29.000Z</time>
      </trkpt>
      <trkpt lat="47.31253" lon="-2.30786">
        <ele>1</ele>
        <time>2022-09-18T09:11:30.000Z</time>
      </trkpt>
      <trkpt lat="47.31255" lon="-2.30794">
        <ele>1.3999999761581</ele>
        <time>2022-09-18T09:11:31.000Z</time>
      </trkpt>
      <trkpt lat="47.3126" lon="-2.3081">
        <ele>1.3999999761581</ele>
        <time>2022-09-18T09:11:33.000Z</time>
      </trkpt>
      <trkpt lat="47.31272" lon="-2.3084">
        <ele>1.3999999761581</ele>
        <time>2022-09-18T09:11:37.000Z</time>
      </trkpt>
      <trkpt lat="47.31281" lon="-2.30862">
        <ele>1.3999999761581</ele>
        <time>2022-09-18T09:11:40.000Z</time>
      </trkpt>
      <trkpt lat="47.31284" lon="-2.3087">
        <ele>1.7999999523163</ele>
        <time>2022-09-18T09:11:41.000Z</time>
      </trkpt>
      <trkpt lat="47.31287" lon="-2.30877">
        <ele>2.2000000476837</ele>
        <time>2022-09-18T09:11:42.000Z</time>
      </trkpt>
      <trkpt lat="47.3129" lon="-2.30885">
        <ele>2.5999999046326</ele>
        <time>2022-09-18T09:11:43.000Z</time>
      </trkpt>
      <trkpt lat="47.31293" lon="-2.30892">
        <ele>3.2000000476837</ele>
        <time>2022-09-18T09:11:44.000Z</time>
      </trkpt>
      <trkpt lat="47.31296" lon="-2.30899">
        <ele>3.5999999046326</ele>
        <time>2022-09-18T09:11:45.000Z</time>
      </trkpt>
      <trkpt lat="47.31304" lon="-2.3092">
        <ele>3.5999999046326</ele>
        <time>2022-09-18T09:11:48.000Z</time>
      </trkpt>
      <trkpt lat="47.31307" lon="-2.30926">
        <ele>4</ele>
        <time>2022-09-18T09:11:49.000Z</time>
      </trkpt>
      <trkpt lat="47.31309" lon="-2.30931">
        <ele>4.5999999046326</ele>
        <time>2022-09-18T09:11:50.000Z</time>
      </trkpt>
      <trkpt lat="47.3131" lon="-2.30937">
        <ele>5</ele>
        <time>2022-09-18T09:11:51.000Z</time>
      </trkpt>
      <trkpt lat="47.31312" lon="-2.30942">
        <ele>5.4000000953674</ele>
        <time>2022-09-18T09:11:52.000Z</time>
      </trkpt>
      <trkpt lat="47.31314" lon="-2.30946">
        <ele>6</ele>
        <time>2022-09-18T09:11:53.000Z</time>
      </trkpt>
      <trkpt lat="47.31318" lon="-2.30948">
        <ele>6</ele>
        <time>2022-09-18T09:11:54.000Z</time>
      </trkpt>
      <trkpt lat="47.31325" lon="-2.3094">
        <ele>6</ele>
        <time>2022-09-18T09:11:56.000Z</time>
      </trkpt>
      <trkpt lat="47.31332" lon="-2.30931">
        <ele>6</ele>
        <time>2022-09-18T09:11:58.000Z</time>
      </trkpt>
      <trkpt lat="47.31344" lon="-2.30915">
        <ele>6</ele>
        <time>2022-09-18T09:12:01.000Z</time>
      </trkpt>
      <trkpt lat="47.31374" lon="-2.30872">
        <ele>6</ele>
        <time>2022-09-18T09:12:09.000Z</time>
      </trkpt>
      <trkpt lat="47.31404" lon="-2.3083">
        <ele>6</ele>
        <time>2022-09-18T09:12:16.000Z</time>
      </trkpt>
      <trkpt lat="47.31438" lon="-2.30781">
        <ele>6</ele>
        <time>2022-09-18T09:12:24.000Z</time>
      </trkpt>
      <trkpt lat="47.31458" lon="-2.30748">
        <ele>6</ele>
        <time>2022-09-18T09:12:29.000Z</time>
      </trkpt>
      <trkpt lat="47.31462" lon="-2.3074">
        <ele>6</ele>
        <time>2022-09-18T09:12:30.000Z</time>
      </trkpt>
      <trkpt lat="47.31476" lon="-2.30696">
        <ele>6</ele>
        <time>2022-09-18T09:12:35.000Z</time>
      </trkpt>
      <trkpt lat="47.31477" lon="-2.30687">
        <ele>6</ele>
        <time>2022-09-18T09:12:36.000Z</time>
      </trkpt>
      <trkpt lat="47.31485" lon="-2.3061">
        <ele>6</ele>
        <time>2022-09-18T09:12:44.000Z</time>
      </trkpt>
      <trkpt lat="47.31497" lon="-2.30553">
        <ele>6</ele>
        <time>2022-09-18T09:12:50.000Z</time>
      </trkpt>
      <trkpt lat="47.31515" lon="-2.30495">
        <ele>6</ele>
        <time>2022-09-18T09:12:57.000Z</time>
      </trkpt>
      <trkpt lat="47.31522" lon="-2.30472">
        <ele>6</ele>
        <time>2022-09-18T09:13:00.000Z</time>
      </trkpt>
      <trkpt lat="47.31528" lon="-2.30451">
        <ele>6</ele>
        <time>2022-09-18T09:13:03.000Z</time>
      </trkpt>
      <trkpt lat="47.31546" lon="-2.30393">
        <ele>6</ele>
        <time>2022-09-18T09:13:10.000Z</time>
      </trkpt>
      <trkpt lat="47.31564" lon="-2.30346">
        <ele>6</ele>
        <time>2022-09-18T09:13:16.000Z</time>
      </trkpt>
      <trkpt lat="47.31586" lon="-2.30294">
        <ele>6</ele>
        <time>2022-09-18T09:13:23.000Z</time>
      </trkpt>
      <trkpt lat="47.31595" lon="-2.30277">
        <ele>6</ele>
        <time>2022-09-18T09:13:26.000Z</time>
      </trkpt>
      <trkpt lat="47.31602" lon="-2.30268">
        <ele>6</ele>
        <time>2022-09-18T09:13:28.000Z</time>
      </trkpt>
      <trkpt lat="47.31612" lon="-2.30271">
        <ele>6</ele>
        <time>2022-09-18T09:13:30.000Z</time>
      </trkpt>
      <trkpt lat="47.3162" lon="-2.30281">
        <ele>6</ele>
        <time>2022-09-18T09:13:32.000Z</time>
      </trkpt>
      <trkpt lat="47.3163" lon="-2.30303">
        <ele>6</ele>
        <time>2022-09-18T09:13:35.000Z</time>
      </trkpt>
      <trkpt lat="47.31659" lon="-2.30364">
        <ele>6</ele>
        <time>2022-09-18T09:13:43.000Z</time>
      </trkpt>
      <trkpt lat="47.31663" lon="-2.30371">
        <ele>6</ele>
        <time>2022-09-18T09:13:44.000Z</time>
      </trkpt>
      <trkpt lat="47.31681" lon="-2.30394">
        <ele>6</ele>
        <time>2022-09-18T09:13:48.000Z</time>
      </trkpt>
      <trkpt lat="47.3171" lon="-2.30419">
        <ele>5.4000000953674</ele>
        <time>2022-09-18T09:13:53.000Z</time>
      </trkpt>
      <trkpt lat="47.31717" lon="-2.30421">
        <ele>5</ele>
        <time>2022-09-18T09:13:54.000Z</time>
      </trkpt>
      <trkpt lat="47.31723" lon="-2.30424">
        <ele>4.5999999046326</ele>
        <time>2022-09-18T09:13:55.000Z</time>
      </trkpt>
      <trkpt lat="47.31728" lon="-2.30426">
        <ele>4</ele>
        <time>2022-09-18T09:13:56.000Z</time>
      </trkpt>
      <trkpt lat="47.31732" lon="-2.30429">
        <ele>3.5999999046326</ele>
        <time>2022-09-18T09:13:57.000Z</time>
      </trkpt>
      <trkpt lat="47.31735" lon="-2.30434">
        <ele>3.5999999046326</ele>
        <time>2022-09-18T09:13:58.000Z</time>
      </trkpt>
      <trkpt lat="47.31741" lon="-2.30431">
        <ele>3.5999999046326</ele>
        <time>2022-09-18T09:14:00.000Z</time>
      </trkpt>
      <trkpt lat="47.31746" lon="-2.30416">
        <ele>3.5999999046326</ele>
        <time>2022-09-18T09:14:03.000Z</time>
      </trkpt>
      <trkpt lat="47.31747" lon="-2.30409">
        <ele>3.5999999046326</ele>
        <time>2022-09-18T09:14:04.000Z</time>
      </trkpt>
      <trkpt lat="47.31751" lon="-2.30381">
        <ele>3.5999999046326</ele>
        <time>2022-09-18T09:14:08.000Z</time>
      </trkpt>
      <trkpt lat="47.31753" lon="-2.30374">
        <ele>3.5999999046326</ele>
        <time>2022-09-18T09:14:09.000Z</time>
      </trkpt>
      <trkpt lat="47.31767" lon="-2.30341">
        <ele>3.5999999046326</ele>
        <time>2022-09-18T09:14:14.000Z</time>
      </trkpt>
      <trkpt lat="47.31771" lon="-2.30335">
        <ele>3.5999999046326</ele>
        <time>2022-09-18T09:14:15.000Z</time>
      </trkpt>
      <trkpt lat="47.31784" lon="-2.30319">
        <ele>3.5999999046326</ele>
        <time>2022-09-18T09:14:18.000Z</time>
      </trkpt>
      <trkpt lat="47.31789" lon="-2.30316">
        <ele>3.5999999046326</ele>
        <time>2022-09-18T09:14:19.000Z</time>
      </trkpt>
      <trkpt lat="47.31796" lon="-2.30313">
        <ele>3.5999999046326</ele>
        <time>2022-09-18T09:14:20.000Z</time>
      </trkpt>
      <trkpt lat="47.31807" lon="-2.30307">
        <ele>3.2000000476837</ele>
        <time>2022-09-18T09:14:22.000Z</time>
      </trkpt>
      <trkpt lat="47.31813" lon="-2.30303">
        <ele>2.7999999523163</ele>
        <time>2022-09-18T09:14:23.000Z</time>
      </trkpt>
      <trkpt lat="47.31818" lon="-2.30299">
        <ele>2.4000000953674</ele>
        <time>2022-09-18T09:14:24.000Z</time>
      </trkpt>
      <trkpt lat="47.31824" lon="-2.30295">
        <ele>2</ele>
        <time>2022-09-18T09:14:25.000Z</time>
      </trkpt>
      <trkpt lat="47.3183" lon="-2.30292">
        <ele>1.6000000238419</ele>
        <time>2022-09-18T09:14:26.000Z</time>
      </trkpt>
      <trkpt lat="47.31847" lon="-2.30286">
        <ele>1.6000000238419</ele>
        <time>2022-09-18T09:14:29.000Z</time>
      </trkpt>
      <trkpt lat="47.31878" lon="-2.30278">
        <ele>1.6000000238419</ele>
        <time>2022-09-18T09:14:34.000Z</time>
      </trkpt>
      <trkpt lat="47.31884" lon="-2.30275">
        <ele>1.6000000238419</ele>
        <time>2022-09-18T09:14:35.000Z</time>
      </trkpt>
      <trkpt lat="47.319" lon="-2.3026">
        <ele>1.6000000238419</ele>
        <time>2022-09-18T09:14:38.000Z</time>
      </trkpt>
      <trkpt lat="47.31909" lon="-2.30249">
        <ele>1.6000000238419</ele>
        <time>2022-09-18T09:14:40.000Z</time>
      </trkpt>
      <trkpt lat="47.31922" lon="-2.30233">
        <ele>1.6000000238419</ele>
        <time>2022-09-18T09:14:43.000Z</time>
      </trkpt>
      <trkpt lat="47.31925" lon="-2.30226">
        <ele>1.6000000238419</ele>
        <time>2022-09-18T09:14:44.000Z</time>
      </trkpt>
      <trkpt lat="47.31931" lon="-2.3022">
        <ele>1.2000000476837</ele>
        <time>2022-09-18T09:14:45.000Z</time>
      </trkpt>
      <trkpt lat="47.31936" lon="-2.30214">
        <ele>0.60000002384186</ele>
        <time>2022-09-18T09:14:46.000Z</time>
      </trkpt>
      <trkpt lat="47.31941" lon="-2.30207">
        <ele>0.20000000298023</ele>
        <time>2022-09-18T09:14:47.000Z</time>
      </trkpt>
      <trkpt lat="47.31945" lon="-2.302">
        <ele>-0.20000000298023</ele>
        <time>2022-09-18T09:14:48.000Z</time>
      </trkpt>
      <trkpt lat="47.3195" lon="-2.30192">
        <ele>-0.60000002384186</ele>
        <time>2022-09-18T09:14:49.000Z</time>
      </trkpt>
      <trkpt lat="47.31962" lon="-2.3017">
        <ele>-0.60000002384186</ele>
        <time>2022-09-18T09:14:52.000Z</time>
      </trkpt>
      <trkpt lat="47.31982" lon="-2.3013">
        <ele>-0.60000002384186</ele>
        <time>2022-09-18T09:14:58.000Z</time>
      </trkpt>
      <trkpt lat="47.31988" lon="-2.30099">
        <ele>-0.60000002384186</ele>
        <time>2022-09-18T09:15:02.000Z</time>
      </trkpt>
      <trkpt lat="47.3199" lon="-2.30091">
        <ele>-0.60000002384186</ele>
        <time>2022-09-18T09:15:03.000Z</time>
      </trkpt>
      <trkpt lat="47.32008" lon="-2.30036">
        <ele>-0.60000002384186</ele>
        <time>2022-09-18T09:15:10.000Z</time>
      </trkpt>
      <trkpt lat="47.32028" lon="-2.29977">
        <ele>-0.60000002384186</ele>
        <time>2022-09-18T09:15:18.000Z</time>
      </trkpt>
      <trkpt lat="47.32048" lon="-2.29925">
        <ele>-0.60000002384186</ele>
        <time>2022-09-18T09:15:25.000Z</time>
      </trkpt>
      <trkpt lat="47.3206" lon="-2.29911">
        <ele>-0.60000002384186</ele>
        <time>2022-09-18T09:15:28.000Z</time>
      </trkpt>
      <trkpt lat="47.32072" lon="-2.29898">
        <ele>-0.60000002384186</ele>
        <time>2022-09-18T09:15:31.000Z</time>
      </trkpt>
      <trkpt lat="47.32076" lon="-2.29892">
        <ele>-0.60000002384186</ele>
        <time>2022-09-18T09:15:32.000Z</time>
      </trkpt>
      <trkpt lat="47.32099" lon="-2.29868">
        <ele>-0.60000002384186</ele>
        <time>2022-09-18T09:15:37.000Z</time>
      </trkpt>
      <trkpt lat="47.32113" lon="-2.29856">
        <ele>-0.60000002384186</ele>
        <time>2022-09-18T09:15:40.000Z</time>
      </trkpt>
      <trkpt lat="47.32122" lon="-2.29856">
        <ele>-0.60000002384186</ele>
        <time>2022-09-18T09:15:42.000Z</time>
      </trkpt>
      <trkpt lat="47.32139" lon="-2.29856">
        <ele>-0.60000002384186</ele>
        <time>2022-09-18T09:15:47.000Z</time>
      </trkpt>
      <trkpt lat="47.32146" lon="-2.29849">
        <ele>-0.60000002384186</ele>
        <time>2022-09-18T09:15:49.000Z</time>
      </trkpt>
      <trkpt lat="47.32151" lon="-2.29838">
        <ele>-0.60000002384186</ele>
        <time>2022-09-18T09:15:51.000Z</time>
      </trkpt>
      <trkpt lat="47.32148" lon="-2.2982">
        <ele>-0.60000002384186</ele>
        <time>2022-09-18T09:15:54.000Z</time>
      </trkpt>
      <trkpt lat="47.32137" lon="-2.29795">
        <ele>-0.60000002384186</ele>
        <time>2022-09-18T09:15:58.000Z</time>
      </trkpt>
      <trkpt lat="47.32135" lon="-2.2979">
        <ele>-0.60000002384186</ele>
        <time>2022-09-18T09:15:59.000Z</time>
      </trkpt>
      <trkpt lat="47.32135" lon="-2.29785">
        <ele>-0.60000002384186</ele>
        <time>2022-09-18T09:16:00.000Z</time>
      </trkpt>
      <trkpt lat="47.32136" lon="-2.29782">
        <ele>-0.60000002384186</ele>
        <time>2022-09-18T09:16:01.000Z</time>
      </trkpt>
      <trkpt lat="47.32147" lon="-2.29769">
        <ele>-1</ele>
        <time>2022-09-18T09:16:04.000Z</time>
      </trkpt>
      <trkpt lat="47.32152" lon="-2.29764">
        <ele>-1.6000000238419</ele>
        <time>2022-09-18T09:16:05.000Z</time>
      </trkpt>
      <trkpt lat="47.32156" lon="-2.2976">
        <ele>-2</ele>
        <time>2022-09-18T09:16:06.000Z</time>
      </trkpt>
      <trkpt lat="47.3216" lon="-2.29755">
        <ele>-2.4000000953674</ele>
        <time>2022-09-18T09:16:07.000Z</time>
      </trkpt>
      <trkpt lat="47.32164" lon="-2.29751">
        <ele>-2.7999999523163</ele>
        <time>2022-09-18T09:16:08.000Z</time>
      </trkpt>
      <trkpt lat="47.32169" lon="-2.29748">
        <ele>-2.7999999523163</ele>
        <time>2022-09-18T09:16:09.000Z</time>
      </trkpt>
      <trkpt lat="47.3218" lon="-2.2974">
        <ele>-2.7999999523163</ele>
        <time>2022-09-18T09:16:11.000Z</time>
      </trkpt>
      <trkpt lat="47.32192" lon="-2.29727">
        <ele>-2.7999999523163</ele>
        <time>2022-09-18T09:16:14.000Z</time>
      </trkpt>
      <trkpt lat="47.32221" lon="-2.29696">
        <ele>-2.7999999523163</ele>
        <time>2022-09-18T09:16:20.000Z</time>
      </trkpt>
      <trkpt lat="47.32245" lon="-2.29669">
        <ele>-2.7999999523163</ele>
        <time>2022-09-18T09:16:25.000Z</time>
      </trkpt>
      <trkpt lat="47.32249" lon="-2.29667">
        <ele>-2.7999999523163</ele>
        <time>2022-09-18T09:16:26.000Z</time>
      </trkpt>
      <trkpt lat="47.32263" lon="-2.29674">
        <ele>-2.7999999523163</ele>
        <time>2022-09-18T09:16:29.000Z</time>
      </trkpt>
      <trkpt lat="47.32268" lon="-2.29683">
        <ele>-2.4000000953674</ele>
        <time>2022-09-18T09:16:31.000Z</time>
      </trkpt>
      <trkpt lat="47.3227" lon="-2.29688">
        <ele>-2</ele>
        <time>2022-09-18T09:16:32.000Z</time>
      </trkpt>
      <trkpt lat="47.32274" lon="-2.29694">
        <ele>-1.6000000238419</ele>
        <time>2022-09-18T09:16:33.000Z</time>
      </trkpt>
      <trkpt lat="47.32277" lon="-2.29699">
        <ele>-1.2000000476837</ele>
        <time>2022-09-18T09:16:34.000Z</time>
      </trkpt>
      <trkpt lat="47.32281" lon="-2.29706">
        <ele>-0.80000001192093</ele>
        <time>2022-09-18T09:16:35.000Z</time>
      </trkpt>
      <trkpt lat="47.32296" lon="-2.29732">
        <ele>-0.80000001192093</ele>
        <time>2022-09-18T09:16:39.000Z</time>
      </trkpt>
      <trkpt lat="47.32311" lon="-2.29754">
        <ele>-0.40000000596046</ele>
        <time>2022-09-18T09:16:43.000Z</time>
      </trkpt>
      <trkpt lat="47.32314" lon="-2.2976">
        <ele>0.40000000596046</ele>
        <time>2022-09-18T09:16:44.000Z</time>
      </trkpt>
      <trkpt lat="47.32317" lon="-2.29765">
        <ele>0.80000001192093</ele>
        <time>2022-09-18T09:16:45.000Z</time>
      </trkpt>
      <trkpt lat="47.32321" lon="-2.2977">
        <ele>1.2000000476837</ele>
        <time>2022-09-18T09:16:46.000Z</time>
      </trkpt>
      <trkpt lat="47.32337" lon="-2.29799">
        <ele>1.6000000238419</ele>
        <time>2022-09-18T09:16:51.000Z</time>
      </trkpt>
      <trkpt lat="47.3234" lon="-2.29804">
        <ele>2</ele>
        <time>2022-09-18T09:16:52.000Z</time>
      </trkpt>
      <trkpt lat="47.32342" lon="-2.29809">
        <ele>2.4000000953674</ele>
        <time>2022-09-18T09:16:53.000Z</time>
      </trkpt>
      <trkpt lat="47.32345" lon="-2.29815">
        <ele>2.7999999523163</ele>
        <time>2022-09-18T09:16:54.000Z</time>
      </trkpt>
      <trkpt lat="47.32347" lon="-2.29819">
        <ele>3.2000000476837</ele>
        <time>2022-09-18T09:16:55.000Z</time>
      </trkpt>
      <trkpt lat="47.32353" lon="-2.29829">
        <ele>3.2000000476837</ele>
        <time>2022-09-18T09:16:57.000Z</time>
      </trkpt>
      <trkpt lat="47.32355" lon="-2.29834">
        <ele>3.5999999046326</ele>
        <time>2022-09-18T09:16:58.000Z</time>
      </trkpt>
      <trkpt lat="47.32358" lon="-2.29839">
        <ele>4.1999998092651</ele>
        <time>2022-09-18T09:16:59.000Z</time>
      </trkpt>
      <trkpt lat="47.3236" lon="-2.29845">
        <ele>4.5999999046326</ele>
        <time>2022-09-18T09:17:00.000Z</time>
      </trkpt>
      <trkpt lat="47.32363" lon="-2.2985">
        <ele>5</ele>
        <time>2022-09-18T09:17:01.000Z</time>
      </trkpt>
      <trkpt lat="47.32366" lon="-2.29856">
        <ele>5.4000000953674</ele>
        <time>2022-09-18T09:17:02.000Z</time>
      </trkpt>
      <trkpt lat="47.32381" lon="-2.29887">
        <ele>5.4000000953674</ele>
        <time>2022-09-18T09:17:07.000Z</time>
      </trkpt>
      <trkpt lat="47.32385" lon="-2.29891">
        <ele>5.4000000953674</ele>
        <time>2022-09-18T09:17:08.000Z</time>
      </trkpt>
      <trkpt lat="47.32399" lon="-2.29893">
        <ele>5.4000000953674</ele>
        <time>2022-09-18T09:17:11.000Z</time>
      </trkpt>
      <trkpt lat="47.32412" lon="-2.29886">
        <ele>5.4000000953674</ele>
        <time>2022-09-18T09:17:14.000Z</time>
      </trkpt>
      <trkpt lat="47.32416" lon="-2.29884">
        <ele>5.4000000953674</ele>
        <time>2022-09-18T09:17:15.000Z</time>
      </trkpt>
      <trkpt lat="47.32435" lon="-2.2987">
        <ele>5.4000000953674</ele>
        <time>2022-09-18T09:17:21.000Z</time>
      </trkpt>
      <trkpt lat="47.32437" lon="-2.2987">
        <ele>5.4000000953674</ele>
        <time>2022-09-18T09:17:22.000Z</time>
      </trkpt>
      <trkpt lat="47.32437" lon="-2.29871">
        <ele>5.4000000953674</ele>
        <time>2022-09-18T09:17:24.000Z</time>
      </trkpt>
      <trkpt lat="47.32437" lon="-2.2987">
        <ele>5.4000000953674</ele>
        <time>2022-09-18T09:17:53.000Z</time>
      </trkpt>
      <trkpt lat="47.32437" lon="-2.29869">
        <ele>5.4000000953674</ele>
        <time>2022-09-18T09:17:55.000Z</time>
      </trkpt>
      <trkpt lat="47.32437" lon="-2.29869">
        <ele>5.4000000953674</ele>
        <time>2022-09-18T09:17:56.000Z</time>
      </trkpt>
      <trkpt lat="47.32437" lon="-2.29869">
        <ele>5.4000000953674</ele>
        <time>2022-09-18T09:19:02.000Z</time>
      </trkpt>
      <trkpt lat="47.32439" lon="-2.29874">
        <ele>5.4000000953674</ele>
        <time>2022-09-18T09:19:04.000Z</time>
      </trkpt>
      <trkpt lat="47.3244" lon="-2.2989">
        <ele>5.4000000953674</ele>
        <time>2022-09-18T09:19:09.000Z</time>
      </trkpt>
      <trkpt lat="47.32441" lon="-2.29894">
        <ele>5.4000000953674</ele>
        <time>2022-09-18T09:19:10.000Z</time>
      </trkpt>
      <trkpt lat="47.32444" lon="-2.29913">
        <ele>5.4000000953674</ele>
        <time>2022-09-18T09:19:15.000Z</time>
      </trkpt>
      <trkpt lat="47.32447" lon="-2.2993">
        <ele>5.4000000953674</ele>
        <time>2022-09-18T09:19:21.000Z</time>
      </trkpt>
      <trkpt lat="47.32446" lon="-2.29932">
        <ele>5.4000000953674</ele>
        <time>2022-09-18T09:19:34.000Z</time>
      </trkpt>
      <trkpt lat="47.32444" lon="-2.2994">
        <ele>5.4000000953674</ele>
        <time>2022-09-18T09:19:37.000Z</time>
      </trkpt>
      <trkpt lat="47.32443" lon="-2.29943">
        <ele>5.4000000953674</ele>
        <time>2022-09-18T09:19:38.000Z</time>
      </trkpt>
      <trkpt lat="47.32442" lon="-2.29952">
        <ele>5.4000000953674</ele>
        <time>2022-09-18T09:19:40.000Z</time>
      </trkpt>
      <trkpt lat="47.32443" lon="-2.29957">
        <ele>5.4000000953674</ele>
        <time>2022-09-18T09:19:41.000Z</time>
      </trkpt>
      <trkpt lat="47.32451" lon="-2.29971">
        <ele>5.4000000953674</ele>
        <time>2022-09-18T09:19:45.000Z</time>
      </trkpt>
      <trkpt lat="47.32471" lon="-2.30002">
        <ele>5.4000000953674</ele>
        <time>2022-09-18T09:19:52.000Z</time>
      </trkpt>
      <trkpt lat="47.32483" lon="-2.30038">
        <ele>5.4000000953674</ele>
        <time>2022-09-18T09:19:58.000Z</time>
      </trkpt>
      <trkpt lat="47.32494" lon="-2.30087">
        <ele>5.4000000953674</ele>
        <time>2022-09-18T09:20:05.000Z</time>
      </trkpt>
      <trkpt lat="47.32496" lon="-2.30109">
        <ele>5.4000000953674</ele>
        <time>2022-09-18T09:20:08.000Z</time>
      </trkpt>
      <trkpt lat="47.32498" lon="-2.30123">
        <ele>5.4000000953674</ele>
        <time>2022-09-18T09:20:10.000Z</time>
      </trkpt>
      <trkpt lat="47.32505" lon="-2.30174">
        <ele>5.4000000953674</ele>
        <time>2022-09-18T09:20:17.000Z</time>
      </trkpt>
      <trkpt lat="47.32507" lon="-2.30188">
        <ele>5.4000000953674</ele>
        <time>2022-09-18T09:20:19.000Z</time>
      </trkpt>
      <trkpt lat="47.3251" lon="-2.30209">
        <ele>5.4000000953674</ele>
        <time>2022-09-18T09:20:22.000Z</time>
      </trkpt>
      <trkpt lat="47.32512" lon="-2.30225">
        <ele>5.4000000953674</ele>
        <time>2022-09-18T09:20:24.000Z</time>
      </trkpt>
      <trkpt lat="47.32519" lon="-2.30274">
        <ele>5.4000000953674</ele>
        <time>2022-09-18T09:20:30.000Z</time>
      </trkpt>
      <trkpt lat="47.32528" lon="-2.30324">
        <ele>5.4000000953674</ele>
        <time>2022-09-18T09:20:36.000Z</time>
      </trkpt>
      <trkpt lat="47.32537" lon="-2.30369">
        <ele>5.4000000953674</ele>
        <time>2022-09-18T09:20:42.000Z</time>
      </trkpt>
      <trkpt lat="47.3254" lon="-2.3039">
        <ele>5.4000000953674</ele>
        <time>2022-09-18T09:20:45.000Z</time>
      </trkpt>
      <trkpt lat="47.32538" lon="-2.30397">
        <ele>5</ele>
        <time>2022-09-18T09:20:46.000Z</time>
      </trkpt>
      <trkpt lat="47.32535" lon="-2.30401">
        <ele>4.5999999046326</ele>
        <time>2022-09-18T09:20:47.000Z</time>
      </trkpt>
      <trkpt lat="47.32531" lon="-2.30404">
        <ele>4.1999998092651</ele>
        <time>2022-09-18T09:20:48.000Z</time>
      </trkpt>
      <trkpt lat="47.32526" lon="-2.30406">
        <ele>3.7999999523163</ele>
        <time>2022-09-18T09:20:49.000Z</time>
      </trkpt>
      <trkpt lat="47.32522" lon="-2.30407">
        <ele>3.2000000476837</ele>
        <time>2022-09-18T09:20:50.000Z</time>
      </trkpt>
      <trkpt lat="47.32502" lon="-2.30417">
        <ele>3.2000000476837</ele>
        <time>2022-09-18T09:20:54.000Z</time>
      </trkpt>
      <trkpt lat="47.32498" lon="-2.30428">
        <ele>3.2000000476837</ele>
        <time>2022-09-18T09:20:56.000Z</time>
      </trkpt>
      <trkpt lat="47.32502" lon="-2.30449">
        <ele>3.2000000476837</ele>
        <time>2022-09-18T09:20:59.000Z</time>
      </trkpt>
      <trkpt lat="47.32504" lon="-2.30457">
        <ele>3.2000000476837</ele>
        <time>2022-09-18T09:21:00.000Z</time>
      </trkpt>
      <trkpt lat="47.32513" lon="-2.30499">
        <ele>3.2000000476837</ele>
        <time>2022-09-18T09:21:05.000Z</time>
      </trkpt>
      <trkpt lat="47.32523" lon="-2.30561">
        <ele>3.2000000476837</ele>
        <time>2022-09-18T09:21:12.000Z</time>
      </trkpt>
      <trkpt lat="47.32531" lon="-2.30614">
        <ele>3.2000000476837</ele>
        <time>2022-09-18T09:21:18.000Z</time>
      </trkpt>
      <trkpt lat="47.32539" lon="-2.30648">
        <ele>2.7999999523163</ele>
        <time>2022-09-18T09:21:22.000Z</time>
      </trkpt>
      <trkpt lat="47.32541" lon="-2.30657">
        <ele>2.4000000953674</ele>
        <time>2022-09-18T09:21:23.000Z</time>
      </trkpt>
      <trkpt lat="47.32542" lon="-2.30665">
        <ele>2</ele>
        <time>2022-09-18T09:21:24.000Z</time>
      </trkpt>
      <trkpt lat="47.32544" lon="-2.30673">
        <ele>1.6000000238419</ele>
        <time>2022-09-18T09:21:25.000Z</time>
      </trkpt>
      <trkpt lat="47.32545" lon="-2.30682">
        <ele>1.2000000476837</ele>
        <time>2022-09-18T09:21:26.000Z</time>
      </trkpt>
      <trkpt lat="47.32549" lon="-2.3071">
        <ele>1.2000000476837</ele>
        <time>2022-09-18T09:21:29.000Z</time>
      </trkpt>
      <trkpt lat="47.32559" lon="-2.30757">
        <ele>1.2000000476837</ele>
        <time>2022-09-18T09:21:34.000Z</time>
      </trkpt>
      <trkpt lat="47.32566" lon="-2.30817">
        <ele>1.2000000476837</ele>
        <time>2022-09-18T09:21:40.000Z</time>
      </trkpt>
      <trkpt lat="47.32567" lon="-2.30836">
        <ele>1.2000000476837</ele>
        <time>2022-09-18T09:21:42.000Z</time>
      </trkpt>
      <trkpt lat="47.32567" lon="-2.30866">
        <ele>1.2000000476837</ele>
        <time>2022-09-18T09:21:45.000Z</time>
      </trkpt>
      <trkpt lat="47.32567" lon="-2.30903">
        <ele>1.2000000476837</ele>
        <time>2022-09-18T09:21:49.000Z</time>
      </trkpt>
      <trkpt lat="47.32566" lon="-2.30919">
        <ele>1.2000000476837</ele>
        <time>2022-09-18T09:21:51.000Z</time>
      </trkpt>
      <trkpt lat="47.32566" lon="-2.30942">
        <ele>1.2000000476837</ele>
        <time>2022-09-18T09:21:54.000Z</time>
      </trkpt>
      <trkpt lat="47.32565" lon="-2.30957">
        <ele>1.2000000476837</ele>
        <time>2022-09-18T09:21:56.000Z</time>
      </trkpt>
      <trkpt lat="47.32567" lon="-2.31013">
        <ele>1.2000000476837</ele>
        <time>2022-09-18T09:22:03.000Z</time>
      </trkpt>
      <trkpt lat="47.32568" lon="-2.3102">
        <ele>1.2000000476837</ele>
        <time>2022-09-18T09:22:04.000Z</time>
      </trkpt>
      <trkpt lat="47.32573" lon="-2.3105">
        <ele>1.2000000476837</ele>
        <time>2022-09-18T09:22:08.000Z</time>
      </trkpt>
      <trkpt lat="47.32574" lon="-2.31065">
        <ele>1.2000000476837</ele>
        <time>2022-09-18T09:22:10.000Z</time>
      </trkpt>
      <trkpt lat="47.32573" lon="-2.3109">
        <ele>1.2000000476837</ele>
        <time>2022-09-18T09:22:13.000Z</time>
      </trkpt>
      <trkpt lat="47.3257" lon="-2.31115">
        <ele>1.2000000476837</ele>
        <time>2022-09-18T09:22:16.000Z</time>
      </trkpt>
      <trkpt lat="47.32568" lon="-2.31133">
        <ele>1.2000000476837</ele>
        <time>2022-09-18T09:22:18.000Z</time>
      </trkpt>
      <trkpt lat="47.32562" lon="-2.31177">
        <ele>1.2000000476837</ele>
        <time>2022-09-18T09:22:23.000Z</time>
      </trkpt>
      <trkpt lat="47.32562" lon="-2.31186">
        <ele>1.2000000476837</ele>
        <time>2022-09-18T09:22:24.000Z</time>
      </trkpt>
      <trkpt lat="47.32566" lon="-2.31201">
        <ele>1.2000000476837</ele>
        <time>2022-09-18T09:22:26.000Z</time>
      </trkpt>
      <trkpt lat="47.32573" lon="-2.31226">
        <ele>1.2000000476837</ele>
        <time>2022-09-18T09:22:29.000Z</time>
      </trkpt>
      <trkpt lat="47.32573" lon="-2.31236">
        <ele>0.40000000596046</ele>
        <time>2022-09-18T09:22:30.000Z</time>
      </trkpt>
      <trkpt lat="47.32572" lon="-2.31246">
        <ele>10.4</ele>
        <time>2022-09-18T09:22:31.000Z</time>
      </trkpt>
      <trkpt lat="47.32572" lon="-2.31256">
        <ele>-0.40000000596046</ele>
        <time>2022-09-18T09:22:32.000Z</time>
      </trkpt>
      <trkpt lat="47.32571" lon="-2.31266">
        <ele>-0.80000001192093</ele>
        <time>2022-09-18T09:22:33.000Z</time>
      </trkpt>
      <trkpt lat="47.32569" lon="-2.31306">
        <ele>-0.80000001192093</ele>
        <time>2022-09-18T09:22:37.000Z</time>
      </trkpt>
      <trkpt lat="47.32567" lon="-2.31315">
        <ele>-0.80000001192093</ele>
        <time>2022-09-18T09:22:38.000Z</time>
      </trkpt>
      <trkpt lat="47.32556" lon="-2.31348">
        <ele>-0.80000001192093</ele>
        <time>2022-09-18T09:22:42.000Z</time>
      </trkpt>
      <trkpt lat="47.32553" lon="-2.31373">
        <ele>-0.80000001192093</ele>
        <time>2022-09-18T09:22:45.000Z</time>
      </trkpt>
      <trkpt lat="47.32553" lon="-2.3138">
        <ele>-0.80000001192093</ele>
        <time>2022-09-18T09:22:46.000Z</time>
      </trkpt>
      <trkpt lat="47.32553" lon="-2.3139">
        <ele>-0.80000001192093</ele>
        <time>2022-09-18T09:22:49.000Z</time>
      </trkpt>
      <trkpt lat="47.32553" lon="-2.3139">
        <ele>-0.80000001192093</ele>
        <time>2022-09-18T09:22:50.000Z</time>
      </trkpt>
      <trkpt lat="47.32553" lon="-2.31395">
        <ele>-0.80000001192093</ele>
        <time>2022-09-18T09:22:59.000Z</time>
      </trkpt>
      <trkpt lat="47.32552" lon="-2.314">
        <ele>-0.80000001192093</ele>
        <time>2022-09-18T09:23:01.000Z</time>
      </trkpt>
      <trkpt lat="47.3255" lon="-2.31406">
        <ele>-0.80000001192093</ele>
        <time>2022-09-18T09:23:03.000Z</time>
      </trkpt>
      <trkpt lat="47.3255" lon="-2.31414">
        <ele>-0.80000001192093</ele>
        <time>2022-09-18T09:23:05.000Z</time>
      </trkpt>
      <trkpt lat="47.32554" lon="-2.31437">
        <ele>-0.80000001192093</ele>
        <time>2022-09-18T09:23:09.000Z</time>
      </trkpt>
      <trkpt lat="47.32555" lon="-2.31443">
        <ele>-0.40000000596046</ele>
        <time>2022-09-18T09:23:10.000Z</time>
      </trkpt>
      <trkpt lat="47.32556" lon="-2.3145">
        <ele>12</ele>
        <time>2022-09-18T09:23:11.000Z</time>
      </trkpt>
      <trkpt lat="47.32557" lon="-2.31457">
        <ele>0.40000000596046</ele>
        <time>2022-09-18T09:23:12.000Z</time>
      </trkpt>
      <trkpt lat="47.32558" lon="-2.31465">
        <ele>0.80000001192093</ele>
        <time>2022-09-18T09:23:13.000Z</time>
      </trkpt>
      <trkpt lat="47.32559" lon="-2.31473">
        <ele>1.2000000476837</ele>
        <time>2022-09-18T09:23:14.000Z</time>
      </trkpt>
      <trkpt lat="47.3256" lon="-2.3148">
        <ele>1.2000000476837</ele>
        <time>2022-09-18T09:23:15.000Z</time>
      </trkpt>
      <trkpt lat="47.3256" lon="-2.31497">
        <ele>1.2000000476837</ele>
        <time>2022-09-18T09:23:17.000Z</time>
      </trkpt>
      <trkpt lat="47.32557" lon="-2.31522">
        <ele>1.2000000476837</ele>
        <time>2022-09-18T09:23:20.000Z</time>
      </trkpt>
      <trkpt lat="47.32557" lon="-2.31531">
        <ele>1.2000000476837</ele>
        <time>2022-09-18T09:23:21.000Z</time>
      </trkpt>
      <trkpt lat="47.32557" lon="-2.31564">
        <ele>1.2000000476837</ele>
        <time>2022-09-18T09:23:25.000Z</time>
      </trkpt>
      <trkpt lat="47.32557" lon="-2.31572">
        <ele>1.2000000476837</ele>
        <time>2022-09-18T09:23:26.000Z</time>
      </trkpt>
      <trkpt lat="47.32557" lon="-2.31579">
        <ele>1.2000000476837</ele>
        <time>2022-09-18T09:23:27.000Z</time>
      </trkpt>
      <trkpt lat="47.32552" lon="-2.31591">
        <ele>1.2000000476837</ele>
        <time>2022-09-18T09:23:29.000Z</time>
      </trkpt>
      <trkpt lat="47.32543" lon="-2.31601">
        <ele>1.2000000476837</ele>
        <time>2022-09-18T09:23:31.000Z</time>
      </trkpt>
      <trkpt lat="47.32531" lon="-2.31619">
        <ele>1.2000000476837</ele>
        <time>2022-09-18T09:23:34.000Z</time>
      </trkpt>
      <trkpt lat="47.32523" lon="-2.31631">
        <ele>1.2000000476837</ele>
        <time>2022-09-18T09:23:36.000Z</time>
      </trkpt>
      <trkpt lat="47.32511" lon="-2.31649">
        <ele>1.2000000476837</ele>
        <time>2022-09-18T09:23:39.000Z</time>
      </trkpt>
      <trkpt lat="47.32507" lon="-2.31675">
        <ele>1.2000000476837</ele>
        <time>2022-09-18T09:23:42.000Z</time>
      </trkpt>
      <trkpt lat="47.32508" lon="-2.31704">
        <ele>1.2000000476837</ele>
        <time>2022-09-18T09:23:45.000Z</time>
      </trkpt>
      <trkpt lat="47.32509" lon="-2.31722">
        <ele>1.2000000476837</ele>
        <time>2022-09-18T09:23:47.000Z</time>
      </trkpt>
      <trkpt lat="47.32514" lon="-2.31779">
        <ele>1.2000000476837</ele>
        <time>2022-09-18T09:23:53.000Z</time>
      </trkpt>
      <trkpt lat="47.32519" lon="-2.31835">
        <ele>1.2000000476837</ele>
        <time>2022-09-18T09:23:59.000Z</time>
      </trkpt>
      <trkpt lat="47.32519" lon="-2.31855">
        <ele>1.2000000476837</ele>
        <time>2022-09-18T09:24:01.000Z</time>
      </trkpt>
      <trkpt lat="47.32516" lon="-2.31885">
        <ele>1.2000000476837</ele>
        <time>2022-09-18T09:24:04.000Z</time>
      </trkpt>
      <trkpt lat="47.32511" lon="-2.31932">
        <ele>1.2000000476837</ele>
        <time>2022-09-18T09:24:09.000Z</time>
      </trkpt>
      <trkpt lat="47.3251" lon="-2.31942">
        <ele>1.2000000476837</ele>
        <time>2022-09-18T09:24:10.000Z</time>
      </trkpt>
      <trkpt lat="47.32505" lon="-2.3198">
        <ele>1.2000000476837</ele>
        <time>2022-09-18T09:24:14.000Z</time>
      </trkpt>
      <trkpt lat="47.32502" lon="-2.32044">
        <ele>1.2000000476837</ele>
        <time>2022-09-18T09:24:21.000Z</time>
      </trkpt>
      <trkpt lat="47.32502" lon="-2.3206">
        <ele>1.2000000476837</ele>
        <time>2022-09-18T09:24:23.000Z</time>
      </trkpt>
      <trkpt lat="47.325" lon="-2.32074">
        <ele>1.2000000476837</ele>
        <time>2022-09-18T09:24:25.000Z</time>
      </trkpt>
      <trkpt lat="47.32499" lon="-2.3208">
        <ele>1.2000000476837</ele>
        <time>2022-09-18T09:24:26.000Z</time>
      </trkpt>
      <trkpt lat="47.32491" lon="-2.32093">
        <ele>1.2000000476837</ele>
        <time>2022-09-18T09:24:29.000Z</time>
      </trkpt>
      <trkpt lat="47.32486" lon="-2.32095">
        <ele>1.2000000476837</ele>
        <time>2022-09-18T09:24:30.000Z</time>
      </trkpt>
      <trkpt lat="47.32477" lon="-2.32096">
        <ele>0.80000001192093</ele>
        <time>2022-09-18T09:24:32.000Z</time>
      </trkpt>
      <trkpt lat="47.32471" lon="-2.32096">
        <ele>0.40000000596046</ele>
        <time>2022-09-18T09:24:33.000Z</time>
      </trkpt>
      <trkpt lat="47.32466" lon="-2.32097">
        <ele>-0.40000000596046</ele>
        <time>2022-09-18T09:24:34.000Z</time>
      </trkpt>
      <trkpt lat="47.3246" lon="-2.32097">
        <ele>-0.80000001192093</ele>
        <time>2022-09-18T09:24:35.000Z</time>
      </trkpt>
      <trkpt lat="47.32429" lon="-2.321">
        <ele>-0.80000001192093</ele>
        <time>2022-09-18T09:24:40.000Z</time>
      </trkpt>
      <trkpt lat="47.32394" lon="-2.32103">
        <ele>-0.80000001192093</ele>
        <time>2022-09-18T09:24:46.000Z</time>
      </trkpt>
      <trkpt lat="47.32369" lon="-2.32105">
        <ele>-0.80000001192093</ele>
        <time>2022-09-18T09:24:51.000Z</time>
      </trkpt>
      <trkpt lat="47.32364" lon="-2.32105">
        <ele>-0.80000001192093</ele>
        <time>2022-09-18T09:24:52.000Z</time>
      </trkpt>
      <trkpt lat="47.32358" lon="-2.32105">
        <ele>-0.80000001192093</ele>
        <time>2022-09-18T09:24:55.000Z</time>
      </trkpt>
      <trkpt lat="47.32347" lon="-2.32102">
        <ele>-0.80000001192093</ele>
        <time>2022-09-18T09:25:00.000Z</time>
      </trkpt>
      <trkpt lat="47.32339" lon="-2.32102">
        <ele>-0.80000001192093</ele>
        <time>2022-09-18T09:25:02.000Z</time>
      </trkpt>
      <trkpt lat="47.3233" lon="-2.32102">
        <ele>-0.80000001192093</ele>
        <time>2022-09-18T09:25:04.000Z</time>
      </trkpt>
      <trkpt lat="47.32298" lon="-2.321">
        <ele>-0.80000001192093</ele>
        <time>2022-09-18T09:25:10.000Z</time>
      </trkpt>
      <trkpt lat="47.32261" lon="-2.32105">
        <ele>-0.80000001192093</ele>
        <time>2022-09-18T09:25:17.000Z</time>
      </trkpt>
      <trkpt lat="47.32229" lon="-2.3211">
        <ele>-0.80000001192093</ele>
        <time>2022-09-18T09:25:23.000Z</time>
      </trkpt>
      <trkpt lat="47.32216" lon="-2.32115">
        <ele>-0.80000001192093</ele>
        <time>2022-09-18T09:25:27.000Z</time>
      </trkpt>
      <trkpt lat="47.322" lon="-2.32118">
        <ele>-0.80000001192093</ele>
        <time>2022-09-18T09:25:32.000Z</time>
      </trkpt>
      <trkpt lat="47.32186" lon="-2.32127">
        <ele>-0.80000001192093</ele>
        <time>2022-09-18T09:25:35.000Z</time>
      </trkpt>
      <trkpt lat="47.3218" lon="-2.32132">
        <ele>-0.80000001192093</ele>
        <time>2022-09-18T09:25:36.000Z</time>
      </trkpt>
      <trkpt lat="47.32175" lon="-2.32137">
        <ele>-1.2000000476837</ele>
        <time>2022-09-18T09:25:37.000Z</time>
      </trkpt>
      <trkpt lat="47.3217" lon="-2.32141">
        <ele>-1.6000000238419</ele>
        <time>2022-09-18T09:25:38.000Z</time>
      </trkpt>
      <trkpt lat="47.32165" lon="-2.32146">
        <ele>-2</ele>
        <time>2022-09-18T09:25:39.000Z</time>
      </trkpt>
      <trkpt lat="47.32159" lon="-2.32151">
        <ele>-2.4000000953674</ele>
        <time>2022-09-18T09:25:40.000Z</time>
      </trkpt>
      <trkpt lat="47.32154" lon="-2.32156">
        <ele>-2.7999999523163</ele>
        <time>2022-09-18T09:25:41.000Z</time>
      </trkpt>
      <trkpt lat="47.32127" lon="-2.32178">
        <ele>-2.7999999523163</ele>
        <time>2022-09-18T09:25:46.000Z</time>
      </trkpt>
      <trkpt lat="47.32123" lon="-2.3218">
        <ele>-2.7999999523163</ele>
        <time>2022-09-18T09:25:47.000Z</time>
      </trkpt>
      <trkpt lat="47.321" lon="-2.32184">
        <ele>-2.7999999523163</ele>
        <time>2022-09-18T09:25:51.000Z</time>
      </trkpt>
      <trkpt lat="47.32094" lon="-2.32185">
        <ele>-2.7999999523163</ele>
        <time>2022-09-18T09:25:52.000Z</time>
      </trkpt>
      <trkpt lat="47.32082" lon="-2.32185">
        <ele>-2.7999999523163</ele>
        <time>2022-09-18T09:25:54.000Z</time>
      </trkpt>
      <trkpt lat="47.3207" lon="-2.32186">
        <ele>-2.4000000953674</ele>
        <time>2022-09-18T09:25:56.000Z</time>
      </trkpt>
      <trkpt lat="47.32065" lon="-2.32187">
        <ele>-2</ele>
        <time>2022-09-18T09:25:57.000Z</time>
      </trkpt>
      <trkpt lat="47.3206" lon="-2.32187">
        <ele>-1.6000000238419</ele>
        <time>2022-09-18T09:25:58.000Z</time>
      </trkpt>
      <trkpt lat="47.32054" lon="-2.32188">
        <ele>-1.2000000476837</ele>
        <time>2022-09-18T09:25:59.000Z</time>
      </trkpt>
      <trkpt lat="47.32049" lon="-2.32189">
        <ele>-0.80000001192093</ele>
        <time>2022-09-18T09:26:00.000Z</time>
      </trkpt>
      <trkpt lat="47.32021" lon="-2.32193">
        <ele>-0.80000001192093</ele>
        <time>2022-09-18T09:26:05.000Z</time>
      </trkpt>
      <trkpt lat="47.32" lon="-2.3221">
        <ele>-0.80000001192093</ele>
        <time>2022-09-18T09:26:09.000Z</time>
      </trkpt>
      <trkpt lat="47.31977" lon="-2.32233">
        <ele>-0.40000000596046</ele>
        <time>2022-09-18T09:26:14.000Z</time>
      </trkpt>
      <trkpt lat="47.31973" lon="-2.32238">
        <ele>16</ele>
        <time>2022-09-18T09:26:15.000Z</time>
      </trkpt>
      <trkpt lat="47.3197" lon="-2.32243">
        <ele>0.40000000596046</ele>
        <time>2022-09-18T09:26:16.000Z</time>
      </trkpt>
      <trkpt lat="47.31967" lon="-2.32248">
        <ele>1</ele>
        <time>2022-09-18T09:26:17.000Z</time>
      </trkpt>
      <trkpt lat="47.31964" lon="-2.32253">
        <ele>1.3999999761581</ele>
        <time>2022-09-18T09:26:18.000Z</time>
      </trkpt>
      <trkpt lat="47.31961" lon="-2.32258">
        <ele>1.7999999523163</ele>
        <time>2022-09-18T09:26:19.000Z</time>
      </trkpt>
      <trkpt lat="47.31958" lon="-2.32262">
        <ele>2.2000000476837</ele>
        <time>2022-09-18T09:26:20.000Z</time>
      </trkpt>
      <trkpt lat="47.31955" lon="-2.32264">
        <ele>2.5999999046326</ele>
        <time>2022-09-18T09:26:21.000Z</time>
      </trkpt>
      <trkpt lat="47.31952" lon="-2.32262">
        <ele>3</ele>
        <time>2022-09-18T09:26:22.000Z</time>
      </trkpt>
      <trkpt lat="47.31949" lon="-2.32258">
        <ele>3.4000000953674</ele>
        <time>2022-09-18T09:26:23.000Z</time>
      </trkpt>
      <trkpt lat="47.31949" lon="-2.32253">
        <ele>3.7999999523163</ele>
        <time>2022-09-18T09:26:24.000Z</time>
      </trkpt>
      <trkpt lat="47.31949" lon="-2.32248">
        <ele>4.4000000953674</ele>
        <time>2022-09-18T09:26:25.000Z</time>
      </trkpt>
      <trkpt lat="47.3195" lon="-2.32244">
        <ele>4.8000001907349</ele>
        <time>2022-09-18T09:26:26.000Z</time>
      </trkpt>
      <trkpt lat="47.31952" lon="-2.32239">
        <ele>5.4000000953674</ele>
        <time>2022-09-18T09:26:27.000Z</time>
      </trkpt>
      <trkpt lat="47.31954" lon="-2.32234">
        <ele>5.8000001907349</ele>
        <time>2022-09-18T09:26:28.000Z</time>
      </trkpt>
      <trkpt lat="47.31956" lon="-2.32223">
        <ele>5.8000001907349</ele>
        <time>2022-09-18T09:26:30.000Z</time>
      </trkpt>
      <trkpt lat="47.3195" lon="-2.32213">
        <ele>5.8000001907349</ele>
        <time>2022-09-18T09:26:33.000Z</time>
      </trkpt>
      <trkpt lat="47.31938" lon="-2.32211">
        <ele>5.8000001907349</ele>
        <time>2022-09-18T09:26:36.000Z</time>
      </trkpt>
      <trkpt lat="47.31934" lon="-2.32211">
        <ele>6.1999998092651</ele>
        <time>2022-09-18T09:26:37.000Z</time>
      </trkpt>
      <trkpt lat="47.3193" lon="-2.3221">
        <ele>7.1999998092651</ele>
        <time>2022-09-18T09:26:38.000Z</time>
      </trkpt>
      <trkpt lat="47.31927" lon="-2.32208">
        <ele>7.5999999046326</ele>
        <time>2022-09-18T09:26:39.000Z</time>
      </trkpt>
      <trkpt lat="47.31923" lon="-2.32207">
        <ele>8</ele>
        <time>2022-09-18T09:26:40.000Z</time>
      </trkpt>
      <trkpt lat="47.31908" lon="-2.32205">
        <ele>8.3999996185303</ele>
        <time>2022-09-18T09:26:44.000Z</time>
      </trkpt>
      <trkpt lat="47.31905" lon="-2.32205">
        <ele>8.8000001907349</ele>
        <time>2022-09-18T09:26:45.000Z</time>
      </trkpt>
      <trkpt lat="47.31901" lon="-2.32206">
        <ele>9.3999996185303</ele>
        <time>2022-09-18T09:26:46.000Z</time>
      </trkpt>
      <trkpt lat="47.31898" lon="-2.32206">
        <ele>9.8000001907349</ele>
        <time>2022-09-18T09:26:47.000Z</time>
      </trkpt>
      <trkpt lat="47.31895" lon="-2.32208">
        <ele>10.199999809265</ele>
        <time>2022-09-18T09:26:48.000Z</time>
      </trkpt>
      <trkpt lat="47.31891" lon="-2.32209">
        <ele>10.199999809265</ele>
        <time>2022-09-18T09:26:49.000Z</time>
      </trkpt>
      <trkpt lat="47.31873" lon="-2.32214">
        <ele>10.60000038147</ele>
        <time>2022-09-18T09:26:54.000Z</time>
      </trkpt>
      <trkpt lat="47.31869" lon="-2.32215">
        <ele>11</ele>
        <time>2022-09-18T09:26:55.000Z</time>
      </trkpt>
      <trkpt lat="47.31865" lon="-2.32216">
        <ele>11.39999961853</ele>
        <time>2022-09-18T09:26:56.000Z</time>
      </trkpt>
      <trkpt lat="47.31862" lon="-2.32217">
        <ele>11.800000190735</ele>
        <time>2022-09-18T09:26:57.000Z</time>
      </trkpt>
      <trkpt lat="47.31858" lon="-2.32218">
        <ele>12.39999961853</ele>
        <time>2022-09-18T09:26:58.000Z</time>
      </trkpt>
      <trkpt lat="47.31848" lon="-2.32222">
        <ele>12.39999961853</ele>
        <time>2022-09-18T09:27:01.000Z</time>
      </trkpt>
      <trkpt lat="47.31845" lon="-2.32222">
        <ele>12.800000190735</ele>
        <time>2022-09-18T09:27:02.000Z</time>
      </trkpt>
      <trkpt lat="47.31842" lon="-2.32223">
        <ele>13.60000038147</ele>
        <time>2022-09-18T09:27:03.000Z</time>
      </trkpt>
      <trkpt lat="47.31839" lon="-2.32224">
        <ele>14</ele>
        <time>2022-09-18T09:27:04.000Z</time>
      </trkpt>
      <trkpt lat="47.31837" lon="-2.32225">
        <ele>14.39999961853</ele>
        <time>2022-09-18T09:27:05.000Z</time>
      </trkpt>
      <trkpt lat="47.31824" lon="-2.32225">
        <ele>14.39999961853</ele>
        <time>2022-09-18T09:27:09.000Z</time>
      </trkpt>
      <trkpt lat="47.31821" lon="-2.32225">
        <ele>14.800000190735</ele>
        <time>2022-09-18T09:27:10.000Z</time>
      </trkpt>
      <trkpt lat="47.31817" lon="-2.32225">
        <ele>15.199999809265</ele>
        <time>2022-09-18T09:27:11.000Z</time>
      </trkpt>
      <trkpt lat="47.31814" lon="-2.32226">
        <ele>15.60000038147</ele>
        <time>2022-09-18T09:27:12.000Z</time>
      </trkpt>
      <trkpt lat="47.3181" lon="-2.32226">
        <ele>16</ele>
        <time>2022-09-18T09:27:13.000Z</time>
      </trkpt>
      <trkpt lat="47.31807" lon="-2.32227">
        <ele>16.39999961853</ele>
        <time>2022-09-18T09:27:14.000Z</time>
      </trkpt>
      <trkpt lat="47.31799" lon="-2.32228">
        <ele>16.39999961853</ele>
        <time>2022-09-18T09:27:16.000Z</time>
      </trkpt>
      <trkpt lat="47.31781" lon="-2.32229">
        <ele>16.39999961853</ele>
        <time>2022-09-18T09:27:21.000Z</time>
      </trkpt>
      <trkpt lat="47.31762" lon="-2.32233">
        <ele>16.799999237061</ele>
        <time>2022-09-18T09:27:26.000Z</time>
      </trkpt>
      <trkpt lat="47.31758" lon="-2.32234">
        <ele>17.39999961853</ele>
        <time>2022-09-18T09:27:27.000Z</time>
      </trkpt>
      <trkpt lat="47.31755" lon="-2.32236">
        <ele>18.200000762939</ele>
        <time>2022-09-18T09:27:28.000Z</time>
      </trkpt>
      <trkpt lat="47.31753" lon="-2.3224">
        <ele>18.60000038147</ele>
        <time>2022-09-18T09:27:29.000Z</time>
      </trkpt>
      <trkpt lat="47.31753" lon="-2.32245">
        <ele>18.60000038147</ele>
        <time>2022-09-18T09:27:30.000Z</time>
      </trkpt>
      <trkpt lat="47.31758" lon="-2.32269">
        <ele>18.60000038147</ele>
        <time>2022-09-18T09:27:34.000Z</time>
      </trkpt>
      <trkpt lat="47.3176" lon="-2.32285">
        <ele>18.60000038147</ele>
        <time>2022-09-18T09:27:36.000Z</time>
      </trkpt>
      <trkpt lat="47.31764" lon="-2.32308">
        <ele>18.60000038147</ele>
        <time>2022-09-18T09:27:39.000Z</time>
      </trkpt>
      <trkpt lat="47.31771" lon="-2.32344">
        <ele>18.60000038147</ele>
        <time>2022-09-18T09:27:44.000Z</time>
      </trkpt>
      <trkpt lat="47.3178" lon="-2.32399">
        <ele>18.200000762939</ele>
        <time>2022-09-18T09:27:51.000Z</time>
      </trkpt>
      <trkpt lat="47.31782" lon="-2.32407">
        <ele>17.60000038147</ele>
        <time>2022-09-18T09:27:52.000Z</time>
      </trkpt>
      <trkpt lat="47.31784" lon="-2.32417">
        <ele>16.799999237061</ele>
        <time>2022-09-18T09:27:53.000Z</time>
      </trkpt>
      <trkpt lat="47.31785" lon="-2.32426">
        <ele>16.39999961853</ele>
        <time>2022-09-18T09:27:54.000Z</time>
      </trkpt>
      <trkpt lat="47.31786" lon="-2.32435">
        <ele>16.39999961853</ele>
        <time>2022-09-18T09:27:55.000Z</time>
      </trkpt>
      <trkpt lat="47.3179" lon="-2.32453">
        <ele>16.39999961853</ele>
        <time>2022-09-18T09:27:57.000Z</time>
      </trkpt>
      <trkpt lat="47.31792" lon="-2.32462">
        <ele>16</ele>
        <time>2022-09-18T09:27:58.000Z</time>
      </trkpt>
      <trkpt lat="47.31794" lon="-2.32471">
        <ele>15.60000038147</ele>
        <time>2022-09-18T09:27:59.000Z</time>
      </trkpt>
      <trkpt lat="47.31797" lon="-2.3248">
        <ele>15.199999809265</ele>
        <time>2022-09-18T09:28:00.000Z</time>
      </trkpt>
      <trkpt lat="47.31799" lon="-2.32489">
        <ele>14.60000038147</ele>
        <time>2022-09-18T09:28:01.000Z</time>
      </trkpt>
      <trkpt lat="47.31802" lon="-2.32498">
        <ele>14</ele>
        <time>2022-09-18T09:28:02.000Z</time>
      </trkpt>
      <trkpt lat="47.31804" lon="-2.32508">
        <ele>13.39999961853</ele>
        <time>2022-09-18T09:28:03.000Z</time>
      </trkpt>
      <trkpt lat="47.31807" lon="-2.32518">
        <ele>12.800000190735</ele>
        <time>2022-09-18T09:28:04.000Z</time>
      </trkpt>
      <trkpt lat="47.31809" lon="-2.32528">
        <ele>12.199999809265</ele>
        <time>2022-09-18T09:28:05.000Z</time>
      </trkpt>
      <trkpt lat="47.31812" lon="-2.32539">
        <ele>12.199999809265</ele>
        <time>2022-09-18T09:28:06.000Z</time>
      </trkpt>
      <trkpt lat="47.31818" lon="-2.32561">
        <ele>12.199999809265</ele>
        <time>2022-09-18T09:28:08.000Z</time>
      </trkpt>
      <trkpt lat="47.3182" lon="-2.32572">
        <ele>11.800000190735</ele>
        <time>2022-09-18T09:28:09.000Z</time>
      </trkpt>
      <trkpt lat="47.31822" lon="-2.32582">
        <ele>11.39999961853</ele>
        <time>2022-09-18T09:28:10.000Z</time>
      </trkpt>
      <trkpt lat="47.31824" lon="-2.32593">
        <ele>11</ele>
        <time>2022-09-18T09:28:11.000Z</time>
      </trkpt>
      <trkpt lat="47.31826" lon="-2.32603">
        <ele>10.60000038147</ele>
        <time>2022-09-18T09:28:12.000Z</time>
      </trkpt>
      <trkpt lat="47.31829" lon="-2.32613">
        <ele>10.199999809265</ele>
        <time>2022-09-18T09:28:13.000Z</time>
      </trkpt>
      <trkpt lat="47.31837" lon="-2.32653">
        <ele>9.6000003814697</ele>
        <time>2022-09-18T09:28:17.000Z</time>
      </trkpt>
      <trkpt lat="47.3184" lon="-2.32662">
        <ele>9.1999998092651</ele>
        <time>2022-09-18T09:28:18.000Z</time>
      </trkpt>
      <trkpt lat="47.31843" lon="-2.32671">
        <ele>8.8000001907349</ele>
        <time>2022-09-18T09:28:19.000Z</time>
      </trkpt>
      <trkpt lat="47.31847" lon="-2.32679">
        <ele>8.3999996185303</ele>
        <time>2022-09-18T09:28:20.000Z</time>
      </trkpt>
      <trkpt lat="47.31851" lon="-2.32688">
        <ele>8</ele>
        <time>2022-09-18T09:28:21.000Z</time>
      </trkpt>
      <trkpt lat="47.31869" lon="-2.3273">
        <ele>8</ele>
        <time>2022-09-18T09:28:26.000Z</time>
      </trkpt>
      <trkpt lat="47.31874" lon="-2.32748">
        <ele>8</ele>
        <time>2022-09-18T09:28:28.000Z</time>
      </trkpt>
      <trkpt lat="47.31877" lon="-2.32759">
        <ele>7.5999999046326</ele>
        <time>2022-09-18T09:28:29.000Z</time>
      </trkpt>
      <trkpt lat="47.31878" lon="-2.3277">
        <ele>7.1999998092651</ele>
        <time>2022-09-18T09:28:30.000Z</time>
      </trkpt>
      <trkpt lat="47.31879" lon="-2.32782">
        <ele>6.8000001907349</ele>
        <time>2022-09-18T09:28:31.000Z</time>
      </trkpt>
      <trkpt lat="47.3188" lon="-2.32794">
        <ele>6.4000000953674</ele>
        <time>2022-09-18T09:28:32.000Z</time>
      </trkpt>
      <trkpt lat="47.31882" lon="-2.32806">
        <ele>6</ele>
        <time>2022-09-18T09:28:33.000Z</time>
      </trkpt>
      <trkpt lat="47.31884" lon="-2.32829">
        <ele>6</ele>
        <time>2022-09-18T09:28:35.000Z</time>
      </trkpt>
      <trkpt lat="47.31886" lon="-2.32894">
        <ele>6</ele>
        <time>2022-09-18T09:28:41.000Z</time>
      </trkpt>
      <trkpt lat="47.31887" lon="-2.32943">
        <ele>6</ele>
        <time>2022-09-18T09:28:46.000Z</time>
      </trkpt>
      <trkpt lat="47.31886" lon="-2.32953">
        <ele>6</ele>
        <time>2022-09-18T09:28:47.000Z</time>
      </trkpt>
      <trkpt lat="47.31884" lon="-2.32973">
        <ele>5.5999999046326</ele>
        <time>2022-09-18T09:28:49.000Z</time>
      </trkpt>
      <trkpt lat="47.31883" lon="-2.32982">
        <ele>5.1999998092651</ele>
        <time>2022-09-18T09:28:50.000Z</time>
      </trkpt>
      <trkpt lat="47.31883" lon="-2.32993">
        <ele>4.8000001907349</ele>
        <time>2022-09-18T09:28:51.000Z</time>
      </trkpt>
      <trkpt lat="47.31883" lon="-2.33004">
        <ele>4.1999998092651</ele>
        <time>2022-09-18T09:28:52.000Z</time>
      </trkpt>
      <trkpt lat="47.31883" lon="-2.33015">
        <ele>3.7999999523163</ele>
        <time>2022-09-18T09:28:53.000Z</time>
      </trkpt>
      <trkpt lat="47.31883" lon="-2.33035">
        <ele>3.7999999523163</ele>
        <time>2022-09-18T09:28:55.000Z</time>
      </trkpt>
      <trkpt lat="47.31881" lon="-2.33055">
        <ele>3.7999999523163</ele>
        <time>2022-09-18T09:28:57.000Z</time>
      </trkpt>
      <trkpt lat="47.31878" lon="-2.33099">
        <ele>3.7999999523163</ele>
        <time>2022-09-18T09:29:02.000Z</time>
      </trkpt>
      <trkpt lat="47.31873" lon="-2.3314">
        <ele>3.7999999523163</ele>
        <time>2022-09-18T09:29:07.000Z</time>
      </trkpt>
      <trkpt lat="47.3187" lon="-2.33155">
        <ele>4.1999998092651</ele>
        <time>2022-09-18T09:29:09.000Z</time>
      </trkpt>
      <trkpt lat="47.31869" lon="-2.33163">
        <ele>4.8000001907349</ele>
        <time>2022-09-18T09:29:10.000Z</time>
      </trkpt>
      <trkpt lat="47.31868" lon="-2.3317">
        <ele>5.1999998092651</ele>
        <time>2022-09-18T09:29:11.000Z</time>
      </trkpt>
      <trkpt lat="47.31867" lon="-2.33177">
        <ele>5.5999999046326</ele>
        <time>2022-09-18T09:29:12.000Z</time>
      </trkpt>
      <trkpt lat="47.31867" lon="-2.33185">
        <ele>6</ele>
        <time>2022-09-18T09:29:13.000Z</time>
      </trkpt>
      <trkpt lat="47.31862" lon="-2.33223">
        <ele>6</ele>
        <time>2022-09-18T09:29:18.000Z</time>
      </trkpt>
      <trkpt lat="47.31861" lon="-2.33229">
        <ele>6.5999999046326</ele>
        <time>2022-09-18T09:29:19.000Z</time>
      </trkpt>
      <trkpt lat="47.31859" lon="-2.33236">
        <ele>7</ele>
        <time>2022-09-18T09:29:20.000Z</time>
      </trkpt>
      <trkpt lat="47.31858" lon="-2.33242">
        <ele>7.4000000953674</ele>
        <time>2022-09-18T09:29:21.000Z</time>
      </trkpt>
      <trkpt lat="47.31855" lon="-2.33248">
        <ele>7.8000001907349</ele>
        <time>2022-09-18T09:29:22.000Z</time>
      </trkpt>
      <trkpt lat="47.31853" lon="-2.33252">
        <ele>8.1999998092651</ele>
        <time>2022-09-18T09:29:23.000Z</time>
      </trkpt>
      <trkpt lat="47.3185" lon="-2.33258">
        <ele>8.1999998092651</ele>
        <time>2022-09-18T09:29:25.000Z</time>
      </trkpt>
      <trkpt lat="47.31848" lon="-2.33262">
        <ele>8.1999998092651</ele>
        <time>2022-09-18T09:29:29.000Z</time>
      </trkpt>
      <trkpt lat="47.31846" lon="-2.33267">
        <ele>8.1999998092651</ele>
        <time>2022-09-18T09:29:36.000Z</time>
      </trkpt>
      <trkpt lat="47.31838" lon="-2.33283">
        <ele>8.1999998092651</ele>
        <time>2022-09-18T09:29:40.000Z</time>
      </trkpt>
      <trkpt lat="47.31827" lon="-2.33295">
        <ele>8.6000003814697</ele>
        <time>2022-09-18T09:29:44.000Z</time>
      </trkpt>
      <trkpt lat="47.31824" lon="-2.33298">
        <ele>9</ele>
        <time>2022-09-18T09:29:45.000Z</time>
      </trkpt>
      <trkpt lat="47.31821" lon="-2.33301">
        <ele>9.3999996185303</ele>
        <time>2022-09-18T09:29:46.000Z</time>
      </trkpt>
      <trkpt lat="47.31818" lon="-2.33304">
        <ele>9.8000001907349</ele>
        <time>2022-09-18T09:29:47.000Z</time>
      </trkpt>
      <trkpt lat="47.31815" lon="-2.33307">
        <ele>10.199999809265</ele>
        <time>2022-09-18T09:29:48.000Z</time>
      </trkpt>
      <trkpt lat="47.31806" lon="-2.33315">
        <ele>10.199999809265</ele>
        <time>2022-09-18T09:29:51.000Z</time>
      </trkpt>
      <trkpt lat="47.31803" lon="-2.33316">
        <ele>10.60000038147</ele>
        <time>2022-09-18T09:29:53.000Z</time>
      </trkpt>
      <trkpt lat="47.31801" lon="-2.33319">
        <ele>11</ele>
        <time>2022-09-18T09:29:54.000Z</time>
      </trkpt>
      <trkpt lat="47.31798" lon="-2.33322">
        <ele>11.60000038147</ele>
        <time>2022-09-18T09:29:55.000Z</time>
      </trkpt>
      <trkpt lat="47.31796" lon="-2.33324">
        <ele>12</ele>
        <time>2022-09-18T09:29:56.000Z</time>
      </trkpt>
      <trkpt lat="47.31792" lon="-2.33326">
        <ele>12.39999961853</ele>
        <time>2022-09-18T09:29:57.000Z</time>
      </trkpt>
      <trkpt lat="47.31781" lon="-2.33326">
        <ele>12.800000190735</ele>
        <time>2022-09-18T09:30:00.000Z</time>
      </trkpt>
      <trkpt lat="47.31777" lon="-2.33324">
        <ele>13.199999809265</ele>
        <time>2022-09-18T09:30:01.000Z</time>
      </trkpt>
      <trkpt lat="47.31774" lon="-2.33322">
        <ele>13.800000190735</ele>
        <time>2022-09-18T09:30:02.000Z</time>
      </trkpt>
      <trkpt lat="47.3177" lon="-2.33319">
        <ele>14.199999809265</ele>
        <time>2022-09-18T09:30:03.000Z</time>
      </trkpt>
      <trkpt lat="47.31767" lon="-2.33315">
        <ele>14.60000038147</ele>
        <time>2022-09-18T09:30:04.000Z</time>
      </trkpt>
      <trkpt lat="47.31764" lon="-2.33311">
        <ele>14.60000038147</ele>
        <time>2022-09-18T09:30:05.000Z</time>
      </trkpt>
      <trkpt lat="47.31753" lon="-2.33286">
        <ele>14.60000038147</ele>
        <time>2022-09-18T09:30:11.000Z</time>
      </trkpt>
      <trkpt lat="47.31746" lon="-2.33261">
        <ele>15</ele>
        <time>2022-09-18T09:30:16.000Z</time>
      </trkpt>
      <trkpt lat="47.31744" lon="-2.33256">
        <ele>15.39999961853</ele>
        <time>2022-09-18T09:30:17.000Z</time>
      </trkpt>
      <trkpt lat="47.31741" lon="-2.33253">
        <ele>15.800000190735</ele>
        <time>2022-09-18T09:30:18.000Z</time>
      </trkpt>
      <trkpt lat="47.31737" lon="-2.33253">
        <ele>16.200000762939</ele>
        <time>2022-09-18T09:30:19.000Z</time>
      </trkpt>
      <trkpt lat="47.31733" lon="-2.33255">
        <ele>16.60000038147</ele>
        <time>2022-09-18T09:30:20.000Z</time>
      </trkpt>
      <trkpt lat="47.31727" lon="-2.33257">
        <ele>16.60000038147</ele>
        <time>2022-09-18T09:30:22.000Z</time>
      </trkpt>
      <trkpt lat="47.31723" lon="-2.33259">
        <ele>16.60000038147</ele>
        <time>2022-09-18T09:30:23.000Z</time>
      </trkpt>
      <trkpt lat="47.31709" lon="-2.3326">
        <ele>16.60000038147</ele>
        <time>2022-09-18T09:30:27.000Z</time>
      </trkpt>
      <trkpt lat="47.31703" lon="-2.33263">
        <ele>17</ele>
        <time>2022-09-18T09:30:29.000Z</time>
      </trkpt>
      <trkpt lat="47.317" lon="-2.33264">
        <ele>17.60000038147</ele>
        <time>2022-09-18T09:30:30.000Z</time>
      </trkpt>
      <trkpt lat="47.31695" lon="-2.33265">
        <ele>18</ele>
        <time>2022-09-18T09:30:31.000Z</time>
      </trkpt>
      <trkpt lat="47.31691" lon="-2.33267">
        <ele>18.39999961853</ele>
        <time>2022-09-18T09:30:32.000Z</time>
      </trkpt>
      <trkpt lat="47.31688" lon="-2.33268">
        <ele>18.799999237061</ele>
        <time>2022-09-18T09:30:33.000Z</time>
      </trkpt>
      <trkpt lat="47.31676" lon="-2.33274">
        <ele>18.799999237061</ele>
        <time>2022-09-18T09:30:36.000Z</time>
      </trkpt>
      <trkpt lat="47.31666" lon="-2.33278">
        <ele>18.799999237061</ele>
        <time>2022-09-18T09:30:38.000Z</time>
      </trkpt>
      <trkpt lat="47.3164" lon="-2.33292">
        <ele>19.200000762939</ele>
        <time>2022-09-18T09:30:44.000Z</time>
      </trkpt>
      <trkpt lat="47.31635" lon="-2.33294">
        <ele>19.60000038147</ele>
        <time>2022-09-18T09:30:45.000Z</time>
      </trkpt>
      <trkpt lat="47.31631" lon="-2.33296">
        <ele>20</ele>
        <time>2022-09-18T09:30:46.000Z</time>
      </trkpt>
      <trkpt lat="47.31626" lon="-2.33299">
        <ele>20.799999237061</ele>
        <time>2022-09-18T09:30:47.000Z</time>
      </trkpt>
      <trkpt lat="47.31605" lon="-2.33312">
        <ele>20.799999237061</ele>
        <time>2022-09-18T09:30:52.000Z</time>
      </trkpt>
      <trkpt lat="47.31571" lon="-2.3333">
        <ele>20.799999237061</ele>
        <time>2022-09-18T09:30:59.000Z</time>
      </trkpt>
      <trkpt lat="47.31524" lon="-2.3335">
        <ele>20.799999237061</ele>
        <time>2022-09-18T09:31:08.000Z</time>
      </trkpt>
      <trkpt lat="47.31489" lon="-2.33372">
        <ele>20.799999237061</ele>
        <time>2022-09-18T09:31:16.000Z</time>
      </trkpt>
      <trkpt lat="47.31484" lon="-2.33373">
        <ele>20.799999237061</ele>
        <time>2022-09-18T09:31:19.000Z</time>
      </trkpt>
      <trkpt lat="47.31483" lon="-2.33372">
        <ele>20.799999237061</ele>
        <time>2022-09-18T09:31:21.000Z</time>
      </trkpt>
      <trkpt lat="47.31481" lon="-2.33369">
        <ele>20.799999237061</ele>
        <time>2022-09-18T09:32:41.000Z</time>
      </trkpt>
      <trkpt lat="47.3148" lon="-2.33367">
        <ele>20.799999237061</ele>
        <time>2022-09-18T09:32:42.000Z</time>
      </trkpt>
      <trkpt lat="47.3147" lon="-2.33351">
        <ele>20.799999237061</ele>
        <time>2022-09-18T09:32:47.000Z</time>
      </trkpt>
      <trkpt lat="47.31464" lon="-2.33336">
        <ele>20.799999237061</ele>
        <time>2022-09-18T09:32:50.000Z</time>
      </trkpt>
      <trkpt lat="47.31457" lon="-2.33321">
        <ele>20.799999237061</ele>
        <time>2022-09-18T09:32:53.000Z</time>
      </trkpt>
      <trkpt lat="47.31445" lon="-2.333">
        <ele>20.799999237061</ele>
        <time>2022-09-18T09:32:57.000Z</time>
      </trkpt>
      <trkpt lat="47.31441" lon="-2.33294">
        <ele>20.799999237061</ele>
        <time>2022-09-18T09:32:58.000Z</time>
      </trkpt>
      <trkpt lat="47.31432" lon="-2.33283">
        <ele>20.799999237061</ele>
        <time>2022-09-18T09:33:00.000Z</time>
      </trkpt>
      <trkpt lat="47.31422" lon="-2.33273">
        <ele>20.799999237061</ele>
        <time>2022-09-18T09:33:02.000Z</time>
      </trkpt>
      <trkpt lat="47.31388" lon="-2.33249">
        <ele>20.799999237061</ele>
        <time>2022-09-18T09:33:08.000Z</time>
      </trkpt>
      <trkpt lat="47.31351" lon="-2.33222">
        <ele>20.799999237061</ele>
        <time>2022-09-18T09:33:15.000Z</time>
      </trkpt>
      <trkpt lat="47.3132" lon="-2.33195">
        <ele>20.799999237061</ele>
        <time>2022-09-18T09:33:21.000Z</time>
      </trkpt>
      <trkpt lat="47.31289" lon="-2.33168">
        <ele>20.39999961853</ele>
        <time>2022-09-18T09:33:27.000Z</time>
      </trkpt>
      <trkpt lat="47.31283" lon="-2.33165">
        <ele>20</ele>
        <time>2022-09-18T09:33:28.000Z</time>
      </trkpt>
      <trkpt lat="47.31277" lon="-2.33161">
        <ele>19.60000038147</ele>
        <time>2022-09-18T09:33:29.000Z</time>
      </trkpt>
      <trkpt lat="47.3127" lon="-2.33158">
        <ele>19.200000762939</ele>
        <time>2022-09-18T09:33:30.000Z</time>
      </trkpt>
      <trkpt lat="47.31265" lon="-2.33155">
        <ele>18.799999237061</ele>
        <time>2022-09-18T09:33:31.000Z</time>
      </trkpt>
      <trkpt lat="47.31259" lon="-2.33154">
        <ele>18.799999237061</ele>
        <time>2022-09-18T09:33:32.000Z</time>
      </trkpt>
      <trkpt lat="47.31247" lon="-2.33152">
        <ele>18.799999237061</ele>
        <time>2022-09-18T09:33:34.000Z</time>
      </trkpt>
      <trkpt lat="47.31206" lon="-2.33153">
        <ele>18.799999237061</ele>
        <time>2022-09-18T09:33:41.000Z</time>
      </trkpt>
      <trkpt lat="47.31166" lon="-2.33177">
        <ele>18.799999237061</ele>
        <time>2022-09-18T09:33:48.000Z</time>
      </trkpt>
      <trkpt lat="47.31141" lon="-2.33193">
        <ele>18.799999237061</ele>
        <time>2022-09-18T09:33:53.000Z</time>
      </trkpt>
      <trkpt lat="47.31137" lon="-2.33196">
        <ele>18.799999237061</ele>
        <time>2022-09-18T09:33:54.000Z</time>
      </trkpt>
      <trkpt lat="47.31115" lon="-2.33209">
        <ele>18.799999237061</ele>
        <time>2022-09-18T09:33:59.000Z</time>
      </trkpt>
      <trkpt lat="47.31112" lon="-2.33213">
        <ele>18.799999237061</ele>
        <time>2022-09-18T09:34:00.000Z</time>
      </trkpt>
      <trkpt lat="47.31107" lon="-2.33233">
        <ele>18.799999237061</ele>
        <time>2022-09-18T09:34:03.000Z</time>
      </trkpt>
      <trkpt lat="47.31106" lon="-2.3324">
        <ele>18.799999237061</ele>
        <time>2022-09-18T09:34:04.000Z</time>
      </trkpt>
      <trkpt lat="47.31102" lon="-2.33292">
        <ele>18.799999237061</ele>
        <time>2022-09-18T09:34:11.000Z</time>
      </trkpt>
      <trkpt lat="47.311" lon="-2.33316">
        <ele>19.200000762939</ele>
        <time>2022-09-18T09:34:14.000Z</time>
      </trkpt>
      <trkpt lat="47.311" lon="-2.33323">
        <ele>19.60000038147</ele>
        <time>2022-09-18T09:34:15.000Z</time>
      </trkpt>
      <trkpt lat="47.311" lon="-2.33332">
        <ele>20.200000762939</ele>
        <time>2022-09-18T09:34:16.000Z</time>
      </trkpt>
      <trkpt lat="47.31099" lon="-2.33339">
        <ele>20.60000038147</ele>
        <time>2022-09-18T09:34:17.000Z</time>
      </trkpt>
      <trkpt lat="47.31099" lon="-2.33347">
        <ele>21</ele>
        <time>2022-09-18T09:34:18.000Z</time>
      </trkpt>
      <trkpt lat="47.31098" lon="-2.33371">
        <ele>21</ele>
        <time>2022-09-18T09:34:21.000Z</time>
      </trkpt>
      <trkpt lat="47.31098" lon="-2.33411">
        <ele>21</ele>
        <time>2022-09-18T09:34:26.000Z</time>
      </trkpt>
      <trkpt lat="47.311" lon="-2.33468">
        <ele>21.39999961853</ele>
        <time>2022-09-18T09:34:33.000Z</time>
      </trkpt>
      <trkpt lat="47.31101" lon="-2.33475">
        <ele>21.799999237061</ele>
        <time>2022-09-18T09:34:34.000Z</time>
      </trkpt>
      <trkpt lat="47.31102" lon="-2.33482">
        <ele>22.200000762939</ele>
        <time>2022-09-18T09:34:35.000Z</time>
      </trkpt>
      <trkpt lat="47.31103" lon="-2.33488">
        <ele>22.60000038147</ele>
        <time>2022-09-18T09:34:36.000Z</time>
      </trkpt>
      <trkpt lat="47.31104" lon="-2.33495">
        <ele>23</ele>
        <time>2022-09-18T09:34:37.000Z</time>
      </trkpt>
      <trkpt lat="47.31105" lon="-2.33503">
        <ele>23</ele>
        <time>2022-09-18T09:34:38.000Z</time>
      </trkpt>
      <trkpt lat="47.31112" lon="-2.33551">
        <ele>23</ele>
        <time>2022-09-18T09:34:44.000Z</time>
      </trkpt>
      <trkpt lat="47.31111" lon="-2.33595">
        <ele>23</ele>
        <time>2022-09-18T09:34:49.000Z</time>
      </trkpt>
      <trkpt lat="47.31107" lon="-2.33653">
        <ele>23</ele>
        <time>2022-09-18T09:34:55.000Z</time>
      </trkpt>
      <trkpt lat="47.31104" lon="-2.33681">
        <ele>23</ele>
        <time>2022-09-18T09:34:58.000Z</time>
      </trkpt>
      <trkpt lat="47.31102" lon="-2.33699">
        <ele>23</ele>
        <time>2022-09-18T09:35:00.000Z</time>
      </trkpt>
      <trkpt lat="47.31101" lon="-2.33708">
        <ele>23</ele>
        <time>2022-09-18T09:35:01.000Z</time>
      </trkpt>
      <trkpt lat="47.31095" lon="-2.33742">
        <ele>23</ele>
        <time>2022-09-18T09:35:05.000Z</time>
      </trkpt>
      <trkpt lat="47.31091" lon="-2.33757">
        <ele>23</ele>
        <time>2022-09-18T09:35:07.000Z</time>
      </trkpt>
      <trkpt lat="47.31081" lon="-2.33778">
        <ele>23</ele>
        <time>2022-09-18T09:35:10.000Z</time>
      </trkpt>
      <trkpt lat="47.31067" lon="-2.33826">
        <ele>23</ele>
        <time>2022-09-18T09:35:16.000Z</time>
      </trkpt>
      <trkpt lat="47.31063" lon="-2.33875">
        <ele>23</ele>
        <time>2022-09-18T09:35:22.000Z</time>
      </trkpt>
      <trkpt lat="47.3106" lon="-2.33934">
        <ele>23</ele>
        <time>2022-09-18T09:35:29.000Z</time>
      </trkpt>
      <trkpt lat="47.31048" lon="-2.33949">
        <ele>23</ele>
        <time>2022-09-18T09:35:32.000Z</time>
      </trkpt>
      <trkpt lat="47.31042" lon="-2.33952">
        <ele>23</ele>
        <time>2022-09-18T09:35:33.000Z</time>
      </trkpt>
      <trkpt lat="47.31037" lon="-2.33953">
        <ele>23</ele>
        <time>2022-09-18T09:35:34.000Z</time>
      </trkpt>
      <trkpt lat="47.3103" lon="-2.33954">
        <ele>23.39999961853</ele>
        <time>2022-09-18T09:35:35.000Z</time>
      </trkpt>
      <trkpt lat="47.31023" lon="-2.33955">
        <ele>23.799999237061</ele>
        <time>2022-09-18T09:35:36.000Z</time>
      </trkpt>
      <trkpt lat="47.31017" lon="-2.33955">
        <ele>24.39999961853</ele>
        <time>2022-09-18T09:35:37.000Z</time>
      </trkpt>
      <trkpt lat="47.31011" lon="-2.33956">
        <ele>24.799999237061</ele>
        <time>2022-09-18T09:35:38.000Z</time>
      </trkpt>
      <trkpt lat="47.31004" lon="-2.33956">
        <ele>25.200000762939</ele>
        <time>2022-09-18T09:35:39.000Z</time>
      </trkpt>
      <trkpt lat="47.30985" lon="-2.33957">
        <ele>25.200000762939</ele>
        <time>2022-09-18T09:35:42.000Z</time>
      </trkpt>
      <trkpt lat="47.30973" lon="-2.33956">
        <ele>25.60000038147</ele>
        <time>2022-09-18T09:35:44.000Z</time>
      </trkpt>
      <trkpt lat="47.30966" lon="-2.33955">
        <ele>26</ele>
        <time>2022-09-18T09:35:45.000Z</time>
      </trkpt>
      <trkpt lat="47.30959" lon="-2.33955">
        <ele>26.39999961853</ele>
        <time>2022-09-18T09:35:46.000Z</time>
      </trkpt>
      <trkpt lat="47.30953" lon="-2.33953">
        <ele>26.799999237061</ele>
        <time>2022-09-18T09:35:47.000Z</time>
      </trkpt>
      <trkpt lat="47.30947" lon="-2.33952">
        <ele>27.200000762939</ele>
        <time>2022-09-18T09:35:48.000Z</time>
      </trkpt>
      <trkpt lat="47.30942" lon="-2.3395">
        <ele>27.200000762939</ele>
        <time>2022-09-18T09:35:49.000Z</time>
      </trkpt>
      <trkpt lat="47.30908" lon="-2.33947">
        <ele>27.200000762939</ele>
        <time>2022-09-18T09:35:55.000Z</time>
      </trkpt>
      <trkpt lat="47.30868" lon="-2.33951">
        <ele>27.200000762939</ele>
        <time>2022-09-18T09:36:02.000Z</time>
      </trkpt>
      <trkpt lat="47.30828" lon="-2.33959">
        <ele>27.200000762939</ele>
        <time>2022-09-18T09:36:09.000Z</time>
      </trkpt>
      <trkpt lat="47.30791" lon="-2.33969">
        <ele>27.200000762939</ele>
        <time>2022-09-18T09:36:16.000Z</time>
      </trkpt>
      <trkpt lat="47.30749" lon="-2.33978">
        <ele>27.200000762939</ele>
        <time>2022-09-18T09:36:23.000Z</time>
      </trkpt>
      <trkpt lat="47.30708" lon="-2.33991">
        <ele>27.200000762939</ele>
        <time>2022-09-18T09:36:30.000Z</time>
      </trkpt>
      <trkpt lat="47.3067" lon="-2.33995">
        <ele>27.200000762939</ele>
        <time>2022-09-18T09:36:37.000Z</time>
      </trkpt>
      <trkpt lat="47.30654" lon="-2.33994">
        <ele>27.200000762939</ele>
        <time>2022-09-18T09:36:40.000Z</time>
      </trkpt>
      <trkpt lat="47.30645" lon="-2.33988">
        <ele>27.200000762939</ele>
        <time>2022-09-18T09:36:42.000Z</time>
      </trkpt>
      <trkpt lat="47.3063" lon="-2.33973">
        <ele>27.200000762939</ele>
        <time>2022-09-18T09:36:46.000Z</time>
      </trkpt>
      <trkpt lat="47.30627" lon="-2.33969">
        <ele>27.200000762939</ele>
        <time>2022-09-18T09:36:47.000Z</time>
      </trkpt>
      <trkpt lat="47.30617" lon="-2.3396">
        <ele>26.799999237061</ele>
        <time>2022-09-18T09:36:50.000Z</time>
      </trkpt>
      <trkpt lat="47.30614" lon="-2.33954">
        <ele>26.39999961853</ele>
        <time>2022-09-18T09:36:51.000Z</time>
      </trkpt>
      <trkpt lat="47.30611" lon="-2.33946">
        <ele>26</ele>
        <time>2022-09-18T09:36:52.000Z</time>
      </trkpt>
      <trkpt lat="47.30609" lon="-2.33937">
        <ele>25.60000038147</ele>
        <time>2022-09-18T09:36:53.000Z</time>
      </trkpt>
      <trkpt lat="47.30607" lon="-2.33929">
        <ele>25.200000762939</ele>
        <time>2022-09-18T09:36:54.000Z</time>
      </trkpt>
      <trkpt lat="47.30603" lon="-2.33908">
        <ele>25.200000762939</ele>
        <time>2022-09-18T09:36:57.000Z</time>
      </trkpt>
      <trkpt lat="47.30603" lon="-2.33903">
        <ele>25.200000762939</ele>
        <time>2022-09-18T09:36:58.000Z</time>
      </trkpt>
      <trkpt lat="47.30602" lon="-2.339">
        <ele>25.200000762939</ele>
        <time>2022-09-18T09:37:01.000Z</time>
      </trkpt>
      <trkpt lat="47.30602" lon="-2.33899">
        <ele>25.200000762939</ele>
        <time>2022-09-18T09:37:02.000Z</time>
      </trkpt>
      <trkpt lat="47.306" lon="-2.33889">
        <ele>25.200000762939</ele>
        <time>2022-09-18T09:37:19.000Z</time>
      </trkpt>
      <trkpt lat="47.306" lon="-2.3388">
        <ele>25.200000762939</ele>
        <time>2022-09-18T09:37:22.000Z</time>
      </trkpt>
      <trkpt lat="47.30597" lon="-2.33855">
        <ele>25.200000762939</ele>
        <time>2022-09-18T09:37:27.000Z</time>
      </trkpt>
      <trkpt lat="47.30594" lon="-2.3385">
        <ele>25.200000762939</ele>
        <time>2022-09-18T09:37:28.000Z</time>
      </trkpt>
      <trkpt lat="47.30592" lon="-2.33838">
        <ele>25.200000762939</ele>
        <time>2022-09-18T09:37:30.000Z</time>
      </trkpt>
      <trkpt lat="47.30588" lon="-2.33826">
        <ele>25.200000762939</ele>
        <time>2022-09-18T09:37:32.000Z</time>
      </trkpt>
      <trkpt lat="47.30582" lon="-2.33802">
        <ele>25.200000762939</ele>
        <time>2022-09-18T09:37:35.000Z</time>
      </trkpt>
      <trkpt lat="47.30578" lon="-2.33785">
        <ele>25.200000762939</ele>
        <time>2022-09-18T09:37:37.000Z</time>
      </trkpt>
      <trkpt lat="47.30573" lon="-2.33756">
        <ele>25.200000762939</ele>
        <time>2022-09-18T09:37:40.000Z</time>
      </trkpt>
      <trkpt lat="47.30562" lon="-2.33706">
        <ele>25.200000762939</ele>
        <time>2022-09-18T09:37:45.000Z</time>
      </trkpt>
      <trkpt lat="47.30547" lon="-2.33652">
        <ele>25.200000762939</ele>
        <time>2022-09-18T09:37:51.000Z</time>
      </trkpt>
      <trkpt lat="47.30535" lon="-2.33651">
        <ele>25.200000762939</ele>
        <time>2022-09-18T09:37:54.000Z</time>
      </trkpt>
      <trkpt lat="47.30516" lon="-2.33655">
        <ele>25.200000762939</ele>
        <time>2022-09-18T09:37:57.000Z</time>
      </trkpt>
      <trkpt lat="47.30509" lon="-2.33657">
        <ele>25.200000762939</ele>
        <time>2022-09-18T09:37:58.000Z</time>
      </trkpt>
      <trkpt lat="47.3047" lon="-2.33671">
        <ele>25.200000762939</ele>
        <time>2022-09-18T09:38:04.000Z</time>
      </trkpt>
      <trkpt lat="47.30447" lon="-2.33683">
        <ele>25.200000762939</ele>
        <time>2022-09-18T09:38:08.000Z</time>
      </trkpt>
      <trkpt lat="47.30435" lon="-2.33688">
        <ele>25.200000762939</ele>
        <time>2022-09-18T09:38:10.000Z</time>
      </trkpt>
      <trkpt lat="47.30414" lon="-2.337">
        <ele>25.200000762939</ele>
        <time>2022-09-18T09:38:14.000Z</time>
      </trkpt>
      <trkpt lat="47.30406" lon="-2.33714">
        <ele>25.200000762939</ele>
        <time>2022-09-18T09:38:16.000Z</time>
      </trkpt>
      <trkpt lat="47.30399" lon="-2.33726">
        <ele>25.200000762939</ele>
        <time>2022-09-18T09:38:18.000Z</time>
      </trkpt>
      <trkpt lat="47.30379" lon="-2.33754">
        <ele>25.200000762939</ele>
        <time>2022-09-18T09:38:23.000Z</time>
      </trkpt>
      <trkpt lat="47.30354" lon="-2.33785">
        <ele>25.200000762939</ele>
        <time>2022-09-18T09:38:29.000Z</time>
      </trkpt>
      <trkpt lat="47.30331" lon="-2.33812">
        <ele>25.200000762939</ele>
        <time>2022-09-18T09:38:35.000Z</time>
      </trkpt>
      <trkpt lat="47.30327" lon="-2.33816">
        <ele>25.200000762939</ele>
        <time>2022-09-18T09:38:36.000Z</time>
      </trkpt>
      <trkpt lat="47.30312" lon="-2.33825">
        <ele>25.200000762939</ele>
        <time>2022-09-18T09:38:39.000Z</time>
      </trkpt>
      <trkpt lat="47.30301" lon="-2.33831">
        <ele>25.200000762939</ele>
        <time>2022-09-18T09:38:41.000Z</time>
      </trkpt>
      <trkpt lat="47.3027" lon="-2.33856">
        <ele>25.200000762939</ele>
        <time>2022-09-18T09:38:47.000Z</time>
      </trkpt>
      <trkpt lat="47.30243" lon="-2.33875">
        <ele>25.200000762939</ele>
        <time>2022-09-18T09:38:52.000Z</time>
      </trkpt>
      <trkpt lat="47.30237" lon="-2.3388">
        <ele>25.200000762939</ele>
        <time>2022-09-18T09:38:53.000Z</time>
      </trkpt>
      <trkpt lat="47.3022" lon="-2.33895">
        <ele>25.200000762939</ele>
        <time>2022-09-18T09:38:56.000Z</time>
      </trkpt>
      <trkpt lat="47.30209" lon="-2.33906">
        <ele>25.200000762939</ele>
        <time>2022-09-18T09:38:58.000Z</time>
      </trkpt>
      <trkpt lat="47.30181" lon="-2.33937">
        <ele>25.200000762939</ele>
        <time>2022-09-18T09:39:03.000Z</time>
      </trkpt>
      <trkpt lat="47.30169" lon="-2.33949">
        <ele>24.799999237061</ele>
        <time>2022-09-18T09:39:05.000Z</time>
      </trkpt>
      <trkpt lat="47.30162" lon="-2.33954">
        <ele>24.39999961853</ele>
        <time>2022-09-18T09:39:06.000Z</time>
      </trkpt>
      <trkpt lat="47.30156" lon="-2.33959">
        <ele>24</ele>
        <time>2022-09-18T09:39:07.000Z</time>
      </trkpt>
      <trkpt lat="47.30149" lon="-2.33964">
        <ele>23.60000038147</ele>
        <time>2022-09-18T09:39:08.000Z</time>
      </trkpt>
      <trkpt lat="47.30142" lon="-2.33968">
        <ele>23.200000762939</ele>
        <time>2022-09-18T09:39:09.000Z</time>
      </trkpt>
      <trkpt lat="47.30123" lon="-2.33989">
        <ele>23.200000762939</ele>
        <time>2022-09-18T09:39:12.000Z</time>
      </trkpt>
      <trkpt lat="47.30117" lon="-2.33997">
        <ele>22.60000038147</ele>
        <time>2022-09-18T09:39:13.000Z</time>
      </trkpt>
      <trkpt lat="47.30111" lon="-2.34005">
        <ele>22.200000762939</ele>
        <time>2022-09-18T09:39:14.000Z</time>
      </trkpt>
      <trkpt lat="47.30104" lon="-2.34013">
        <ele>21.799999237061</ele>
        <time>2022-09-18T09:39:15.000Z</time>
      </trkpt>
      <trkpt lat="47.30098" lon="-2.34021">
        <ele>21.39999961853</ele>
        <time>2022-09-18T09:39:16.000Z</time>
      </trkpt>
      <trkpt lat="47.30092" lon="-2.34029">
        <ele>21</ele>
        <time>2022-09-18T09:39:17.000Z</time>
      </trkpt>
      <trkpt lat="47.30074" lon="-2.34053">
        <ele>21</ele>
        <time>2022-09-18T09:39:20.000Z</time>
      </trkpt>
      <trkpt lat="47.30043" lon="-2.34093">
        <ele>21</ele>
        <time>2022-09-18T09:39:26.000Z</time>
      </trkpt>
      <trkpt lat="47.30007" lon="-2.34141">
        <ele>21</ele>
        <time>2022-09-18T09:39:33.000Z</time>
      </trkpt>
      <trkpt lat="47.29969" lon="-2.34189">
        <ele>21</ele>
        <time>2022-09-18T09:39:40.000Z</time>
      </trkpt>
      <trkpt lat="47.29933" lon="-2.34236">
        <ele>21</ele>
        <time>2022-09-18T09:39:47.000Z</time>
      </trkpt>
      <trkpt lat="47.29913" lon="-2.34256">
        <ele>21</ele>
        <time>2022-09-18T09:39:51.000Z</time>
      </trkpt>
      <trkpt lat="47.29909" lon="-2.34256">
        <ele>21</ele>
        <time>2022-09-18T09:39:52.000Z</time>
      </trkpt>
      <trkpt lat="47.29895" lon="-2.34243">
        <ele>21</ele>
        <time>2022-09-18T09:39:55.000Z</time>
      </trkpt>
      <trkpt lat="47.29886" lon="-2.34227">
        <ele>21</ele>
        <time>2022-09-18T09:39:57.000Z</time>
      </trkpt>
      <trkpt lat="47.29876" lon="-2.34211">
        <ele>21</ele>
        <time>2022-09-18T09:39:59.000Z</time>
      </trkpt>
      <trkpt lat="47.29837" lon="-2.34156">
        <ele>21</ele>
        <time>2022-09-18T09:40:06.000Z</time>
      </trkpt>
      <trkpt lat="47.29825" lon="-2.34144">
        <ele>20.60000038147</ele>
        <time>2022-09-18T09:40:08.000Z</time>
      </trkpt>
      <trkpt lat="47.29819" lon="-2.34138">
        <ele>20</ele>
        <time>2022-09-18T09:40:09.000Z</time>
      </trkpt>
      <trkpt lat="47.29814" lon="-2.34131">
        <ele>19.60000038147</ele>
        <time>2022-09-18T09:40:10.000Z</time>
      </trkpt>
      <trkpt lat="47.2981" lon="-2.34123">
        <ele>19.200000762939</ele>
        <time>2022-09-18T09:40:11.000Z</time>
      </trkpt>
      <trkpt lat="47.29805" lon="-2.34116">
        <ele>18.799999237061</ele>
        <time>2022-09-18T09:40:12.000Z</time>
      </trkpt>
      <trkpt lat="47.29791" lon="-2.34095">
        <ele>18.799999237061</ele>
        <time>2022-09-18T09:40:15.000Z</time>
      </trkpt>
      <trkpt lat="47.29768" lon="-2.34056">
        <ele>18.799999237061</ele>
        <time>2022-09-18T09:40:21.000Z</time>
      </trkpt>
      <trkpt lat="47.29733" lon="-2.34007">
        <ele>18.799999237061</ele>
        <time>2022-09-18T09:40:29.000Z</time>
      </trkpt>
      <trkpt lat="47.29712" lon="-2.3398">
        <ele>18.799999237061</ele>
        <time>2022-09-18T09:40:34.000Z</time>
      </trkpt>
      <trkpt lat="47.29705" lon="-2.33972">
        <ele>18.799999237061</ele>
        <time>2022-09-18T09:40:36.000Z</time>
      </trkpt>
      <trkpt lat="47.29694" lon="-2.33959">
        <ele>18.799999237061</ele>
        <time>2022-09-18T09:40:41.000Z</time>
      </trkpt>
      <trkpt lat="47.29687" lon="-2.33943">
        <ele>18.799999237061</ele>
        <time>2022-09-18T09:40:45.000Z</time>
      </trkpt>
      <trkpt lat="47.29681" lon="-2.3393">
        <ele>18.799999237061</ele>
        <time>2022-09-18T09:40:47.000Z</time>
      </trkpt>
      <trkpt lat="47.29673" lon="-2.33918">
        <ele>18.799999237061</ele>
        <time>2022-09-18T09:40:49.000Z</time>
      </trkpt>
      <trkpt lat="47.2966" lon="-2.33889">
        <ele>18.39999961853</ele>
        <time>2022-09-18T09:40:53.000Z</time>
      </trkpt>
      <trkpt lat="47.29657" lon="-2.33882">
        <ele>18</ele>
        <time>2022-09-18T09:40:54.000Z</time>
      </trkpt>
      <trkpt lat="47.29654" lon="-2.33874">
        <ele>17.39999961853</ele>
        <time>2022-09-18T09:40:55.000Z</time>
      </trkpt>
      <trkpt lat="47.2965" lon="-2.33866">
        <ele>17</ele>
        <time>2022-09-18T09:40:56.000Z</time>
      </trkpt>
      <trkpt lat="47.29647" lon="-2.33859">
        <ele>16.60000038147</ele>
        <time>2022-09-18T09:40:57.000Z</time>
      </trkpt>
      <trkpt lat="47.29635" lon="-2.33834">
        <ele>16.60000038147</ele>
        <time>2022-09-18T09:41:00.000Z</time>
      </trkpt>
      <trkpt lat="47.2963" lon="-2.33826">
        <ele>16.200000762939</ele>
        <time>2022-09-18T09:41:01.000Z</time>
      </trkpt>
      <trkpt lat="47.29626" lon="-2.33817">
        <ele>15.800000190735</ele>
        <time>2022-09-18T09:41:02.000Z</time>
      </trkpt>
      <trkpt lat="47.29622" lon="-2.33808">
        <ele>15.39999961853</ele>
        <time>2022-09-18T09:41:03.000Z</time>
      </trkpt>
      <trkpt lat="47.29618" lon="-2.338">
        <ele>14.800000190735</ele>
        <time>2022-09-18T09:41:04.000Z</time>
      </trkpt>
      <trkpt lat="47.29613" lon="-2.33792">
        <ele>14.39999961853</ele>
        <time>2022-09-18T09:41:05.000Z</time>
      </trkpt>
      <trkpt lat="47.29605" lon="-2.33774">
        <ele>14.39999961853</ele>
        <time>2022-09-18T09:41:07.000Z</time>
      </trkpt>
      <trkpt lat="47.29581" lon="-2.33734">
        <ele>14.39999961853</ele>
        <time>2022-09-18T09:41:12.000Z</time>
      </trkpt>
      <trkpt lat="47.29576" lon="-2.33727">
        <ele>14</ele>
        <time>2022-09-18T09:41:13.000Z</time>
      </trkpt>
      <trkpt lat="47.29571" lon="-2.3372">
        <ele>13.60000038147</ele>
        <time>2022-09-18T09:41:14.000Z</time>
      </trkpt>
      <trkpt lat="47.29566" lon="-2.33714">
        <ele>13.199999809265</ele>
        <time>2022-09-18T09:41:15.000Z</time>
      </trkpt>
      <trkpt lat="47.29561" lon="-2.33708">
        <ele>12.800000190735</ele>
        <time>2022-09-18T09:41:16.000Z</time>
      </trkpt>
      <trkpt lat="47.29556" lon="-2.33702">
        <ele>12.39999961853</ele>
        <time>2022-09-18T09:41:17.000Z</time>
      </trkpt>
      <trkpt lat="47.29548" lon="-2.33688">
        <ele>12.39999961853</ele>
        <time>2022-09-18T09:41:19.000Z</time>
      </trkpt>
      <trkpt lat="47.29535" lon="-2.33645">
        <ele>12.39999961853</ele>
        <time>2022-09-18T09:41:24.000Z</time>
      </trkpt>
      <trkpt lat="47.29519" lon="-2.33591">
        <ele>12.39999961853</ele>
        <time>2022-09-18T09:41:30.000Z</time>
      </trkpt>
      <trkpt lat="47.29511" lon="-2.33566">
        <ele>12.800000190735</ele>
        <time>2022-09-18T09:41:33.000Z</time>
      </trkpt>
      <trkpt lat="47.29508" lon="-2.33557">
        <ele>13.199999809265</ele>
        <time>2022-09-18T09:41:34.000Z</time>
      </trkpt>
      <trkpt lat="47.29505" lon="-2.33549">
        <ele>13.60000038147</ele>
        <time>2022-09-18T09:41:35.000Z</time>
      </trkpt>
      <trkpt lat="47.29501" lon="-2.33541">
        <ele>14</ele>
        <time>2022-09-18T09:41:36.000Z</time>
      </trkpt>
      <trkpt lat="47.29497" lon="-2.33534">
        <ele>14.39999961853</ele>
        <time>2022-09-18T09:41:37.000Z</time>
      </trkpt>
      <trkpt lat="47.29486" lon="-2.33512">
        <ele>14.39999961853</ele>
        <time>2022-09-18T09:41:40.000Z</time>
      </trkpt>
      <trkpt lat="47.29458" lon="-2.33451">
        <ele>14.39999961853</ele>
        <time>2022-09-18T09:41:48.000Z</time>
      </trkpt>
      <trkpt lat="47.29438" lon="-2.33407">
        <ele>14.39999961853</ele>
        <time>2022-09-18T09:41:54.000Z</time>
      </trkpt>
      <trkpt lat="47.2943" lon="-2.33381">
        <ele>14.39999961853</ele>
        <time>2022-09-18T09:41:58.000Z</time>
      </trkpt>
      <trkpt lat="47.29429" lon="-2.33374">
        <ele>14.39999961853</ele>
        <time>2022-09-18T09:41:59.000Z</time>
      </trkpt>
      <trkpt lat="47.2943" lon="-2.33337">
        <ele>14.39999961853</ele>
        <time>2022-09-18T09:42:05.000Z</time>
      </trkpt>
      <trkpt lat="47.29431" lon="-2.33324">
        <ele>14.39999961853</ele>
        <time>2022-09-18T09:42:07.000Z</time>
      </trkpt>
      <trkpt lat="47.29428" lon="-2.33303">
        <ele>14.39999961853</ele>
        <time>2022-09-18T09:42:10.000Z</time>
      </trkpt>
      <trkpt lat="47.2942" lon="-2.33252">
        <ele>14.39999961853</ele>
        <time>2022-09-18T09:42:16.000Z</time>
      </trkpt>
      <trkpt lat="47.29406" lon="-2.33187">
        <ele>14.39999961853</ele>
        <time>2022-09-18T09:42:23.000Z</time>
      </trkpt>
      <trkpt lat="47.29391" lon="-2.33151">
        <ele>14.800000190735</ele>
        <time>2022-09-18T09:42:28.000Z</time>
      </trkpt>
      <trkpt lat="47.29388" lon="-2.33145">
        <ele>15.199999809265</ele>
        <time>2022-09-18T09:42:29.000Z</time>
      </trkpt>
      <trkpt lat="47.29384" lon="-2.33139">
        <ele>15.60000038147</ele>
        <time>2022-09-18T09:42:30.000Z</time>
      </trkpt>
      <trkpt lat="47.29381" lon="-2.33133">
        <ele>16</ele>
        <time>2022-09-18T09:42:31.000Z</time>
      </trkpt>
      <trkpt lat="47.29377" lon="-2.33128">
        <ele>16.39999961853</ele>
        <time>2022-09-18T09:42:32.000Z</time>
      </trkpt>
      <trkpt lat="47.29372" lon="-2.33123">
        <ele>16.39999961853</ele>
        <time>2022-09-18T09:42:33.000Z</time>
      </trkpt>
      <trkpt lat="47.29362" lon="-2.33121">
        <ele>16.39999961853</ele>
        <time>2022-09-18T09:42:35.000Z</time>
      </trkpt>
      <trkpt lat="47.29345" lon="-2.33128">
        <ele>16.39999961853</ele>
        <time>2022-09-18T09:42:38.000Z</time>
      </trkpt>
      <trkpt lat="47.2934" lon="-2.33132">
        <ele>16.39999961853</ele>
        <time>2022-09-18T09:42:39.000Z</time>
      </trkpt>
      <trkpt lat="47.29311" lon="-2.33156">
        <ele>16.39999961853</ele>
        <time>2022-09-18T09:42:44.000Z</time>
      </trkpt>
      <trkpt lat="47.29284" lon="-2.3319">
        <ele>16.39999961853</ele>
        <time>2022-09-18T09:42:50.000Z</time>
      </trkpt>
      <trkpt lat="47.2928" lon="-2.33192">
        <ele>16.39999961853</ele>
        <time>2022-09-18T09:42:51.000Z</time>
      </trkpt>
      <trkpt lat="47.29271" lon="-2.33188">
        <ele>16.39999961853</ele>
        <time>2022-09-18T09:42:53.000Z</time>
      </trkpt>
      <trkpt lat="47.29261" lon="-2.33169">
        <ele>16.39999961853</ele>
        <time>2022-09-18T09:42:56.000Z</time>
      </trkpt>
      <trkpt lat="47.29249" lon="-2.33147">
        <ele>16</ele>
        <time>2022-09-18T09:42:59.000Z</time>
      </trkpt>
      <trkpt lat="47.29245" lon="-2.33139">
        <ele>15.60000038147</ele>
        <time>2022-09-18T09:43:00.000Z</time>
      </trkpt>
      <trkpt lat="47.29241" lon="-2.33131">
        <ele>15.199999809265</ele>
        <time>2022-09-18T09:43:01.000Z</time>
      </trkpt>
      <trkpt lat="47.29237" lon="-2.33123">
        <ele>14.800000190735</ele>
        <time>2022-09-18T09:43:02.000Z</time>
      </trkpt>
      <trkpt lat="47.29233" lon="-2.33114">
        <ele>14.39999961853</ele>
        <time>2022-09-18T09:43:03.000Z</time>
      </trkpt>
      <trkpt lat="47.29209" lon="-2.33065">
        <ele>14.39999961853</ele>
        <time>2022-09-18T09:43:09.000Z</time>
      </trkpt>
      <trkpt lat="47.29189" lon="-2.33025">
        <ele>14.39999961853</ele>
        <time>2022-09-18T09:43:14.000Z</time>
      </trkpt>
      <trkpt lat="47.29187" lon="-2.3302">
        <ele>14.39999961853</ele>
        <time>2022-09-18T09:43:15.000Z</time>
      </trkpt>
      <trkpt lat="47.29183" lon="-2.33012">
        <ele>14.39999961853</ele>
        <time>2022-09-18T09:43:18.000Z</time>
      </trkpt>
      <trkpt lat="47.29177" lon="-2.33">
        <ele>14</ele>
        <time>2022-09-18T09:43:23.000Z</time>
      </trkpt>
      <trkpt lat="47.29176" lon="-2.32998">
        <ele>13.60000038147</ele>
        <time>2022-09-18T09:43:24.000Z</time>
      </trkpt>
      <trkpt lat="47.29172" lon="-2.32997">
        <ele>13.199999809265</ele>
        <time>2022-09-18T09:43:25.000Z</time>
      </trkpt>
      <trkpt lat="47.29169" lon="-2.32999">
        <ele>12.800000190735</ele>
        <time>2022-09-18T09:43:26.000Z</time>
      </trkpt>
      <trkpt lat="47.29166" lon="-2.33002">
        <ele>12.39999961853</ele>
        <time>2022-09-18T09:43:27.000Z</time>
      </trkpt>
      <trkpt lat="47.29163" lon="-2.33008">
        <ele>12.39999961853</ele>
        <time>2022-09-18T09:43:28.000Z</time>
      </trkpt>
      <trkpt lat="47.29157" lon="-2.33018">
        <ele>12.39999961853</ele>
        <time>2022-09-18T09:43:30.000Z</time>
      </trkpt>
      <trkpt lat="47.29142" lon="-2.33042">
        <ele>12.39999961853</ele>
        <time>2022-09-18T09:43:34.000Z</time>
      </trkpt>
      <trkpt lat="47.29116" lon="-2.3308">
        <ele>12.39999961853</ele>
        <time>2022-09-18T09:43:40.000Z</time>
      </trkpt>
      <trkpt lat="47.29077" lon="-2.33131">
        <ele>12.39999961853</ele>
        <time>2022-09-18T09:43:48.000Z</time>
      </trkpt>
      <trkpt lat="47.29043" lon="-2.3316">
        <ele>12.39999961853</ele>
        <time>2022-09-18T09:43:54.000Z</time>
      </trkpt>
      <trkpt lat="47.29004" lon="-2.33188">
        <ele>12.39999961853</ele>
        <time>2022-09-18T09:44:00.000Z</time>
      </trkpt>
      <trkpt lat="47.28993" lon="-2.33197">
        <ele>12.39999961853</ele>
        <time>2022-09-18T09:44:02.000Z</time>
      </trkpt>
      <trkpt lat="47.28984" lon="-2.33206">
        <ele>12.39999961853</ele>
        <time>2022-09-18T09:44:04.000Z</time>
      </trkpt>
      <trkpt lat="47.28967" lon="-2.33234">
        <ele>12.39999961853</ele>
        <time>2022-09-18T09:44:08.000Z</time>
      </trkpt>
      <trkpt lat="47.28964" lon="-2.33243">
        <ele>12.39999961853</ele>
        <time>2022-09-18T09:44:09.000Z</time>
      </trkpt>
      <trkpt lat="47.2895" lon="-2.33274">
        <ele>12.39999961853</ele>
        <time>2022-09-18T09:44:13.000Z</time>
      </trkpt>
      <trkpt lat="47.28934" lon="-2.3331">
        <ele>12.39999961853</ele>
        <time>2022-09-18T09:44:18.000Z</time>
      </trkpt>
      <trkpt lat="47.28925" lon="-2.33335">
        <ele>12.800000190735</ele>
        <time>2022-09-18T09:44:21.000Z</time>
      </trkpt>
      <trkpt lat="47.28922" lon="-2.33343">
        <ele>13.199999809265</ele>
        <time>2022-09-18T09:44:22.000Z</time>
      </trkpt>
      <trkpt lat="47.2892" lon="-2.33352">
        <ele>14</ele>
        <time>2022-09-18T09:44:23.000Z</time>
      </trkpt>
      <trkpt lat="47.28918" lon="-2.33362">
        <ele>14.39999961853</ele>
        <time>2022-09-18T09:44:24.000Z</time>
      </trkpt>
      <trkpt lat="47.28903" lon="-2.33424">
        <ele>14.39999961853</ele>
        <time>2022-09-18T09:44:31.000Z</time>
      </trkpt>
      <trkpt lat="47.28895" lon="-2.33439">
        <ele>14.39999961853</ele>
        <time>2022-09-18T09:44:33.000Z</time>
      </trkpt>
      <trkpt lat="47.28886" lon="-2.33452">
        <ele>14.39999961853</ele>
        <time>2022-09-18T09:44:35.000Z</time>
      </trkpt>
      <trkpt lat="47.28864" lon="-2.33468">
        <ele>14.39999961853</ele>
        <time>2022-09-18T09:44:39.000Z</time>
      </trkpt>
      <trkpt lat="47.28839" lon="-2.33474">
        <ele>14.39999961853</ele>
        <time>2022-09-18T09:44:43.000Z</time>
      </trkpt>
      <trkpt lat="47.28833" lon="-2.33475">
        <ele>14.39999961853</ele>
        <time>2022-09-18T09:44:44.000Z</time>
      </trkpt>
      <trkpt lat="47.28792" lon="-2.33483">
        <ele>14.39999961853</ele>
        <time>2022-09-18T09:44:51.000Z</time>
      </trkpt>
      <trkpt lat="47.28739" lon="-2.33493">
        <ele>14.39999961853</ele>
        <time>2022-09-18T09:45:01.000Z</time>
      </trkpt>
      <trkpt lat="47.28711" lon="-2.33497">
        <ele>14.39999961853</ele>
        <time>2022-09-18T09:45:07.000Z</time>
      </trkpt>
      <trkpt lat="47.2869" lon="-2.33482">
        <ele>14.39999961853</ele>
        <time>2022-09-18T09:45:11.000Z</time>
      </trkpt>
      <trkpt lat="47.28681" lon="-2.3347">
        <ele>14.39999961853</ele>
        <time>2022-09-18T09:45:13.000Z</time>
      </trkpt>
      <trkpt lat="47.28661" lon="-2.33444">
        <ele>14.39999961853</ele>
        <time>2022-09-18T09:45:17.000Z</time>
      </trkpt>
      <trkpt lat="47.28633" lon="-2.33397">
        <ele>14.39999961853</ele>
        <time>2022-09-18T09:45:24.000Z</time>
      </trkpt>
      <trkpt lat="47.28615" lon="-2.33349">
        <ele>14.39999961853</ele>
        <time>2022-09-18T09:45:30.000Z</time>
      </trkpt>
      <trkpt lat="47.28599" lon="-2.33302">
        <ele>14.39999961853</ele>
        <time>2022-09-18T09:45:36.000Z</time>
      </trkpt>
      <trkpt lat="47.28585" lon="-2.33255">
        <ele>14</ele>
        <time>2022-09-18T09:45:41.000Z</time>
      </trkpt>
      <trkpt lat="47.28582" lon="-2.33246">
        <ele>13.60000038147</ele>
        <time>2022-09-18T09:45:42.000Z</time>
      </trkpt>
      <trkpt lat="47.28578" lon="-2.33235">
        <ele>13.199999809265</ele>
        <time>2022-09-18T09:45:43.000Z</time>
      </trkpt>
      <trkpt lat="47.28575" lon="-2.33226">
        <ele>12.60000038147</ele>
        <time>2022-09-18T09:45:44.000Z</time>
      </trkpt>
      <trkpt lat="47.28572" lon="-2.33215">
        <ele>12.199999809265</ele>
        <time>2022-09-18T09:45:45.000Z</time>
      </trkpt>
      <trkpt lat="47.28555" lon="-2.33162">
        <ele>11.800000190735</ele>
        <time>2022-09-18T09:45:50.000Z</time>
      </trkpt>
      <trkpt lat="47.28552" lon="-2.33151">
        <ele>11.39999961853</ele>
        <time>2022-09-18T09:45:51.000Z</time>
      </trkpt>
      <trkpt lat="47.28549" lon="-2.33141">
        <ele>11</ele>
        <time>2022-09-18T09:45:52.000Z</time>
      </trkpt>
      <trkpt lat="47.28546" lon="-2.3313">
        <ele>10.60000038147</ele>
        <time>2022-09-18T09:45:53.000Z</time>
      </trkpt>
      <trkpt lat="47.28543" lon="-2.33119">
        <ele>10.199999809265</ele>
        <time>2022-09-18T09:45:54.000Z</time>
      </trkpt>
      <trkpt lat="47.28528" lon="-2.33053">
        <ele>10.199999809265</ele>
        <time>2022-09-18T09:46:00.000Z</time>
      </trkpt>
      <trkpt lat="47.28525" lon="-2.33042">
        <ele>9.8000001907349</ele>
        <time>2022-09-18T09:46:01.000Z</time>
      </trkpt>
      <trkpt lat="47.28522" lon="-2.33033">
        <ele>9</ele>
        <time>2022-09-18T09:46:02.000Z</time>
      </trkpt>
      <trkpt lat="47.2852" lon="-2.33022">
        <ele>8.6000003814697</ele>
        <time>2022-09-18T09:46:03.000Z</time>
      </trkpt>
      <trkpt lat="47.28518" lon="-2.33011">
        <ele>8.1999998092651</ele>
        <time>2022-09-18T09:46:04.000Z</time>
      </trkpt>
      <trkpt lat="47.28513" lon="-2.32991">
        <ele>8.1999998092651</ele>
        <time>2022-09-18T09:46:06.000Z</time>
      </trkpt>
      <trkpt lat="47.28498" lon="-2.32925">
        <ele>8.1999998092651</ele>
        <time>2022-09-18T09:46:13.000Z</time>
      </trkpt>
      <trkpt lat="47.28495" lon="-2.32915">
        <ele>7.8000001907349</ele>
        <time>2022-09-18T09:46:14.000Z</time>
      </trkpt>
      <trkpt lat="47.28493" lon="-2.32906">
        <ele>7.4000000953674</ele>
        <time>2022-09-18T09:46:15.000Z</time>
      </trkpt>
      <trkpt lat="47.28491" lon="-2.32898">
        <ele>7</ele>
        <time>2022-09-18T09:46:16.000Z</time>
      </trkpt>
      <trkpt lat="47.28489" lon="-2.32889">
        <ele>6.5999999046326</ele>
        <time>2022-09-18T09:46:17.000Z</time>
      </trkpt>
      <trkpt lat="47.28486" lon="-2.3288">
        <ele>6</ele>
        <time>2022-09-18T09:46:18.000Z</time>
      </trkpt>
      <trkpt lat="47.28483" lon="-2.32862">
        <ele>6</ele>
        <time>2022-09-18T09:46:20.000Z</time>
      </trkpt>
      <trkpt lat="47.28466" lon="-2.32797">
        <ele>6</ele>
        <time>2022-09-18T09:46:28.000Z</time>
      </trkpt>
      <trkpt lat="47.28453" lon="-2.32747">
        <ele>6</ele>
        <time>2022-09-18T09:46:34.000Z</time>
      </trkpt>
      <trkpt lat="47.28439" lon="-2.32697">
        <ele>6</ele>
        <time>2022-09-18T09:46:40.000Z</time>
      </trkpt>
      <trkpt lat="47.28423" lon="-2.32642">
        <ele>6</ele>
        <time>2022-09-18T09:46:47.000Z</time>
      </trkpt>
      <trkpt lat="47.28417" lon="-2.32622">
        <ele>6</ele>
        <time>2022-09-18T09:46:50.000Z</time>
      </trkpt>
      <trkpt lat="47.28411" lon="-2.32615">
        <ele>6</ele>
        <time>2022-09-18T09:46:52.000Z</time>
      </trkpt>
      <trkpt lat="47.28398" lon="-2.32604">
        <ele>6</ele>
        <time>2022-09-18T09:46:56.000Z</time>
      </trkpt>
      <trkpt lat="47.28396" lon="-2.32599">
        <ele>6</ele>
        <time>2022-09-18T09:46:57.000Z</time>
      </trkpt>
      <trkpt lat="47.28392" lon="-2.3259">
        <ele>6</ele>
        <time>2022-09-18T09:46:59.000Z</time>
      </trkpt>
      <trkpt lat="47.28384" lon="-2.32583">
        <ele>6</ele>
        <time>2022-09-18T09:47:02.000Z</time>
      </trkpt>
      <trkpt lat="47.28381" lon="-2.32584">
        <ele>6</ele>
        <time>2022-09-18T09:47:03.000Z</time>
      </trkpt>
      <trkpt lat="47.28373" lon="-2.32584">
        <ele>6</ele>
        <time>2022-09-18T09:47:05.000Z</time>
      </trkpt>
      <trkpt lat="47.28369" lon="-2.32582">
        <ele>6</ele>
        <time>2022-09-18T09:47:06.000Z</time>
      </trkpt>
      <trkpt lat="47.28361" lon="-2.32569">
        <ele>6</ele>
        <time>2022-09-18T09:47:09.000Z</time>
      </trkpt>
      <trkpt lat="47.28359" lon="-2.32557">
        <ele>6</ele>
        <time>2022-09-18T09:47:11.000Z</time>
      </trkpt>
      <trkpt lat="47.28357" lon="-2.32544">
        <ele>6</ele>
        <time>2022-09-18T09:47:13.000Z</time>
      </trkpt>
      <trkpt lat="47.28356" lon="-2.32538">
        <ele>6</ele>
        <time>2022-09-18T09:47:14.000Z</time>
      </trkpt>
      <trkpt lat="47.2835" lon="-2.3253">
        <ele>6</ele>
        <time>2022-09-18T09:47:17.000Z</time>
      </trkpt>
      <trkpt lat="47.28345" lon="-2.32532">
        <ele>6</ele>
        <time>2022-09-18T09:47:18.000Z</time>
      </trkpt>
      <trkpt lat="47.28341" lon="-2.32533">
        <ele>6</ele>
        <time>2022-09-18T09:47:19.000Z</time>
      </trkpt>
      <trkpt lat="47.2833" lon="-2.32532">
        <ele>6</ele>
        <time>2022-09-18T09:47:21.000Z</time>
      </trkpt>
      <trkpt lat="47.28314" lon="-2.32531">
        <ele>6</ele>
        <time>2022-09-18T09:47:24.000Z</time>
      </trkpt>
      <trkpt lat="47.28302" lon="-2.32529">
        <ele>6</ele>
        <time>2022-09-18T09:47:26.000Z</time>
      </trkpt>
      <trkpt lat="47.28271" lon="-2.32523">
        <ele>6</ele>
        <time>2022-09-18T09:47:31.000Z</time>
      </trkpt>
      <trkpt lat="47.28265" lon="-2.32519">
        <ele>6</ele>
        <time>2022-09-18T09:47:32.000Z</time>
      </trkpt>
      <trkpt lat="47.2825" lon="-2.32502">
        <ele>6</ele>
        <time>2022-09-18T09:47:35.000Z</time>
      </trkpt>
      <trkpt lat="47.28232" lon="-2.32473">
        <ele>6</ele>
        <time>2022-09-18T09:47:40.000Z</time>
      </trkpt>
      <trkpt lat="47.28211" lon="-2.32461">
        <ele>6</ele>
        <time>2022-09-18T09:47:45.000Z</time>
      </trkpt>
      <trkpt lat="47.28187" lon="-2.32454">
        <ele>6</ele>
        <time>2022-09-18T09:47:50.000Z</time>
      </trkpt>
      <trkpt lat="47.28182" lon="-2.32453">
        <ele>6</ele>
        <time>2022-09-18T09:47:51.000Z</time>
      </trkpt>
      <trkpt lat="47.28167" lon="-2.32452">
        <ele>6</ele>
        <time>2022-09-18T09:47:54.000Z</time>
      </trkpt>
      <trkpt lat="47.28147" lon="-2.32455">
        <ele>6</ele>
        <time>2022-09-18T09:48:00.000Z</time>
      </trkpt>
      <trkpt lat="47.28129" lon="-2.32456">
        <ele>6</ele>
        <time>2022-09-18T09:48:07.000Z</time>
      </trkpt>
      <trkpt lat="47.28114" lon="-2.32451">
        <ele>6</ele>
        <time>2022-09-18T09:48:12.000Z</time>
      </trkpt>
      <trkpt lat="47.28108" lon="-2.32446">
        <ele>6.5999999046326</ele>
        <time>2022-09-18T09:48:15.000Z</time>
      </trkpt>
      <trkpt lat="47.28106" lon="-2.32442">
        <ele>7</ele>
        <time>2022-09-18T09:48:16.000Z</time>
      </trkpt>
      <trkpt lat="47.28103" lon="-2.32439">
        <ele>7.4000000953674</ele>
        <time>2022-09-18T09:48:17.000Z</time>
      </trkpt>
      <trkpt lat="47.28099" lon="-2.32436">
        <ele>7.8000001907349</ele>
        <time>2022-09-18T09:48:18.000Z</time>
      </trkpt>
      <trkpt lat="47.28095" lon="-2.32434">
        <ele>8.1999998092651</ele>
        <time>2022-09-18T09:48:19.000Z</time>
      </trkpt>
      <trkpt lat="47.2809" lon="-2.32432">
        <ele>8.1999998092651</ele>
        <time>2022-09-18T09:48:20.000Z</time>
      </trkpt>
      <trkpt lat="47.2808" lon="-2.3243">
        <ele>8.1999998092651</ele>
        <time>2022-09-18T09:48:22.000Z</time>
      </trkpt>
      <trkpt lat="47.28067" lon="-2.32431">
        <ele>8.1999998092651</ele>
        <time>2022-09-18T09:48:24.000Z</time>
      </trkpt>
      <trkpt lat="47.28043" lon="-2.3243">
        <ele>8.1999998092651</ele>
        <time>2022-09-18T09:48:28.000Z</time>
      </trkpt>
      <trkpt lat="47.2803" lon="-2.32427">
        <ele>8.1999998092651</ele>
        <time>2022-09-18T09:48:30.000Z</time>
      </trkpt>
      <trkpt lat="47.28017" lon="-2.32424">
        <ele>8.1999998092651</ele>
        <time>2022-09-18T09:48:32.000Z</time>
      </trkpt>
      <trkpt lat="47.27994" lon="-2.32418">
        <ele>8.1999998092651</ele>
        <time>2022-09-18T09:48:36.000Z</time>
      </trkpt>
      <trkpt lat="47.27969" lon="-2.32409">
        <ele>8.1999998092651</ele>
        <time>2022-09-18T09:48:41.000Z</time>
      </trkpt>
      <trkpt lat="47.27964" lon="-2.32407">
        <ele>8.1999998092651</ele>
        <time>2022-09-18T09:48:42.000Z</time>
      </trkpt>
      <trkpt lat="47.27941" lon="-2.32402">
        <ele>8.1999998092651</ele>
        <time>2022-09-18T09:48:47.000Z</time>
      </trkpt>
      <trkpt lat="47.27934" lon="-2.324">
        <ele>8.1999998092651</ele>
        <time>2022-09-18T09:48:51.000Z</time>
      </trkpt>
      <trkpt lat="47.27926" lon="-2.32394">
        <ele>8.1999998092651</ele>
        <time>2022-09-18T09:48:55.000Z</time>
      </trkpt>
      <trkpt lat="47.27914" lon="-2.32388">
        <ele>8.1999998092651</ele>
        <time>2022-09-18T09:49:01.000Z</time>
      </trkpt>
      <trkpt lat="47.27904" lon="-2.32383">
        <ele>8.1999998092651</ele>
        <time>2022-09-18T09:49:04.000Z</time>
      </trkpt>
      <trkpt lat="47.279" lon="-2.32384">
        <ele>8.1999998092651</ele>
        <time>2022-09-18T09:49:05.000Z</time>
      </trkpt>
      <trkpt lat="47.27888" lon="-2.32388">
        <ele>8.1999998092651</ele>
        <time>2022-09-18T09:49:08.000Z</time>
      </trkpt>
      <trkpt lat="47.2788" lon="-2.32386">
        <ele>8.1999998092651</ele>
        <time>2022-09-18T09:49:10.000Z</time>
      </trkpt>
      <trkpt lat="47.27868" lon="-2.32381">
        <ele>8.1999998092651</ele>
        <time>2022-09-18T09:49:13.000Z</time>
      </trkpt>
      <trkpt lat="47.27852" lon="-2.32377">
        <ele>8.1999998092651</ele>
        <time>2022-09-18T09:49:17.000Z</time>
      </trkpt>
      <trkpt lat="47.27836" lon="-2.32381">
        <ele>8.1999998092651</ele>
        <time>2022-09-18T09:49:21.000Z</time>
      </trkpt>
      <trkpt lat="47.27827" lon="-2.32382">
        <ele>8.1999998092651</ele>
        <time>2022-09-18T09:49:23.000Z</time>
      </trkpt>
      <trkpt lat="47.27823" lon="-2.32381">
        <ele>8.6000003814697</ele>
        <time>2022-09-18T09:49:24.000Z</time>
      </trkpt>
      <trkpt lat="47.27819" lon="-2.32381">
        <ele>9</ele>
        <time>2022-09-18T09:49:25.000Z</time>
      </trkpt>
      <trkpt lat="47.27815" lon="-2.32381">
        <ele>9.3999996185303</ele>
        <time>2022-09-18T09:49:26.000Z</time>
      </trkpt>
      <trkpt lat="47.2781" lon="-2.32381">
        <ele>10</ele>
        <time>2022-09-18T09:49:27.000Z</time>
      </trkpt>
      <trkpt lat="47.27805" lon="-2.32381">
        <ele>10.39999961853</ele>
        <time>2022-09-18T09:49:28.000Z</time>
      </trkpt>
      <trkpt lat="47.27801" lon="-2.32381">
        <ele>10.39999961853</ele>
        <time>2022-09-18T09:49:29.000Z</time>
      </trkpt>
      <trkpt lat="47.27796" lon="-2.32381">
        <ele>10.39999961853</ele>
        <time>2022-09-18T09:49:30.000Z</time>
      </trkpt>
      <trkpt lat="47.27778" lon="-2.32379">
        <ele>10.39999961853</ele>
        <time>2022-09-18T09:49:35.000Z</time>
      </trkpt>
      <trkpt lat="47.27766" lon="-2.32367">
        <ele>10.39999961853</ele>
        <time>2022-09-18T09:49:38.000Z</time>
      </trkpt>
      <trkpt lat="47.27762" lon="-2.32365">
        <ele>10.39999961853</ele>
        <time>2022-09-18T09:49:39.000Z</time>
      </trkpt>
      <trkpt lat="47.2775" lon="-2.3236">
        <ele>10.39999961853</ele>
        <time>2022-09-18T09:49:42.000Z</time>
      </trkpt>
      <trkpt lat="47.27742" lon="-2.32355">
        <ele>10.39999961853</ele>
        <time>2022-09-18T09:49:44.000Z</time>
      </trkpt>
      <trkpt lat="47.27724" lon="-2.3234">
        <ele>10.39999961853</ele>
        <time>2022-09-18T09:49:49.000Z</time>
      </trkpt>
      <trkpt lat="47.27711" lon="-2.32327">
        <ele>10.39999961853</ele>
        <time>2022-09-18T09:49:53.000Z</time>
      </trkpt>
      <trkpt lat="47.27692" lon="-2.32318">
        <ele>10.39999961853</ele>
        <time>2022-09-18T09:49:58.000Z</time>
      </trkpt>
      <trkpt lat="47.27669" lon="-2.32311">
        <ele>10.39999961853</ele>
        <time>2022-09-18T09:50:03.000Z</time>
      </trkpt>
      <trkpt lat="47.27652" lon="-2.32306">
        <ele>10.39999961853</ele>
        <time>2022-09-18T09:50:07.000Z</time>
      </trkpt>
      <trkpt lat="47.27647" lon="-2.32304">
        <ele>10.39999961853</ele>
        <time>2022-09-18T09:50:08.000Z</time>
      </trkpt>
      <trkpt lat="47.27638" lon="-2.32299">
        <ele>10.39999961853</ele>
        <time>2022-09-18T09:50:10.000Z</time>
      </trkpt>
      <trkpt lat="47.2763" lon="-2.32293">
        <ele>10.39999961853</ele>
        <time>2022-09-18T09:50:12.000Z</time>
      </trkpt>
      <trkpt lat="47.27621" lon="-2.32288">
        <ele>10.39999961853</ele>
        <time>2022-09-18T09:50:16.000Z</time>
      </trkpt>
      <trkpt lat="47.27615" lon="-2.32286">
        <ele>10.39999961853</ele>
        <time>2022-09-18T09:50:17.000Z</time>
      </trkpt>
      <trkpt lat="47.27598" lon="-2.32276">
        <ele>10.39999961853</ele>
        <time>2022-09-18T09:50:20.000Z</time>
      </trkpt>
      <trkpt lat="47.27575" lon="-2.32257">
        <ele>9.8000001907349</ele>
        <time>2022-09-18T09:50:24.000Z</time>
      </trkpt>
      <trkpt lat="47.27569" lon="-2.32252">
        <ele>9.3999996185303</ele>
        <time>2022-09-18T09:50:25.000Z</time>
      </trkpt>
      <trkpt lat="47.27563" lon="-2.32246">
        <ele>9</ele>
        <time>2022-09-18T09:50:26.000Z</time>
      </trkpt>
      <trkpt lat="47.27556" lon="-2.32241">
        <ele>8.6000003814697</ele>
        <time>2022-09-18T09:50:27.000Z</time>
      </trkpt>
      <trkpt lat="47.27549" lon="-2.32235">
        <ele>8.1999998092651</ele>
        <time>2022-09-18T09:50:28.000Z</time>
      </trkpt>
      <trkpt lat="47.27536" lon="-2.32223">
        <ele>7.8000001907349</ele>
        <time>2022-09-18T09:50:30.000Z</time>
      </trkpt>
      <trkpt lat="47.2753" lon="-2.32217">
        <ele>7.1999998092651</ele>
        <time>2022-09-18T09:50:31.000Z</time>
      </trkpt>
      <trkpt lat="47.27524" lon="-2.3221">
        <ele>6.4000000953674</ele>
        <time>2022-09-18T09:50:32.000Z</time>
      </trkpt>
      <trkpt lat="47.27518" lon="-2.32203">
        <ele>6</ele>
        <time>2022-09-18T09:50:33.000Z</time>
      </trkpt>
      <trkpt lat="47.27506" lon="-2.32188">
        <ele>5.5999999046326</ele>
        <time>2022-09-18T09:50:35.000Z</time>
      </trkpt>
      <trkpt lat="47.275" lon="-2.32179">
        <ele>5</ele>
        <time>2022-09-18T09:50:36.000Z</time>
      </trkpt>
      <trkpt lat="47.27494" lon="-2.32171">
        <ele>4.5999999046326</ele>
        <time>2022-09-18T09:50:37.000Z</time>
      </trkpt>
      <trkpt lat="47.27487" lon="-2.32162">
        <ele>4</ele>
        <time>2022-09-18T09:50:38.000Z</time>
      </trkpt>
      <trkpt lat="47.27481" lon="-2.32154">
        <ele>3.5999999046326</ele>
        <time>2022-09-18T09:50:39.000Z</time>
      </trkpt>
      <trkpt lat="47.27447" lon="-2.32109">
        <ele>3.5999999046326</ele>
        <time>2022-09-18T09:50:45.000Z</time>
      </trkpt>
      <trkpt lat="47.27423" lon="-2.32078">
        <ele>3.2000000476837</ele>
        <time>2022-09-18T09:50:49.000Z</time>
      </trkpt>
      <trkpt lat="47.27417" lon="-2.32072">
        <ele>2.5999999046326</ele>
        <time>2022-09-18T09:50:50.000Z</time>
      </trkpt>
      <trkpt lat="47.2741" lon="-2.32065">
        <ele>2.2000000476837</ele>
        <time>2022-09-18T09:50:51.000Z</time>
      </trkpt>
      <trkpt lat="47.27404" lon="-2.32058">
        <ele>1.7999999523163</ele>
        <time>2022-09-18T09:50:52.000Z</time>
      </trkpt>
      <trkpt lat="47.27397" lon="-2.32051">
        <ele>1.2000000476837</ele>
        <time>2022-09-18T09:50:53.000Z</time>
      </trkpt>
      <trkpt lat="47.27375" lon="-2.3203">
        <ele>0.40000000596046</ele>
        <time>2022-09-18T09:50:57.000Z</time>
      </trkpt>
      <trkpt lat="47.27372" lon="-2.32027">
        <ele>6.4</ele>
        <time>2022-09-18T09:50:58.000Z</time>
      </trkpt>
      <trkpt lat="47.27369" lon="-2.32024">
        <ele>-0.60000002384186</ele>
        <time>2022-09-18T09:50:59.000Z</time>
      </trkpt>
      <trkpt lat="47.27366" lon="-2.32021">
        <ele>-1</ele>
        <time>2022-09-18T09:51:00.000Z</time>
      </trkpt>
      <trkpt lat="47.27364" lon="-2.32018">
        <ele>-1</ele>
        <time>2022-09-18T09:51:01.000Z</time>
      </trkpt>
      <trkpt lat="47.27359" lon="-2.32016">
        <ele>-1</ele>
        <time>2022-09-18T09:51:03.000Z</time>
      </trkpt>
      <trkpt lat="47.27358" lon="-2.32017">
        <ele>-1.3999999761581</ele>
        <time>2022-09-18T09:51:04.000Z</time>
      </trkpt>
      <trkpt lat="47.27357" lon="-2.3202">
        <ele>-1.7999999523163</ele>
        <time>2022-09-18T09:51:05.000Z</time>
      </trkpt>
      <trkpt lat="47.27357" lon="-2.32023">
        <ele>-2.2000000476837</ele>
        <time>2022-09-18T09:51:06.000Z</time>
      </trkpt>
      <trkpt lat="47.27359" lon="-2.32027">
        <ele>-2.5999999046326</ele>
        <time>2022-09-18T09:51:07.000Z</time>
      </trkpt>
      <trkpt lat="47.27361" lon="-2.3203">
        <ele>-3.2000000476837</ele>
        <time>2022-09-18T09:51:08.000Z</time>
      </trkpt>
      <trkpt lat="47.27363" lon="-2.32033">
        <ele>-3.2000000476837</ele>
        <time>2022-09-18T09:51:09.000Z</time>
      </trkpt>
      <trkpt lat="47.27375" lon="-2.3205">
        <ele>-3.2000000476837</ele>
        <time>2022-09-18T09:51:13.000Z</time>
      </trkpt>
      <trkpt lat="47.2738" lon="-2.32056">
        <ele>-3.2000000476837</ele>
        <time>2022-09-18T09:51:14.000Z</time>
      </trkpt>
      <trkpt lat="47.27388" lon="-2.32065">
        <ele>-3.2000000476837</ele>
        <time>2022-09-18T09:51:16.000Z</time>
      </trkpt>
      <trkpt lat="47.27392" lon="-2.32071">
        <ele>-3.2000000476837</ele>
        <time>2022-09-18T09:51:17.000Z</time>
      </trkpt>
      <trkpt lat="47.27401" lon="-2.32086">
        <ele>-3.2000000476837</ele>
        <time>2022-09-18T09:51:19.000Z</time>
      </trkpt>
      <trkpt lat="47.27406" lon="-2.32102">
        <ele>-3.2000000476837</ele>
        <time>2022-09-18T09:51:21.000Z</time>
      </trkpt>
      <trkpt lat="47.27405" lon="-2.32128">
        <ele>-3.2000000476837</ele>
        <time>2022-09-18T09:51:24.000Z</time>
      </trkpt>
      <trkpt lat="47.27403" lon="-2.32137">
        <ele>-3.2000000476837</ele>
        <time>2022-09-18T09:51:25.000Z</time>
      </trkpt>
      <trkpt lat="47.27396" lon="-2.32188">
        <ele>-3.2000000476837</ele>
        <time>2022-09-18T09:51:30.000Z</time>
      </trkpt>
      <trkpt lat="47.27386" lon="-2.32248">
        <ele>-3.2000000476837</ele>
        <time>2022-09-18T09:51:36.000Z</time>
      </trkpt>
      <trkpt lat="47.27373" lon="-2.32302">
        <ele>-3.2000000476837</ele>
        <time>2022-09-18T09:51:42.000Z</time>
      </trkpt>
      <trkpt lat="47.27363" lon="-2.32355">
        <ele>-3.2000000476837</ele>
        <time>2022-09-18T09:51:49.000Z</time>
      </trkpt>
      <trkpt lat="47.27354" lon="-2.32399">
        <ele>-3.2000000476837</ele>
        <time>2022-09-18T09:51:54.000Z</time>
      </trkpt>
      <trkpt lat="47.27338" lon="-2.32451">
        <ele>-3.2000000476837</ele>
        <time>2022-09-18T09:52:00.000Z</time>
      </trkpt>
      <trkpt lat="47.27326" lon="-2.32474">
        <ele>-3.2000000476837</ele>
        <time>2022-09-18T09:52:03.000Z</time>
      </trkpt>
      <trkpt lat="47.27318" lon="-2.32488">
        <ele>-3.2000000476837</ele>
        <time>2022-09-18T09:52:05.000Z</time>
      </trkpt>
      <trkpt lat="47.27289" lon="-2.32535">
        <ele>-3.2000000476837</ele>
        <time>2022-09-18T09:52:12.000Z</time>
      </trkpt>
      <trkpt lat="47.27255" lon="-2.32576">
        <ele>-3.2000000476837</ele>
        <time>2022-09-18T09:52:19.000Z</time>
      </trkpt>
      <trkpt lat="47.27245" lon="-2.32586">
        <ele>-3.2000000476837</ele>
        <time>2022-09-18T09:52:21.000Z</time>
      </trkpt>
      <trkpt lat="47.27235" lon="-2.32596">
        <ele>-3.2000000476837</ele>
        <time>2022-09-18T09:52:23.000Z</time>
      </trkpt>
      <trkpt lat="47.27225" lon="-2.32606">
        <ele>-3.2000000476837</ele>
        <time>2022-09-18T09:52:25.000Z</time>
      </trkpt>
      <trkpt lat="47.27197" lon="-2.32633">
        <ele>-3.2000000476837</ele>
        <time>2022-09-18T09:52:31.000Z</time>
      </trkpt>
      <trkpt lat="47.2717" lon="-2.32659">
        <ele>-3.2000000476837</ele>
        <time>2022-09-18T09:52:37.000Z</time>
      </trkpt>
      <trkpt lat="47.27141" lon="-2.32686">
        <ele>-3.2000000476837</ele>
        <time>2022-09-18T09:52:44.000Z</time>
      </trkpt>
      <trkpt lat="47.27133" lon="-2.32696">
        <ele>-3.2000000476837</ele>
        <time>2022-09-18T09:52:46.000Z</time>
      </trkpt>
      <trkpt lat="47.27128" lon="-2.32709">
        <ele>-3.2000000476837</ele>
        <time>2022-09-18T09:52:48.000Z</time>
      </trkpt>
      <trkpt lat="47.27121" lon="-2.32715">
        <ele>-3.2000000476837</ele>
        <time>2022-09-18T09:52:50.000Z</time>
      </trkpt>
      <trkpt lat="47.27112" lon="-2.32722">
        <ele>-3.2000000476837</ele>
        <time>2022-09-18T09:52:52.000Z</time>
      </trkpt>
      <trkpt lat="47.27095" lon="-2.32738">
        <ele>-3.2000000476837</ele>
        <time>2022-09-18T09:52:56.000Z</time>
      </trkpt>
      <trkpt lat="47.2705" lon="-2.32778">
        <ele>-3.2000000476837</ele>
        <time>2022-09-18T09:53:05.000Z</time>
      </trkpt>
      <trkpt lat="47.27008" lon="-2.32818">
        <ele>-3.2000000476837</ele>
        <time>2022-09-18T09:53:13.000Z</time>
      </trkpt>
      <trkpt lat="47.2697" lon="-2.32851">
        <ele>-3.2000000476837</ele>
        <time>2022-09-18T09:53:20.000Z</time>
      </trkpt>
      <trkpt lat="47.26934" lon="-2.32884">
        <ele>-3.2000000476837</ele>
        <time>2022-09-18T09:53:27.000Z</time>
      </trkpt>
      <trkpt lat="47.26902" lon="-2.32913">
        <ele>-3.2000000476837</ele>
        <time>2022-09-18T09:53:33.000Z</time>
      </trkpt>
      <trkpt lat="47.26892" lon="-2.32922">
        <ele>-3.2000000476837</ele>
        <time>2022-09-18T09:53:35.000Z</time>
      </trkpt>
      <trkpt lat="47.26882" lon="-2.32931">
        <ele>-3.2000000476837</ele>
        <time>2022-09-18T09:53:37.000Z</time>
      </trkpt>
      <trkpt lat="47.26868" lon="-2.32943">
        <ele>-3.2000000476837</ele>
        <time>2022-09-18T09:53:40.000Z</time>
      </trkpt>
      <trkpt lat="47.2686" lon="-2.32952">
        <ele>-3.2000000476837</ele>
        <time>2022-09-18T09:53:42.000Z</time>
      </trkpt>
      <trkpt lat="47.26848" lon="-2.32964">
        <ele>-3.5999999046326</ele>
        <time>2022-09-18T09:53:45.000Z</time>
      </trkpt>
      <trkpt lat="47.26843" lon="-2.32968">
        <ele>-4</ele>
        <time>2022-09-18T09:53:46.000Z</time>
      </trkpt>
      <trkpt lat="47.26839" lon="-2.32972">
        <ele>-4.4000000953674</ele>
        <time>2022-09-18T09:53:47.000Z</time>
      </trkpt>
      <trkpt lat="47.26835" lon="-2.32977">
        <ele>-4.8000001907349</ele>
        <time>2022-09-18T09:53:48.000Z</time>
      </trkpt>
      <trkpt lat="47.2683" lon="-2.32981">
        <ele>-5.1999998092651</ele>
        <time>2022-09-18T09:53:49.000Z</time>
      </trkpt>
      <trkpt lat="47.26814" lon="-2.32997">
        <ele>-5.1999998092651</ele>
        <time>2022-09-18T09:53:53.000Z</time>
      </trkpt>
      <trkpt lat="47.26806" lon="-2.33005">
        <ele>-5.1999998092651</ele>
        <time>2022-09-18T09:53:55.000Z</time>
      </trkpt>
      <trkpt lat="47.26771" lon="-2.33041">
        <ele>-5.1999998092651</ele>
        <time>2022-09-18T09:54:03.000Z</time>
      </trkpt>
      <trkpt lat="47.26754" lon="-2.33057">
        <ele>-5.1999998092651</ele>
        <time>2022-09-18T09:54:08.000Z</time>
      </trkpt>
      <trkpt lat="47.26752" lon="-2.33059">
        <ele>-5.1999998092651</ele>
        <time>2022-09-18T09:54:10.000Z</time>
      </trkpt>
      <trkpt lat="47.2675" lon="-2.3306">
        <ele>-5.1999998092651</ele>
        <time>2022-09-18T09:54:18.000Z</time>
      </trkpt>
      <trkpt lat="47.26749" lon="-2.33062">
        <ele>-5.1999998092651</ele>
        <time>2022-09-18T09:54:19.000Z</time>
      </trkpt>
      <trkpt lat="47.26745" lon="-2.33064">
        <ele>-5.1999998092651</ele>
        <time>2022-09-18T09:54:21.000Z</time>
      </trkpt>
      <trkpt lat="47.2674" lon="-2.33063">
        <ele>-5.1999998092651</ele>
        <time>2022-09-18T09:54:23.000Z</time>
      </trkpt>
      <trkpt lat="47.26726" lon="-2.33062">
        <ele>-5.5999999046326</ele>
        <time>2022-09-18T09:54:27.000Z</time>
      </trkpt>
      <trkpt lat="47.26723" lon="-2.33066">
        <ele>-6</ele>
        <time>2022-09-18T09:54:28.000Z</time>
      </trkpt>
      <trkpt lat="47.2672" lon="-2.3307">
        <ele>-6.4000000953674</ele>
        <time>2022-09-18T09:54:29.000Z</time>
      </trkpt>
      <trkpt lat="47.26716" lon="-2.33075">
        <ele>-6.8000001907349</ele>
        <time>2022-09-18T09:54:30.000Z</time>
      </trkpt>
      <trkpt lat="47.26712" lon="-2.3308">
        <ele>-7.1999998092651</ele>
        <time>2022-09-18T09:54:31.000Z</time>
      </trkpt>
      <trkpt lat="47.26708" lon="-2.33084">
        <ele>-7.1999998092651</ele>
        <time>2022-09-18T09:54:32.000Z</time>
      </trkpt>
      <trkpt lat="47.26678" lon="-2.33113">
        <ele>-7.1999998092651</ele>
        <time>2022-09-18T09:54:39.000Z</time>
      </trkpt>
      <trkpt lat="47.26671" lon="-2.33119">
        <ele>-7.1999998092651</ele>
        <time>2022-09-18T09:54:41.000Z</time>
      </trkpt>
      <trkpt lat="47.26657" lon="-2.33131">
        <ele>-7.1999998092651</ele>
        <time>2022-09-18T09:54:45.000Z</time>
      </trkpt>
      <trkpt lat="47.26634" lon="-2.33147">
        <ele>-7.1999998092651</ele>
        <time>2022-09-18T09:54:53.000Z</time>
      </trkpt>
      <trkpt lat="47.26619" lon="-2.33149">
        <ele>-7.1999998092651</ele>
        <time>2022-09-18T09:54:58.000Z</time>
      </trkpt>
      <trkpt lat="47.26611" lon="-2.3315">
        <ele>-7.1999998092651</ele>
        <time>2022-09-18T09:55:03.000Z</time>
      </trkpt>
      <trkpt lat="47.26606" lon="-2.3316">
        <ele>-7.1999998092651</ele>
        <time>2022-09-18T09:55:07.000Z</time>
      </trkpt>
      <trkpt lat="47.26605" lon="-2.33163">
        <ele>-7.1999998092651</ele>
        <time>2022-09-18T09:55:08.000Z</time>
      </trkpt>
      <trkpt lat="47.26596" lon="-2.33189">
        <ele>-7.1999998092651</ele>
        <time>2022-09-18T09:55:14.000Z</time>
      </trkpt>
      <trkpt lat="47.26593" lon="-2.33198">
        <ele>-7.1999998092651</ele>
        <time>2022-09-18T09:55:16.000Z</time>
      </trkpt>
      <trkpt lat="47.26586" lon="-2.33203">
        <ele>-7.1999998092651</ele>
        <time>2022-09-18T09:55:18.000Z</time>
      </trkpt>
      <trkpt lat="47.26578" lon="-2.33207">
        <ele>-7.1999998092651</ele>
        <time>2022-09-18T09:55:20.000Z</time>
      </trkpt>
      <trkpt lat="47.26565" lon="-2.33214">
        <ele>-7.1999998092651</ele>
        <time>2022-09-18T09:55:23.000Z</time>
      </trkpt>
      <trkpt lat="47.26557" lon="-2.3322">
        <ele>-7.1999998092651</ele>
        <time>2022-09-18T09:55:25.000Z</time>
      </trkpt>
      <trkpt lat="47.26541" lon="-2.33231">
        <ele>-7.1999998092651</ele>
        <time>2022-09-18T09:55:29.000Z</time>
      </trkpt>
      <trkpt lat="47.26514" lon="-2.33247">
        <ele>-7.1999998092651</ele>
        <time>2022-09-18T09:55:36.000Z</time>
      </trkpt>
      <trkpt lat="47.265" lon="-2.33257">
        <ele>-7.1999998092651</ele>
        <time>2022-09-18T09:55:41.000Z</time>
      </trkpt>
      <trkpt lat="47.26493" lon="-2.33269">
        <ele>-7.1999998092651</ele>
        <time>2022-09-18T09:55:46.000Z</time>
      </trkpt>
      <trkpt lat="47.26492" lon="-2.33276">
        <ele>-7.1999998092651</ele>
        <time>2022-09-18T09:55:49.000Z</time>
      </trkpt>
      <trkpt lat="47.2649" lon="-2.33277">
        <ele>-7.1999998092651</ele>
        <time>2022-09-18T09:55:51.000Z</time>
      </trkpt>
      <trkpt lat="47.26489" lon="-2.33277">
        <ele>-7.1999998092651</ele>
        <time>2022-09-18T09:55:52.000Z</time>
      </trkpt>
      <trkpt lat="47.26486" lon="-2.33282">
        <ele>-7.1999998092651</ele>
        <time>2022-09-18T09:57:10.000Z</time>
      </trkpt>
      <trkpt lat="47.26484" lon="-2.33285">
        <ele>-7.1999998092651</ele>
        <time>2022-09-18T09:57:12.000Z</time>
      </trkpt>
      <trkpt lat="47.26475" lon="-2.33299">
        <ele>-7.1999998092651</ele>
        <time>2022-09-18T09:57:19.000Z</time>
      </trkpt>
      <trkpt lat="47.26464" lon="-2.3331">
        <ele>-7.1999998092651</ele>
        <time>2022-09-18T09:57:24.000Z</time>
      </trkpt>
      <trkpt lat="47.26442" lon="-2.33329">
        <ele>-7.1999998092651</ele>
        <time>2022-09-18T09:57:30.000Z</time>
      </trkpt>
      <trkpt lat="47.26409" lon="-2.33353">
        <ele>-7.1999998092651</ele>
        <time>2022-09-18T09:57:38.000Z</time>
      </trkpt>
      <trkpt lat="47.26372" lon="-2.33376">
        <ele>-7.1999998092651</ele>
        <time>2022-09-18T09:57:47.000Z</time>
      </trkpt>
      <trkpt lat="47.26336" lon="-2.33394">
        <ele>-7.1999998092651</ele>
        <time>2022-09-18T09:57:55.000Z</time>
      </trkpt>
      <trkpt lat="47.26323" lon="-2.33401">
        <ele>-7.1999998092651</ele>
        <time>2022-09-18T09:57:58.000Z</time>
      </trkpt>
      <trkpt lat="47.26311" lon="-2.33412">
        <ele>-7.1999998092651</ele>
        <time>2022-09-18T09:58:01.000Z</time>
      </trkpt>
      <trkpt lat="47.26307" lon="-2.33416">
        <ele>-7.1999998092651</ele>
        <time>2022-09-18T09:58:02.000Z</time>
      </trkpt>
      <trkpt lat="47.26293" lon="-2.3342">
        <ele>-7.1999998092651</ele>
        <time>2022-09-18T09:58:05.000Z</time>
      </trkpt>
      <trkpt lat="47.26259" lon="-2.33427">
        <ele>-7.1999998092651</ele>
        <time>2022-09-18T09:58:12.000Z</time>
      </trkpt>
      <trkpt lat="47.26222" lon="-2.33434">
        <ele>-7.1999998092651</ele>
        <time>2022-09-18T09:58:19.000Z</time>
      </trkpt>
      <trkpt lat="47.26182" lon="-2.33441">
        <ele>-7.1999998092651</ele>
        <time>2022-09-18T09:58:27.000Z</time>
      </trkpt>
      <trkpt lat="47.26172" lon="-2.33441">
        <ele>-7.1999998092651</ele>
        <time>2022-09-18T09:58:29.000Z</time>
      </trkpt>
      <trkpt lat="47.26159" lon="-2.33435">
        <ele>-7.1999998092651</ele>
        <time>2022-09-18T09:58:32.000Z</time>
      </trkpt>
      <trkpt lat="47.26141" lon="-2.3343">
        <ele>-7.1999998092651</ele>
        <time>2022-09-18T09:58:38.000Z</time>
      </trkpt>
      <trkpt lat="47.26139" lon="-2.33435">
        <ele>-7.1999998092651</ele>
        <time>2022-09-18T09:58:42.000Z</time>
      </trkpt>
      <trkpt lat="47.26133" lon="-2.33447">
        <ele>-7.1999998092651</ele>
        <time>2022-09-18T09:58:48.000Z</time>
      </trkpt>
      <trkpt lat="47.26125" lon="-2.33464">
        <ele>-7.1999998092651</ele>
        <time>2022-09-18T09:58:52.000Z</time>
      </trkpt>
      <trkpt lat="47.26114" lon="-2.33493">
        <ele>-7.1999998092651</ele>
        <time>2022-09-18T09:58:57.000Z</time>
      </trkpt>
      <trkpt lat="47.26107" lon="-2.33515">
        <ele>-7.1999998092651</ele>
        <time>2022-09-18T09:59:01.000Z</time>
      </trkpt>
      <trkpt lat="47.261" lon="-2.33532">
        <ele>-7.1999998092651</ele>
        <time>2022-09-18T09:59:04.000Z</time>
      </trkpt>
      <trkpt lat="47.26096" lon="-2.33538">
        <ele>-7.1999998092651</ele>
        <time>2022-09-18T09:59:06.000Z</time>
      </trkpt>
      <trkpt lat="47.26094" lon="-2.3354">
        <ele>-7.1999998092651</ele>
        <time>2022-09-18T09:59:07.000Z</time>
      </trkpt>
      <trkpt lat="47.26085" lon="-2.33535">
        <ele>-7.1999998092651</ele>
        <time>2022-09-18T09:59:11.000Z</time>
      </trkpt>
      <trkpt lat="47.26082" lon="-2.33531">
        <ele>-7.1999998092651</ele>
        <time>2022-09-18T09:59:13.000Z</time>
      </trkpt>
      <trkpt lat="47.26081" lon="-2.33527">
        <ele>-7.1999998092651</ele>
        <time>2022-09-18T09:59:14.000Z</time>
      </trkpt>
      <trkpt lat="47.26081" lon="-2.33522">
        <ele>-7.1999998092651</ele>
        <time>2022-09-18T09:59:15.000Z</time>
      </trkpt>
      <trkpt lat="47.26083" lon="-2.33492">
        <ele>-7.1999998092651</ele>
        <time>2022-09-18T09:59:20.000Z</time>
      </trkpt>
      <trkpt lat="47.26074" lon="-2.33479">
        <ele>-7.1999998092651</ele>
        <time>2022-09-18T09:59:24.000Z</time>
      </trkpt>
      <trkpt lat="47.26063" lon="-2.33482">
        <ele>-7.1999998092651</ele>
        <time>2022-09-18T09:59:27.000Z</time>
      </trkpt>
      <trkpt lat="47.26059" lon="-2.33483">
        <ele>-7.1999998092651</ele>
        <time>2022-09-18T09:59:28.000Z</time>
      </trkpt>
      <trkpt lat="47.26055" lon="-2.33481">
        <ele>-7.1999998092651</ele>
        <time>2022-09-18T09:59:29.000Z</time>
      </trkpt>
      <trkpt lat="47.2605" lon="-2.33476">
        <ele>-7.1999998092651</ele>
        <time>2022-09-18T09:59:31.000Z</time>
      </trkpt>
      <trkpt lat="47.26049" lon="-2.33474">
        <ele>-7.1999998092651</ele>
        <time>2022-09-18T09:59:34.000Z</time>
      </trkpt>
      <trkpt lat="47.26051" lon="-2.33484">
        <ele>-7.1999998092651</ele>
        <time>2022-09-18T09:59:39.000Z</time>
      </trkpt>
      <trkpt lat="47.26046" lon="-2.33485">
        <ele>-7.1999998092651</ele>
        <time>2022-09-18T09:59:42.000Z</time>
      </trkpt>
      <trkpt lat="47.26043" lon="-2.33486">
        <ele>-7.1999998092651</ele>
        <time>2022-09-18T09:59:43.000Z</time>
      </trkpt>
      <trkpt lat="47.26032" lon="-2.33487">
        <ele>-7.1999998092651</ele>
        <time>2022-09-18T09:59:46.000Z</time>
      </trkpt>
      <trkpt lat="47.26009" lon="-2.33492">
        <ele>-7.1999998092651</ele>
        <time>2022-09-18T09:59:51.000Z</time>
      </trkpt>
      <trkpt lat="47.2599" lon="-2.33497">
        <ele>-7.1999998092651</ele>
        <time>2022-09-18T09:59:55.000Z</time>
      </trkpt>
      <trkpt lat="47.25982" lon="-2.33503">
        <ele>-7.1999998092651</ele>
        <time>2022-09-18T09:59:57.000Z</time>
      </trkpt>
      <trkpt lat="47.25967" lon="-2.3351">
        <ele>-7.1999998092651</ele>
        <time>2022-09-18T10:00:01.000Z</time>
      </trkpt>
      <trkpt lat="47.25958" lon="-2.3351">
        <ele>-7.1999998092651</ele>
        <time>2022-09-18T10:00:03.000Z</time>
      </trkpt>
      <trkpt lat="47.25946" lon="-2.33518">
        <ele>-7.1999998092651</ele>
        <time>2022-09-18T10:00:06.000Z</time>
      </trkpt>
      <trkpt lat="47.25942" lon="-2.33522">
        <ele>-7.1999998092651</ele>
        <time>2022-09-18T10:00:07.000Z</time>
      </trkpt>
      <trkpt lat="47.25924" lon="-2.33538">
        <ele>-6.8000001907349</ele>
        <time>2022-09-18T10:00:11.000Z</time>
      </trkpt>
      <trkpt lat="47.2592" lon="-2.33542">
        <ele>-6.4000000953674</ele>
        <time>2022-09-18T10:00:12.000Z</time>
      </trkpt>
      <trkpt lat="47.25915" lon="-2.33545">
        <ele>-6</ele>
        <time>2022-09-18T10:00:13.000Z</time>
      </trkpt>
      <trkpt lat="47.25911" lon="-2.33549">
        <ele>-5.5999999046326</ele>
        <time>2022-09-18T10:00:14.000Z</time>
      </trkpt>
      <trkpt lat="47.25906" lon="-2.33553">
        <ele>-5.1999998092651</ele>
        <time>2022-09-18T10:00:15.000Z</time>
      </trkpt>
      <trkpt lat="47.25898" lon="-2.3356">
        <ele>-5.1999998092651</ele>
        <time>2022-09-18T10:00:17.000Z</time>
      </trkpt>
      <trkpt lat="47.25889" lon="-2.33567">
        <ele>-5.1999998092651</ele>
        <time>2022-09-18T10:00:19.000Z</time>
      </trkpt>
      <trkpt lat="47.25885" lon="-2.3357">
        <ele>-5.1999998092651</ele>
        <time>2022-09-18T10:00:20.000Z</time>
      </trkpt>
      <trkpt lat="47.25875" lon="-2.33577">
        <ele>-5.1999998092651</ele>
        <time>2022-09-18T10:00:22.000Z</time>
      </trkpt>
      <trkpt lat="47.25864" lon="-2.33578">
        <ele>-5.1999998092651</ele>
        <time>2022-09-18T10:00:24.000Z</time>
      </trkpt>
      <trkpt lat="47.25853" lon="-2.33578">
        <ele>-5.1999998092651</ele>
        <time>2022-09-18T10:00:26.000Z</time>
      </trkpt>
      <trkpt lat="47.2583" lon="-2.33579">
        <ele>-4.5999999046326</ele>
        <time>2022-09-18T10:00:30.000Z</time>
      </trkpt>
      <trkpt lat="47.25825" lon="-2.33579">
        <ele>-4.1999998092651</ele>
        <time>2022-09-18T10:00:31.000Z</time>
      </trkpt>
      <trkpt lat="47.25819" lon="-2.33578">
        <ele>-3.7999999523163</ele>
        <time>2022-09-18T10:00:32.000Z</time>
      </trkpt>
      <trkpt lat="47.25814" lon="-2.33577">
        <ele>-3.4000000953674</ele>
        <time>2022-09-18T10:00:33.000Z</time>
      </trkpt>
      <trkpt lat="47.25808" lon="-2.33577">
        <ele>-3</ele>
        <time>2022-09-18T10:00:34.000Z</time>
      </trkpt>
      <trkpt lat="47.25803" lon="-2.33578">
        <ele>-3</ele>
        <time>2022-09-18T10:00:35.000Z</time>
      </trkpt>
      <trkpt lat="47.25786" lon="-2.33583">
        <ele>-3</ele>
        <time>2022-09-18T10:00:38.000Z</time>
      </trkpt>
      <trkpt lat="47.2578" lon="-2.33583">
        <ele>-3</ele>
        <time>2022-09-18T10:00:39.000Z</time>
      </trkpt>
      <trkpt lat="47.25751" lon="-2.33587">
        <ele>-3</ele>
        <time>2022-09-18T10:00:44.000Z</time>
      </trkpt>
      <trkpt lat="47.25745" lon="-2.33589">
        <ele>-3</ele>
        <time>2022-09-18T10:00:45.000Z</time>
      </trkpt>
      <trkpt lat="47.25728" lon="-2.33585">
        <ele>-3</ele>
        <time>2022-09-18T10:00:48.000Z</time>
      </trkpt>
      <trkpt lat="47.25716" lon="-2.33586">
        <ele>-3</ele>
        <time>2022-09-18T10:00:50.000Z</time>
      </trkpt>
      <trkpt lat="47.25698" lon="-2.33586">
        <ele>-3</ele>
        <time>2022-09-18T10:00:53.000Z</time>
      </trkpt>
      <trkpt lat="47.25692" lon="-2.33586">
        <ele>-3</ele>
        <time>2022-09-18T10:00:54.000Z</time>
      </trkpt>
      <trkpt lat="47.25663" lon="-2.33579">
        <ele>-3</ele>
        <time>2022-09-18T10:00:59.000Z</time>
      </trkpt>
      <trkpt lat="47.25623" lon="-2.33558">
        <ele>-3</ele>
        <time>2022-09-18T10:01:06.000Z</time>
      </trkpt>
      <trkpt lat="47.25588" lon="-2.33525">
        <ele>-3</ele>
        <time>2022-09-18T10:01:13.000Z</time>
      </trkpt>
      <trkpt lat="47.25575" lon="-2.33506">
        <ele>-3</ele>
        <time>2022-09-18T10:01:16.000Z</time>
      </trkpt>
      <trkpt lat="47.25564" lon="-2.33486">
        <ele>-3</ele>
        <time>2022-09-18T10:01:19.000Z</time>
      </trkpt>
      <trkpt lat="47.25542" lon="-2.33443">
        <ele>-3</ele>
        <time>2022-09-18T10:01:25.000Z</time>
      </trkpt>
      <trkpt lat="47.25531" lon="-2.33402">
        <ele>-3</ele>
        <time>2022-09-18T10:01:30.000Z</time>
      </trkpt>
      <trkpt lat="47.25523" lon="-2.33349">
        <ele>-3</ele>
        <time>2022-09-18T10:01:36.000Z</time>
      </trkpt>
      <trkpt lat="47.25515" lon="-2.3328">
        <ele>-3</ele>
        <time>2022-09-18T10:01:44.000Z</time>
      </trkpt>
      <trkpt lat="47.25504" lon="-2.33202">
        <ele>-3</ele>
        <time>2022-09-18T10:01:53.000Z</time>
      </trkpt>
      <trkpt lat="47.25494" lon="-2.33124">
        <ele>-3</ele>
        <time>2022-09-18T10:02:02.000Z</time>
      </trkpt>
      <trkpt lat="47.25491" lon="-2.331">
        <ele>-3</ele>
        <time>2022-09-18T10:02:05.000Z</time>
      </trkpt>
      <trkpt lat="47.25483" lon="-2.33093">
        <ele>-3</ele>
        <time>2022-09-18T10:02:07.000Z</time>
      </trkpt>
      <trkpt lat="47.25469" lon="-2.331">
        <ele>-3</ele>
        <time>2022-09-18T10:02:10.000Z</time>
      </trkpt>
      <trkpt lat="47.25454" lon="-2.33107">
        <ele>-3</ele>
        <time>2022-09-18T10:02:13.000Z</time>
      </trkpt>
      <trkpt lat="47.25444" lon="-2.3311">
        <ele>-3</ele>
        <time>2022-09-18T10:02:15.000Z</time>
      </trkpt>
      <trkpt lat="47.2541" lon="-2.33125">
        <ele>-3</ele>
        <time>2022-09-18T10:02:23.000Z</time>
      </trkpt>
      <trkpt lat="47.25397" lon="-2.33132">
        <ele>-3</ele>
        <time>2022-09-18T10:02:26.000Z</time>
      </trkpt>
      <trkpt lat="47.25388" lon="-2.33136">
        <ele>-3</ele>
        <time>2022-09-18T10:02:28.000Z</time>
      </trkpt>
      <trkpt lat="47.25377" lon="-2.33129">
        <ele>-3</ele>
        <time>2022-09-18T10:02:31.000Z</time>
      </trkpt>
      <trkpt lat="47.25372" lon="-2.33115">
        <ele>-3</ele>
        <time>2022-09-18T10:02:34.000Z</time>
      </trkpt>
      <trkpt lat="47.25371" lon="-2.33112">
        <ele>-3</ele>
        <time>2022-09-18T10:02:35.000Z</time>
      </trkpt>
      <trkpt lat="47.2537" lon="-2.33111">
        <ele>-3</ele>
        <time>2022-09-18T10:02:37.000Z</time>
      </trkpt>
      <trkpt lat="47.25368" lon="-2.33107">
        <ele>-1</ele>
        <time>2022-09-18T10:07:59.000Z</time>
      </trkpt>
      <trkpt lat="47.25365" lon="-2.33093">
        <ele>-1</ele>
        <time>2022-09-18T10:08:05.000Z</time>
      </trkpt>
      <trkpt lat="47.25358" lon="-2.33076">
        <ele>-1</ele>
        <time>2022-09-18T10:08:10.000Z</time>
      </trkpt>
      <trkpt lat="47.25352" lon="-2.33059">
        <ele>-1</ele>
        <time>2022-09-18T10:08:17.000Z</time>
      </trkpt>
      <trkpt lat="47.25345" lon="-2.33041">
        <ele>-1</ele>
        <time>2022-09-18T10:08:24.000Z</time>
      </trkpt>
      <trkpt lat="47.25337" lon="-2.3302">
        <ele>-1</ele>
        <time>2022-09-18T10:08:31.000Z</time>
      </trkpt>
      <trkpt lat="47.25327" lon="-2.32996">
        <ele>-1</ele>
        <time>2022-09-18T10:08:39.000Z</time>
      </trkpt>
      <trkpt lat="47.25315" lon="-2.32969">
        <ele>-1</ele>
        <time>2022-09-18T10:08:47.000Z</time>
      </trkpt>
      <trkpt lat="47.25305" lon="-2.32938">
        <ele>-1</ele>
        <time>2022-09-18T10:08:55.000Z</time>
      </trkpt>
      <trkpt lat="47.25304" lon="-2.32927">
        <ele>-1</ele>
        <time>2022-09-18T10:08:58.000Z</time>
      </trkpt>
      <trkpt lat="47.25308" lon="-2.3292">
        <ele>-1</ele>
        <time>2022-09-18T10:09:00.000Z</time>
      </trkpt>
      <trkpt lat="47.2532" lon="-2.32907">
        <ele>-1</ele>
        <time>2022-09-18T10:09:04.000Z</time>
      </trkpt>
      <trkpt lat="47.25323" lon="-2.32905">
        <ele>-1</ele>
        <time>2022-09-18T10:09:05.000Z</time>
      </trkpt>
      <trkpt lat="47.25348" lon="-2.32883">
        <ele>-1</ele>
        <time>2022-09-18T10:09:13.000Z</time>
      </trkpt>
      <trkpt lat="47.25373" lon="-2.32856">
        <ele>-1</ele>
        <time>2022-09-18T10:09:21.000Z</time>
      </trkpt>
      <trkpt lat="47.254" lon="-2.32826">
        <ele>-1</ele>
        <time>2022-09-18T10:09:29.000Z</time>
      </trkpt>
      <trkpt lat="47.25407" lon="-2.32814">
        <ele>-0.60000002384186</ele>
        <time>2022-09-18T10:09:32.000Z</time>
      </trkpt>
      <trkpt lat="47.2541" lon="-2.3281">
        <ele>-0.20000000298023</ele>
        <time>2022-09-18T10:09:33.000Z</time>
      </trkpt>
      <trkpt lat="47.25413" lon="-2.32805">
        <ele>0.20000000298023</ele>
        <time>2022-09-18T10:09:34.000Z</time>
      </trkpt>
      <trkpt lat="47.25415" lon="-2.32801">
        <ele>0.60000002384186</ele>
        <time>2022-09-18T10:09:35.000Z</time>
      </trkpt>
      <trkpt lat="47.25418" lon="-2.32797">
        <ele>1</ele>
        <time>2022-09-18T10:09:36.000Z</time>
      </trkpt>
      <trkpt lat="47.25429" lon="-2.32773">
        <ele>1</ele>
        <time>2022-09-18T10:09:41.000Z</time>
      </trkpt>
      <trkpt lat="47.25443" lon="-2.32751">
        <ele>1</ele>
        <time>2022-09-18T10:09:46.000Z</time>
      </trkpt>
      <trkpt lat="47.25464" lon="-2.32723">
        <ele>1</ele>
        <time>2022-09-18T10:09:53.000Z</time>
      </trkpt>
      <trkpt lat="47.25482" lon="-2.32696">
        <ele>1.3999999761581</ele>
        <time>2022-09-18T10:09:59.000Z</time>
      </trkpt>
      <trkpt lat="47.25484" lon="-2.32691">
        <ele>2</ele>
        <time>2022-09-18T10:10:00.000Z</time>
      </trkpt>
      <trkpt lat="47.25485" lon="-2.32685">
        <ele>2.4000000953674</ele>
        <time>2022-09-18T10:10:01.000Z</time>
      </trkpt>
      <trkpt lat="47.25486" lon="-2.32678">
        <ele>2.7999999523163</ele>
        <time>2022-09-18T10:10:02.000Z</time>
      </trkpt>
      <trkpt lat="47.25487" lon="-2.32672">
        <ele>3.2000000476837</ele>
        <time>2022-09-18T10:10:03.000Z</time>
      </trkpt>
      <trkpt lat="47.25487" lon="-2.32666">
        <ele>3.2000000476837</ele>
        <time>2022-09-18T10:10:04.000Z</time>
      </trkpt>
      <trkpt lat="47.25486" lon="-2.3266">
        <ele>3.2000000476837</ele>
        <time>2022-09-18T10:10:05.000Z</time>
      </trkpt>
      <trkpt lat="47.25483" lon="-2.32642">
        <ele>3.2000000476837</ele>
        <time>2022-09-18T10:10:08.000Z</time>
      </trkpt>
      <trkpt lat="47.2548" lon="-2.32623">
        <ele>3.2000000476837</ele>
        <time>2022-09-18T10:10:11.000Z</time>
      </trkpt>
      <trkpt lat="47.25472" lon="-2.32573">
        <ele>3.2000000476837</ele>
        <time>2022-09-18T10:10:20.000Z</time>
      </trkpt>
      <trkpt lat="47.25474" lon="-2.32564">
        <ele>3.2000000476837</ele>
        <time>2022-09-18T10:10:22.000Z</time>
      </trkpt>
      <trkpt lat="47.25477" lon="-2.32561">
        <ele>3.2000000476837</ele>
        <time>2022-09-18T10:10:23.000Z</time>
      </trkpt>
      <trkpt lat="47.25488" lon="-2.32551">
        <ele>3.2000000476837</ele>
        <time>2022-09-18T10:10:26.000Z</time>
      </trkpt>
      <trkpt lat="47.25496" lon="-2.32544">
        <ele>3.2000000476837</ele>
        <time>2022-09-18T10:10:28.000Z</time>
      </trkpt>
      <trkpt lat="47.25534" lon="-2.32508">
        <ele>3.2000000476837</ele>
        <time>2022-09-18T10:10:37.000Z</time>
      </trkpt>
      <trkpt lat="47.25559" lon="-2.32484">
        <ele>2.7999999523163</ele>
        <time>2022-09-18T10:10:42.000Z</time>
      </trkpt>
      <trkpt lat="47.25565" lon="-2.32479">
        <ele>2.2000000476837</ele>
        <time>2022-09-18T10:10:43.000Z</time>
      </trkpt>
      <trkpt lat="47.2557" lon="-2.32474">
        <ele>1.3999999761581</ele>
        <time>2022-09-18T10:10:44.000Z</time>
      </trkpt>
      <trkpt lat="47.25576" lon="-2.32468">
        <ele>1</ele>
        <time>2022-09-18T10:10:45.000Z</time>
      </trkpt>
      <trkpt lat="47.25598" lon="-2.32445">
        <ele>0.60000002384186</ele>
        <time>2022-09-18T10:10:49.000Z</time>
      </trkpt>
      <trkpt lat="47.25604" lon="-2.32439">
        <ele>0.20000000298023</ele>
        <time>2022-09-18T10:10:50.000Z</time>
      </trkpt>
      <trkpt lat="47.25609" lon="-2.32433">
        <ele>-0.40000000596046</ele>
        <time>2022-09-18T10:10:51.000Z</time>
      </trkpt>
      <trkpt lat="47.25615" lon="-2.32427">
        <ele>-0.80000001192093</ele>
        <time>2022-09-18T10:10:52.000Z</time>
      </trkpt>
      <trkpt lat="47.2562" lon="-2.3242">
        <ele>-1.2000000476837</ele>
        <time>2022-09-18T10:10:53.000Z</time>
      </trkpt>
      <trkpt lat="47.25637" lon="-2.32404">
        <ele>-1.2000000476837</ele>
        <time>2022-09-18T10:10:56.000Z</time>
      </trkpt>
      <trkpt lat="47.25643" lon="-2.32404">
        <ele>-1.6000000238419</ele>
        <time>2022-09-18T10:10:57.000Z</time>
      </trkpt>
      <trkpt lat="47.25648" lon="-2.32403">
        <ele>-2</ele>
        <time>2022-09-18T10:10:58.000Z</time>
      </trkpt>
      <trkpt lat="47.25653" lon="-2.32403">
        <ele>-2.4000000953674</ele>
        <time>2022-09-18T10:10:59.000Z</time>
      </trkpt>
      <trkpt lat="47.25657" lon="-2.32402">
        <ele>-2.7999999523163</ele>
        <time>2022-09-18T10:11:00.000Z</time>
      </trkpt>
      <trkpt lat="47.25661" lon="-2.32403">
        <ele>-3.2000000476837</ele>
        <time>2022-09-18T10:11:01.000Z</time>
      </trkpt>
      <trkpt lat="47.25673" lon="-2.32417">
        <ele>-3.2000000476837</ele>
        <time>2022-09-18T10:11:04.000Z</time>
      </trkpt>
      <trkpt lat="47.25689" lon="-2.32421">
        <ele>-3.2000000476837</ele>
        <time>2022-09-18T10:11:07.000Z</time>
      </trkpt>
      <trkpt lat="47.25694" lon="-2.32422">
        <ele>-3.2000000476837</ele>
        <time>2022-09-18T10:11:08.000Z</time>
      </trkpt>
      <trkpt lat="47.2571" lon="-2.32422">
        <ele>-3.2000000476837</ele>
        <time>2022-09-18T10:11:11.000Z</time>
      </trkpt>
      <trkpt lat="47.25726" lon="-2.32422">
        <ele>-3.2000000476837</ele>
        <time>2022-09-18T10:11:14.000Z</time>
      </trkpt>
      <trkpt lat="47.25752" lon="-2.32423">
        <ele>-3.2000000476837</ele>
        <time>2022-09-18T10:11:20.000Z</time>
      </trkpt>
      <trkpt lat="47.25761" lon="-2.3242">
        <ele>-3.2000000476837</ele>
        <time>2022-09-18T10:11:24.000Z</time>
      </trkpt>
      <trkpt lat="47.25776" lon="-2.32415">
        <ele>-3.2000000476837</ele>
        <time>2022-09-18T10:11:30.000Z</time>
      </trkpt>
      <trkpt lat="47.25786" lon="-2.32424">
        <ele>-3.2000000476837</ele>
        <time>2022-09-18T10:11:33.000Z</time>
      </trkpt>
      <trkpt lat="47.25788" lon="-2.32429">
        <ele>-3.2000000476837</ele>
        <time>2022-09-18T10:11:34.000Z</time>
      </trkpt>
      <trkpt lat="47.25805" lon="-2.32452">
        <ele>-3.2000000476837</ele>
        <time>2022-09-18T10:11:39.000Z</time>
      </trkpt>
      <trkpt lat="47.25809" lon="-2.32455">
        <ele>-3.2000000476837</ele>
        <time>2022-09-18T10:11:40.000Z</time>
      </trkpt>
      <trkpt lat="47.25837" lon="-2.32471">
        <ele>-3.2000000476837</ele>
        <time>2022-09-18T10:11:46.000Z</time>
      </trkpt>
      <trkpt lat="47.25842" lon="-2.32473">
        <ele>-3.2000000476837</ele>
        <time>2022-09-18T10:11:47.000Z</time>
      </trkpt>
      <trkpt lat="47.25861" lon="-2.32474">
        <ele>-3.2000000476837</ele>
        <time>2022-09-18T10:11:51.000Z</time>
      </trkpt>
      <trkpt lat="47.25866" lon="-2.32473">
        <ele>-3.2000000476837</ele>
        <time>2022-09-18T10:11:52.000Z</time>
      </trkpt>
      <trkpt lat="47.25884" lon="-2.32469">
        <ele>-3.2000000476837</ele>
        <time>2022-09-18T10:11:56.000Z</time>
      </trkpt>
      <trkpt lat="47.25888" lon="-2.32466">
        <ele>-3.2000000476837</ele>
        <time>2022-09-18T10:11:57.000Z</time>
      </trkpt>
      <trkpt lat="47.259" lon="-2.32454">
        <ele>-3.2000000476837</ele>
        <time>2022-09-18T10:12:00.000Z</time>
      </trkpt>
      <trkpt lat="47.25904" lon="-2.3245">
        <ele>-3.2000000476837</ele>
        <time>2022-09-18T10:12:01.000Z</time>
      </trkpt>
      <trkpt lat="47.25922" lon="-2.32426">
        <ele>-3.5999999046326</ele>
        <time>2022-09-18T10:12:06.000Z</time>
      </trkpt>
      <trkpt lat="47.25923" lon="-2.32423">
        <ele>-4</ele>
        <time>2022-09-18T10:12:07.000Z</time>
      </trkpt>
      <trkpt lat="47.25924" lon="-2.32422">
        <ele>-4.4000000953674</ele>
        <time>2022-09-18T10:12:08.000Z</time>
      </trkpt>
      <trkpt lat="47.25926" lon="-2.32423">
        <ele>-4.8000001907349</ele>
        <time>2022-09-18T10:12:09.000Z</time>
      </trkpt>
      <trkpt lat="47.25927" lon="-2.32424">
        <ele>-5.1999998092651</ele>
        <time>2022-09-18T10:12:10.000Z</time>
      </trkpt>
      <trkpt lat="47.25925" lon="-2.32427">
        <ele>-5.1999998092651</ele>
        <time>2022-09-18T10:12:12.000Z</time>
      </trkpt>
      <trkpt lat="47.25923" lon="-2.32429">
        <ele>-5.1999998092651</ele>
        <time>2022-09-18T10:12:14.000Z</time>
      </trkpt>
      <trkpt lat="47.25917" lon="-2.32432">
        <ele>-5.1999998092651</ele>
        <time>2022-09-18T10:12:18.000Z</time>
      </trkpt>
      <trkpt lat="47.25915" lon="-2.32432">
        <ele>-5.1999998092651</ele>
        <time>2022-09-18T10:12:22.000Z</time>
      </trkpt>
      <trkpt lat="47.25914" lon="-2.32438">
        <ele>-5.1999998092651</ele>
        <time>2022-09-18T10:12:28.000Z</time>
      </trkpt>
      <trkpt lat="47.25916" lon="-2.32439">
        <ele>-5.1999998092651</ele>
        <time>2022-09-18T10:12:31.000Z</time>
      </trkpt>
      <trkpt lat="47.25919" lon="-2.32435">
        <ele>-5.1999998092651</ele>
        <time>2022-09-18T10:12:33.000Z</time>
      </trkpt>
      <trkpt lat="47.25922" lon="-2.3243">
        <ele>-5.1999998092651</ele>
        <time>2022-09-18T10:12:35.000Z</time>
      </trkpt>
      <trkpt lat="47.25937" lon="-2.3241">
        <ele>-5.1999998092651</ele>
        <time>2022-09-18T10:12:41.000Z</time>
      </trkpt>
      <trkpt lat="47.25953" lon="-2.32386">
        <ele>-5.1999998092651</ele>
        <time>2022-09-18T10:12:47.000Z</time>
      </trkpt>
      <trkpt lat="47.25976" lon="-2.32358">
        <ele>-5.1999998092651</ele>
        <time>2022-09-18T10:12:54.000Z</time>
      </trkpt>
      <trkpt lat="47.25997" lon="-2.32332">
        <ele>-5.1999998092651</ele>
        <time>2022-09-18T10:13:00.000Z</time>
      </trkpt>
      <trkpt lat="47.26019" lon="-2.32303">
        <ele>-5.1999998092651</ele>
        <time>2022-09-18T10:13:07.000Z</time>
      </trkpt>
      <trkpt lat="47.26044" lon="-2.32275">
        <ele>-5.1999998092651</ele>
        <time>2022-09-18T10:13:14.000Z</time>
      </trkpt>
      <trkpt lat="47.26062" lon="-2.32255">
        <ele>-5.1999998092651</ele>
        <time>2022-09-18T10:13:19.000Z</time>
      </trkpt>
      <trkpt lat="47.26068" lon="-2.32247">
        <ele>-5.1999998092651</ele>
        <time>2022-09-18T10:13:21.000Z</time>
      </trkpt>
      <trkpt lat="47.2609" lon="-2.32217">
        <ele>-5.1999998092651</ele>
        <time>2022-09-18T10:13:28.000Z</time>
      </trkpt>
      <trkpt lat="47.26096" lon="-2.32207">
        <ele>-5.1999998092651</ele>
        <time>2022-09-18T10:13:30.000Z</time>
      </trkpt>
      <trkpt lat="47.26106" lon="-2.32185">
        <ele>-5.1999998092651</ele>
        <time>2022-09-18T10:13:34.000Z</time>
      </trkpt>
      <trkpt lat="47.26116" lon="-2.32157">
        <ele>-5.1999998092651</ele>
        <time>2022-09-18T10:13:39.000Z</time>
      </trkpt>
      <trkpt lat="47.26127" lon="-2.32125">
        <ele>-5.1999998092651</ele>
        <time>2022-09-18T10:13:44.000Z</time>
      </trkpt>
      <trkpt lat="47.2614" lon="-2.32074">
        <ele>-5.1999998092651</ele>
        <time>2022-09-18T10:13:52.000Z</time>
      </trkpt>
      <trkpt lat="47.26155" lon="-2.32032">
        <ele>-5.1999998092651</ele>
        <time>2022-09-18T10:13:59.000Z</time>
      </trkpt>
      <trkpt lat="47.26163" lon="-2.3202">
        <ele>-5.1999998092651</ele>
        <time>2022-09-18T10:14:02.000Z</time>
      </trkpt>
      <trkpt lat="47.26168" lon="-2.3202">
        <ele>-5.1999998092651</ele>
        <time>2022-09-18T10:14:03.000Z</time>
      </trkpt>
      <trkpt lat="47.2618" lon="-2.32022">
        <ele>-5.1999998092651</ele>
        <time>2022-09-18T10:14:08.000Z</time>
      </trkpt>
      <trkpt lat="47.26184" lon="-2.32023">
        <ele>-5.1999998092651</ele>
        <time>2022-09-18T10:14:17.000Z</time>
      </trkpt>
      <trkpt lat="47.26186" lon="-2.32018">
        <ele>-5.1999998092651</ele>
        <time>2022-09-18T10:14:19.000Z</time>
      </trkpt>
      <trkpt lat="47.26188" lon="-2.32006">
        <ele>-5.1999998092651</ele>
        <time>2022-09-18T10:14:22.000Z</time>
      </trkpt>
      <trkpt lat="47.26192" lon="-2.32003">
        <ele>-5.1999998092651</ele>
        <time>2022-09-18T10:14:26.000Z</time>
      </trkpt>
      <trkpt lat="47.26196" lon="-2.32001">
        <ele>-5.1999998092651</ele>
        <time>2022-09-18T10:14:29.000Z</time>
      </trkpt>
      <trkpt lat="47.262" lon="-2.31996">
        <ele>-5.1999998092651</ele>
        <time>2022-09-18T10:14:31.000Z</time>
      </trkpt>
      <trkpt lat="47.26211" lon="-2.31982">
        <ele>-5.1999998092651</ele>
        <time>2022-09-18T10:14:35.000Z</time>
      </trkpt>
      <trkpt lat="47.26229" lon="-2.31969">
        <ele>-5.1999998092651</ele>
        <time>2022-09-18T10:14:39.000Z</time>
      </trkpt>
      <trkpt lat="47.26243" lon="-2.3195">
        <ele>-5.1999998092651</ele>
        <time>2022-09-18T10:14:43.000Z</time>
      </trkpt>
      <trkpt lat="47.26249" lon="-2.3194">
        <ele>-5.1999998092651</ele>
        <time>2022-09-18T10:14:45.000Z</time>
      </trkpt>
      <trkpt lat="47.26257" lon="-2.31928">
        <ele>-5.1999998092651</ele>
        <time>2022-09-18T10:14:48.000Z</time>
      </trkpt>
      <trkpt lat="47.26277" lon="-2.31905">
        <ele>-5.1999998092651</ele>
        <time>2022-09-18T10:14:54.000Z</time>
      </trkpt>
      <trkpt lat="47.26294" lon="-2.31887">
        <ele>-5.1999998092651</ele>
        <time>2022-09-18T10:14:59.000Z</time>
      </trkpt>
      <trkpt lat="47.26295" lon="-2.3188">
        <ele>-5.1999998092651</ele>
        <time>2022-09-18T10:15:00.000Z</time>
      </trkpt>
      <trkpt lat="47.26297" lon="-2.31855">
        <ele>-5.1999998092651</ele>
        <time>2022-09-18T10:15:04.000Z</time>
      </trkpt>
      <trkpt lat="47.263" lon="-2.31835">
        <ele>-5.1999998092651</ele>
        <time>2022-09-18T10:15:07.000Z</time>
      </trkpt>
      <trkpt lat="47.26301" lon="-2.31819">
        <ele>-5.1999998092651</ele>
        <time>2022-09-18T10:15:10.000Z</time>
      </trkpt>
      <trkpt lat="47.26301" lon="-2.31784">
        <ele>-5.1999998092651</ele>
        <time>2022-09-18T10:15:16.000Z</time>
      </trkpt>
      <trkpt lat="47.26299" lon="-2.31751">
        <ele>-5.1999998092651</ele>
        <time>2022-09-18T10:15:21.000Z</time>
      </trkpt>
      <trkpt lat="47.26299" lon="-2.31744">
        <ele>-5.1999998092651</ele>
        <time>2022-09-18T10:15:22.000Z</time>
      </trkpt>
      <trkpt lat="47.26299" lon="-2.31721">
        <ele>-5.1999998092651</ele>
        <time>2022-09-18T10:15:26.000Z</time>
      </trkpt>
      <trkpt lat="47.26302" lon="-2.31718">
        <ele>-5.1999998092651</ele>
        <time>2022-09-18T10:15:27.000Z</time>
      </trkpt>
      <trkpt lat="47.26314" lon="-2.31712">
        <ele>-5.1999998092651</ele>
        <time>2022-09-18T10:15:30.000Z</time>
      </trkpt>
      <trkpt lat="47.26318" lon="-2.3171">
        <ele>-4.8000001907349</ele>
        <time>2022-09-18T10:15:31.000Z</time>
      </trkpt>
      <trkpt lat="47.26321" lon="-2.31708">
        <ele>-4.4000000953674</ele>
        <time>2022-09-18T10:15:32.000Z</time>
      </trkpt>
      <trkpt lat="47.26325" lon="-2.31706">
        <ele>-4</ele>
        <time>2022-09-18T10:15:33.000Z</time>
      </trkpt>
      <trkpt lat="47.26329" lon="-2.31704">
        <ele>-3.5999999046326</ele>
        <time>2022-09-18T10:15:34.000Z</time>
      </trkpt>
      <trkpt lat="47.2633" lon="-2.31699">
        <ele>-3.2000000476837</ele>
        <time>2022-09-18T10:15:35.000Z</time>
      </trkpt>
      <trkpt lat="47.26337" lon="-2.31688">
        <ele>-3.2000000476837</ele>
        <time>2022-09-18T10:15:38.000Z</time>
      </trkpt>
      <trkpt lat="47.26343" lon="-2.31686">
        <ele>-3.2000000476837</ele>
        <time>2022-09-18T10:15:40.000Z</time>
      </trkpt>
      <trkpt lat="47.26346" lon="-2.31685">
        <ele>-2.4000000953674</ele>
        <time>2022-09-18T10:15:41.000Z</time>
      </trkpt>
      <trkpt lat="47.26349" lon="-2.31683">
        <ele>-2</ele>
        <time>2022-09-18T10:15:42.000Z</time>
      </trkpt>
      <trkpt lat="47.26353" lon="-2.31682">
        <ele>-1.6000000238419</ele>
        <time>2022-09-18T10:15:43.000Z</time>
      </trkpt>
      <trkpt lat="47.26356" lon="-2.3168">
        <ele>-1.2000000476837</ele>
        <time>2022-09-18T10:15:44.000Z</time>
      </trkpt>
      <trkpt lat="47.26374" lon="-2.31672">
        <ele>-1.2000000476837</ele>
        <time>2022-09-18T10:15:50.000Z</time>
      </trkpt>
      <trkpt lat="47.2639" lon="-2.31663">
        <ele>-1.2000000476837</ele>
        <time>2022-09-18T10:15:56.000Z</time>
      </trkpt>
      <trkpt lat="47.26403" lon="-2.31656">
        <ele>-1.2000000476837</ele>
        <time>2022-09-18T10:16:01.000Z</time>
      </trkpt>
      <trkpt lat="47.26407" lon="-2.31649">
        <ele>-1.2000000476837</ele>
        <time>2022-09-18T10:16:03.000Z</time>
      </trkpt>
      <trkpt lat="47.26408" lon="-2.31641">
        <ele>-1.2000000476837</ele>
        <time>2022-09-18T10:16:05.000Z</time>
      </trkpt>
      <trkpt lat="47.26408" lon="-2.31637">
        <ele>-0.40000000596046</ele>
        <time>2022-09-18T10:16:06.000Z</time>
      </trkpt>
      <trkpt lat="47.26408" lon="-2.31633">
        <ele>9.2</ele>
        <time>2022-09-18T10:16:07.000Z</time>
      </trkpt>
      <trkpt lat="47.26408" lon="-2.31629">
        <ele>0.40000000596046</ele>
        <time>2022-09-18T10:16:08.000Z</time>
      </trkpt>
      <trkpt lat="47.26408" lon="-2.31623">
        <ele>1</ele>
        <time>2022-09-18T10:16:09.000Z</time>
      </trkpt>
      <trkpt lat="47.26409" lon="-2.31603">
        <ele>1</ele>
        <time>2022-09-18T10:16:13.000Z</time>
      </trkpt>
      <trkpt lat="47.26409" lon="-2.3158">
        <ele>1</ele>
        <time>2022-09-18T10:16:18.000Z</time>
      </trkpt>
      <trkpt lat="47.2641" lon="-2.31553">
        <ele>1</ele>
        <time>2022-09-18T10:16:25.000Z</time>
      </trkpt>
      <trkpt lat="47.26415" lon="-2.31554">
        <ele>1</ele>
        <time>2022-09-18T10:16:28.000Z</time>
      </trkpt>
      <trkpt lat="47.26416" lon="-2.31553">
        <ele>1</ele>
        <time>2022-09-18T10:16:31.000Z</time>
      </trkpt>
    </trkseg>
  </trk>
</gpx>